<?xml version='1.0' encoding='UTF-8'?><gpx version="1.1" creator="JPX - https://github.com/jenetics/jpx" xmlns="http://www.topografix.com/GPX/1/1"><trk><trkseg><trkpt lat="45.5617001" lon="10.56299"><ele>79.00000000000001</ele><time>2026-04-25T14:01:58.732Z</time></trkpt><trkpt lat="45.5617784" lon="10.563015"><ele>79.0</ele><time>2026-04-25T14:02:03.733Z</time></trkpt><trkpt lat="45.5617186" lon="10.5629793"><ele>79.0</ele><time>2026-04-25T14:02:15.732Z</time></trkpt><trkpt lat="45.561659" lon="10.5629366"><ele>79.0</ele><time>2026-04-25T14:02:18.732Z</time></trkpt><trkpt lat="45.5616137" lon="10.5628539"><ele>79.0</ele><time>2026-04-25T14:02:21.733Z</time></trkpt><trkpt lat="45.561577" lon="10.5627464"><ele>79.00000000000001</ele><time>2026-04-25T14:02:25.732Z</time></trkpt><trkpt lat="45.5615246" lon="10.5626717"><ele>79.0</ele><time>2026-04-25T14:02:29.733Z</time></trkpt><trkpt lat="45.5615596" lon="10.562771"><ele>79.0</ele><time>2026-04-25T14:03:31.73Z</time></trkpt><trkpt lat="45.561618" lon="10.562845"><ele>79.0</ele><time>2026-04-25T14:03:35.73Z</time></trkpt><trkpt lat="45.5616649" lon="10.5629204"><ele>79.0</ele><time>2026-04-25T14:03:38.731Z</time></trkpt><trkpt lat="45.5617144" lon="10.5630112"><ele>79.0</ele><time>2026-04-25T14:03:41.73Z</time></trkpt><trkpt lat="45.561789" lon="10.5630507"><ele>79.0</ele><time>2026-04-25T14:03:43.732Z</time></trkpt><trkpt lat="45.5618417" lon="10.5631224"><ele>79.0</ele><time>2026-04-25T14:03:45.732Z</time></trkpt><trkpt lat="45.5617977" lon="10.5632104"><ele>79.00000000000001</ele><time>2026-04-25T14:03:48.73Z</time></trkpt><trkpt lat="45.5617259" lon="10.563203"><ele>79.0</ele><time>2026-04-25T14:03:51.732Z</time></trkpt><trkpt lat="45.561654" lon="10.5631606"><ele>79.0</ele><time>2026-04-25T14:03:55.731Z</time></trkpt><trkpt lat="45.5616002" lon="10.5631025"><ele>79.0</ele><time>2026-04-25T14:03:59.73Z</time></trkpt><trkpt lat="45.5615587" lon="10.5630237"><ele>79.0</ele><time>2026-04-25T14:04:04.731Z</time></trkpt><trkpt lat="45.5615227" lon="10.5629499"><ele>79.00000000000001</ele><time>2026-04-25T14:04:22.732Z</time></trkpt><trkpt lat="45.5614647" lon="10.5628725"><ele>79.0</ele><time>2026-04-25T14:05:03.731Z</time></trkpt><trkpt lat="45.5614273" lon="10.5627939"><ele>79.0</ele><time>2026-04-25T14:05:05.732Z</time></trkpt><trkpt lat="45.5613874" lon="10.5627025"><ele>79.0</ele><time>2026-04-25T14:05:07.731Z</time></trkpt><trkpt lat="45.5613241" lon="10.5625894"><ele>79.0</ele><time>2026-04-25T14:05:10.731Z</time></trkpt><trkpt lat="45.5612569" lon="10.5624669"><ele>79.0</ele><time>2026-04-25T14:05:12.732Z</time></trkpt><trkpt lat="45.5611987" lon="10.5623595"><ele>79.0</ele><time>2026-04-25T14:05:14.732Z</time></trkpt><trkpt lat="45.5611335" lon="10.5622503"><ele>79.0</ele><time>2026-04-25T14:05:16.731Z</time></trkpt><trkpt lat="45.5610526" lon="10.5621451"><ele>79.0</ele><time>2026-04-25T14:05:18.731Z</time></trkpt><trkpt lat="45.560969" lon="10.5620185"><ele>79.0</ele><time>2026-04-25T14:05:20.731Z</time></trkpt><trkpt lat="45.5609549" lon="10.5618285"><ele>79.0</ele><time>2026-04-25T14:05:22.73Z</time></trkpt><trkpt lat="45.5609398" lon="10.5617386"><ele>79.0</ele><time>2026-04-25T14:05:23.73Z</time></trkpt><trkpt lat="45.5608936" lon="10.5615772"><ele>78.4</ele><time>2026-04-25T14:05:25.732Z</time></trkpt><trkpt lat="45.5608622" lon="10.5614155"><ele>77.80000000000001</ele><time>2026-04-25T14:05:27.731Z</time></trkpt><trkpt lat="45.560808" lon="10.5612501"><ele>77.19999999999999</ele><time>2026-04-25T14:05:29.732Z</time></trkpt><trkpt lat="45.560776" lon="10.5611654"><ele>76.6</ele><time>2026-04-25T14:05:30.732Z</time></trkpt><trkpt lat="45.560725" lon="10.5610841"><ele>76.0</ele><time>2026-04-25T14:05:31.732Z</time></trkpt><trkpt lat="45.5606825" lon="10.5610039"><ele>75.0</ele><time>2026-04-25T14:05:32.732Z</time></trkpt><trkpt lat="45.5606387" lon="10.5609161"><ele>74.0</ele><time>2026-04-25T14:05:33.732Z</time></trkpt><trkpt lat="45.5605963" lon="10.5608436"><ele>73.0</ele><time>2026-04-25T14:05:34.732Z</time></trkpt><trkpt lat="45.5605175" lon="10.5607045"><ele>72.0</ele><time>2026-04-25T14:05:36.732Z</time></trkpt><trkpt lat="45.5604873" lon="10.5606162"><ele>71.0</ele><time>2026-04-25T14:05:37.732Z</time></trkpt><trkpt lat="45.5604506" lon="10.5605247"><ele>70.0</ele><time>2026-04-25T14:05:38.732Z</time></trkpt><trkpt lat="45.560407" lon="10.5604341"><ele>69.66666666666666</ele><time>2026-04-25T14:05:39.732Z</time></trkpt><trkpt lat="45.5603583" lon="10.5603453"><ele>69.33333333333333</ele><time>2026-04-25T14:05:40.732Z</time></trkpt><trkpt lat="45.5603171" lon="10.5602469"><ele>69.0</ele><time>2026-04-25T14:05:41.732Z</time></trkpt><trkpt lat="45.5602822" lon="10.5601454"><ele>68.66666666666667</ele><time>2026-04-25T14:05:42.731Z</time></trkpt><trkpt lat="45.5602557" lon="10.5600337"><ele>68.33333333333334</ele><time>2026-04-25T14:05:43.732Z</time></trkpt><trkpt lat="45.5602445" lon="10.5599129"><ele>68.0</ele><time>2026-04-25T14:05:44.732Z</time></trkpt><trkpt lat="45.5602336" lon="10.5598068"><ele>68.0</ele><time>2026-04-25T14:05:45.731Z</time></trkpt><trkpt lat="45.5602142" lon="10.5596994"><ele>68.0</ele><time>2026-04-25T14:05:46.732Z</time></trkpt><trkpt lat="45.5601885" lon="10.5595947"><ele>68.0</ele><time>2026-04-25T14:05:47.731Z</time></trkpt><trkpt lat="45.5601612" lon="10.5594924"><ele>68.0</ele><time>2026-04-25T14:05:48.731Z</time></trkpt><trkpt lat="45.5601349" lon="10.5593878"><ele>68.0</ele><time>2026-04-25T14:05:49.731Z</time></trkpt><trkpt lat="45.5601084" lon="10.5592887"><ele>68.0</ele><time>2026-04-25T14:05:50.732Z</time></trkpt><trkpt lat="45.5600785" lon="10.5591953"><ele>68.0</ele><time>2026-04-25T14:05:51.731Z</time></trkpt><trkpt lat="45.5600497" lon="10.5591018"><ele>68.0</ele><time>2026-04-25T14:05:52.731Z</time></trkpt><trkpt lat="45.5600218" lon="10.5590179"><ele>68.0</ele><time>2026-04-25T14:05:53.731Z</time></trkpt><trkpt lat="45.5599863" lon="10.5589289"><ele>68.0</ele><time>2026-04-25T14:05:54.73Z</time></trkpt><trkpt lat="45.5599511" lon="10.5588447"><ele>68.0</ele><time>2026-04-25T14:05:55.732Z</time></trkpt><trkpt lat="45.559893" lon="10.5587022"><ele>68.0</ele><time>2026-04-25T14:05:57.732Z</time></trkpt><trkpt lat="45.5598866" lon="10.5586106"><ele>68.0</ele><time>2026-04-25T14:05:58.732Z</time></trkpt><trkpt lat="45.5599227" lon="10.5584451"><ele>68.0</ele><time>2026-04-25T14:06:00.732Z</time></trkpt><trkpt lat="45.559969" lon="10.5582911"><ele>68.0</ele><time>2026-04-25T14:06:02.732Z</time></trkpt><trkpt lat="45.5600033" lon="10.55812"><ele>68.0</ele><time>2026-04-25T14:06:04.731Z</time></trkpt><trkpt lat="45.5600178" lon="10.5580324"><ele>68.0</ele><time>2026-04-25T14:06:05.731Z</time></trkpt><trkpt lat="45.560046" lon="10.5578572"><ele>68.16666666666667</ele><time>2026-04-25T14:06:07.731Z</time></trkpt><trkpt lat="45.560061" lon="10.5576931"><ele>68.33333333333334</ele><time>2026-04-25T14:06:09.731Z</time></trkpt><trkpt lat="45.5600767" lon="10.5575997"><ele>68.5</ele><time>2026-04-25T14:06:10.73Z</time></trkpt><trkpt lat="45.5600897" lon="10.5575087"><ele>68.66666666666667</ele><time>2026-04-25T14:06:11.732Z</time></trkpt><trkpt lat="45.5601038" lon="10.557421"><ele>68.83333333333333</ele><time>2026-04-25T14:06:12.732Z</time></trkpt><trkpt lat="45.5601345" lon="10.5572542"><ele>69.0</ele><time>2026-04-25T14:06:14.731Z</time></trkpt><trkpt lat="45.5601532" lon="10.5571681"><ele>69.0</ele><time>2026-04-25T14:06:15.731Z</time></trkpt><trkpt lat="45.5601874" lon="10.5569996"><ele>69.0</ele><time>2026-04-25T14:06:17.732Z</time></trkpt><trkpt lat="45.560226" lon="10.5568441"><ele>69.0</ele><time>2026-04-25T14:06:19.732Z</time></trkpt><trkpt lat="45.5602526" lon="10.5566905"><ele>69.0</ele><time>2026-04-25T14:06:21.731Z</time></trkpt><trkpt lat="45.5602322" lon="10.5565376"><ele>69.0</ele><time>2026-04-25T14:06:23.731Z</time></trkpt><trkpt lat="45.5601659" lon="10.5564173"><ele>69.0</ele><time>2026-04-25T14:06:25.731Z</time></trkpt><trkpt lat="45.5600804" lon="10.5563256"><ele>69.0</ele><time>2026-04-25T14:06:27.731Z</time></trkpt><trkpt lat="45.5599866" lon="10.5562449"><ele>69.0</ele><time>2026-04-25T14:06:29.73Z</time></trkpt><trkpt lat="45.5598932" lon="10.5561742"><ele>69.0</ele><time>2026-04-25T14:06:31.732Z</time></trkpt><trkpt lat="45.559805" lon="10.5560883"><ele>69.0</ele><time>2026-04-25T14:06:33.731Z</time></trkpt><trkpt lat="45.559754" lon="10.5560315"><ele>69.0</ele><time>2026-04-25T14:06:34.732Z</time></trkpt><trkpt lat="45.5596571" lon="10.5559262"><ele>69.0</ele><time>2026-04-25T14:06:36.731Z</time></trkpt><trkpt lat="45.5595699" lon="10.5558305"><ele>69.0</ele><time>2026-04-25T14:06:38.731Z</time></trkpt><trkpt lat="45.5594889" lon="10.5557193"><ele>69.0</ele><time>2026-04-25T14:06:40.732Z</time></trkpt><trkpt lat="45.5593967" lon="10.5556123"><ele>69.0</ele><time>2026-04-25T14:06:42.732Z</time></trkpt><trkpt lat="45.5593229" lon="10.5555255"><ele>69.0</ele><time>2026-04-25T14:06:44.732Z</time></trkpt><trkpt lat="45.5593147" lon="10.5553927"><ele>69.0</ele><time>2026-04-25T14:06:47.731Z</time></trkpt><trkpt lat="45.5593437" lon="10.5552941"><ele>69.0</ele><time>2026-04-25T14:06:49.732Z</time></trkpt><trkpt lat="45.5593788" lon="10.5551884"><ele>69.0</ele><time>2026-04-25T14:06:51.732Z</time></trkpt><trkpt lat="45.5594267" lon="10.5550743"><ele>69.0</ele><time>2026-04-25T14:06:53.731Z</time></trkpt><trkpt lat="45.5594868" lon="10.5549423"><ele>69.0</ele><time>2026-04-25T14:06:55.731Z</time></trkpt><trkpt lat="45.5595336" lon="10.5548162"><ele>69.0</ele><time>2026-04-25T14:06:57.73Z</time></trkpt><trkpt lat="45.5595767" lon="10.5546996"><ele>69.0</ele><time>2026-04-25T14:06:59.731Z</time></trkpt><trkpt lat="45.5596284" lon="10.5545897"><ele>69.0</ele><time>2026-04-25T14:07:01.732Z</time></trkpt><trkpt lat="45.5596784" lon="10.5544741"><ele>69.0</ele><time>2026-04-25T14:07:03.731Z</time></trkpt><trkpt lat="45.5597182" lon="10.5543806"><ele>69.0</ele><time>2026-04-25T14:07:05.732Z</time></trkpt><trkpt lat="45.5597763" lon="10.5543048"><ele>69.0</ele><time>2026-04-25T14:07:07.732Z</time></trkpt><trkpt lat="45.5598694" lon="10.5543297"><ele>69.0</ele><time>2026-04-25T14:07:10.731Z</time></trkpt><trkpt lat="45.5599481" lon="10.554393"><ele>69.0</ele><time>2026-04-25T14:07:12.73Z</time></trkpt><trkpt lat="45.5600799" lon="10.554498"><ele>69.0</ele><time>2026-04-25T14:07:14.732Z</time></trkpt><trkpt lat="45.5601557" lon="10.5545735"><ele>69.0</ele><time>2026-04-25T14:07:16.731Z</time></trkpt><trkpt lat="45.5602115" lon="10.5546324"><ele>69.0</ele><time>2026-04-25T14:07:18.731Z</time></trkpt><trkpt lat="45.5602788" lon="10.5546929"><ele>69.0</ele><time>2026-04-25T14:07:20.732Z</time></trkpt><trkpt lat="45.5603428" lon="10.554743"><ele>69.0</ele><time>2026-04-25T14:07:22.732Z</time></trkpt><trkpt lat="45.5604211" lon="10.5548231"><ele>69.0</ele><time>2026-04-25T14:07:25.731Z</time></trkpt><trkpt lat="45.5604878" lon="10.5548818"><ele>69.0</ele><time>2026-04-25T14:07:27.731Z</time></trkpt><trkpt lat="45.5605505" lon="10.5549558"><ele>69.0</ele><time>2026-04-25T14:07:29.732Z</time></trkpt><trkpt lat="45.5606426" lon="10.5550395"><ele>69.0</ele><time>2026-04-25T14:07:31.731Z</time></trkpt><trkpt lat="45.5607047" lon="10.555091"><ele>69.0</ele><time>2026-04-25T14:07:34.731Z</time></trkpt><trkpt lat="45.5607734" lon="10.555122"><ele>69.0</ele><time>2026-04-25T14:07:38.732Z</time></trkpt><trkpt lat="45.5608005" lon="10.5550283"><ele>69.0</ele><time>2026-04-25T14:07:43.73Z</time></trkpt><trkpt lat="45.5608073" lon="10.5548918"><ele>69.0</ele><time>2026-04-25T14:07:46.731Z</time></trkpt><trkpt lat="45.560809" lon="10.5547603"><ele>69.0</ele><time>2026-04-25T14:07:48.731Z</time></trkpt><trkpt lat="45.5608174" lon="10.5546245"><ele>69.0</ele><time>2026-04-25T14:07:50.732Z</time></trkpt><trkpt lat="45.5608302" lon="10.5544975"><ele>69.0</ele><time>2026-04-25T14:07:52.732Z</time></trkpt><trkpt lat="45.5608476" lon="10.5543753"><ele>69.0</ele><time>2026-04-25T14:07:54.731Z</time></trkpt><trkpt lat="45.5609005" lon="10.5542749"><ele>69.0</ele><time>2026-04-25T14:07:56.731Z</time></trkpt><trkpt lat="45.5609306" lon="10.5541297"><ele>69.0</ele><time>2026-04-25T14:07:58.732Z</time></trkpt><trkpt lat="45.5609759" lon="10.5539983"><ele>69.0</ele><time>2026-04-25T14:08:00.731Z</time></trkpt><trkpt lat="45.5610307" lon="10.5538886"><ele>69.0</ele><time>2026-04-25T14:08:02.731Z</time></trkpt><trkpt lat="45.5610836" lon="10.5537759"><ele>69.0</ele><time>2026-04-25T14:08:04.732Z</time></trkpt><trkpt lat="45.5611333" lon="10.5536568"><ele>69.0</ele><time>2026-04-25T14:08:06.731Z</time></trkpt><trkpt lat="45.5611678" lon="10.5535296"><ele>69.14285714285714</ele><time>2026-04-25T14:08:08.732Z</time></trkpt><trkpt lat="45.56121" lon="10.5534156"><ele>69.28571428571429</ele><time>2026-04-25T14:08:10.732Z</time></trkpt><trkpt lat="45.5612244" lon="10.5533237"><ele>69.42857142857143</ele><time>2026-04-25T14:08:12.732Z</time></trkpt><trkpt lat="45.5612543" lon="10.5532282"><ele>69.57142857142857</ele><time>2026-04-25T14:08:14.731Z</time></trkpt><trkpt lat="45.5612715" lon="10.5531379"><ele>69.71428571428572</ele><time>2026-04-25T14:08:16.731Z</time></trkpt><trkpt lat="45.561296" lon="10.5530429"><ele>69.85714285714286</ele><time>2026-04-25T14:08:18.732Z</time></trkpt><trkpt lat="45.5613204" lon="10.5529357"><ele>70.0</ele><time>2026-04-25T14:08:20.731Z</time></trkpt><trkpt lat="45.5613399" lon="10.5528207"><ele>70.16666666666666</ele><time>2026-04-25T14:08:22.732Z</time></trkpt><trkpt lat="45.5613438" lon="10.5527"><ele>70.33333333333333</ele><time>2026-04-25T14:08:24.731Z</time></trkpt><trkpt lat="45.5613291" lon="10.5525808"><ele>70.5</ele><time>2026-04-25T14:08:26.73Z</time></trkpt><trkpt lat="45.5612936" lon="10.5524645"><ele>70.66666666666667</ele><time>2026-04-25T14:08:28.731Z</time></trkpt><trkpt lat="45.5612523" lon="10.5523605"><ele>70.83333333333334</ele><time>2026-04-25T14:08:30.732Z</time></trkpt><trkpt lat="45.5611876" lon="10.5522521"><ele>71.0</ele><time>2026-04-25T14:08:32.73Z</time></trkpt><trkpt lat="45.5611317" lon="10.5521724"><ele>71.0</ele><time>2026-04-25T14:08:34.731Z</time></trkpt><trkpt lat="45.5611257" lon="10.5520755"><ele>71.0</ele><time>2026-04-25T14:08:36.731Z</time></trkpt><trkpt lat="45.5611599" lon="10.5519616"><ele>71.0</ele><time>2026-04-25T14:08:38.732Z</time></trkpt><trkpt lat="45.561216" lon="10.5518298"><ele>71.0</ele><time>2026-04-25T14:08:40.732Z</time></trkpt><trkpt lat="45.5612755" lon="10.5516941"><ele>71.0</ele><time>2026-04-25T14:08:42.732Z</time></trkpt><trkpt lat="45.5613297" lon="10.5515501"><ele>71.0</ele><time>2026-04-25T14:08:44.731Z</time></trkpt><trkpt lat="45.5613844" lon="10.5513822"><ele>71.0</ele><time>2026-04-25T14:08:46.732Z</time></trkpt><trkpt lat="45.5614111" lon="10.5512919"><ele>71.0</ele><time>2026-04-25T14:08:47.732Z</time></trkpt><trkpt lat="45.561441" lon="10.5512061"><ele>71.0</ele><time>2026-04-25T14:08:48.732Z</time></trkpt><trkpt lat="45.5614712" lon="10.5511233"><ele>71.0</ele><time>2026-04-25T14:08:49.731Z</time></trkpt><trkpt lat="45.5615051" lon="10.5510379"><ele>71.0</ele><time>2026-04-25T14:08:50.731Z</time></trkpt><trkpt lat="45.5615329" lon="10.5509532"><ele>71.0</ele><time>2026-04-25T14:08:51.732Z</time></trkpt><trkpt lat="45.561581" lon="10.5507992"><ele>71.0</ele><time>2026-04-25T14:08:53.731Z</time></trkpt><trkpt lat="45.5616346" lon="10.5506612"><ele>71.0</ele><time>2026-04-25T14:08:55.732Z</time></trkpt><trkpt lat="45.5616576" lon="10.5505471"><ele>71.0</ele><time>2026-04-25T14:08:58.731Z</time></trkpt><trkpt lat="45.5616608" lon="10.5504068"><ele>71.0</ele><time>2026-04-25T14:09:01.731Z</time></trkpt><trkpt lat="45.5616337" lon="10.5503104"><ele>71.0</ele><time>2026-04-25T14:09:03.732Z</time></trkpt><trkpt lat="45.5616283" lon="10.5501939"><ele>71.0</ele><time>2026-04-25T14:09:05.731Z</time></trkpt><trkpt lat="45.5616581" lon="10.5500725"><ele>71.0</ele><time>2026-04-25T14:09:07.73Z</time></trkpt><trkpt lat="45.5617091" lon="10.5499481"><ele>71.0</ele><time>2026-04-25T14:09:09.731Z</time></trkpt><trkpt lat="45.5617499" lon="10.5498199"><ele>71.0</ele><time>2026-04-25T14:09:11.732Z</time></trkpt><trkpt lat="45.5617965" lon="10.5496875"><ele>71.0</ele><time>2026-04-25T14:09:13.732Z</time></trkpt><trkpt lat="45.5618443" lon="10.5495386"><ele>71.0</ele><time>2026-04-25T14:09:15.732Z</time></trkpt><trkpt lat="45.5618938" lon="10.5493931"><ele>71.0</ele><time>2026-04-25T14:09:17.732Z</time></trkpt><trkpt lat="45.5619531" lon="10.5492557"><ele>71.0</ele><time>2026-04-25T14:09:19.731Z</time></trkpt><trkpt lat="45.5620261" lon="10.5491272"><ele>70.25</ele><time>2026-04-25T14:09:21.731Z</time></trkpt><trkpt lat="45.5620974" lon="10.5489997"><ele>69.5</ele><time>2026-04-25T14:09:23.732Z</time></trkpt><trkpt lat="45.5621728" lon="10.5488654"><ele>68.75</ele><time>2026-04-25T14:09:25.732Z</time></trkpt><trkpt lat="45.5622545" lon="10.5487359"><ele>68.0</ele><time>2026-04-25T14:09:27.732Z</time></trkpt><trkpt lat="45.5623326" lon="10.5486032"><ele>68.0</ele><time>2026-04-25T14:09:29.73Z</time></trkpt><trkpt lat="45.5624075" lon="10.5484761"><ele>68.0</ele><time>2026-04-25T14:09:31.732Z</time></trkpt><trkpt lat="45.5624838" lon="10.5483483"><ele>68.0</ele><time>2026-04-25T14:09:33.732Z</time></trkpt><trkpt lat="45.5625617" lon="10.5482274"><ele>68.0</ele><time>2026-04-25T14:09:35.73Z</time></trkpt><trkpt lat="45.5626349" lon="10.5481066"><ele>68.0</ele><time>2026-04-25T14:09:37.732Z</time></trkpt><trkpt lat="45.5627162" lon="10.5479986"><ele>68.0</ele><time>2026-04-25T14:09:39.731Z</time></trkpt><trkpt lat="45.5628001" lon="10.5478823"><ele>68.0</ele><time>2026-04-25T14:09:41.731Z</time></trkpt><trkpt lat="45.5628799" lon="10.5477784"><ele>68.0</ele><time>2026-04-25T14:09:43.732Z</time></trkpt><trkpt lat="45.5629626" lon="10.547672"><ele>68.0</ele><time>2026-04-25T14:09:45.731Z</time></trkpt><trkpt lat="45.5630416" lon="10.5475676"><ele>68.0</ele><time>2026-04-25T14:09:47.731Z</time></trkpt><trkpt lat="45.5631145" lon="10.5474594"><ele>68.0</ele><time>2026-04-25T14:09:49.732Z</time></trkpt><trkpt lat="45.5631898" lon="10.5473563"><ele>68.0</ele><time>2026-04-25T14:09:51.73Z</time></trkpt><trkpt lat="45.5632552" lon="10.547251"><ele>68.0</ele><time>2026-04-25T14:09:53.732Z</time></trkpt><trkpt lat="45.563319" lon="10.5471543"><ele>68.0</ele><time>2026-04-25T14:09:55.731Z</time></trkpt><trkpt lat="45.5633804" lon="10.5470551"><ele>69.0</ele><time>2026-04-25T14:09:57.731Z</time></trkpt><trkpt lat="45.5634326" lon="10.5469503"><ele>70.0</ele><time>2026-04-25T14:09:59.732Z</time></trkpt><trkpt lat="45.5634867" lon="10.5468427"><ele>71.0</ele><time>2026-04-25T14:10:01.731Z</time></trkpt><trkpt lat="45.5635322" lon="10.5467436"><ele>72.0</ele><time>2026-04-25T14:10:03.732Z</time></trkpt><trkpt lat="45.5635817" lon="10.5466382"><ele>73.0</ele><time>2026-04-25T14:10:05.731Z</time></trkpt><trkpt lat="45.5636321" lon="10.546532"><ele>74.0</ele><time>2026-04-25T14:10:07.732Z</time></trkpt><trkpt lat="45.5636802" lon="10.5464288"><ele>73.5</ele><time>2026-04-25T14:10:09.731Z</time></trkpt><trkpt lat="45.5637251" lon="10.5463329"><ele>73.0</ele><time>2026-04-25T14:10:11.732Z</time></trkpt><trkpt lat="45.5637694" lon="10.5462418"><ele>72.5</ele><time>2026-04-25T14:10:13.731Z</time></trkpt><trkpt lat="45.5638098" lon="10.5461495"><ele>72.0</ele><time>2026-04-25T14:10:15.732Z</time></trkpt><trkpt lat="45.5638546" lon="10.5460586"><ele>71.5</ele><time>2026-04-25T14:10:17.732Z</time></trkpt><trkpt lat="45.5638951" lon="10.5459675"><ele>71.0</ele><time>2026-04-25T14:10:19.731Z</time></trkpt><trkpt lat="45.563944" lon="10.5458904"><ele>72.2</ele><time>2026-04-25T14:10:21.731Z</time></trkpt><trkpt lat="45.5640146" lon="10.5458507"><ele>73.39999999999999</ele><time>2026-04-25T14:10:23.732Z</time></trkpt><trkpt lat="45.5641101" lon="10.5458484"><ele>74.6</ele><time>2026-04-25T14:10:25.731Z</time></trkpt><trkpt lat="45.5642113" lon="10.5458455"><ele>75.8</ele><time>2026-04-25T14:10:27.731Z</time></trkpt><trkpt lat="45.5643196" lon="10.5458612"><ele>77.0</ele><time>2026-04-25T14:10:29.732Z</time></trkpt><trkpt lat="45.5644287" lon="10.5458276"><ele>77.0</ele><time>2026-04-25T14:10:31.731Z</time></trkpt><trkpt lat="45.5644974" lon="10.5457048"><ele>77.0</ele><time>2026-04-25T14:10:33.731Z</time></trkpt><trkpt lat="45.5645501" lon="10.5455786"><ele>77.0</ele><time>2026-04-25T14:10:35.731Z</time></trkpt><trkpt lat="45.5645871" lon="10.5454586"><ele>77.0</ele><time>2026-04-25T14:10:37.731Z</time></trkpt><trkpt lat="45.5646273" lon="10.545348"><ele>77.0</ele><time>2026-04-25T14:10:39.732Z</time></trkpt><trkpt lat="45.5646747" lon="10.5452475"><ele>77.33333333333334</ele><time>2026-04-25T14:10:42.732Z</time></trkpt><trkpt lat="45.5647222" lon="10.5451665"><ele>77.66666666666667</ele><time>2026-04-25T14:10:44.731Z</time></trkpt><trkpt lat="45.5647852" lon="10.5450948"><ele>78.0</ele><time>2026-04-25T14:10:47.731Z</time></trkpt><trkpt lat="45.5648433" lon="10.545043"><ele>78.33333333333333</ele><time>2026-04-25T14:10:49.731Z</time></trkpt><trkpt lat="45.5649419" lon="10.5450525"><ele>78.66666666666666</ele><time>2026-04-25T14:10:52.732Z</time></trkpt><trkpt lat="45.5650166" lon="10.5450648"><ele>79.0</ele><time>2026-04-25T14:10:53.731Z</time></trkpt><trkpt lat="45.565114" lon="10.5450585"><ele>79.0</ele><time>2026-04-25T14:10:55.731Z</time></trkpt><trkpt lat="45.5652076" lon="10.5449991"><ele>79.0</ele><time>2026-04-25T14:10:57.731Z</time></trkpt><trkpt lat="45.5652917" lon="10.544931"><ele>79.0</ele><time>2026-04-25T14:10:59.732Z</time></trkpt><trkpt lat="45.5653627" lon="10.5448577"><ele>79.0</ele><time>2026-04-25T14:11:01.732Z</time></trkpt><trkpt lat="45.5654348" lon="10.5447839"><ele>79.0</ele><time>2026-04-25T14:11:03.731Z</time></trkpt><trkpt lat="45.5655045" lon="10.5447121"><ele>79.0</ele><time>2026-04-25T14:11:05.73Z</time></trkpt><trkpt lat="45.5655717" lon="10.5446408"><ele>79.0</ele><time>2026-04-25T14:11:07.73Z</time></trkpt><trkpt lat="45.5656336" lon="10.5445578"><ele>79.0</ele><time>2026-04-25T14:11:09.731Z</time></trkpt><trkpt lat="45.5656869" lon="10.5444709"><ele>79.0</ele><time>2026-04-25T14:11:11.731Z</time></trkpt><trkpt lat="45.5657411" lon="10.544384"><ele>79.0</ele><time>2026-04-25T14:11:13.731Z</time></trkpt><trkpt lat="45.5657934" lon="10.5443002"><ele>79.0</ele><time>2026-04-25T14:11:15.731Z</time></trkpt><trkpt lat="45.5658455" lon="10.544217"><ele>79.57142857142858</ele><time>2026-04-25T14:11:17.732Z</time></trkpt><trkpt lat="45.5658991" lon="10.5441316"><ele>80.14285714285714</ele><time>2026-04-25T14:11:19.732Z</time></trkpt><trkpt lat="45.5659498" lon="10.5440488"><ele>80.71428571428572</ele><time>2026-04-25T14:11:21.731Z</time></trkpt><trkpt lat="45.5660016" lon="10.5439727"><ele>81.28571428571429</ele><time>2026-04-25T14:11:23.732Z</time></trkpt><trkpt lat="45.5660575" lon="10.5439138"><ele>81.85714285714286</ele><time>2026-04-25T14:11:25.731Z</time></trkpt><trkpt lat="45.5661287" lon="10.5438803"><ele>82.42857142857143</ele><time>2026-04-25T14:11:27.731Z</time></trkpt><trkpt lat="45.5661846" lon="10.5438272"><ele>83.0</ele><time>2026-04-25T14:11:29.732Z</time></trkpt><trkpt lat="45.5662387" lon="10.5437152"><ele>85.0</ele><time>2026-04-25T14:11:32.732Z</time></trkpt><trkpt lat="45.566273" lon="10.5436323"><ele>87.0</ele><time>2026-04-25T14:11:34.731Z</time></trkpt><trkpt lat="45.5663075" lon="10.5435375"><ele>89.0</ele><time>2026-04-25T14:11:36.732Z</time></trkpt><trkpt lat="45.5663417" lon="10.5434407"><ele>91.0</ele><time>2026-04-25T14:11:38.732Z</time></trkpt><trkpt lat="45.566363" lon="10.5433556"><ele>93.0</ele><time>2026-04-25T14:11:40.732Z</time></trkpt><trkpt lat="45.5663961" lon="10.5432403"><ele>95.0</ele><time>2026-04-25T14:11:43.732Z</time></trkpt><trkpt lat="45.5664348" lon="10.5431413"><ele>97.0</ele><time>2026-04-25T14:11:46.73Z</time></trkpt><trkpt lat="45.5664866" lon="10.5430549"><ele>97.00000000000001</ele><time>2026-04-25T14:11:49.732Z</time></trkpt><trkpt lat="45.5665309" lon="10.5429863"><ele>97.0</ele><time>2026-04-25T14:11:51.732Z</time></trkpt><trkpt lat="45.5665953" lon="10.5429029"><ele>97.0</ele><time>2026-04-25T14:11:54.731Z</time></trkpt><trkpt lat="45.5666543" lon="10.5428149"><ele>97.0</ele><time>2026-04-25T14:11:57.732Z</time></trkpt><trkpt lat="45.5667135" lon="10.5427404"><ele>97.00000000000001</ele><time>2026-04-25T14:12:00.731Z</time></trkpt><trkpt lat="45.5667653" lon="10.5426836"><ele>97.0</ele><time>2026-04-25T14:12:02.731Z</time></trkpt><trkpt lat="45.5668198" lon="10.5425745"><ele>97.83333333333334</ele><time>2026-04-25T14:12:05.732Z</time></trkpt><trkpt lat="45.5668464" lon="10.5424577"><ele>98.66666666666667</ele><time>2026-04-25T14:12:08.732Z</time></trkpt><trkpt lat="45.5668949" lon="10.5423522"><ele>99.5</ele><time>2026-04-25T14:12:11.731Z</time></trkpt><trkpt lat="45.5669642" lon="10.5422825"><ele>100.33333333333334</ele><time>2026-04-25T14:12:15.731Z</time></trkpt><trkpt lat="45.5670214" lon="10.5422181"><ele>101.16666666666667</ele><time>2026-04-25T14:12:18.732Z</time></trkpt><trkpt lat="45.5670735" lon="10.5421432"><ele>102.0</ele><time>2026-04-25T14:12:21.731Z</time></trkpt><trkpt lat="45.5671209" lon="10.5420541"><ele>103.83333333333333</ele><time>2026-04-25T14:12:24.732Z</time></trkpt><trkpt lat="45.567166" lon="10.5419615"><ele>105.66666666666666</ele><time>2026-04-25T14:12:27.732Z</time></trkpt><trkpt lat="45.5671994" lon="10.541866"><ele>107.5</ele><time>2026-04-25T14:12:30.732Z</time></trkpt><trkpt lat="45.5672315" lon="10.5417764"><ele>109.33333333333333</ele><time>2026-04-25T14:12:33.73Z</time></trkpt><trkpt lat="45.5672719" lon="10.5416841"><ele>111.16666666666666</ele><time>2026-04-25T14:12:36.731Z</time></trkpt><trkpt lat="45.5673136" lon="10.5415933"><ele>113.0</ele><time>2026-04-25T14:12:39.731Z</time></trkpt><trkpt lat="45.5673626" lon="10.5415006"><ele>112.99999999999999</ele><time>2026-04-25T14:12:42.732Z</time></trkpt><trkpt lat="45.5674216" lon="10.5414246"><ele>113.0</ele><time>2026-04-25T14:12:44.73Z</time></trkpt><trkpt lat="45.5674645" lon="10.5413538"><ele>113.0</ele><time>2026-04-25T14:12:47.731Z</time></trkpt><trkpt lat="45.5675259" lon="10.541281"><ele>113.0</ele><time>2026-04-25T14:12:51.731Z</time></trkpt><trkpt lat="45.5675853" lon="10.5412126"><ele>112.99999999999999</ele><time>2026-04-25T14:12:54.732Z</time></trkpt><trkpt lat="45.5676419" lon="10.5411288"><ele>113.0</ele><time>2026-04-25T14:12:57.732Z</time></trkpt><trkpt lat="45.5676906" lon="10.5410619"><ele>111.99999999999999</ele><time>2026-04-25T14:13:00.731Z</time></trkpt><trkpt lat="45.5677435" lon="10.5409848"><ele>111.0</ele><time>2026-04-25T14:13:04.732Z</time></trkpt><trkpt lat="45.5677913" lon="10.5409153"><ele>110.0</ele><time>2026-04-25T14:13:07.731Z</time></trkpt><trkpt lat="45.5678323" lon="10.5408295"><ele>109.0</ele><time>2026-04-25T14:13:09.73Z</time></trkpt><trkpt lat="45.567879" lon="10.5407296"><ele>107.99999999999999</ele><time>2026-04-25T14:13:11.732Z</time></trkpt><trkpt lat="45.5679311" lon="10.5406302"><ele>107.0</ele><time>2026-04-25T14:13:13.731Z</time></trkpt><trkpt lat="45.5679643" lon="10.5405408"><ele>109.8</ele><time>2026-04-25T14:13:15.73Z</time></trkpt><trkpt lat="45.5680411" lon="10.5403736"><ele>112.6</ele><time>2026-04-25T14:13:17.732Z</time></trkpt><trkpt lat="45.5680803" lon="10.5402991"><ele>115.39999999999999</ele><time>2026-04-25T14:13:18.732Z</time></trkpt><trkpt lat="45.5681137" lon="10.5402056"><ele>118.19999999999999</ele><time>2026-04-25T14:13:19.731Z</time></trkpt><trkpt lat="45.5681987" lon="10.5400379"><ele>121.0</ele><time>2026-04-25T14:13:21.732Z</time></trkpt><trkpt lat="45.5682744" lon="10.5398933"><ele>121.0</ele><time>2026-04-25T14:13:23.731Z</time></trkpt><trkpt lat="45.5683351" lon="10.5398012"><ele>121.0</ele><time>2026-04-25T14:13:24.73Z</time></trkpt><trkpt lat="45.5683902" lon="10.5397203"><ele>121.0</ele><time>2026-04-25T14:13:25.732Z</time></trkpt><trkpt lat="45.5684531" lon="10.5396295"><ele>121.0</ele><time>2026-04-25T14:13:26.732Z</time></trkpt><trkpt lat="45.5685383" lon="10.5395536"><ele>121.0</ele><time>2026-04-25T14:13:29.732Z</time></trkpt><trkpt lat="45.5686152" lon="10.539472"><ele>122.16666666666667</ele><time>2026-04-25T14:13:31.732Z</time></trkpt><trkpt lat="45.5686759" lon="10.5394077"><ele>123.33333333333334</ele><time>2026-04-25T14:13:33.732Z</time></trkpt><trkpt lat="45.5687261" lon="10.5393532"><ele>124.5</ele><time>2026-04-25T14:13:35.731Z</time></trkpt><trkpt lat="45.5687825" lon="10.539311"><ele>125.66666666666666</ele><time>2026-04-25T14:13:37.732Z</time></trkpt><trkpt lat="45.5688619" lon="10.5392485"><ele>126.83333333333333</ele><time>2026-04-25T14:13:40.73Z</time></trkpt><trkpt lat="45.5689405" lon="10.5391881"><ele>128.0</ele><time>2026-04-25T14:13:43.731Z</time></trkpt><trkpt lat="45.5690254" lon="10.53915"><ele>127.99999999999999</ele><time>2026-04-25T14:13:46.731Z</time></trkpt><trkpt lat="45.5691117" lon="10.5391159"><ele>128.0</ele><time>2026-04-25T14:13:49.731Z</time></trkpt><trkpt lat="45.5691764" lon="10.5391077"><ele>128.0</ele><time>2026-04-25T14:13:51.73Z</time></trkpt><trkpt lat="45.5692468" lon="10.5390906"><ele>128.0</ele><time>2026-04-25T14:13:53.73Z</time></trkpt><trkpt lat="45.5693329" lon="10.5390662"><ele>127.99999999999999</ele><time>2026-04-25T14:13:55.732Z</time></trkpt><trkpt lat="45.5694265" lon="10.5390445"><ele>128.0</ele><time>2026-04-25T14:13:57.731Z</time></trkpt><trkpt lat="45.569528" lon="10.5390078"><ele>127.99999999999999</ele><time>2026-04-25T14:13:59.732Z</time></trkpt><trkpt lat="45.5696231" lon="10.5389619"><ele>128.0</ele><time>2026-04-25T14:14:01.732Z</time></trkpt><trkpt lat="45.569718" lon="10.5389093"><ele>128.0</ele><time>2026-04-25T14:14:03.731Z</time></trkpt><trkpt lat="45.5697832" lon="10.5388697"><ele>128.0</ele><time>2026-04-25T14:14:05.731Z</time></trkpt><trkpt lat="45.5698493" lon="10.5388178"><ele>127.99999999999999</ele><time>2026-04-25T14:14:08.732Z</time></trkpt><trkpt lat="45.5699388" lon="10.5388079"><ele>128.0</ele><time>2026-04-25T14:14:10.731Z</time></trkpt><trkpt lat="45.5700298" lon="10.538843"><ele>128.0</ele><time>2026-04-25T14:14:12.73Z</time></trkpt><trkpt lat="45.5701204" lon="10.5388733"><ele>128.0</ele><time>2026-04-25T14:14:14.732Z</time></trkpt><trkpt lat="45.5702116" lon="10.538896"><ele>128.0</ele><time>2026-04-25T14:14:16.732Z</time></trkpt><trkpt lat="45.5703039" lon="10.5388978"><ele>128.0</ele><time>2026-04-25T14:14:18.732Z</time></trkpt><trkpt lat="45.5703957" lon="10.5389005"><ele>128.0</ele><time>2026-04-25T14:14:20.732Z</time></trkpt><trkpt lat="45.5705091" lon="10.538901"><ele>128.66666666666666</ele><time>2026-04-25T14:14:22.732Z</time></trkpt><trkpt lat="45.5706218" lon="10.5388795"><ele>129.33333333333331</ele><time>2026-04-25T14:14:24.732Z</time></trkpt><trkpt lat="45.5707406" lon="10.5388558"><ele>130.0</ele><time>2026-04-25T14:14:26.731Z</time></trkpt><trkpt lat="45.5708018" lon="10.538829"><ele>130.66666666666666</ele><time>2026-04-25T14:14:27.732Z</time></trkpt><trkpt lat="45.5708636" lon="10.5387996"><ele>131.33333333333334</ele><time>2026-04-25T14:14:28.732Z</time></trkpt><trkpt lat="45.5709239" lon="10.5387718"><ele>132.0</ele><time>2026-04-25T14:14:29.731Z</time></trkpt><trkpt lat="45.5709853" lon="10.5387427"><ele>132.0</ele><time>2026-04-25T14:14:30.73Z</time></trkpt><trkpt lat="45.5710487" lon="10.5387134"><ele>132.0</ele><time>2026-04-25T14:14:31.73Z</time></trkpt><trkpt lat="45.5711096" lon="10.5386828"><ele>132.0</ele><time>2026-04-25T14:14:32.731Z</time></trkpt><trkpt lat="45.5711711" lon="10.5386506"><ele>132.0</ele><time>2026-04-25T14:14:33.731Z</time></trkpt><trkpt lat="45.571232" lon="10.5386243"><ele>132.0</ele><time>2026-04-25T14:14:34.731Z</time></trkpt><trkpt lat="45.571296" lon="10.5385972"><ele>132.0</ele><time>2026-04-25T14:14:35.732Z</time></trkpt><trkpt lat="45.5713577" lon="10.5385691"><ele>132.0</ele><time>2026-04-25T14:14:36.732Z</time></trkpt><trkpt lat="45.5714186" lon="10.5385392"><ele>132.0</ele><time>2026-04-25T14:14:37.731Z</time></trkpt><trkpt lat="45.5714811" lon="10.5385127"><ele>132.0</ele><time>2026-04-25T14:14:38.731Z</time></trkpt><trkpt lat="45.5715455" lon="10.5384953"><ele>132.0</ele><time>2026-04-25T14:14:39.731Z</time></trkpt><trkpt lat="45.57161" lon="10.5384835"><ele>132.0</ele><time>2026-04-25T14:14:40.731Z</time></trkpt><trkpt lat="45.5716736" lon="10.5384735"><ele>132.0</ele><time>2026-04-25T14:14:41.731Z</time></trkpt><trkpt lat="45.5717973" lon="10.5384533"><ele>132.0</ele><time>2026-04-25T14:14:43.732Z</time></trkpt><trkpt lat="45.571923" lon="10.5384447"><ele>132.0</ele><time>2026-04-25T14:14:45.732Z</time></trkpt><trkpt lat="45.5719886" lon="10.5384432"><ele>132.0</ele><time>2026-04-25T14:14:46.731Z</time></trkpt><trkpt lat="45.5720541" lon="10.5384338"><ele>132.0</ele><time>2026-04-25T14:14:47.731Z</time></trkpt><trkpt lat="45.5721184" lon="10.538432"><ele>132.0</ele><time>2026-04-25T14:14:48.732Z</time></trkpt><trkpt lat="45.5721827" lon="10.5384367"><ele>132.0</ele><time>2026-04-25T14:14:49.731Z</time></trkpt><trkpt lat="45.5722463" lon="10.5384427"><ele>132.0</ele><time>2026-04-25T14:14:50.732Z</time></trkpt><trkpt lat="45.5723123" lon="10.5384476"><ele>132.0</ele><time>2026-04-25T14:14:51.732Z</time></trkpt><trkpt lat="45.5723756" lon="10.5384569"><ele>132.25</ele><time>2026-04-25T14:14:52.732Z</time></trkpt><trkpt lat="45.572497" lon="10.5384851"><ele>132.5</ele><time>2026-04-25T14:14:54.732Z</time></trkpt><trkpt lat="45.5726113" lon="10.538522"><ele>132.75</ele><time>2026-04-25T14:14:56.731Z</time></trkpt><trkpt lat="45.5727264" lon="10.5385095"><ele>133.0</ele><time>2026-04-25T14:14:58.731Z</time></trkpt><trkpt lat="45.5728469" lon="10.5384817"><ele>132.66666666666669</ele><time>2026-04-25T14:15:00.732Z</time></trkpt><trkpt lat="45.5729657" lon="10.5384631"><ele>132.33333333333334</ele><time>2026-04-25T14:15:02.732Z</time></trkpt><trkpt lat="45.5730863" lon="10.5384506"><ele>132.0</ele><time>2026-04-25T14:15:04.731Z</time></trkpt><trkpt lat="45.5731519" lon="10.5384406"><ele>131.66666666666666</ele><time>2026-04-25T14:15:05.732Z</time></trkpt><trkpt lat="45.57322" lon="10.5384305"><ele>131.33333333333331</ele><time>2026-04-25T14:15:06.731Z</time></trkpt><trkpt lat="45.5732858" lon="10.538417"><ele>131.0</ele><time>2026-04-25T14:15:07.732Z</time></trkpt><trkpt lat="45.5733496" lon="10.5384103"><ele>131.0</ele><time>2026-04-25T14:15:08.731Z</time></trkpt><trkpt lat="45.5734144" lon="10.5384037"><ele>131.0</ele><time>2026-04-25T14:15:09.73Z</time></trkpt><trkpt lat="45.5734773" lon="10.5383901"><ele>131.0</ele><time>2026-04-25T14:15:10.731Z</time></trkpt><trkpt lat="45.5736003" lon="10.5383518"><ele>131.0</ele><time>2026-04-25T14:15:12.732Z</time></trkpt><trkpt lat="45.5737201" lon="10.5383056"><ele>131.0</ele><time>2026-04-25T14:15:14.731Z</time></trkpt><trkpt lat="45.5738403" lon="10.5382586"><ele>131.42857142857144</ele><time>2026-04-25T14:15:16.731Z</time></trkpt><trkpt lat="45.5739009" lon="10.5382336"><ele>131.85714285714286</ele><time>2026-04-25T14:15:17.731Z</time></trkpt><trkpt lat="45.5739625" lon="10.5382092"><ele>132.28571428571428</ele><time>2026-04-25T14:15:18.731Z</time></trkpt><trkpt lat="45.5740248" lon="10.53818"><ele>132.71428571428572</ele><time>2026-04-25T14:15:19.732Z</time></trkpt><trkpt lat="45.5740859" lon="10.5381576"><ele>133.14285714285714</ele><time>2026-04-25T14:15:20.732Z</time></trkpt><trkpt lat="45.5741479" lon="10.5381366"><ele>133.57142857142858</ele><time>2026-04-25T14:15:21.732Z</time></trkpt><trkpt lat="45.5742093" lon="10.5381119"><ele>134.0</ele><time>2026-04-25T14:15:22.732Z</time></trkpt><trkpt lat="45.5743304" lon="10.5380649"><ele>134.0</ele><time>2026-04-25T14:15:24.73Z</time></trkpt><trkpt lat="45.5743922" lon="10.5380393"><ele>134.0</ele><time>2026-04-25T14:15:25.732Z</time></trkpt><trkpt lat="45.5745132" lon="10.5379976"><ele>134.0</ele><time>2026-04-25T14:15:27.731Z</time></trkpt><trkpt lat="45.5745763" lon="10.5379761"><ele>134.0</ele><time>2026-04-25T14:15:28.73Z</time></trkpt><trkpt lat="45.5746384" lon="10.537959"><ele>134.0</ele><time>2026-04-25T14:15:29.73Z</time></trkpt><trkpt lat="45.5747566" lon="10.5379288"><ele>134.0</ele><time>2026-04-25T14:15:31.731Z</time></trkpt><trkpt lat="45.574874" lon="10.5379012"><ele>134.5</ele><time>2026-04-25T14:15:33.731Z</time></trkpt><trkpt lat="45.5749901" lon="10.5378749"><ele>135.0</ele><time>2026-04-25T14:15:35.732Z</time></trkpt><trkpt lat="45.5751047" lon="10.5378397"><ele>135.5</ele><time>2026-04-25T14:15:37.73Z</time></trkpt><trkpt lat="45.5752218" lon="10.5378039"><ele>136.0</ele><time>2026-04-25T14:15:39.731Z</time></trkpt><trkpt lat="45.575339" lon="10.5377697"><ele>136.6</ele><time>2026-04-25T14:15:41.732Z</time></trkpt><trkpt lat="45.5754432" lon="10.5377545"><ele>137.2</ele><time>2026-04-25T14:15:43.732Z</time></trkpt><trkpt lat="45.5755524" lon="10.5377459"><ele>137.8</ele><time>2026-04-25T14:15:45.731Z</time></trkpt><trkpt lat="45.5756666" lon="10.5377359"><ele>138.4</ele><time>2026-04-25T14:15:47.73Z</time></trkpt><trkpt lat="45.5757818" lon="10.5377329"><ele>139.0</ele><time>2026-04-25T14:15:49.732Z</time></trkpt><trkpt lat="45.5758893" lon="10.5377277"><ele>139.0</ele><time>2026-04-25T14:15:51.732Z</time></trkpt><trkpt lat="45.575988" lon="10.5377252"><ele>139.0</ele><time>2026-04-25T14:15:53.731Z</time></trkpt><trkpt lat="45.576086" lon="10.5377271"><ele>139.0</ele><time>2026-04-25T14:15:55.731Z</time></trkpt><trkpt lat="45.5761857" lon="10.5377232"><ele>139.0</ele><time>2026-04-25T14:15:57.731Z</time></trkpt><trkpt lat="45.5762703" lon="10.5377216"><ele>139.0</ele><time>2026-04-25T14:15:59.731Z</time></trkpt><trkpt lat="45.5763404" lon="10.5376835"><ele>139.66666666666669</ele><time>2026-04-25T14:16:01.732Z</time></trkpt><trkpt lat="45.5764033" lon="10.5376574"><ele>140.33333333333334</ele><time>2026-04-25T14:16:03.731Z</time></trkpt><trkpt lat="45.576482" lon="10.5376293"><ele>141.0</ele><time>2026-04-25T14:16:05.732Z</time></trkpt><trkpt lat="45.5765588" lon="10.5375989"><ele>141.66666666666666</ele><time>2026-04-25T14:16:07.731Z</time></trkpt><trkpt lat="45.5766343" lon="10.5375719"><ele>142.33333333333331</ele><time>2026-04-25T14:16:09.732Z</time></trkpt><trkpt lat="45.5767193" lon="10.5375393"><ele>143.0</ele><time>2026-04-25T14:16:11.731Z</time></trkpt><trkpt lat="45.5768082" lon="10.5374973"><ele>143.0</ele><time>2026-04-25T14:16:13.731Z</time></trkpt><trkpt lat="45.5768952" lon="10.5374697"><ele>143.0</ele><time>2026-04-25T14:16:15.731Z</time></trkpt><trkpt lat="45.5769841" lon="10.5374315"><ele>143.0</ele><time>2026-04-25T14:16:17.732Z</time></trkpt><trkpt lat="45.5770759" lon="10.537402"><ele>143.0</ele><time>2026-04-25T14:16:19.732Z</time></trkpt><trkpt lat="45.5771685" lon="10.5373793"><ele>143.0</ele><time>2026-04-25T14:16:21.73Z</time></trkpt><trkpt lat="45.5772558" lon="10.5373708"><ele>143.66666666666666</ele><time>2026-04-25T14:16:23.732Z</time></trkpt><trkpt lat="45.5773386" lon="10.5373808"><ele>144.33333333333331</ele><time>2026-04-25T14:16:25.731Z</time></trkpt><trkpt lat="45.5774275" lon="10.5373642"><ele>145.0</ele><time>2026-04-25T14:16:27.731Z</time></trkpt><trkpt lat="45.5775079" lon="10.5373315"><ele>145.66666666666666</ele><time>2026-04-25T14:16:29.731Z</time></trkpt><trkpt lat="45.5775808" lon="10.537262"><ele>146.33333333333334</ele><time>2026-04-25T14:16:31.732Z</time></trkpt><trkpt lat="45.577646" lon="10.5371963"><ele>147.0</ele><time>2026-04-25T14:16:33.732Z</time></trkpt><trkpt lat="45.5777183" lon="10.5371123"><ele>146.66666666666666</ele><time>2026-04-25T14:16:35.732Z</time></trkpt><trkpt lat="45.577783" lon="10.5370186"><ele>146.33333333333334</ele><time>2026-04-25T14:16:37.731Z</time></trkpt><trkpt lat="45.5778418" lon="10.5369324"><ele>146.0</ele><time>2026-04-25T14:16:39.731Z</time></trkpt><trkpt lat="45.5778845" lon="10.5368478"><ele>145.66666666666669</ele><time>2026-04-25T14:16:41.732Z</time></trkpt><trkpt lat="45.5779022" lon="10.5367559"><ele>145.33333333333334</ele><time>2026-04-25T14:16:43.731Z</time></trkpt><trkpt lat="45.5779206" lon="10.5366408"><ele>145.0</ele><time>2026-04-25T14:16:45.731Z</time></trkpt><trkpt lat="45.5779358" lon="10.5364941"><ele>145.4</ele><time>2026-04-25T14:16:47.732Z</time></trkpt><trkpt lat="45.5779616" lon="10.5363413"><ele>145.8</ele><time>2026-04-25T14:16:49.731Z</time></trkpt><trkpt lat="45.5779992" lon="10.5362112"><ele>146.2</ele><time>2026-04-25T14:16:51.731Z</time></trkpt><trkpt lat="45.5780573" lon="10.5361154"><ele>146.6</ele><time>2026-04-25T14:16:53.731Z</time></trkpt><trkpt lat="45.5781374" lon="10.5360269"><ele>147.0</ele><time>2026-04-25T14:16:55.731Z</time></trkpt><trkpt lat="45.5782302" lon="10.5359463"><ele>147.0</ele><time>2026-04-25T14:16:57.731Z</time></trkpt><trkpt lat="45.5783199" lon="10.5358712"><ele>147.0</ele><time>2026-04-25T14:16:59.732Z</time></trkpt><trkpt lat="45.5784078" lon="10.5357955"><ele>147.0</ele><time>2026-04-25T14:17:01.731Z</time></trkpt><trkpt lat="45.5784879" lon="10.5357236"><ele>147.0</ele><time>2026-04-25T14:17:03.73Z</time></trkpt><trkpt lat="45.5785576" lon="10.5356556"><ele>147.0</ele><time>2026-04-25T14:17:05.732Z</time></trkpt><trkpt lat="45.578616" lon="10.535619"><ele>147.0</ele><time>2026-04-25T14:17:07.732Z</time></trkpt><trkpt lat="45.5786789" lon="10.535574"><ele>148.0</ele><time>2026-04-25T14:17:11.732Z</time></trkpt><trkpt lat="45.5787482" lon="10.5355972"><ele>149.0</ele><time>2026-04-25T14:17:15.732Z</time></trkpt><trkpt lat="45.5788334" lon="10.5356285"><ele>150.0</ele><time>2026-04-25T14:17:18.731Z</time></trkpt><trkpt lat="45.5789115" lon="10.53566"><ele>151.0</ele><time>2026-04-25T14:17:20.731Z</time></trkpt><trkpt lat="45.5789911" lon="10.5356872"><ele>152.0</ele><time>2026-04-25T14:17:22.731Z</time></trkpt><trkpt lat="45.579067" lon="10.535707"><ele>153.0</ele><time>2026-04-25T14:17:24.731Z</time></trkpt><trkpt lat="45.5791368" lon="10.5357152"><ele>153.0</ele><time>2026-04-25T14:17:26.731Z</time></trkpt><trkpt lat="45.5792004" lon="10.5357379"><ele>153.0</ele><time>2026-04-25T14:17:28.732Z</time></trkpt><trkpt lat="45.5792859" lon="10.5357732"><ele>153.0</ele><time>2026-04-25T14:17:31.732Z</time></trkpt><trkpt lat="45.5793702" lon="10.5357807"><ele>153.0</ele><time>2026-04-25T14:17:34.731Z</time></trkpt><trkpt lat="45.579452" lon="10.5357735"><ele>153.0</ele><time>2026-04-25T14:17:37.731Z</time></trkpt><trkpt lat="45.5795216" lon="10.535712"><ele>153.0</ele><time>2026-04-25T14:17:40.732Z</time></trkpt><trkpt lat="45.5795886" lon="10.5356085"><ele>153.5</ele><time>2026-04-25T14:17:43.73Z</time></trkpt><trkpt lat="45.579662" lon="10.5355483"><ele>154.0</ele><time>2026-04-25T14:17:45.731Z</time></trkpt><trkpt lat="45.5797376" lon="10.5354844"><ele>154.5</ele><time>2026-04-25T14:17:47.732Z</time></trkpt><trkpt lat="45.5798112" lon="10.5354231"><ele>155.0</ele><time>2026-04-25T14:17:49.731Z</time></trkpt><trkpt lat="45.5798854" lon="10.5353608"><ele>155.5</ele><time>2026-04-25T14:17:51.731Z</time></trkpt><trkpt lat="45.5799636" lon="10.5352959"><ele>156.0</ele><time>2026-04-25T14:17:53.732Z</time></trkpt><trkpt lat="45.5800471" lon="10.5352303"><ele>156.0</ele><time>2026-04-25T14:17:55.732Z</time></trkpt><trkpt lat="45.5800933" lon="10.5351293"><ele>156.0</ele><time>2026-04-25T14:17:57.731Z</time></trkpt><trkpt lat="45.5801637" lon="10.5350287"><ele>156.0</ele><time>2026-04-25T14:17:59.732Z</time></trkpt><trkpt lat="45.5802294" lon="10.5349322"><ele>156.0</ele><time>2026-04-25T14:18:01.731Z</time></trkpt><trkpt lat="45.5803019" lon="10.5348388"><ele>156.0</ele><time>2026-04-25T14:18:03.732Z</time></trkpt><trkpt lat="45.5803779" lon="10.5347613"><ele>156.66666666666666</ele><time>2026-04-25T14:18:05.731Z</time></trkpt><trkpt lat="45.5804502" lon="10.5346785"><ele>157.33333333333334</ele><time>2026-04-25T14:18:07.731Z</time></trkpt><trkpt lat="45.5805162" lon="10.5346056"><ele>158.0</ele><time>2026-04-25T14:18:09.732Z</time></trkpt><trkpt lat="45.5805837" lon="10.5345452"><ele>158.66666666666669</ele><time>2026-04-25T14:18:11.731Z</time></trkpt><trkpt lat="45.5806372" lon="10.5344773"><ele>159.33333333333334</ele><time>2026-04-25T14:18:13.732Z</time></trkpt><trkpt lat="45.5806523" lon="10.5343841"><ele>160.0</ele><time>2026-04-25T14:18:15.731Z</time></trkpt><trkpt lat="45.5806425" lon="10.5342707"><ele>160.0</ele><time>2026-04-25T14:18:17.73Z</time></trkpt><trkpt lat="45.5805791" lon="10.5341268"><ele>160.0</ele><time>2026-04-25T14:18:19.732Z</time></trkpt><trkpt lat="45.5805337" lon="10.5340169"><ele>160.0</ele><time>2026-04-25T14:18:21.731Z</time></trkpt><trkpt lat="45.5805095" lon="10.5339149"><ele>160.0</ele><time>2026-04-25T14:18:23.731Z</time></trkpt><trkpt lat="45.5805322" lon="10.5338212"><ele>160.0</ele><time>2026-04-25T14:18:25.732Z</time></trkpt><trkpt lat="45.5805919" lon="10.5337744"><ele>160.0</ele><time>2026-04-25T14:18:27.731Z</time></trkpt><trkpt lat="45.5806747" lon="10.5337653"><ele>160.0</ele><time>2026-04-25T14:18:29.73Z</time></trkpt><trkpt lat="45.5807485" lon="10.5337661"><ele>160.0</ele><time>2026-04-25T14:18:31.73Z</time></trkpt><trkpt lat="45.5808096" lon="10.5337142"><ele>160.0</ele><time>2026-04-25T14:18:33.731Z</time></trkpt><trkpt lat="45.5808248" lon="10.5335734"><ele>160.0</ele><time>2026-04-25T14:18:35.731Z</time></trkpt><trkpt lat="45.5808499" lon="10.533417"><ele>160.0</ele><time>2026-04-25T14:18:37.732Z</time></trkpt><trkpt lat="45.5808699" lon="10.5332325"><ele>159.2</ele><time>2026-04-25T14:18:39.732Z</time></trkpt><trkpt lat="45.5808784" lon="10.5331395"><ele>158.4</ele><time>2026-04-25T14:18:40.732Z</time></trkpt><trkpt lat="45.5808937" lon="10.5329665"><ele>157.6</ele><time>2026-04-25T14:18:42.731Z</time></trkpt><trkpt lat="45.5809031" lon="10.5328752"><ele>156.8</ele><time>2026-04-25T14:18:43.732Z</time></trkpt><trkpt lat="45.5809237" lon="10.5327039"><ele>156.0</ele><time>2026-04-25T14:18:45.731Z</time></trkpt><trkpt lat="45.5809394" lon="10.532531"><ele>156.16666666666666</ele><time>2026-04-25T14:18:47.732Z</time></trkpt><trkpt lat="45.5809557" lon="10.5323835"><ele>156.33333333333334</ele><time>2026-04-25T14:18:49.732Z</time></trkpt><trkpt lat="45.5809737" lon="10.5322846"><ele>156.5</ele><time>2026-04-25T14:18:51.732Z</time></trkpt><trkpt lat="45.5810547" lon="10.5322259"><ele>156.66666666666669</ele><time>2026-04-25T14:18:54.732Z</time></trkpt><trkpt lat="45.5811328" lon="10.5322575"><ele>156.83333333333334</ele><time>2026-04-25T14:18:56.732Z</time></trkpt><trkpt lat="45.581228" lon="10.5322889"><ele>157.0</ele><time>2026-04-25T14:18:58.731Z</time></trkpt><trkpt lat="45.5813232" lon="10.5323172"><ele>157.0</ele><time>2026-04-25T14:19:00.732Z</time></trkpt><trkpt lat="45.5814161" lon="10.5323489"><ele>157.0</ele><time>2026-04-25T14:19:02.731Z</time></trkpt><trkpt lat="45.5815117" lon="10.5323752"><ele>157.0</ele><time>2026-04-25T14:19:04.732Z</time></trkpt><trkpt lat="45.5816181" lon="10.5323671"><ele>157.0</ele><time>2026-04-25T14:19:06.732Z</time></trkpt><trkpt lat="45.5817124" lon="10.5323389"><ele>157.0</ele><time>2026-04-25T14:19:08.732Z</time></trkpt><trkpt lat="45.5817974" lon="10.5322924"><ele>157.0</ele><time>2026-04-25T14:19:10.732Z</time></trkpt><trkpt lat="45.5818813" lon="10.5322327"><ele>157.0</ele><time>2026-04-25T14:19:12.731Z</time></trkpt><trkpt lat="45.5819623" lon="10.5321707"><ele>157.0</ele><time>2026-04-25T14:19:14.731Z</time></trkpt><trkpt lat="45.5820472" lon="10.5321113"><ele>157.0</ele><time>2026-04-25T14:19:16.732Z</time></trkpt><trkpt lat="45.5821352" lon="10.5320831"><ele>157.0</ele><time>2026-04-25T14:19:18.731Z</time></trkpt><trkpt lat="45.5822123" lon="10.532079"><ele>157.0</ele><time>2026-04-25T14:19:20.731Z</time></trkpt><trkpt lat="45.5822919" lon="10.5320838"><ele>157.5</ele><time>2026-04-25T14:19:22.732Z</time></trkpt><trkpt lat="45.5823672" lon="10.5321022"><ele>158.0</ele><time>2026-04-25T14:19:24.731Z</time></trkpt><trkpt lat="45.5824389" lon="10.53213"><ele>158.5</ele><time>2026-04-25T14:19:26.731Z</time></trkpt><trkpt lat="45.5825147" lon="10.5321721"><ele>159.0</ele><time>2026-04-25T14:19:28.732Z</time></trkpt><trkpt lat="45.5825897" lon="10.5322065"><ele>159.5</ele><time>2026-04-25T14:19:30.732Z</time></trkpt><trkpt lat="45.5826625" lon="10.5322468"><ele>160.0</ele><time>2026-04-25T14:19:32.732Z</time></trkpt><trkpt lat="45.5827368" lon="10.5322866"><ele>160.0</ele><time>2026-04-25T14:19:34.732Z</time></trkpt><trkpt lat="45.5828113" lon="10.5323263"><ele>160.0</ele><time>2026-04-25T14:19:36.73Z</time></trkpt><trkpt lat="45.5828876" lon="10.5323641"><ele>160.0</ele><time>2026-04-25T14:19:38.732Z</time></trkpt><trkpt lat="45.5829646" lon="10.5324014"><ele>160.0</ele><time>2026-04-25T14:19:40.732Z</time></trkpt><trkpt lat="45.5830408" lon="10.532444"><ele>160.0</ele><time>2026-04-25T14:19:42.732Z</time></trkpt><trkpt lat="45.5831164" lon="10.5324846"><ele>160.0</ele><time>2026-04-25T14:19:44.732Z</time></trkpt><trkpt lat="45.5831892" lon="10.5325299"><ele>160.83333333333334</ele><time>2026-04-25T14:19:46.732Z</time></trkpt><trkpt lat="45.5832647" lon="10.5325686"><ele>161.66666666666669</ele><time>2026-04-25T14:19:48.731Z</time></trkpt><trkpt lat="45.5833411" lon="10.5326044"><ele>162.5</ele><time>2026-04-25T14:19:50.731Z</time></trkpt><trkpt lat="45.5834166" lon="10.5326477"><ele>163.33333333333334</ele><time>2026-04-25T14:19:52.73Z</time></trkpt><trkpt lat="45.5834875" lon="10.5326933"><ele>164.16666666666666</ele><time>2026-04-25T14:19:54.731Z</time></trkpt><trkpt lat="45.5835974" lon="10.5327476"><ele>165.0</ele><time>2026-04-25T14:19:57.731Z</time></trkpt><trkpt lat="45.5836622" lon="10.5327147"><ele>166.4</ele><time>2026-04-25T14:19:59.731Z</time></trkpt><trkpt lat="45.5837256" lon="10.5326361"><ele>167.8</ele><time>2026-04-25T14:20:01.731Z</time></trkpt><trkpt lat="45.5838001" lon="10.5325437"><ele>169.2</ele><time>2026-04-25T14:20:03.731Z</time></trkpt><trkpt lat="45.5838713" lon="10.532458"><ele>170.6</ele><time>2026-04-25T14:20:05.732Z</time></trkpt><trkpt lat="45.583954" lon="10.5323673"><ele>172.0</ele><time>2026-04-25T14:20:07.732Z</time></trkpt><trkpt lat="45.5840362" lon="10.5322828"><ele>172.0</ele><time>2026-04-25T14:20:09.731Z</time></trkpt><trkpt lat="45.5841268" lon="10.5321858"><ele>172.0</ele><time>2026-04-25T14:20:11.731Z</time></trkpt><trkpt lat="45.5842252" lon="10.532084"><ele>172.0</ele><time>2026-04-25T14:20:13.731Z</time></trkpt><trkpt lat="45.5843224" lon="10.5319849"><ele>172.0</ele><time>2026-04-25T14:20:15.731Z</time></trkpt><trkpt lat="45.5843744" lon="10.5319341"><ele>172.0</ele><time>2026-04-25T14:20:16.732Z</time></trkpt><trkpt lat="45.5844752" lon="10.5318292"><ele>171.5</ele><time>2026-04-25T14:20:18.731Z</time></trkpt><trkpt lat="45.5845309" lon="10.5317723"><ele>171.0</ele><time>2026-04-25T14:20:19.732Z</time></trkpt><trkpt lat="45.5846466" lon="10.5316717"><ele>170.5</ele><time>2026-04-25T14:20:21.732Z</time></trkpt><trkpt lat="45.5847059" lon="10.5316235"><ele>170.0</ele><time>2026-04-25T14:20:22.731Z</time></trkpt><trkpt lat="45.5847663" lon="10.5315741"><ele>169.5</ele><time>2026-04-25T14:20:23.732Z</time></trkpt><trkpt lat="45.5848299" lon="10.5315251"><ele>169.0</ele><time>2026-04-25T14:20:24.732Z</time></trkpt><trkpt lat="45.584889" lon="10.5314683"><ele>169.0</ele><time>2026-04-25T14:20:25.732Z</time></trkpt><trkpt lat="45.5849614" lon="10.5314164"><ele>169.0</ele><time>2026-04-25T14:20:26.731Z</time></trkpt><trkpt lat="45.58502" lon="10.5313689"><ele>169.0</ele><time>2026-04-25T14:20:27.732Z</time></trkpt><trkpt lat="45.5850784" lon="10.5313153"><ele>169.0</ele><time>2026-04-25T14:20:28.732Z</time></trkpt><trkpt lat="45.5851404" lon="10.5312605"><ele>169.0</ele><time>2026-04-25T14:20:29.731Z</time></trkpt><trkpt lat="45.5852052" lon="10.5312049"><ele>169.0</ele><time>2026-04-25T14:20:30.732Z</time></trkpt><trkpt lat="45.5852728" lon="10.5311591"><ele>169.0</ele><time>2026-04-25T14:20:31.731Z</time></trkpt><trkpt lat="45.5853865" lon="10.5310713"><ele>169.16666666666669</ele><time>2026-04-25T14:20:33.731Z</time></trkpt><trkpt lat="45.5854854" lon="10.530983"><ele>169.33333333333334</ele><time>2026-04-25T14:20:35.732Z</time></trkpt><trkpt lat="45.5855406" lon="10.5309342"><ele>169.5</ele><time>2026-04-25T14:20:36.732Z</time></trkpt><trkpt lat="45.5855976" lon="10.5308822"><ele>169.66666666666666</ele><time>2026-04-25T14:20:37.731Z</time></trkpt><trkpt lat="45.5856548" lon="10.5308354"><ele>169.83333333333331</ele><time>2026-04-25T14:20:38.732Z</time></trkpt><trkpt lat="45.58572" lon="10.530781"><ele>170.0</ele><time>2026-04-25T14:20:39.731Z</time></trkpt><trkpt lat="45.5858249" lon="10.5306808"><ele>170.0</ele><time>2026-04-25T14:20:41.731Z</time></trkpt><trkpt lat="45.585878" lon="10.5306258"><ele>170.0</ele><time>2026-04-25T14:20:42.732Z</time></trkpt><trkpt lat="45.5859313" lon="10.5305687"><ele>170.0</ele><time>2026-04-25T14:20:43.732Z</time></trkpt><trkpt lat="45.5859798" lon="10.5305053"><ele>170.0</ele><time>2026-04-25T14:20:44.731Z</time></trkpt><trkpt lat="45.5860391" lon="10.530444"><ele>170.0</ele><time>2026-04-25T14:20:45.73Z</time></trkpt><trkpt lat="45.586092" lon="10.5303778"><ele>170.0</ele><time>2026-04-25T14:20:46.732Z</time></trkpt><trkpt lat="45.5861398" lon="10.5303106"><ele>170.0</ele><time>2026-04-25T14:20:47.731Z</time></trkpt><trkpt lat="45.5861921" lon="10.5302457"><ele>170.0</ele><time>2026-04-25T14:20:48.732Z</time></trkpt><trkpt lat="45.5862466" lon="10.5301755"><ele>170.0</ele><time>2026-04-25T14:20:49.731Z</time></trkpt><trkpt lat="45.5862945" lon="10.5301077"><ele>170.0</ele><time>2026-04-25T14:20:50.73Z</time></trkpt><trkpt lat="45.5863423" lon="10.5300318"><ele>170.0</ele><time>2026-04-25T14:20:51.732Z</time></trkpt><trkpt lat="45.5863774" lon="10.5299561"><ele>170.0</ele><time>2026-04-25T14:20:52.732Z</time></trkpt><trkpt lat="45.5864132" lon="10.529874"><ele>170.0</ele><time>2026-04-25T14:20:53.732Z</time></trkpt><trkpt lat="45.5864453" lon="10.5297894"><ele>170.0</ele><time>2026-04-25T14:20:54.732Z</time></trkpt><trkpt lat="45.5865072" lon="10.5296244"><ele>169.6</ele><time>2026-04-25T14:20:56.732Z</time></trkpt><trkpt lat="45.5865425" lon="10.5295369"><ele>169.2</ele><time>2026-04-25T14:20:57.731Z</time></trkpt><trkpt lat="45.5865935" lon="10.529372"><ele>168.8</ele><time>2026-04-25T14:20:59.731Z</time></trkpt><trkpt lat="45.5866431" lon="10.5292186"><ele>168.4</ele><time>2026-04-25T14:21:01.731Z</time></trkpt><trkpt lat="45.5866843" lon="10.5291254"><ele>168.0</ele><time>2026-04-25T14:21:02.731Z</time></trkpt><trkpt lat="45.5867201" lon="10.5290474"><ele>168.0</ele><time>2026-04-25T14:21:03.732Z</time></trkpt><trkpt lat="45.586783" lon="10.5288981"><ele>168.0</ele><time>2026-04-25T14:21:05.731Z</time></trkpt><trkpt lat="45.5868452" lon="10.5287425"><ele>168.0</ele><time>2026-04-25T14:21:07.732Z</time></trkpt><trkpt lat="45.5869121" lon="10.5285858"><ele>168.0</ele><time>2026-04-25T14:21:09.732Z</time></trkpt><trkpt lat="45.5869438" lon="10.5285054"><ele>168.0</ele><time>2026-04-25T14:21:10.732Z</time></trkpt><trkpt lat="45.5869753" lon="10.5284255"><ele>168.2</ele><time>2026-04-25T14:21:11.732Z</time></trkpt><trkpt lat="45.5870133" lon="10.5283439"><ele>168.4</ele><time>2026-04-25T14:21:12.731Z</time></trkpt><trkpt lat="45.5870754" lon="10.5281955"><ele>168.6</ele><time>2026-04-25T14:21:14.732Z</time></trkpt><trkpt lat="45.58711" lon="10.5281167"><ele>168.79999999999998</ele><time>2026-04-25T14:21:15.732Z</time></trkpt><trkpt lat="45.587206" lon="10.5278963"><ele>169.0</ele><time>2026-04-25T14:21:18.732Z</time></trkpt><trkpt lat="45.5872738" lon="10.5277488"><ele>169.0</ele><time>2026-04-25T14:21:20.732Z</time></trkpt><trkpt lat="45.5873098" lon="10.5276682"><ele>169.0</ele><time>2026-04-25T14:21:21.732Z</time></trkpt><trkpt lat="45.5873753" lon="10.527511"><ele>169.0</ele><time>2026-04-25T14:21:23.732Z</time></trkpt><trkpt lat="45.5874124" lon="10.5274312"><ele>169.0</ele><time>2026-04-25T14:21:24.731Z</time></trkpt><trkpt lat="45.587449" lon="10.5273557"><ele>169.0</ele><time>2026-04-25T14:21:25.732Z</time></trkpt><trkpt lat="45.5874867" lon="10.5272781"><ele>169.0</ele><time>2026-04-25T14:21:26.731Z</time></trkpt><trkpt lat="45.5875248" lon="10.5272037"><ele>169.0</ele><time>2026-04-25T14:21:27.732Z</time></trkpt><trkpt lat="45.5875634" lon="10.5271288"><ele>169.0</ele><time>2026-04-25T14:21:28.732Z</time></trkpt><trkpt lat="45.587642" lon="10.5269921"><ele>169.0</ele><time>2026-04-25T14:21:30.731Z</time></trkpt><trkpt lat="45.5876914" lon="10.5269114"><ele>169.0</ele><time>2026-04-25T14:21:31.731Z</time></trkpt><trkpt lat="45.5877265" lon="10.526835"><ele>169.0</ele><time>2026-04-25T14:21:32.732Z</time></trkpt><trkpt lat="45.5877564" lon="10.5267531"><ele>169.0</ele><time>2026-04-25T14:21:33.73Z</time></trkpt><trkpt lat="45.5878228" lon="10.5265964"><ele>168.83333333333334</ele><time>2026-04-25T14:21:35.732Z</time></trkpt><trkpt lat="45.5878568" lon="10.5265154"><ele>168.66666666666669</ele><time>2026-04-25T14:21:36.732Z</time></trkpt><trkpt lat="45.5878926" lon="10.5264365"><ele>168.5</ele><time>2026-04-25T14:21:37.73Z</time></trkpt><trkpt lat="45.5879271" lon="10.5263575"><ele>168.33333333333334</ele><time>2026-04-25T14:21:38.732Z</time></trkpt><trkpt lat="45.5879678" lon="10.5262827"><ele>168.16666666666666</ele><time>2026-04-25T14:21:39.731Z</time></trkpt><trkpt lat="45.5880403" lon="10.5261391"><ele>168.0</ele><time>2026-04-25T14:21:41.732Z</time></trkpt><trkpt lat="45.5881106" lon="10.5259968"><ele>168.0</ele><time>2026-04-25T14:21:43.732Z</time></trkpt><trkpt lat="45.5881836" lon="10.5258581"><ele>168.0</ele><time>2026-04-25T14:21:45.731Z</time></trkpt><trkpt lat="45.5882602" lon="10.5257229"><ele>168.0</ele><time>2026-04-25T14:21:47.731Z</time></trkpt><trkpt lat="45.5883367" lon="10.5255896"><ele>168.0</ele><time>2026-04-25T14:21:49.731Z</time></trkpt><trkpt lat="45.58841" lon="10.5254611"><ele>167.5</ele><time>2026-04-25T14:21:51.731Z</time></trkpt><trkpt lat="45.5884722" lon="10.5253268"><ele>167.0</ele><time>2026-04-25T14:21:53.732Z</time></trkpt><trkpt lat="45.588546" lon="10.5252117"><ele>166.5</ele><time>2026-04-25T14:21:55.731Z</time></trkpt><trkpt lat="45.5886702" lon="10.5250533"><ele>166.0</ele><time>2026-04-25T14:21:58.73Z</time></trkpt><trkpt lat="45.5887669" lon="10.5249503"><ele>166.28571428571428</ele><time>2026-04-25T14:22:00.732Z</time></trkpt><trkpt lat="45.5888206" lon="10.5248975"><ele>166.57142857142858</ele><time>2026-04-25T14:22:01.731Z</time></trkpt><trkpt lat="45.5889228" lon="10.5247935"><ele>166.85714285714286</ele><time>2026-04-25T14:22:03.732Z</time></trkpt><trkpt lat="45.5889732" lon="10.5247375"><ele>167.14285714285714</ele><time>2026-04-25T14:22:04.731Z</time></trkpt><trkpt lat="45.5890263" lon="10.5246851"><ele>167.42857142857144</ele><time>2026-04-25T14:22:05.732Z</time></trkpt><trkpt lat="45.5890794" lon="10.5246342"><ele>167.71428571428572</ele><time>2026-04-25T14:22:06.732Z</time></trkpt><trkpt lat="45.5891384" lon="10.5245939"><ele>168.0</ele><time>2026-04-25T14:22:07.731Z</time></trkpt><trkpt lat="45.5892044" lon="10.5245555"><ele>168.0</ele><time>2026-04-25T14:22:08.732Z</time></trkpt><trkpt lat="45.5892639" lon="10.5245156"><ele>168.0</ele><time>2026-04-25T14:22:09.731Z</time></trkpt><trkpt lat="45.589325" lon="10.5244718"><ele>168.0</ele><time>2026-04-25T14:22:10.731Z</time></trkpt><trkpt lat="45.5893841" lon="10.5244238"><ele>168.0</ele><time>2026-04-25T14:22:11.731Z</time></trkpt><trkpt lat="45.589446" lon="10.5243902"><ele>168.0</ele><time>2026-04-25T14:22:12.731Z</time></trkpt><trkpt lat="45.5895067" lon="10.5243446"><ele>168.0</ele><time>2026-04-25T14:22:13.731Z</time></trkpt><trkpt lat="45.5895668" lon="10.5242918"><ele>168.0</ele><time>2026-04-25T14:22:14.732Z</time></trkpt><trkpt lat="45.5896235" lon="10.5242364"><ele>168.33333333333334</ele><time>2026-04-25T14:22:15.731Z</time></trkpt><trkpt lat="45.5896772" lon="10.5241874"><ele>168.66666666666666</ele><time>2026-04-25T14:22:16.732Z</time></trkpt><trkpt lat="45.5897737" lon="10.5240953"><ele>169.0</ele><time>2026-04-25T14:22:18.732Z</time></trkpt><trkpt lat="45.5898524" lon="10.5239862"><ele>169.33333333333331</ele><time>2026-04-25T14:22:20.731Z</time></trkpt><trkpt lat="45.5898974" lon="10.5239144"><ele>169.66666666666666</ele><time>2026-04-25T14:22:21.731Z</time></trkpt><trkpt lat="45.5899445" lon="10.5238309"><ele>170.0</ele><time>2026-04-25T14:22:22.73Z</time></trkpt><trkpt lat="45.589985" lon="10.5237592"><ele>169.2</ele><time>2026-04-25T14:22:23.732Z</time></trkpt><trkpt lat="45.5900667" lon="10.5236194"><ele>168.4</ele><time>2026-04-25T14:22:25.732Z</time></trkpt><trkpt lat="45.5901061" lon="10.5235487"><ele>167.60000000000002</ele><time>2026-04-25T14:22:26.731Z</time></trkpt><trkpt lat="45.5901482" lon="10.523479"><ele>166.8</ele><time>2026-04-25T14:22:27.732Z</time></trkpt><trkpt lat="45.5902316" lon="10.523362"><ele>166.0</ele><time>2026-04-25T14:22:29.732Z</time></trkpt><trkpt lat="45.5902984" lon="10.5233012"><ele>166.4</ele><time>2026-04-25T14:22:30.731Z</time></trkpt><trkpt lat="45.5904437" lon="10.52327"><ele>166.8</ele><time>2026-04-25T14:22:32.73Z</time></trkpt><trkpt lat="45.5905246" lon="10.5232649"><ele>167.20000000000002</ele><time>2026-04-25T14:22:33.731Z</time></trkpt><trkpt lat="45.5906125" lon="10.5232662"><ele>167.60000000000002</ele><time>2026-04-25T14:22:34.732Z</time></trkpt><trkpt lat="45.5906962" lon="10.5232698"><ele>168.0</ele><time>2026-04-25T14:22:35.731Z</time></trkpt><trkpt lat="45.5907821" lon="10.5232749"><ele>168.0</ele><time>2026-04-25T14:22:36.732Z</time></trkpt><trkpt lat="45.5908628" lon="10.5232762"><ele>168.0</ele><time>2026-04-25T14:22:37.731Z</time></trkpt><trkpt lat="45.5909371" lon="10.523276"><ele>168.0</ele><time>2026-04-25T14:22:38.732Z</time></trkpt><trkpt lat="45.59103" lon="10.5232673"><ele>168.0</ele><time>2026-04-25T14:22:40.731Z</time></trkpt><trkpt lat="45.5910934" lon="10.5232366"><ele>168.0</ele><time>2026-04-25T14:22:43.731Z</time></trkpt><trkpt lat="45.5910137" lon="10.5231908"><ele>168.0</ele><time>2026-04-25T14:22:45.73Z</time></trkpt><trkpt lat="45.5909072" lon="10.5231624"><ele>168.0</ele><time>2026-04-25T14:22:47.731Z</time></trkpt><trkpt lat="45.5908291" lon="10.5231436"><ele>168.0</ele><time>2026-04-25T14:22:49.732Z</time></trkpt><trkpt lat="45.590867" lon="10.5230439"><ele>168.0</ele><time>2026-04-25T14:22:52.732Z</time></trkpt><trkpt lat="45.5908791" lon="10.5228993"><ele>168.0</ele><time>2026-04-25T14:22:56.732Z</time></trkpt><trkpt lat="45.5909384" lon="10.5228193"><ele>168.0</ele><time>2026-04-25T14:22:58.732Z</time></trkpt><trkpt lat="45.5910045" lon="10.5227403"><ele>168.0</ele><time>2026-04-25T14:23:00.73Z</time></trkpt><trkpt lat="45.591058" lon="10.5226549"><ele>166.33333333333334</ele><time>2026-04-25T14:23:02.731Z</time></trkpt><trkpt lat="45.5910919" lon="10.5225732"><ele>164.66666666666666</ele><time>2026-04-25T14:23:04.732Z</time></trkpt><trkpt lat="45.5910699" lon="10.5224523"><ele>163.0</ele><time>2026-04-25T14:23:08.731Z</time></trkpt><trkpt lat="45.5910656" lon="10.5223588"><ele>161.33333333333331</ele><time>2026-04-25T14:23:10.732Z</time></trkpt><trkpt lat="45.5910434" lon="10.5222495"><ele>159.66666666666666</ele><time>2026-04-25T14:23:12.731Z</time></trkpt><trkpt lat="45.5910081" lon="10.5221367"><ele>158.0</ele><time>2026-04-25T14:23:14.732Z</time></trkpt><trkpt lat="45.5909552" lon="10.5220117"><ele>158.0</ele><time>2026-04-25T14:23:16.731Z</time></trkpt><trkpt lat="45.5909064" lon="10.5218728"><ele>158.0</ele><time>2026-04-25T14:23:18.731Z</time></trkpt><trkpt lat="45.5908522" lon="10.5217213"><ele>158.0</ele><time>2026-04-25T14:23:20.732Z</time></trkpt><trkpt lat="45.59079" lon="10.5215692"><ele>158.0</ele><time>2026-04-25T14:23:22.732Z</time></trkpt><trkpt lat="45.5907585" lon="10.5214888"><ele>158.0</ele><time>2026-04-25T14:23:23.731Z</time></trkpt><trkpt lat="45.590754" lon="10.5213914"><ele>158.0</ele><time>2026-04-25T14:23:24.73Z</time></trkpt><trkpt lat="45.5907486" lon="10.5212972"><ele>158.0</ele><time>2026-04-25T14:23:25.732Z</time></trkpt><trkpt lat="45.5908051" lon="10.5211496"><ele>158.0</ele><time>2026-04-25T14:23:27.732Z</time></trkpt><trkpt lat="45.5908667" lon="10.5209998"><ele>158.0</ele><time>2026-04-25T14:23:29.731Z</time></trkpt><trkpt lat="45.5909309" lon="10.5208368"><ele>158.0</ele><time>2026-04-25T14:23:31.731Z</time></trkpt><trkpt lat="45.5909521" lon="10.5207142"><ele>158.0</ele><time>2026-04-25T14:23:33.731Z</time></trkpt><trkpt lat="45.5909455" lon="10.520618"><ele>158.0</ele><time>2026-04-25T14:23:34.732Z</time></trkpt><trkpt lat="45.5908916" lon="10.520486"><ele>158.0</ele><time>2026-04-25T14:23:36.731Z</time></trkpt><trkpt lat="45.5908318" lon="10.5204542"><ele>158.0</ele><time>2026-04-25T14:23:37.731Z</time></trkpt><trkpt lat="45.5907348" lon="10.5203744"><ele>158.0</ele><time>2026-04-25T14:23:39.732Z</time></trkpt><trkpt lat="45.5906259" lon="10.5203238"><ele>159.4</ele><time>2026-04-25T14:23:41.732Z</time></trkpt><trkpt lat="45.5905324" lon="10.5202836"><ele>160.8</ele><time>2026-04-25T14:23:43.73Z</time></trkpt><trkpt lat="45.5904987" lon="10.5201391"><ele>162.2</ele><time>2026-04-25T14:23:45.731Z</time></trkpt><trkpt lat="45.5905018" lon="10.5199883"><ele>163.6</ele><time>2026-04-25T14:23:47.732Z</time></trkpt><trkpt lat="45.5905021" lon="10.5198512"><ele>165.0</ele><time>2026-04-25T14:23:49.73Z</time></trkpt><trkpt lat="45.5905127" lon="10.5197197"><ele>165.0</ele><time>2026-04-25T14:23:51.732Z</time></trkpt><trkpt lat="45.5904995" lon="10.519593"><ele>165.0</ele><time>2026-04-25T14:23:53.732Z</time></trkpt><trkpt lat="45.5904983" lon="10.5194734"><ele>165.0</ele><time>2026-04-25T14:23:55.731Z</time></trkpt><trkpt lat="45.5904958" lon="10.5193483"><ele>165.0</ele><time>2026-04-25T14:23:57.73Z</time></trkpt><trkpt lat="45.5904874" lon="10.5192321"><ele>165.0</ele><time>2026-04-25T14:23:59.732Z</time></trkpt><trkpt lat="45.590481" lon="10.5191144"><ele>165.0</ele><time>2026-04-25T14:24:01.731Z</time></trkpt><trkpt lat="45.5904698" lon="10.5189426"><ele>165.33333333333334</ele><time>2026-04-25T14:24:04.732Z</time></trkpt><trkpt lat="45.5904624" lon="10.5188356"><ele>165.66666666666666</ele><time>2026-04-25T14:24:06.73Z</time></trkpt><trkpt lat="45.5904571" lon="10.5187234"><ele>166.0</ele><time>2026-04-25T14:24:08.732Z</time></trkpt><trkpt lat="45.5904558" lon="10.5186065"><ele>166.33333333333331</ele><time>2026-04-25T14:24:10.732Z</time></trkpt><trkpt lat="45.5904545" lon="10.5184928"><ele>166.66666666666666</ele><time>2026-04-25T14:24:12.732Z</time></trkpt><trkpt lat="45.5904527" lon="10.5183811"><ele>167.0</ele><time>2026-04-25T14:24:14.732Z</time></trkpt><trkpt lat="45.5904477" lon="10.5182758"><ele>167.16666666666666</ele><time>2026-04-25T14:24:16.73Z</time></trkpt><trkpt lat="45.590449" lon="10.5181619"><ele>167.33333333333331</ele><time>2026-04-25T14:24:18.732Z</time></trkpt><trkpt lat="45.590445" lon="10.5180454"><ele>167.5</ele><time>2026-04-25T14:24:20.732Z</time></trkpt><trkpt lat="45.5904425" lon="10.5179269"><ele>167.66666666666666</ele><time>2026-04-25T14:24:22.732Z</time></trkpt><trkpt lat="45.5904357" lon="10.5178073"><ele>167.83333333333334</ele><time>2026-04-25T14:24:24.732Z</time></trkpt><trkpt lat="45.5904287" lon="10.5176842"><ele>168.0</ele><time>2026-04-25T14:24:26.732Z</time></trkpt><trkpt lat="45.590429" lon="10.5175594"><ele>168.0</ele><time>2026-04-25T14:24:28.73Z</time></trkpt><trkpt lat="45.5904379" lon="10.5174205"><ele>168.0</ele><time>2026-04-25T14:24:30.732Z</time></trkpt><trkpt lat="45.5904331" lon="10.5172788"><ele>168.0</ele><time>2026-04-25T14:24:32.731Z</time></trkpt><trkpt lat="45.590436" lon="10.5171372"><ele>168.0</ele><time>2026-04-25T14:24:34.732Z</time></trkpt><trkpt lat="45.5904336" lon="10.5170015"><ele>168.0</ele><time>2026-04-25T14:24:36.73Z</time></trkpt><trkpt lat="45.5904299" lon="10.5168796"><ele>168.4</ele><time>2026-04-25T14:24:38.731Z</time></trkpt><trkpt lat="45.5904284" lon="10.5167534"><ele>168.8</ele><time>2026-04-25T14:24:40.732Z</time></trkpt><trkpt lat="45.5904253" lon="10.5166289"><ele>169.2</ele><time>2026-04-25T14:24:42.732Z</time></trkpt><trkpt lat="45.5904198" lon="10.516502"><ele>169.6</ele><time>2026-04-25T14:24:44.732Z</time></trkpt><trkpt lat="45.5904197" lon="10.5163637"><ele>170.0</ele><time>2026-04-25T14:24:46.731Z</time></trkpt><trkpt lat="45.5904151" lon="10.5162203"><ele>170.0</ele><time>2026-04-25T14:24:48.732Z</time></trkpt><trkpt lat="45.5904102" lon="10.5160794"><ele>170.0</ele><time>2026-04-25T14:24:50.73Z</time></trkpt><trkpt lat="45.590411" lon="10.5159177"><ele>170.0</ele><time>2026-04-25T14:24:52.732Z</time></trkpt><trkpt lat="45.5904119" lon="10.515825"><ele>170.0</ele><time>2026-04-25T14:24:53.731Z</time></trkpt><trkpt lat="45.590408" lon="10.5156481"><ele>170.0</ele><time>2026-04-25T14:24:55.731Z</time></trkpt><trkpt lat="45.5904028" lon="10.5155543"><ele>169.8</ele><time>2026-04-25T14:24:56.731Z</time></trkpt><trkpt lat="45.5903961" lon="10.5153868"><ele>169.6</ele><time>2026-04-25T14:24:58.732Z</time></trkpt><trkpt lat="45.5904608" lon="10.5152698"><ele>169.39999999999998</ele><time>2026-04-25T14:25:00.731Z</time></trkpt><trkpt lat="45.5905863" lon="10.5152487"><ele>169.2</ele><time>2026-04-25T14:25:02.731Z</time></trkpt><trkpt lat="45.5906503" lon="10.5152601"><ele>169.0</ele><time>2026-04-25T14:25:03.732Z</time></trkpt><trkpt lat="45.5907724" lon="10.5152724"><ele>169.0</ele><time>2026-04-25T14:25:05.732Z</time></trkpt><trkpt lat="45.5908353" lon="10.5152819"><ele>169.0</ele><time>2026-04-25T14:25:06.731Z</time></trkpt><trkpt lat="45.5909584" lon="10.5152905"><ele>169.0</ele><time>2026-04-25T14:25:08.732Z</time></trkpt><trkpt lat="45.5910755" lon="10.5152498"><ele>169.0</ele><time>2026-04-25T14:25:10.731Z</time></trkpt><trkpt lat="45.5911635" lon="10.5151372"><ele>169.0</ele><time>2026-04-25T14:25:12.732Z</time></trkpt><trkpt lat="45.591202" lon="10.5149719"><ele>168.83333333333334</ele><time>2026-04-25T14:25:14.732Z</time></trkpt><trkpt lat="45.5912033" lon="10.5147933"><ele>168.66666666666669</ele><time>2026-04-25T14:25:16.732Z</time></trkpt><trkpt lat="45.5911919" lon="10.5147033"><ele>168.5</ele><time>2026-04-25T14:25:17.732Z</time></trkpt><trkpt lat="45.5911821" lon="10.514611"><ele>168.33333333333334</ele><time>2026-04-25T14:25:18.731Z</time></trkpt><trkpt lat="45.5911623" lon="10.5144313"><ele>168.16666666666666</ele><time>2026-04-25T14:25:20.73Z</time></trkpt><trkpt lat="45.5911601" lon="10.5143345"><ele>168.0</ele><time>2026-04-25T14:25:21.732Z</time></trkpt><trkpt lat="45.5911507" lon="10.5142451"><ele>168.0</ele><time>2026-04-25T14:25:22.731Z</time></trkpt><trkpt lat="45.5911426" lon="10.5141506"><ele>168.0</ele><time>2026-04-25T14:25:23.731Z</time></trkpt><trkpt lat="45.5911401" lon="10.5139934"><ele>168.0</ele><time>2026-04-25T14:25:25.731Z</time></trkpt><trkpt lat="45.5911863" lon="10.513858"><ele>168.0</ele><time>2026-04-25T14:25:27.731Z</time></trkpt><trkpt lat="45.591221" lon="10.513734"><ele>168.0</ele><time>2026-04-25T14:25:29.731Z</time></trkpt><trkpt lat="45.5912221" lon="10.5135815"><ele>168.60000000000002</ele><time>2026-04-25T14:25:31.732Z</time></trkpt><trkpt lat="45.5912261" lon="10.5134226"><ele>169.20000000000002</ele><time>2026-04-25T14:25:33.732Z</time></trkpt><trkpt lat="45.5912371" lon="10.5132579"><ele>169.8</ele><time>2026-04-25T14:25:35.731Z</time></trkpt><trkpt lat="45.5912787" lon="10.5131303"><ele>170.4</ele><time>2026-04-25T14:25:37.73Z</time></trkpt><trkpt lat="45.591353" lon="10.5130558"><ele>171.0</ele><time>2026-04-25T14:25:39.73Z</time></trkpt><trkpt lat="45.5914205" lon="10.512966"><ele>170.4</ele><time>2026-04-25T14:25:41.732Z</time></trkpt><trkpt lat="45.5914929" lon="10.5128598"><ele>169.8</ele><time>2026-04-25T14:25:43.73Z</time></trkpt><trkpt lat="45.5915393" lon="10.5127459"><ele>169.20000000000002</ele><time>2026-04-25T14:25:45.731Z</time></trkpt><trkpt lat="45.5915847" lon="10.5126311"><ele>168.60000000000002</ele><time>2026-04-25T14:25:47.731Z</time></trkpt><trkpt lat="45.5916209" lon="10.5124949"><ele>168.0</ele><time>2026-04-25T14:25:49.73Z</time></trkpt><trkpt lat="45.5916376" lon="10.5124018"><ele>168.0</ele><time>2026-04-25T14:25:51.732Z</time></trkpt><trkpt lat="45.5916307" lon="10.5122887"><ele>168.0</ele><time>2026-04-25T14:25:53.732Z</time></trkpt><trkpt lat="45.591634" lon="10.5121858"><ele>168.0</ele><time>2026-04-25T14:25:55.731Z</time></trkpt><trkpt lat="45.5916489" lon="10.5120599"><ele>168.0</ele><time>2026-04-25T14:25:57.731Z</time></trkpt><trkpt lat="45.5916539" lon="10.5119309"><ele>168.0</ele><time>2026-04-25T14:25:59.731Z</time></trkpt><trkpt lat="45.591657" lon="10.5118284"><ele>168.0</ele><time>2026-04-25T14:26:01.731Z</time></trkpt><trkpt lat="45.5916584" lon="10.5117339"><ele>167.8</ele><time>2026-04-25T14:26:03.73Z</time></trkpt><trkpt lat="45.5916688" lon="10.5115922"><ele>167.60000000000002</ele><time>2026-04-25T14:26:05.731Z</time></trkpt><trkpt lat="45.5916802" lon="10.5114431"><ele>167.39999999999998</ele><time>2026-04-25T14:26:07.732Z</time></trkpt><trkpt lat="45.5917142" lon="10.5113116"><ele>167.2</ele><time>2026-04-25T14:26:09.731Z</time></trkpt><trkpt lat="45.591711" lon="10.511167"><ele>167.0</ele><time>2026-04-25T14:26:11.731Z</time></trkpt><trkpt lat="45.5917102" lon="10.5110523"><ele>166.8</ele><time>2026-04-25T14:26:12.731Z</time></trkpt><trkpt lat="45.5916962" lon="10.5108652"><ele>166.6</ele><time>2026-04-25T14:26:14.732Z</time></trkpt><trkpt lat="45.5916869" lon="10.5107035"><ele>166.4</ele><time>2026-04-25T14:26:16.732Z</time></trkpt><trkpt lat="45.5917" lon="10.5106094"><ele>166.20000000000002</ele><time>2026-04-25T14:26:18.732Z</time></trkpt><trkpt lat="45.5917415" lon="10.5104843"><ele>166.0</ele><time>2026-04-25T14:26:20.73Z</time></trkpt><trkpt lat="45.5917847" lon="10.5103764"><ele>165.8</ele><time>2026-04-25T14:26:22.73Z</time></trkpt><trkpt lat="45.591818" lon="10.5102541"><ele>165.60000000000002</ele><time>2026-04-25T14:26:24.732Z</time></trkpt><trkpt lat="45.5918632" lon="10.5101253"><ele>165.4</ele><time>2026-04-25T14:26:26.731Z</time></trkpt><trkpt lat="45.5919143" lon="10.5100084"><ele>165.2</ele><time>2026-04-25T14:26:28.731Z</time></trkpt><trkpt lat="45.5919894" lon="10.5098938"><ele>165.0</ele><time>2026-04-25T14:26:30.731Z</time></trkpt><trkpt lat="45.5920648" lon="10.5098024"><ele>164.8</ele><time>2026-04-25T14:26:32.732Z</time></trkpt><trkpt lat="45.5921435" lon="10.5096979"><ele>164.6</ele><time>2026-04-25T14:26:34.732Z</time></trkpt><trkpt lat="45.5921948" lon="10.5095732"><ele>164.39999999999998</ele><time>2026-04-25T14:26:36.731Z</time></trkpt><trkpt lat="45.5922372" lon="10.509431"><ele>164.2</ele><time>2026-04-25T14:26:38.731Z</time></trkpt><trkpt lat="45.592286" lon="10.5092695"><ele>164.0</ele><time>2026-04-25T14:26:40.731Z</time></trkpt><trkpt lat="45.5922971" lon="10.5091231"><ele>164.0</ele><time>2026-04-25T14:26:42.73Z</time></trkpt><trkpt lat="45.5922724" lon="10.5089787"><ele>164.0</ele><time>2026-04-25T14:26:44.731Z</time></trkpt><trkpt lat="45.5922823" lon="10.5088885"><ele>164.0</ele><time>2026-04-25T14:26:45.732Z</time></trkpt><trkpt lat="45.5923113" lon="10.5088075"><ele>164.0</ele><time>2026-04-25T14:26:46.731Z</time></trkpt><trkpt lat="45.59232" lon="10.508668"><ele>164.0</ele><time>2026-04-25T14:26:48.732Z</time></trkpt><trkpt lat="45.5923439" lon="10.5085545"><ele>164.0</ele><time>2026-04-25T14:26:50.73Z</time></trkpt><trkpt lat="45.5922922" lon="10.508487"><ele>164.2</ele><time>2026-04-25T14:26:54.73Z</time></trkpt><trkpt lat="45.5923317" lon="10.5083943"><ele>164.39999999999998</ele><time>2026-04-25T14:26:56.731Z</time></trkpt><trkpt lat="45.5923876" lon="10.5083035"><ele>164.6</ele><time>2026-04-25T14:26:58.732Z</time></trkpt><trkpt lat="45.5924594" lon="10.5081871"><ele>164.8</ele><time>2026-04-25T14:27:00.732Z</time></trkpt><trkpt lat="45.5925129" lon="10.5080534"><ele>165.0</ele><time>2026-04-25T14:27:02.732Z</time></trkpt><trkpt lat="45.5925847" lon="10.5078812"><ele>165.0</ele><time>2026-04-25T14:27:04.731Z</time></trkpt><trkpt lat="45.5926693" lon="10.5077363"><ele>165.0</ele><time>2026-04-25T14:27:06.73Z</time></trkpt><trkpt lat="45.5926943" lon="10.5076516"><ele>165.0</ele><time>2026-04-25T14:27:07.731Z</time></trkpt><trkpt lat="45.5927267" lon="10.5075685"><ele>165.0</ele><time>2026-04-25T14:27:08.731Z</time></trkpt><trkpt lat="45.5927905" lon="10.5074149"><ele>165.0</ele><time>2026-04-25T14:27:10.731Z</time></trkpt><trkpt lat="45.5927946" lon="10.5073143"><ele>165.0</ele><time>2026-04-25T14:27:12.731Z</time></trkpt><trkpt lat="45.5928525" lon="10.5071698"><ele>165.0</ele><time>2026-04-25T14:27:14.731Z</time></trkpt><trkpt lat="45.5929131" lon="10.5070898"><ele>165.0</ele><time>2026-04-25T14:27:16.731Z</time></trkpt><trkpt lat="45.5929885" lon="10.5070373"><ele>165.0</ele><time>2026-04-25T14:27:18.732Z</time></trkpt><trkpt lat="45.5930376" lon="10.5069567"><ele>165.0</ele><time>2026-04-25T14:27:22.732Z</time></trkpt><trkpt lat="45.593074" lon="10.5068573"><ele>165.0</ele><time>2026-04-25T14:27:25.733Z</time></trkpt><trkpt lat="45.5930774" lon="10.5067458"><ele>165.0</ele><time>2026-04-25T14:27:29.731Z</time></trkpt><trkpt lat="45.5930199" lon="10.5066734"><ele>165.0</ele><time>2026-04-25T14:27:31.732Z</time></trkpt><trkpt lat="45.5929541" lon="10.5066039"><ele>165.0</ele><time>2026-04-25T14:27:32.732Z</time></trkpt><trkpt lat="45.5928487" lon="10.5065383"><ele>165.0</ele><time>2026-04-25T14:27:34.733Z</time></trkpt><trkpt lat="45.592772" lon="10.5064689"><ele>165.0</ele><time>2026-04-25T14:27:35.732Z</time></trkpt><trkpt lat="45.5927076" lon="10.5064116"><ele>165.0</ele><time>2026-04-25T14:27:36.733Z</time></trkpt><trkpt lat="45.5926382" lon="10.5063685"><ele>164.85714285714286</ele><time>2026-04-25T14:27:37.733Z</time></trkpt><trkpt lat="45.5925733" lon="10.5063356"><ele>164.71428571428572</ele><time>2026-04-25T14:27:38.732Z</time></trkpt><trkpt lat="45.5925035" lon="10.5062479"><ele>164.57142857142856</ele><time>2026-04-25T14:27:40.733Z</time></trkpt><trkpt lat="45.5924791" lon="10.5061613"><ele>164.42857142857144</ele><time>2026-04-25T14:27:43.732Z</time></trkpt><trkpt lat="45.5925122" lon="10.506059"><ele>164.28571428571428</ele><time>2026-04-25T14:28:01.733Z</time></trkpt><trkpt lat="45.5924706" lon="10.5059762"><ele>164.14285714285714</ele><time>2026-04-25T14:28:05.733Z</time></trkpt><trkpt lat="45.5924145" lon="10.5060367"><ele>164.0</ele><time>2026-04-25T14:28:07.733Z</time></trkpt><trkpt lat="45.5923598" lon="10.5060952"><ele>164.0</ele><time>2026-04-25T14:28:09.732Z</time></trkpt><trkpt lat="45.5922849" lon="10.5060199"><ele>164.0</ele><time>2026-04-25T14:28:12.732Z</time></trkpt><trkpt lat="45.5922564" lon="10.5059271"><ele>164.0</ele><time>2026-04-25T14:28:14.733Z</time></trkpt><trkpt lat="45.5922415" lon="10.5058207"><ele>164.0</ele><time>2026-04-25T14:28:16.732Z</time></trkpt><trkpt lat="45.592237" lon="10.5057099"><ele>164.0</ele><time>2026-04-25T14:28:18.733Z</time></trkpt><trkpt lat="45.5922341" lon="10.5056027"><ele>164.0</ele><time>2026-04-25T14:28:20.732Z</time></trkpt><trkpt lat="45.592234" lon="10.5055045"><ele>164.66666666666666</ele><time>2026-04-25T14:28:22.732Z</time></trkpt><trkpt lat="45.5922324" lon="10.5054098"><ele>165.33333333333331</ele><time>2026-04-25T14:28:24.733Z</time></trkpt><trkpt lat="45.5922384" lon="10.5052777"><ele>166.0</ele><time>2026-04-25T14:28:27.733Z</time></trkpt><trkpt lat="45.5922426" lon="10.5051846"><ele>166.66666666666666</ele><time>2026-04-25T14:28:29.732Z</time></trkpt><trkpt lat="45.5922588" lon="10.5050534"><ele>167.33333333333334</ele><time>2026-04-25T14:28:32.733Z</time></trkpt><trkpt lat="45.5922771" lon="10.5049224"><ele>168.0</ele><time>2026-04-25T14:28:35.733Z</time></trkpt><trkpt lat="45.5922875" lon="10.5048279"><ele>168.0</ele><time>2026-04-25T14:28:37.733Z</time></trkpt><trkpt lat="45.5922979" lon="10.5047352"><ele>168.0</ele><time>2026-04-25T14:28:39.733Z</time></trkpt><trkpt lat="45.5923089" lon="10.5046401"><ele>168.0</ele><time>2026-04-25T14:28:41.733Z</time></trkpt><trkpt lat="45.5923184" lon="10.5045483"><ele>168.0</ele><time>2026-04-25T14:28:43.732Z</time></trkpt><trkpt lat="45.5923128" lon="10.5044541"><ele>168.0</ele><time>2026-04-25T14:28:45.732Z</time></trkpt><trkpt lat="45.5922816" lon="10.5043429"><ele>168.0</ele><time>2026-04-25T14:28:48.733Z</time></trkpt><trkpt lat="45.5922512" lon="10.5042626"><ele>168.0</ele><time>2026-04-25T14:28:50.732Z</time></trkpt><trkpt lat="45.5922066" lon="10.5041823"><ele>168.42857142857142</ele><time>2026-04-25T14:28:52.731Z</time></trkpt><trkpt lat="45.5921539" lon="10.5041324"><ele>168.85714285714286</ele><time>2026-04-25T14:28:54.732Z</time></trkpt><trkpt lat="45.5920915" lon="10.5040924"><ele>169.28571428571428</ele><time>2026-04-25T14:28:56.733Z</time></trkpt><trkpt lat="45.5920255" lon="10.5040702"><ele>169.71428571428572</ele><time>2026-04-25T14:28:58.732Z</time></trkpt><trkpt lat="45.5919607" lon="10.5040447"><ele>170.14285714285714</ele><time>2026-04-25T14:29:00.732Z</time></trkpt><trkpt lat="45.5918723" lon="10.5040168"><ele>170.57142857142856</ele><time>2026-04-25T14:29:03.733Z</time></trkpt><trkpt lat="45.5917862" lon="10.5039808"><ele>171.0</ele><time>2026-04-25T14:29:06.733Z</time></trkpt><trkpt lat="45.5917032" lon="10.5039255"><ele>171.66666666666666</ele><time>2026-04-25T14:29:09.732Z</time></trkpt><trkpt lat="45.5916154" lon="10.5038759"><ele>172.33333333333334</ele><time>2026-04-25T14:29:12.733Z</time></trkpt><trkpt lat="45.5915329" lon="10.5038246"><ele>173.0</ele><time>2026-04-25T14:29:15.733Z</time></trkpt><trkpt lat="45.5914567" lon="10.5037722"><ele>173.66666666666669</ele><time>2026-04-25T14:29:18.731Z</time></trkpt><trkpt lat="45.5913766" lon="10.5037338"><ele>174.33333333333334</ele><time>2026-04-25T14:29:21.732Z</time></trkpt><trkpt lat="45.5913017" lon="10.5037056"><ele>175.0</ele><time>2026-04-25T14:29:24.733Z</time></trkpt><trkpt lat="45.5912271" lon="10.5036675"><ele>177.83333333333334</ele><time>2026-04-25T14:29:28.733Z</time></trkpt><trkpt lat="45.5911545" lon="10.5036487"><ele>180.66666666666669</ele><time>2026-04-25T14:29:31.731Z</time></trkpt><trkpt lat="45.5910687" lon="10.5036429"><ele>183.5</ele><time>2026-04-25T14:29:34.732Z</time></trkpt><trkpt lat="45.5909798" lon="10.5036249"><ele>186.33333333333334</ele><time>2026-04-25T14:29:37.733Z</time></trkpt><trkpt lat="45.5908917" lon="10.5036041"><ele>189.16666666666666</ele><time>2026-04-25T14:29:40.733Z</time></trkpt><trkpt lat="45.5908235" lon="10.5035763"><ele>192.0</ele><time>2026-04-25T14:29:43.732Z</time></trkpt><trkpt lat="45.5907542" lon="10.5035539"><ele>192.0</ele><time>2026-04-25T14:29:46.732Z</time></trkpt><trkpt lat="45.5906721" lon="10.5035506"><ele>192.0</ele><time>2026-04-25T14:29:49.733Z</time></trkpt><trkpt lat="45.5905894" lon="10.5035653"><ele>192.0</ele><time>2026-04-25T14:29:52.732Z</time></trkpt><trkpt lat="45.5905115" lon="10.5035927"><ele>192.0</ele><time>2026-04-25T14:29:55.733Z</time></trkpt><trkpt lat="45.5904445" lon="10.5036146"><ele>192.0</ele><time>2026-04-25T14:29:58.733Z</time></trkpt><trkpt lat="45.5903654" lon="10.5036456"><ele>192.0</ele><time>2026-04-25T14:30:01.733Z</time></trkpt><trkpt lat="45.5902853" lon="10.5036625"><ele>194.66666666666666</ele><time>2026-04-25T14:30:04.732Z</time></trkpt><trkpt lat="45.5902109" lon="10.5036762"><ele>197.33333333333331</ele><time>2026-04-25T14:30:07.732Z</time></trkpt><trkpt lat="45.5901341" lon="10.5036787"><ele>200.0</ele><time>2026-04-25T14:30:10.732Z</time></trkpt><trkpt lat="45.590068" lon="10.5036821"><ele>202.66666666666666</ele><time>2026-04-25T14:30:12.732Z</time></trkpt><trkpt lat="45.5899934" lon="10.5036854"><ele>205.33333333333331</ele><time>2026-04-25T14:30:14.732Z</time></trkpt><trkpt lat="45.5899127" lon="10.5036995"><ele>208.0</ele><time>2026-04-25T14:30:16.732Z</time></trkpt><trkpt lat="45.5898296" lon="10.5037336"><ele>208.0</ele><time>2026-04-25T14:30:18.732Z</time></trkpt><trkpt lat="45.5897702" lon="10.5037739"><ele>208.0</ele><time>2026-04-25T14:30:20.731Z</time></trkpt><trkpt lat="45.5897092" lon="10.5038089"><ele>208.0</ele><time>2026-04-25T14:30:22.732Z</time></trkpt><trkpt lat="45.5896398" lon="10.5038407"><ele>208.0</ele><time>2026-04-25T14:30:25.733Z</time></trkpt><trkpt lat="45.5895601" lon="10.5038648"><ele>208.0</ele><time>2026-04-25T14:30:28.732Z</time></trkpt><trkpt lat="45.5894885" lon="10.5038694"><ele>208.0</ele><time>2026-04-25T14:30:31.732Z</time></trkpt><trkpt lat="45.5894091" lon="10.5038717"><ele>208.0</ele><time>2026-04-25T14:30:34.732Z</time></trkpt><trkpt lat="45.5893301" lon="10.503849"><ele>207.99999999999997</ele><time>2026-04-25T14:30:37.733Z</time></trkpt><trkpt lat="45.5892648" lon="10.5037819"><ele>208.0</ele><time>2026-04-25T14:30:40.733Z</time></trkpt><trkpt lat="45.5892089" lon="10.5036909"><ele>208.0</ele><time>2026-04-25T14:30:43.733Z</time></trkpt><trkpt lat="45.589158" lon="10.5035924"><ele>208.0</ele><time>2026-04-25T14:30:46.732Z</time></trkpt><trkpt lat="45.5891129" lon="10.5035023"><ele>207.99999999999997</ele><time>2026-04-25T14:30:49.733Z</time></trkpt><trkpt lat="45.5890637" lon="10.503417"><ele>208.0</ele><time>2026-04-25T14:30:52.732Z</time></trkpt><trkpt lat="45.5890107" lon="10.5033329"><ele>210.49999999999997</ele><time>2026-04-25T14:30:55.733Z</time></trkpt><trkpt lat="45.5889528" lon="10.5032476"><ele>213.0</ele><time>2026-04-25T14:30:58.732Z</time></trkpt><trkpt lat="45.5888971" lon="10.5031694"><ele>215.5</ele><time>2026-04-25T14:31:02.731Z</time></trkpt><trkpt lat="45.5888268" lon="10.503113"><ele>218.0</ele><time>2026-04-25T14:31:05.733Z</time></trkpt><trkpt lat="45.5887437" lon="10.5030895"><ele>220.49999999999997</ele><time>2026-04-25T14:31:08.732Z</time></trkpt><trkpt lat="45.5886779" lon="10.5030693"><ele>223.0</ele><time>2026-04-25T14:31:11.733Z</time></trkpt><trkpt lat="45.5885944" lon="10.503049"><ele>223.99999999999997</ele><time>2026-04-25T14:31:14.733Z</time></trkpt><trkpt lat="45.5885233" lon="10.5030254"><ele>225.0</ele><time>2026-04-25T14:31:17.732Z</time></trkpt><trkpt lat="45.5884513" lon="10.5029917"><ele>226.0</ele><time>2026-04-25T14:31:20.733Z</time></trkpt><trkpt lat="45.5883788" lon="10.5029558"><ele>227.0</ele><time>2026-04-25T14:31:23.733Z</time></trkpt><trkpt lat="45.5883047" lon="10.5029183"><ele>227.99999999999997</ele><time>2026-04-25T14:31:26.733Z</time></trkpt><trkpt lat="45.5882178" lon="10.5028936"><ele>229.0</ele><time>2026-04-25T14:31:29.732Z</time></trkpt><trkpt lat="45.5881536" lon="10.5028815"><ele>231.49999999999997</ele><time>2026-04-25T14:31:31.732Z</time></trkpt><trkpt lat="45.5880631" lon="10.5028597"><ele>234.0</ele><time>2026-04-25T14:31:34.732Z</time></trkpt><trkpt lat="45.5879823" lon="10.5028408"><ele>236.5</ele><time>2026-04-25T14:31:37.733Z</time></trkpt><trkpt lat="45.5879044" lon="10.5028214"><ele>239.0</ele><time>2026-04-25T14:31:40.733Z</time></trkpt><trkpt lat="45.5878179" lon="10.5028223"><ele>241.49999999999997</ele><time>2026-04-25T14:31:43.733Z</time></trkpt><trkpt lat="45.587727" lon="10.5028336"><ele>244.0</ele><time>2026-04-25T14:31:46.732Z</time></trkpt><trkpt lat="45.5876604" lon="10.5028561"><ele>245.16666666666666</ele><time>2026-04-25T14:31:48.732Z</time></trkpt><trkpt lat="45.5875786" lon="10.5028796"><ele>246.33333333333331</ele><time>2026-04-25T14:31:51.733Z</time></trkpt><trkpt lat="45.5875076" lon="10.5028908"><ele>247.5</ele><time>2026-04-25T14:31:53.732Z</time></trkpt><trkpt lat="45.5874455" lon="10.5029079"><ele>248.66666666666669</ele><time>2026-04-25T14:31:55.733Z</time></trkpt><trkpt lat="45.5873818" lon="10.5029037"><ele>249.83333333333334</ele><time>2026-04-25T14:31:57.731Z</time></trkpt><trkpt lat="45.5872918" lon="10.5029054"><ele>251.0</ele><time>2026-04-25T14:32:00.731Z</time></trkpt><trkpt lat="45.587207" lon="10.5028898"><ele>251.00000000000003</ele><time>2026-04-25T14:32:03.732Z</time></trkpt><trkpt lat="45.587129" lon="10.5028577"><ele>251.0</ele><time>2026-04-25T14:32:06.731Z</time></trkpt><trkpt lat="45.587043" lon="10.5028208"><ele>251.0</ele><time>2026-04-25T14:32:09.731Z</time></trkpt><trkpt lat="45.5869511" lon="10.5027884"><ele>251.0</ele><time>2026-04-25T14:32:12.732Z</time></trkpt><trkpt lat="45.5868689" lon="10.5027444"><ele>251.00000000000003</ele><time>2026-04-25T14:32:15.731Z</time></trkpt><trkpt lat="45.5867849" lon="10.5026896"><ele>251.0</ele><time>2026-04-25T14:32:18.733Z</time></trkpt><trkpt lat="45.586709" lon="10.5026214"><ele>250.60000000000002</ele><time>2026-04-25T14:32:21.733Z</time></trkpt><trkpt lat="45.5866502" lon="10.5025468"><ele>250.20000000000002</ele><time>2026-04-25T14:32:24.732Z</time></trkpt><trkpt lat="45.5866154" lon="10.5024637"><ele>249.79999999999998</ele><time>2026-04-25T14:32:26.733Z</time></trkpt><trkpt lat="45.5865776" lon="10.5023088"><ele>249.39999999999998</ele><time>2026-04-25T14:32:28.733Z</time></trkpt><trkpt lat="45.5865574" lon="10.502167"><ele>249.0</ele><time>2026-04-25T14:32:30.732Z</time></trkpt><trkpt lat="45.5865399" lon="10.5020362"><ele>251.5</ele><time>2026-04-25T14:32:32.732Z</time></trkpt><trkpt lat="45.5865331" lon="10.5019315"><ele>254.0</ele><time>2026-04-25T14:32:34.733Z</time></trkpt><trkpt lat="45.5865394" lon="10.5018245"><ele>256.5</ele><time>2026-04-25T14:32:36.733Z</time></trkpt><trkpt lat="45.5865314" lon="10.5017092"><ele>259.0</ele><time>2026-04-25T14:32:39.732Z</time></trkpt><trkpt lat="45.5865389" lon="10.5016187"><ele>261.5</ele><time>2026-04-25T14:32:41.733Z</time></trkpt><trkpt lat="45.5865602" lon="10.5014881"><ele>264.0</ele><time>2026-04-25T14:32:44.732Z</time></trkpt><trkpt lat="45.5865764" lon="10.5013871"><ele>264.0</ele><time>2026-04-25T14:32:46.733Z</time></trkpt><trkpt lat="45.5865569" lon="10.501278"><ele>264.0</ele><time>2026-04-25T14:32:48.732Z</time></trkpt><trkpt lat="45.5864951" lon="10.5012098"><ele>264.0</ele><time>2026-04-25T14:32:51.733Z</time></trkpt><trkpt lat="45.5864163" lon="10.5012129"><ele>264.0</ele><time>2026-04-25T14:32:54.732Z</time></trkpt><trkpt lat="45.5863486" lon="10.5012499"><ele>264.0</ele><time>2026-04-25T14:32:56.731Z</time></trkpt><trkpt lat="45.5862678" lon="10.5012837"><ele>264.0</ele><time>2026-04-25T14:32:59.733Z</time></trkpt><trkpt lat="45.5861972" lon="10.5013231"><ele>263.8333333333333</ele><time>2026-04-25T14:33:02.732Z</time></trkpt><trkpt lat="45.5861261" lon="10.5013459"><ele>263.6666666666667</ele><time>2026-04-25T14:33:05.733Z</time></trkpt><trkpt lat="45.5860497" lon="10.5013354"><ele>263.5</ele><time>2026-04-25T14:33:09.732Z</time></trkpt><trkpt lat="45.5859791" lon="10.5013311"><ele>263.33333333333337</ele><time>2026-04-25T14:33:12.731Z</time></trkpt><trkpt lat="45.5858821" lon="10.5013572"><ele>263.1666666666667</ele><time>2026-04-25T14:33:15.733Z</time></trkpt><trkpt lat="45.5858184" lon="10.5014219"><ele>263.0</ele><time>2026-04-25T14:33:17.733Z</time></trkpt><trkpt lat="45.5857576" lon="10.5015168"><ele>263.0</ele><time>2026-04-25T14:33:19.733Z</time></trkpt><trkpt lat="45.585728" lon="10.5016026"><ele>263.0</ele><time>2026-04-25T14:33:21.732Z</time></trkpt><trkpt lat="45.58571" lon="10.5017143"><ele>263.0</ele><time>2026-04-25T14:33:23.732Z</time></trkpt><trkpt lat="45.585689" lon="10.5018196"><ele>263.0</ele><time>2026-04-25T14:33:25.732Z</time></trkpt><trkpt lat="45.5856618" lon="10.501923"><ele>263.0</ele><time>2026-04-25T14:33:28.731Z</time></trkpt><trkpt lat="45.585635" lon="10.5020152"><ele>263.0</ele><time>2026-04-25T14:33:30.732Z</time></trkpt><trkpt lat="45.585605" lon="10.5021324"><ele>261.6</ele><time>2026-04-25T14:33:32.733Z</time></trkpt><trkpt lat="45.5855686" lon="10.5022547"><ele>260.20000000000005</ele><time>2026-04-25T14:33:34.732Z</time></trkpt><trkpt lat="45.5855243" lon="10.5023688"><ele>258.8</ele><time>2026-04-25T14:33:36.733Z</time></trkpt><trkpt lat="45.5854737" lon="10.5025116"><ele>257.40000000000003</ele><time>2026-04-25T14:33:38.733Z</time></trkpt><trkpt lat="45.5854259" lon="10.5027061"><ele>256.0</ele><time>2026-04-25T14:33:40.733Z</time></trkpt><trkpt lat="45.5854061" lon="10.5028232"><ele>255.0</ele><time>2026-04-25T14:33:42.733Z</time></trkpt><trkpt lat="45.5853849" lon="10.5029711"><ele>254.00000000000003</ele><time>2026-04-25T14:33:44.733Z</time></trkpt><trkpt lat="45.5853489" lon="10.5030986"><ele>253.00000000000003</ele><time>2026-04-25T14:33:46.732Z</time></trkpt><trkpt lat="45.5852997" lon="10.503239"><ele>252.0</ele><time>2026-04-25T14:33:48.732Z</time></trkpt><trkpt lat="45.5852352" lon="10.5033589"><ele>251.0</ele><time>2026-04-25T14:33:50.733Z</time></trkpt><trkpt lat="45.5851448" lon="10.5033762"><ele>252.66666666666669</ele><time>2026-04-25T14:33:53.733Z</time></trkpt><trkpt lat="45.585073" lon="10.5033225"><ele>254.33333333333334</ele><time>2026-04-25T14:33:56.733Z</time></trkpt><trkpt lat="45.5849899" lon="10.5032773"><ele>256.0</ele><time>2026-04-25T14:33:58.732Z</time></trkpt><trkpt lat="45.5849221" lon="10.503243"><ele>257.6666666666667</ele><time>2026-04-25T14:34:00.733Z</time></trkpt><trkpt lat="45.5848046" lon="10.5031964"><ele>259.3333333333333</ele><time>2026-04-25T14:34:03.732Z</time></trkpt><trkpt lat="45.5847403" lon="10.5031622"><ele>261.0</ele><time>2026-04-25T14:34:05.731Z</time></trkpt><trkpt lat="45.5846688" lon="10.503117"><ele>261.0</ele><time>2026-04-25T14:34:07.733Z</time></trkpt><trkpt lat="45.5846059" lon="10.5030781"><ele>261.0</ele><time>2026-04-25T14:34:09.733Z</time></trkpt><trkpt lat="45.5845411" lon="10.5030493"><ele>261.0</ele><time>2026-04-25T14:34:11.732Z</time></trkpt><trkpt lat="45.5844708" lon="10.503014"><ele>261.0</ele><time>2026-04-25T14:34:13.732Z</time></trkpt><trkpt lat="45.5844032" lon="10.5029808"><ele>261.0</ele><time>2026-04-25T14:34:15.731Z</time></trkpt><trkpt lat="45.5843129" lon="10.502947"><ele>261.0</ele><time>2026-04-25T14:34:18.731Z</time></trkpt><trkpt lat="45.5842478" lon="10.5029248"><ele>261.0</ele><time>2026-04-25T14:34:20.732Z</time></trkpt><trkpt lat="45.5841782" lon="10.5029008"><ele>263.0</ele><time>2026-04-25T14:34:22.731Z</time></trkpt><trkpt lat="45.5840908" lon="10.5028719"><ele>265.0</ele><time>2026-04-25T14:34:24.732Z</time></trkpt><trkpt lat="45.5840082" lon="10.5028155"><ele>267.0</ele><time>2026-04-25T14:34:27.731Z</time></trkpt><trkpt lat="45.5839505" lon="10.5027625"><ele>269.0</ele><time>2026-04-25T14:34:29.732Z</time></trkpt><trkpt lat="45.5838793" lon="10.5026921"><ele>271.0</ele><time>2026-04-25T14:34:32.732Z</time></trkpt><trkpt lat="45.5838214" lon="10.5026054"><ele>273.0</ele><time>2026-04-25T14:34:35.731Z</time></trkpt><trkpt lat="45.583804" lon="10.5025131"><ele>273.0</ele><time>2026-04-25T14:34:38.733Z</time></trkpt><trkpt lat="45.5838143" lon="10.5023809"><ele>273.0</ele><time>2026-04-25T14:34:41.731Z</time></trkpt><trkpt lat="45.5838291" lon="10.5022734"><ele>273.0</ele><time>2026-04-25T14:34:44.733Z</time></trkpt><trkpt lat="45.5838488" lon="10.5021762"><ele>273.0</ele><time>2026-04-25T14:34:47.733Z</time></trkpt><trkpt lat="45.5838594" lon="10.5020779"><ele>273.0</ele><time>2026-04-25T14:34:49.733Z</time></trkpt><trkpt lat="45.5838595" lon="10.5019774"><ele>273.0</ele><time>2026-04-25T14:34:51.733Z</time></trkpt><trkpt lat="45.5838368" lon="10.5018823"><ele>273.4</ele><time>2026-04-25T14:34:53.732Z</time></trkpt><trkpt lat="45.5837954" lon="10.5017811"><ele>273.8</ele><time>2026-04-25T14:34:55.732Z</time></trkpt><trkpt lat="45.5837528" lon="10.5016886"><ele>274.2</ele><time>2026-04-25T14:34:56.732Z</time></trkpt><trkpt lat="45.583721" lon="10.5015468"><ele>274.6</ele><time>2026-04-25T14:34:58.733Z</time></trkpt><trkpt lat="45.5836656" lon="10.5014049"><ele>275.0</ele><time>2026-04-25T14:35:00.733Z</time></trkpt><trkpt lat="45.5835987" lon="10.501282"><ele>275.8</ele><time>2026-04-25T14:35:02.732Z</time></trkpt><trkpt lat="45.5834914" lon="10.5011949"><ele>276.6</ele><time>2026-04-25T14:35:04.732Z</time></trkpt><trkpt lat="45.5833759" lon="10.5011324"><ele>277.4</ele><time>2026-04-25T14:35:06.732Z</time></trkpt><trkpt lat="45.5833007" lon="10.5010622"><ele>278.2</ele><time>2026-04-25T14:35:08.733Z</time></trkpt><trkpt lat="45.5832071" lon="10.5009809"><ele>279.0</ele><time>2026-04-25T14:35:10.732Z</time></trkpt><trkpt lat="45.5831153" lon="10.500899"><ele>279.0</ele><time>2026-04-25T14:35:12.733Z</time></trkpt><trkpt lat="45.5830461" lon="10.5008198"><ele>279.0</ele><time>2026-04-25T14:35:14.733Z</time></trkpt><trkpt lat="45.5829656" lon="10.5007315"><ele>279.0</ele><time>2026-04-25T14:35:16.731Z</time></trkpt><trkpt lat="45.5828969" lon="10.500637"><ele>279.0</ele><time>2026-04-25T14:35:18.732Z</time></trkpt><trkpt lat="45.5828372" lon="10.5005408"><ele>279.0</ele><time>2026-04-25T14:35:21.731Z</time></trkpt><trkpt lat="45.5828003" lon="10.5004541"><ele>279.0</ele><time>2026-04-25T14:35:23.732Z</time></trkpt><trkpt lat="45.5827702" lon="10.5003629"><ele>277.99999999999994</ele><time>2026-04-25T14:35:25.731Z</time></trkpt><trkpt lat="45.5827466" lon="10.5002673"><ele>277.0</ele><time>2026-04-25T14:35:27.731Z</time></trkpt><trkpt lat="45.5827301" lon="10.5001648"><ele>276.0</ele><time>2026-04-25T14:35:29.733Z</time></trkpt><trkpt lat="45.5827119" lon="10.5000664"><ele>275.0</ele><time>2026-04-25T14:35:31.733Z</time></trkpt><trkpt lat="45.5826926" lon="10.4999621"><ele>274.0</ele><time>2026-04-25T14:35:33.733Z</time></trkpt><trkpt lat="45.5826754" lon="10.4998547"><ele>272.99999999999994</ele><time>2026-04-25T14:35:35.732Z</time></trkpt><trkpt lat="45.5826649" lon="10.4997509"><ele>272.0</ele><time>2026-04-25T14:35:37.733Z</time></trkpt><trkpt lat="45.5826552" lon="10.4996502"><ele>272.57142857142856</ele><time>2026-04-25T14:35:39.733Z</time></trkpt><trkpt lat="45.582652" lon="10.4995557"><ele>273.1428571428571</ele><time>2026-04-25T14:35:41.732Z</time></trkpt><trkpt lat="45.5826469" lon="10.4994306"><ele>273.7142857142857</ele><time>2026-04-25T14:35:44.732Z</time></trkpt><trkpt lat="45.5826497" lon="10.4993186"><ele>274.2857142857143</ele><time>2026-04-25T14:35:47.732Z</time></trkpt><trkpt lat="45.582641" lon="10.4992259"><ele>274.8571428571429</ele><time>2026-04-25T14:35:49.733Z</time></trkpt><trkpt lat="45.5826304" lon="10.499127"><ele>275.42857142857144</ele><time>2026-04-25T14:35:51.732Z</time></trkpt><trkpt lat="45.582631" lon="10.4990308"><ele>276.0</ele><time>2026-04-25T14:35:53.733Z</time></trkpt><trkpt lat="45.5826329" lon="10.4989338"><ele>276.0</ele><time>2026-04-25T14:35:55.731Z</time></trkpt><trkpt lat="45.5826386" lon="10.4988348"><ele>276.0</ele><time>2026-04-25T14:35:57.732Z</time></trkpt><trkpt lat="45.5826573" lon="10.4987369"><ele>276.0</ele><time>2026-04-25T14:35:59.733Z</time></trkpt><trkpt lat="45.5826862" lon="10.4986459"><ele>276.0</ele><time>2026-04-25T14:36:01.732Z</time></trkpt><trkpt lat="45.5827197" lon="10.498566"><ele>276.0</ele><time>2026-04-25T14:36:03.732Z</time></trkpt><trkpt lat="45.5827772" lon="10.4984575"><ele>276.0</ele><time>2026-04-25T14:36:05.733Z</time></trkpt><trkpt lat="45.5828518" lon="10.4983349"><ele>277.8</ele><time>2026-04-25T14:36:07.733Z</time></trkpt><trkpt lat="45.5829224" lon="10.4982186"><ele>279.6</ele><time>2026-04-25T14:36:09.733Z</time></trkpt><trkpt lat="45.5829882" lon="10.4981039"><ele>281.4</ele><time>2026-04-25T14:36:11.732Z</time></trkpt><trkpt lat="45.5830607" lon="10.4979986"><ele>283.2</ele><time>2026-04-25T14:36:13.732Z</time></trkpt><trkpt lat="45.583165" lon="10.4979026"><ele>285.0</ele><time>2026-04-25T14:36:15.732Z</time></trkpt><trkpt lat="45.5832257" lon="10.4978577"><ele>285.0</ele><time>2026-04-25T14:36:16.732Z</time></trkpt><trkpt lat="45.5832823" lon="10.4977857"><ele>285.0</ele><time>2026-04-25T14:36:17.732Z</time></trkpt><trkpt lat="45.5833062" lon="10.4977019"><ele>285.0</ele><time>2026-04-25T14:36:18.733Z</time></trkpt><trkpt lat="45.5833351" lon="10.4975339"><ele>285.0</ele><time>2026-04-25T14:36:20.732Z</time></trkpt><trkpt lat="45.5833233" lon="10.4973736"><ele>285.0</ele><time>2026-04-25T14:36:22.732Z</time></trkpt><trkpt lat="45.5833074" lon="10.4972436"><ele>285.0</ele><time>2026-04-25T14:36:24.732Z</time></trkpt><trkpt lat="45.583289" lon="10.4971375"><ele>285.0</ele><time>2026-04-25T14:36:26.733Z</time></trkpt><trkpt lat="45.5832613" lon="10.4970458"><ele>285.0</ele><time>2026-04-25T14:36:28.733Z</time></trkpt><trkpt lat="45.5832194" lon="10.4969709"><ele>285.0</ele><time>2026-04-25T14:36:30.733Z</time></trkpt><trkpt lat="45.583144" lon="10.496883"><ele>285.0</ele><time>2026-04-25T14:36:33.732Z</time></trkpt><trkpt lat="45.5830838" lon="10.4968252"><ele>285.0</ele><time>2026-04-25T14:36:35.733Z</time></trkpt><trkpt lat="45.5830187" lon="10.4967762"><ele>286.0</ele><time>2026-04-25T14:36:37.733Z</time></trkpt><trkpt lat="45.5829333" lon="10.4967217"><ele>287.0</ele><time>2026-04-25T14:36:40.733Z</time></trkpt><trkpt lat="45.5828741" lon="10.4966673"><ele>288.0</ele><time>2026-04-25T14:36:42.733Z</time></trkpt><trkpt lat="45.5828345" lon="10.4965678"><ele>289.0</ele><time>2026-04-25T14:36:45.733Z</time></trkpt><trkpt lat="45.5827747" lon="10.4965024"><ele>290.0</ele><time>2026-04-25T14:36:48.733Z</time></trkpt><trkpt lat="45.5826869" lon="10.496472"><ele>291.0</ele><time>2026-04-25T14:36:51.732Z</time></trkpt><trkpt lat="45.5826166" lon="10.4964817"><ele>291.0</ele><time>2026-04-25T14:36:53.732Z</time></trkpt><trkpt lat="45.5825455" lon="10.4964974"><ele>291.0</ele><time>2026-04-25T14:36:55.733Z</time></trkpt><trkpt lat="45.5824413" lon="10.4965096"><ele>291.0</ele><time>2026-04-25T14:36:58.732Z</time></trkpt><trkpt lat="45.5823664" lon="10.496495"><ele>291.0</ele><time>2026-04-25T14:37:00.731Z</time></trkpt><trkpt lat="45.582295" lon="10.4964716"><ele>291.0</ele><time>2026-04-25T14:37:02.731Z</time></trkpt><trkpt lat="45.5822102" lon="10.4964524"><ele>291.0</ele><time>2026-04-25T14:37:04.733Z</time></trkpt><trkpt lat="45.5821189" lon="10.4964502"><ele>291.0</ele><time>2026-04-25T14:37:06.732Z</time></trkpt><trkpt lat="45.5820297" lon="10.4964465"><ele>291.0</ele><time>2026-04-25T14:37:08.732Z</time></trkpt><trkpt lat="45.5819464" lon="10.4964093"><ele>291.0</ele><time>2026-04-25T14:37:10.732Z</time></trkpt><trkpt lat="45.5818579" lon="10.4963804"><ele>291.0</ele><time>2026-04-25T14:37:12.733Z</time></trkpt><trkpt lat="45.5817569" lon="10.496349"><ele>291.0</ele><time>2026-04-25T14:37:14.732Z</time></trkpt><trkpt lat="45.5816728" lon="10.4963135"><ele>291.0</ele><time>2026-04-25T14:37:16.732Z</time></trkpt><trkpt lat="45.581602" lon="10.4962835"><ele>291.0</ele><time>2026-04-25T14:37:18.733Z</time></trkpt><trkpt lat="45.5815219" lon="10.4962459"><ele>291.0</ele><time>2026-04-25T14:37:20.732Z</time></trkpt><trkpt lat="45.581454" lon="10.4962302"><ele>291.0</ele><time>2026-04-25T14:37:22.733Z</time></trkpt><trkpt lat="45.5813743" lon="10.4962149"><ele>291.0</ele><time>2026-04-25T14:37:24.732Z</time></trkpt><trkpt lat="45.5812858" lon="10.4961957"><ele>291.0</ele><time>2026-04-25T14:37:26.733Z</time></trkpt><trkpt lat="45.5812045" lon="10.4961565"><ele>294.1666666666667</ele><time>2026-04-25T14:37:28.733Z</time></trkpt><trkpt lat="45.581125" lon="10.4961101"><ele>297.3333333333333</ele><time>2026-04-25T14:37:30.731Z</time></trkpt><trkpt lat="45.5810531" lon="10.4960541"><ele>300.5</ele><time>2026-04-25T14:37:32.733Z</time></trkpt><trkpt lat="45.5809952" lon="10.4960034"><ele>303.66666666666663</ele><time>2026-04-25T14:37:34.733Z</time></trkpt><trkpt lat="45.5809324" lon="10.4959397"><ele>306.8333333333333</ele><time>2026-04-25T14:37:36.732Z</time></trkpt><trkpt lat="45.5808692" lon="10.4958892"><ele>310.0</ele><time>2026-04-25T14:37:38.732Z</time></trkpt><trkpt lat="45.5808057" lon="10.4958421"><ele>310.0</ele><time>2026-04-25T14:37:40.731Z</time></trkpt><trkpt lat="45.5807287" lon="10.4957717"><ele>310.0</ele><time>2026-04-25T14:37:42.733Z</time></trkpt><trkpt lat="45.5806507" lon="10.4957045"><ele>310.0</ele><time>2026-04-25T14:37:44.731Z</time></trkpt><trkpt lat="45.5805809" lon="10.4957147"><ele>310.0</ele><time>2026-04-25T14:37:45.731Z</time></trkpt><trkpt lat="45.5805188" lon="10.4956598"><ele>310.0</ele><time>2026-04-25T14:37:47.733Z</time></trkpt><trkpt lat="45.5804582" lon="10.4955988"><ele>310.0</ele><time>2026-04-25T14:37:49.732Z</time></trkpt><trkpt lat="45.5803804" lon="10.4955113"><ele>310.0</ele><time>2026-04-25T14:37:52.732Z</time></trkpt><trkpt lat="45.5803219" lon="10.4954319"><ele>310.0</ele><time>2026-04-25T14:37:54.732Z</time></trkpt><trkpt lat="45.5802732" lon="10.4953629"><ele>310.0</ele><time>2026-04-25T14:37:56.732Z</time></trkpt><trkpt lat="45.5802085" lon="10.4952819"><ele>310.0</ele><time>2026-04-25T14:37:58.733Z</time></trkpt><trkpt lat="45.5801441" lon="10.4951899"><ele>310.0</ele><time>2026-04-25T14:38:00.732Z</time></trkpt><trkpt lat="45.580069" lon="10.4951103"><ele>310.0</ele><time>2026-04-25T14:38:02.732Z</time></trkpt><trkpt lat="45.5799874" lon="10.4950427"><ele>310.0</ele><time>2026-04-25T14:38:04.732Z</time></trkpt><trkpt lat="45.5799131" lon="10.494968"><ele>310.0</ele><time>2026-04-25T14:38:06.732Z</time></trkpt><trkpt lat="45.5798533" lon="10.4948866"><ele>310.0</ele><time>2026-04-25T14:38:08.732Z</time></trkpt><trkpt lat="45.5798009" lon="10.4947875"><ele>310.0</ele><time>2026-04-25T14:38:10.732Z</time></trkpt><trkpt lat="45.579755" lon="10.4946304"><ele>310.0</ele><time>2026-04-25T14:38:12.733Z</time></trkpt><trkpt lat="45.5797144" lon="10.4944798"><ele>311.8333333333333</ele><time>2026-04-25T14:38:14.732Z</time></trkpt><trkpt lat="45.5796725" lon="10.4943156"><ele>313.66666666666663</ele><time>2026-04-25T14:38:16.732Z</time></trkpt><trkpt lat="45.5796474" lon="10.4942243"><ele>315.5</ele><time>2026-04-25T14:38:17.733Z</time></trkpt><trkpt lat="45.5796113" lon="10.4940582"><ele>317.3333333333333</ele><time>2026-04-25T14:38:19.732Z</time></trkpt><trkpt lat="45.5795998" lon="10.4939662"><ele>319.1666666666667</ele><time>2026-04-25T14:38:20.732Z</time></trkpt><trkpt lat="45.5795826" lon="10.4938762"><ele>321.0</ele><time>2026-04-25T14:38:21.733Z</time></trkpt><trkpt lat="45.5795633" lon="10.4937039"><ele>322.0</ele><time>2026-04-25T14:38:23.733Z</time></trkpt><trkpt lat="45.5795566" lon="10.493561"><ele>323.0</ele><time>2026-04-25T14:38:25.732Z</time></trkpt><trkpt lat="45.5795319" lon="10.4934358"><ele>324.0</ele><time>2026-04-25T14:38:27.733Z</time></trkpt><trkpt lat="45.5795015" lon="10.4932958"><ele>325.0</ele><time>2026-04-25T14:38:29.733Z</time></trkpt><trkpt lat="45.5794816" lon="10.4932092"><ele>326.0</ele><time>2026-04-25T14:38:30.733Z</time></trkpt><trkpt lat="45.5794642" lon="10.4931178"><ele>327.0</ele><time>2026-04-25T14:38:31.732Z</time></trkpt><trkpt lat="45.579443" lon="10.4929795"><ele>323.6</ele><time>2026-04-25T14:38:33.733Z</time></trkpt><trkpt lat="45.5793995" lon="10.4928613"><ele>320.20000000000005</ele><time>2026-04-25T14:38:35.732Z</time></trkpt><trkpt lat="45.5793487" lon="10.4927299"><ele>316.8</ele><time>2026-04-25T14:38:37.733Z</time></trkpt><trkpt lat="45.5792966" lon="10.4926237"><ele>313.4</ele><time>2026-04-25T14:38:39.733Z</time></trkpt><trkpt lat="45.5792436" lon="10.4925226"><ele>310.0</ele><time>2026-04-25T14:38:41.733Z</time></trkpt><trkpt lat="45.5792016" lon="10.4924381"><ele>310.0</ele><time>2026-04-25T14:38:43.732Z</time></trkpt><trkpt lat="45.5791654" lon="10.4923508"><ele>310.0</ele><time>2026-04-25T14:38:45.733Z</time></trkpt><trkpt lat="45.5791108" lon="10.4922521"><ele>310.0</ele><time>2026-04-25T14:38:48.731Z</time></trkpt><trkpt lat="45.5790564" lon="10.4921752"><ele>310.0</ele><time>2026-04-25T14:38:50.732Z</time></trkpt><trkpt lat="45.5789923" lon="10.492084"><ele>310.0</ele><time>2026-04-25T14:38:52.732Z</time></trkpt><trkpt lat="45.578929" lon="10.4920054"><ele>310.0</ele><time>2026-04-25T14:38:54.732Z</time></trkpt><trkpt lat="45.5788633" lon="10.491948"><ele>311.0</ele><time>2026-04-25T14:38:56.733Z</time></trkpt><trkpt lat="45.5788031" lon="10.4918917"><ele>312.0</ele><time>2026-04-25T14:38:58.731Z</time></trkpt><trkpt lat="45.5787477" lon="10.4918346"><ele>313.0</ele><time>2026-04-25T14:39:00.733Z</time></trkpt><trkpt lat="45.5786877" lon="10.4917837"><ele>314.0</ele><time>2026-04-25T14:39:02.733Z</time></trkpt><trkpt lat="45.5786312" lon="10.4917424"><ele>315.0</ele><time>2026-04-25T14:39:04.732Z</time></trkpt><trkpt lat="45.5785617" lon="10.4916949"><ele>316.0</ele><time>2026-04-25T14:39:06.733Z</time></trkpt><trkpt lat="45.5784799" lon="10.4916511"><ele>317.0</ele><time>2026-04-25T14:39:09.732Z</time></trkpt><trkpt lat="45.5783929" lon="10.491604"><ele>317.0</ele><time>2026-04-25T14:39:12.732Z</time></trkpt><trkpt lat="45.578307" lon="10.4915768"><ele>317.0</ele><time>2026-04-25T14:39:15.733Z</time></trkpt><trkpt lat="45.5782233" lon="10.4915814"><ele>317.0</ele><time>2026-04-25T14:39:18.732Z</time></trkpt><trkpt lat="45.5781343" lon="10.4915723"><ele>317.0</ele><time>2026-04-25T14:39:21.732Z</time></trkpt><trkpt lat="45.5780523" lon="10.4915504"><ele>317.0</ele><time>2026-04-25T14:39:24.732Z</time></trkpt><trkpt lat="45.5779755" lon="10.491515"><ele>317.0</ele><time>2026-04-25T14:39:27.733Z</time></trkpt><trkpt lat="45.5778946" lon="10.4914708"><ele>316.5</ele><time>2026-04-25T14:39:31.731Z</time></trkpt><trkpt lat="45.5778092" lon="10.4914218"><ele>316.0</ele><time>2026-04-25T14:39:34.733Z</time></trkpt><trkpt lat="45.5777327" lon="10.491368"><ele>315.5</ele><time>2026-04-25T14:39:37.732Z</time></trkpt><trkpt lat="45.5776523" lon="10.4913411"><ele>315.0</ele><time>2026-04-25T14:39:40.733Z</time></trkpt><trkpt lat="45.5775711" lon="10.4912957"><ele>314.5</ele><time>2026-04-25T14:39:44.732Z</time></trkpt><trkpt lat="45.5774889" lon="10.491261"><ele>314.0</ele><time>2026-04-25T14:39:47.733Z</time></trkpt><trkpt lat="45.5774182" lon="10.4912389"><ele>315.33333333333337</ele><time>2026-04-25T14:39:50.731Z</time></trkpt><trkpt lat="45.5773347" lon="10.491192"><ele>316.6666666666667</ele><time>2026-04-25T14:39:53.731Z</time></trkpt><trkpt lat="45.5772694" lon="10.4911453"><ele>318.0</ele><time>2026-04-25T14:39:55.733Z</time></trkpt><trkpt lat="45.5771808" lon="10.4910788"><ele>319.3333333333333</ele><time>2026-04-25T14:39:58.733Z</time></trkpt><trkpt lat="45.5771141" lon="10.4910374"><ele>320.66666666666663</ele><time>2026-04-25T14:39:59.732Z</time></trkpt><trkpt lat="45.5770097" lon="10.4909837"><ele>322.0</ele><time>2026-04-25T14:40:01.732Z</time></trkpt><trkpt lat="45.5769244" lon="10.4909449"><ele>322.0</ele><time>2026-04-25T14:40:03.733Z</time></trkpt><trkpt lat="45.5768354" lon="10.4908962"><ele>322.0</ele><time>2026-04-25T14:40:05.732Z</time></trkpt><trkpt lat="45.5767624" lon="10.4908572"><ele>322.0</ele><time>2026-04-25T14:40:07.732Z</time></trkpt><trkpt lat="45.5766785" lon="10.4908103"><ele>322.0</ele><time>2026-04-25T14:40:09.732Z</time></trkpt><trkpt lat="45.5766047" lon="10.4907812"><ele>322.0</ele><time>2026-04-25T14:40:11.733Z</time></trkpt><trkpt lat="45.5765191" lon="10.4907243"><ele>322.0</ele><time>2026-04-25T14:40:14.732Z</time></trkpt><trkpt lat="45.5764495" lon="10.4907817"><ele>322.0</ele><time>2026-04-25T14:40:16.731Z</time></trkpt><trkpt lat="45.576402" lon="10.4908898"><ele>322.0</ele><time>2026-04-25T14:40:19.733Z</time></trkpt><trkpt lat="45.5763629" lon="10.4909763"><ele>322.0</ele><time>2026-04-25T14:40:22.732Z</time></trkpt><trkpt lat="45.5763251" lon="10.4910484"><ele>322.0</ele><time>2026-04-25T14:40:24.732Z</time></trkpt><trkpt lat="45.5762921" lon="10.4911322"><ele>322.0</ele><time>2026-04-25T14:40:26.732Z</time></trkpt><trkpt lat="45.5762586" lon="10.491247"><ele>322.0</ele><time>2026-04-25T14:40:28.733Z</time></trkpt><trkpt lat="45.5762261" lon="10.4913664"><ele>320.8</ele><time>2026-04-25T14:40:30.733Z</time></trkpt><trkpt lat="45.5761874" lon="10.491513"><ele>319.6</ele><time>2026-04-25T14:40:32.731Z</time></trkpt><trkpt lat="45.5761523" lon="10.4916469"><ele>318.40000000000003</ele><time>2026-04-25T14:40:34.733Z</time></trkpt><trkpt lat="45.5761068" lon="10.4917386"><ele>317.20000000000005</ele><time>2026-04-25T14:40:36.732Z</time></trkpt><trkpt lat="45.5760475" lon="10.491799"><ele>316.0</ele><time>2026-04-25T14:40:38.733Z</time></trkpt><trkpt lat="45.5759485" lon="10.4918363"><ele>316.0</ele><time>2026-04-25T14:40:40.733Z</time></trkpt><trkpt lat="45.575853" lon="10.4918624"><ele>316.0</ele><time>2026-04-25T14:40:42.733Z</time></trkpt><trkpt lat="45.575754" lon="10.4918803"><ele>316.0</ele><time>2026-04-25T14:40:44.732Z</time></trkpt><trkpt lat="45.5756509" lon="10.4918928"><ele>316.0</ele><time>2026-04-25T14:40:46.733Z</time></trkpt><trkpt lat="45.5755585" lon="10.491901"><ele>316.0</ele><time>2026-04-25T14:40:48.731Z</time></trkpt><trkpt lat="45.5754682" lon="10.4919039"><ele>316.0</ele><time>2026-04-25T14:40:50.733Z</time></trkpt><trkpt lat="45.5753831" lon="10.4919024"><ele>316.0</ele><time>2026-04-25T14:40:53.733Z</time></trkpt><trkpt lat="45.5753221" lon="10.4919756"><ele>316.0</ele><time>2026-04-25T14:40:55.733Z</time></trkpt><trkpt lat="45.5752687" lon="10.4920666"><ele>316.0</ele><time>2026-04-25T14:40:57.733Z</time></trkpt><trkpt lat="45.5752232" lon="10.4921469"><ele>316.0</ele><time>2026-04-25T14:40:59.732Z</time></trkpt><trkpt lat="45.5751538" lon="10.4922533"><ele>316.0</ele><time>2026-04-25T14:41:01.732Z</time></trkpt><trkpt lat="45.5750454" lon="10.4923276"><ele>315.40000000000003</ele><time>2026-04-25T14:41:03.732Z</time></trkpt><trkpt lat="45.5749789" lon="10.4923663"><ele>314.8</ele><time>2026-04-25T14:41:04.732Z</time></trkpt><trkpt lat="45.574857" lon="10.4923906"><ele>314.20000000000005</ele><time>2026-04-25T14:41:06.733Z</time></trkpt><trkpt lat="45.5747879" lon="10.4924053"><ele>313.6</ele><time>2026-04-25T14:41:07.733Z</time></trkpt><trkpt lat="45.5746866" lon="10.4924414"><ele>313.0</ele><time>2026-04-25T14:41:09.732Z</time></trkpt><trkpt lat="45.5745868" lon="10.4924318"><ele>312.2</ele><time>2026-04-25T14:41:11.733Z</time></trkpt><trkpt lat="45.5744875" lon="10.4923298"><ele>311.4</ele><time>2026-04-25T14:41:13.733Z</time></trkpt><trkpt lat="45.5743773" lon="10.4922705"><ele>310.59999999999997</ele><time>2026-04-25T14:41:15.732Z</time></trkpt><trkpt lat="45.5742641" lon="10.4922461"><ele>309.8</ele><time>2026-04-25T14:41:17.732Z</time></trkpt><trkpt lat="45.5741983" lon="10.4922482"><ele>309.0</ele><time>2026-04-25T14:41:18.732Z</time></trkpt><trkpt lat="45.5741335" lon="10.4922538"><ele>309.00000000000006</ele><time>2026-04-25T14:41:19.732Z</time></trkpt><trkpt lat="45.5740678" lon="10.4922719"><ele>309.0</ele><time>2026-04-25T14:41:20.733Z</time></trkpt><trkpt lat="45.5740039" lon="10.492303"><ele>309.0</ele><time>2026-04-25T14:41:21.731Z</time></trkpt><trkpt lat="45.5739457" lon="10.4923456"><ele>309.0</ele><time>2026-04-25T14:41:22.733Z</time></trkpt><trkpt lat="45.5738904" lon="10.4923969"><ele>309.0</ele><time>2026-04-25T14:41:23.732Z</time></trkpt><trkpt lat="45.5738407" lon="10.4924539"><ele>309.00000000000006</ele><time>2026-04-25T14:41:24.732Z</time></trkpt><trkpt lat="45.5737998" lon="10.4925247"><ele>309.0</ele><time>2026-04-25T14:41:25.731Z</time></trkpt><trkpt lat="45.5737684" lon="10.4926049"><ele>309.0</ele><time>2026-04-25T14:41:26.733Z</time></trkpt><trkpt lat="45.5737485" lon="10.4926913"><ele>309.0</ele><time>2026-04-25T14:41:27.732Z</time></trkpt><trkpt lat="45.5737361" lon="10.4927796"><ele>309.0</ele><time>2026-04-25T14:41:28.732Z</time></trkpt><trkpt lat="45.5737244" lon="10.4928709"><ele>309.0</ele><time>2026-04-25T14:41:29.733Z</time></trkpt><trkpt lat="45.573716" lon="10.4930479"><ele>309.0</ele><time>2026-04-25T14:41:31.733Z</time></trkpt><trkpt lat="45.5737099" lon="10.4932025"><ele>309.0</ele><time>2026-04-25T14:41:33.731Z</time></trkpt><trkpt lat="45.5737026" lon="10.4933447"><ele>308.8</ele><time>2026-04-25T14:41:35.732Z</time></trkpt><trkpt lat="45.5736684" lon="10.4934993"><ele>308.59999999999997</ele><time>2026-04-25T14:41:37.732Z</time></trkpt><trkpt lat="45.573649" lon="10.4935872"><ele>308.4</ele><time>2026-04-25T14:41:38.732Z</time></trkpt><trkpt lat="45.5735838" lon="10.4937179"><ele>308.2</ele><time>2026-04-25T14:41:40.732Z</time></trkpt><trkpt lat="45.5735408" lon="10.4938304"><ele>308.0</ele><time>2026-04-25T14:41:41.731Z</time></trkpt><trkpt lat="45.5735015" lon="10.4939268"><ele>308.0</ele><time>2026-04-25T14:41:42.732Z</time></trkpt><trkpt lat="45.5734694" lon="10.4940352"><ele>308.0</ele><time>2026-04-25T14:41:43.733Z</time></trkpt><trkpt lat="45.5734289" lon="10.4941405"><ele>308.0</ele><time>2026-04-25T14:41:44.733Z</time></trkpt><trkpt lat="45.5733726" lon="10.4942538"><ele>308.0</ele><time>2026-04-25T14:41:45.733Z</time></trkpt><trkpt lat="45.5733085" lon="10.4943411"><ele>308.0</ele><time>2026-04-25T14:41:46.731Z</time></trkpt><trkpt lat="45.5732392" lon="10.4944277"><ele>308.0</ele><time>2026-04-25T14:41:47.731Z</time></trkpt><trkpt lat="45.5731675" lon="10.4945111"><ele>307.4</ele><time>2026-04-25T14:41:48.733Z</time></trkpt><trkpt lat="45.5730902" lon="10.4946076"><ele>306.8</ele><time>2026-04-25T14:41:49.732Z</time></trkpt><trkpt lat="45.5730099" lon="10.4946989"><ele>306.2</ele><time>2026-04-25T14:41:50.731Z</time></trkpt><trkpt lat="45.5729332" lon="10.4947834"><ele>305.6</ele><time>2026-04-25T14:41:51.733Z</time></trkpt><trkpt lat="45.5728608" lon="10.4948879"><ele>305.0</ele><time>2026-04-25T14:41:52.733Z</time></trkpt><trkpt lat="45.5728038" lon="10.4949708"><ele>305.0</ele><time>2026-04-25T14:41:53.733Z</time></trkpt><trkpt lat="45.572767" lon="10.4950766"><ele>305.0</ele><time>2026-04-25T14:41:54.731Z</time></trkpt><trkpt lat="45.5727322" lon="10.4951658"><ele>305.0</ele><time>2026-04-25T14:41:55.733Z</time></trkpt><trkpt lat="45.5726907" lon="10.4952617"><ele>305.0</ele><time>2026-04-25T14:41:56.732Z</time></trkpt><trkpt lat="45.57266" lon="10.495348"><ele>305.0</ele><time>2026-04-25T14:41:57.732Z</time></trkpt><trkpt lat="45.5726334" lon="10.4954565"><ele>305.0</ele><time>2026-04-25T14:41:58.733Z</time></trkpt><trkpt lat="45.5726217" lon="10.495558"><ele>303.0</ele><time>2026-04-25T14:41:59.733Z</time></trkpt><trkpt lat="45.5726285" lon="10.4956655"><ele>301.0</ele><time>2026-04-25T14:42:00.733Z</time></trkpt><trkpt lat="45.5726574" lon="10.4957779"><ele>299.0</ele><time>2026-04-25T14:42:01.733Z</time></trkpt><trkpt lat="45.5726804" lon="10.4958943"><ele>297.0</ele><time>2026-04-25T14:42:02.733Z</time></trkpt><trkpt lat="45.5726961" lon="10.4960039"><ele>295.0</ele><time>2026-04-25T14:42:03.733Z</time></trkpt><trkpt lat="45.5727249" lon="10.4961301"><ele>293.0</ele><time>2026-04-25T14:42:04.732Z</time></trkpt><trkpt lat="45.5727364" lon="10.4962468"><ele>292.5</ele><time>2026-04-25T14:42:05.731Z</time></trkpt><trkpt lat="45.5727512" lon="10.4963531"><ele>292.0</ele><time>2026-04-25T14:42:06.731Z</time></trkpt><trkpt lat="45.5727573" lon="10.4964641"><ele>291.5</ele><time>2026-04-25T14:42:07.732Z</time></trkpt><trkpt lat="45.5727554" lon="10.4965866"><ele>291.0</ele><time>2026-04-25T14:42:08.733Z</time></trkpt><trkpt lat="45.5727543" lon="10.496699"><ele>290.5</ele><time>2026-04-25T14:42:09.731Z</time></trkpt><trkpt lat="45.5727546" lon="10.4968098"><ele>290.0</ele><time>2026-04-25T14:42:10.731Z</time></trkpt><trkpt lat="45.5727451" lon="10.4969298"><ele>290.0</ele><time>2026-04-25T14:42:11.733Z</time></trkpt><trkpt lat="45.5727363" lon="10.4970451"><ele>290.0</ele><time>2026-04-25T14:42:12.733Z</time></trkpt><trkpt lat="45.5727233" lon="10.497166"><ele>290.0</ele><time>2026-04-25T14:42:13.731Z</time></trkpt><trkpt lat="45.5727025" lon="10.4972791"><ele>290.0</ele><time>2026-04-25T14:42:14.733Z</time></trkpt><trkpt lat="45.5726761" lon="10.4973858"><ele>290.0</ele><time>2026-04-25T14:42:15.732Z</time></trkpt><trkpt lat="45.5726444" lon="10.4974887"><ele>290.0</ele><time>2026-04-25T14:42:16.733Z</time></trkpt><trkpt lat="45.5726034" lon="10.4975921"><ele>289.83333333333337</ele><time>2026-04-25T14:42:17.732Z</time></trkpt><trkpt lat="45.572565" lon="10.4976953"><ele>289.6666666666667</ele><time>2026-04-25T14:42:18.731Z</time></trkpt><trkpt lat="45.572523" lon="10.4978009"><ele>289.5</ele><time>2026-04-25T14:42:19.733Z</time></trkpt><trkpt lat="45.5724748" lon="10.497911"><ele>289.3333333333333</ele><time>2026-04-25T14:42:20.733Z</time></trkpt><trkpt lat="45.5724325" lon="10.4980082"><ele>289.16666666666663</ele><time>2026-04-25T14:42:21.731Z</time></trkpt><trkpt lat="45.5723894" lon="10.4981162"><ele>289.0</ele><time>2026-04-25T14:42:22.732Z</time></trkpt><trkpt lat="45.5723539" lon="10.4982274"><ele>288.0</ele><time>2026-04-25T14:42:23.732Z</time></trkpt><trkpt lat="45.5723261" lon="10.498335"><ele>287.0</ele><time>2026-04-25T14:42:24.733Z</time></trkpt><trkpt lat="45.5723058" lon="10.4984475"><ele>286.0</ele><time>2026-04-25T14:42:25.732Z</time></trkpt><trkpt lat="45.5722966" lon="10.4985551"><ele>285.0</ele><time>2026-04-25T14:42:26.733Z</time></trkpt><trkpt lat="45.5722848" lon="10.4986692"><ele>284.0</ele><time>2026-04-25T14:42:27.731Z</time></trkpt><trkpt lat="45.5722768" lon="10.4987818"><ele>283.0</ele><time>2026-04-25T14:42:28.732Z</time></trkpt><trkpt lat="45.572266" lon="10.4988916"><ele>282.3333333333333</ele><time>2026-04-25T14:42:29.733Z</time></trkpt><trkpt lat="45.5722535" lon="10.4989995"><ele>281.66666666666663</ele><time>2026-04-25T14:42:30.733Z</time></trkpt><trkpt lat="45.5722482" lon="10.4991028"><ele>281.0</ele><time>2026-04-25T14:42:31.733Z</time></trkpt><trkpt lat="45.5722417" lon="10.4992027"><ele>280.3333333333333</ele><time>2026-04-25T14:42:32.733Z</time></trkpt><trkpt lat="45.5722222" lon="10.4993616"><ele>279.6666666666667</ele><time>2026-04-25T14:42:34.732Z</time></trkpt><trkpt lat="45.5721944" lon="10.4992628"><ele>279.0</ele><time>2026-04-25T14:42:42.733Z</time></trkpt><trkpt lat="45.5722077" lon="10.4991672"><ele>278.99999999999994</ele><time>2026-04-25T14:42:44.734Z</time></trkpt><trkpt lat="45.5722101" lon="10.4990625"><ele>279.0</ele><time>2026-04-25T14:42:46.733Z</time></trkpt><trkpt lat="45.5721831" lon="10.4989723"><ele>279.0</ele><time>2026-04-25T14:42:48.733Z</time></trkpt><trkpt lat="45.572169" lon="10.4988727"><ele>279.0</ele><time>2026-04-25T14:42:51.734Z</time></trkpt><trkpt lat="45.5721502" lon="10.4987796"><ele>279.0</ele><time>2026-04-25T14:42:54.734Z</time></trkpt><trkpt lat="45.5721233" lon="10.4986818"><ele>278.99999999999994</ele><time>2026-04-25T14:42:57.734Z</time></trkpt><trkpt lat="45.5720876" lon="10.4985788"><ele>279.0</ele><time>2026-04-25T14:43:00.733Z</time></trkpt><trkpt lat="45.57207" lon="10.4984821"><ele>279.6666666666667</ele><time>2026-04-25T14:43:03.733Z</time></trkpt><trkpt lat="45.5720557" lon="10.4983905"><ele>280.3333333333333</ele><time>2026-04-25T14:43:06.733Z</time></trkpt><trkpt lat="45.5720315" lon="10.4982715"><ele>281.0</ele><time>2026-04-25T14:43:09.734Z</time></trkpt><trkpt lat="45.5720243" lon="10.4981781"><ele>281.66666666666663</ele><time>2026-04-25T14:43:11.732Z</time></trkpt><trkpt lat="45.5720086" lon="10.4980808"><ele>282.3333333333333</ele><time>2026-04-25T14:43:13.733Z</time></trkpt><trkpt lat="45.572006" lon="10.4979556"><ele>283.0</ele><time>2026-04-25T14:43:16.734Z</time></trkpt><trkpt lat="45.5720303" lon="10.4978354"><ele>284.0</ele><time>2026-04-25T14:43:19.732Z</time></trkpt><trkpt lat="45.5720479" lon="10.497743"><ele>285.0</ele><time>2026-04-25T14:43:23.733Z</time></trkpt><trkpt lat="45.5720629" lon="10.4976177"><ele>286.0</ele><time>2026-04-25T14:43:26.733Z</time></trkpt><trkpt lat="45.5720673" lon="10.4975234"><ele>287.0</ele><time>2026-04-25T14:43:29.732Z</time></trkpt><trkpt lat="45.5720662" lon="10.4974237"><ele>288.0</ele><time>2026-04-25T14:43:32.733Z</time></trkpt><trkpt lat="45.5720595" lon="10.4973205"><ele>289.0</ele><time>2026-04-25T14:43:35.732Z</time></trkpt><trkpt lat="45.5720366" lon="10.4971958"><ele>291.0</ele><time>2026-04-25T14:43:38.733Z</time></trkpt><trkpt lat="45.5720109" lon="10.4970957"><ele>293.0</ele><time>2026-04-25T14:43:40.734Z</time></trkpt><trkpt lat="45.5719469" lon="10.4969483"><ele>295.0</ele><time>2026-04-25T14:43:42.733Z</time></trkpt><trkpt lat="45.5719183" lon="10.4968545"><ele>297.0</ele><time>2026-04-25T14:43:43.734Z</time></trkpt><trkpt lat="45.5718539" lon="10.4967211"><ele>299.0</ele><time>2026-04-25T14:43:45.733Z</time></trkpt><trkpt lat="45.5718277" lon="10.4966369"><ele>301.0</ele><time>2026-04-25T14:43:46.734Z</time></trkpt><trkpt lat="45.5717726" lon="10.4964843"><ele>301.0</ele><time>2026-04-25T14:43:48.733Z</time></trkpt><trkpt lat="45.5717637" lon="10.4963712"><ele>301.0</ele><time>2026-04-25T14:43:49.733Z</time></trkpt><trkpt lat="45.5717458" lon="10.4962638"><ele>301.0</ele><time>2026-04-25T14:43:50.733Z</time></trkpt><trkpt lat="45.5717283" lon="10.4961721"><ele>301.0</ele><time>2026-04-25T14:43:51.732Z</time></trkpt><trkpt lat="45.5716955" lon="10.4959981"><ele>301.0</ele><time>2026-04-25T14:43:53.734Z</time></trkpt><trkpt lat="45.5716808" lon="10.4959067"><ele>301.0</ele><time>2026-04-25T14:43:54.732Z</time></trkpt><trkpt lat="45.5716702" lon="10.4957487"><ele>300.66666666666663</ele><time>2026-04-25T14:43:56.734Z</time></trkpt><trkpt lat="45.5716546" lon="10.4956047"><ele>300.3333333333333</ele><time>2026-04-25T14:43:58.733Z</time></trkpt><trkpt lat="45.5716104" lon="10.495485"><ele>300.0</ele><time>2026-04-25T14:44:00.734Z</time></trkpt><trkpt lat="45.5715318" lon="10.4953715"><ele>299.6666666666667</ele><time>2026-04-25T14:44:02.734Z</time></trkpt><trkpt lat="45.5714783" lon="10.495318"><ele>299.33333333333337</ele><time>2026-04-25T14:44:03.732Z</time></trkpt><trkpt lat="45.5714213" lon="10.4952691"><ele>299.0</ele><time>2026-04-25T14:44:04.733Z</time></trkpt><trkpt lat="45.5713599" lon="10.4952278"><ele>299.0</ele><time>2026-04-25T14:44:05.734Z</time></trkpt><trkpt lat="45.5712943" lon="10.4951927"><ele>299.0</ele><time>2026-04-25T14:44:06.732Z</time></trkpt><trkpt lat="45.5712218" lon="10.4951642"><ele>299.0</ele><time>2026-04-25T14:44:07.733Z</time></trkpt><trkpt lat="45.5711466" lon="10.4951291"><ele>299.0</ele><time>2026-04-25T14:44:08.733Z</time></trkpt><trkpt lat="45.5710674" lon="10.4950995"><ele>299.0</ele><time>2026-04-25T14:44:09.733Z</time></trkpt><trkpt lat="45.5709879" lon="10.4950666"><ele>299.0</ele><time>2026-04-25T14:44:10.733Z</time></trkpt><trkpt lat="45.5709074" lon="10.4950315"><ele>298.0</ele><time>2026-04-25T14:44:11.733Z</time></trkpt><trkpt lat="45.5708269" lon="10.4949941"><ele>297.0</ele><time>2026-04-25T14:44:12.733Z</time></trkpt><trkpt lat="45.5707464" lon="10.4949569"><ele>296.0</ele><time>2026-04-25T14:44:13.734Z</time></trkpt><trkpt lat="45.5706682" lon="10.4949163"><ele>295.0</ele><time>2026-04-25T14:44:14.733Z</time></trkpt><trkpt lat="45.5705884" lon="10.4948711"><ele>294.0</ele><time>2026-04-25T14:44:15.733Z</time></trkpt><trkpt lat="45.5705151" lon="10.4948251"><ele>293.0</ele><time>2026-04-25T14:44:16.734Z</time></trkpt><trkpt lat="45.5704437" lon="10.4947834"><ele>293.0</ele><time>2026-04-25T14:44:17.734Z</time></trkpt><trkpt lat="45.5703744" lon="10.4947485"><ele>293.0</ele><time>2026-04-25T14:44:18.734Z</time></trkpt><trkpt lat="45.5703071" lon="10.494717"><ele>293.0</ele><time>2026-04-25T14:44:19.734Z</time></trkpt><trkpt lat="45.5702519" lon="10.4946589"><ele>293.0</ele><time>2026-04-25T14:44:20.734Z</time></trkpt><trkpt lat="45.5701723" lon="10.4945227"><ele>293.0</ele><time>2026-04-25T14:44:22.734Z</time></trkpt><trkpt lat="45.5701588" lon="10.4944206"><ele>293.0</ele><time>2026-04-25T14:44:23.732Z</time></trkpt><trkpt lat="45.5701378" lon="10.4943312"><ele>292.5</ele><time>2026-04-25T14:44:24.733Z</time></trkpt><trkpt lat="45.5701143" lon="10.4942418"><ele>292.0</ele><time>2026-04-25T14:44:25.734Z</time></trkpt><trkpt lat="45.5700652" lon="10.4941102"><ele>291.5</ele><time>2026-04-25T14:44:27.734Z</time></trkpt><trkpt lat="45.5700212" lon="10.4940324"><ele>291.0</ele><time>2026-04-25T14:44:29.732Z</time></trkpt><trkpt lat="45.569933" lon="10.4940165"><ele>290.5</ele><time>2026-04-25T14:44:32.733Z</time></trkpt><trkpt lat="45.5698672" lon="10.4940651"><ele>290.0</ele><time>2026-04-25T14:44:35.733Z</time></trkpt><trkpt lat="45.5698054" lon="10.4940901"><ele>290.0</ele><time>2026-04-25T14:44:37.733Z</time></trkpt><trkpt lat="45.5697383" lon="10.4941063"><ele>290.0</ele><time>2026-04-25T14:44:39.734Z</time></trkpt><trkpt lat="45.5696654" lon="10.4941222"><ele>290.0</ele><time>2026-04-25T14:44:41.733Z</time></trkpt><trkpt lat="45.5695899" lon="10.4941329"><ele>290.0</ele><time>2026-04-25T14:44:43.732Z</time></trkpt><trkpt lat="45.5695112" lon="10.4941427"><ele>290.0</ele><time>2026-04-25T14:44:45.733Z</time></trkpt><trkpt lat="45.5693801" lon="10.494156"><ele>290.0</ele><time>2026-04-25T14:44:48.732Z</time></trkpt><trkpt lat="45.5693085" lon="10.4942048"><ele>289.6666666666667</ele><time>2026-04-25T14:44:50.734Z</time></trkpt><trkpt lat="45.5692385" lon="10.4942882"><ele>289.33333333333337</ele><time>2026-04-25T14:44:52.733Z</time></trkpt><trkpt lat="45.5692064" lon="10.4943845"><ele>289.0</ele><time>2026-04-25T14:44:53.733Z</time></trkpt><trkpt lat="45.5691599" lon="10.4944488"><ele>288.6666666666667</ele><time>2026-04-25T14:44:54.733Z</time></trkpt><trkpt lat="45.5690992" lon="10.494495"><ele>288.3333333333333</ele><time>2026-04-25T14:44:55.732Z</time></trkpt><trkpt lat="45.5690285" lon="10.4945294"><ele>288.0</ele><time>2026-04-25T14:44:56.734Z</time></trkpt><trkpt lat="45.5689534" lon="10.4945671"><ele>288.5</ele><time>2026-04-25T14:44:57.734Z</time></trkpt><trkpt lat="45.5688742" lon="10.4946107"><ele>289.0</ele><time>2026-04-25T14:44:58.734Z</time></trkpt><trkpt lat="45.5687882" lon="10.4946545"><ele>289.5</ele><time>2026-04-25T14:44:59.734Z</time></trkpt><trkpt lat="45.568704" lon="10.4947059"><ele>290.0</ele><time>2026-04-25T14:45:00.734Z</time></trkpt><trkpt lat="45.5686256" lon="10.4947358"><ele>290.5</ele><time>2026-04-25T14:45:01.732Z</time></trkpt><trkpt lat="45.568554" lon="10.4947673"><ele>291.0</ele><time>2026-04-25T14:45:02.733Z</time></trkpt><trkpt lat="45.5684922" lon="10.494799"><ele>289.5</ele><time>2026-04-25T14:45:03.734Z</time></trkpt><trkpt lat="45.5684064" lon="10.4949112"><ele>288.0</ele><time>2026-04-25T14:45:05.733Z</time></trkpt><trkpt lat="45.5683707" lon="10.4949871"><ele>286.5</ele><time>2026-04-25T14:45:06.732Z</time></trkpt><trkpt lat="45.5683467" lon="10.4950733"><ele>285.0</ele><time>2026-04-25T14:45:07.734Z</time></trkpt><trkpt lat="45.5683057" lon="10.4952402"><ele>283.5</ele><time>2026-04-25T14:45:09.734Z</time></trkpt><trkpt lat="45.568276" lon="10.4953287"><ele>282.0</ele><time>2026-04-25T14:45:10.733Z</time></trkpt><trkpt lat="45.5682519" lon="10.4954202"><ele>282.8333333333333</ele><time>2026-04-25T14:45:11.734Z</time></trkpt><trkpt lat="45.5682189" lon="10.4955143"><ele>283.6666666666667</ele><time>2026-04-25T14:45:12.733Z</time></trkpt><trkpt lat="45.5681919" lon="10.4956053"><ele>284.5</ele><time>2026-04-25T14:45:13.734Z</time></trkpt><trkpt lat="45.5681669" lon="10.495689"><ele>285.33333333333337</ele><time>2026-04-25T14:45:14.734Z</time></trkpt><trkpt lat="45.5681069" lon="10.4958293"><ele>286.1666666666667</ele><time>2026-04-25T14:45:16.732Z</time></trkpt><trkpt lat="45.5680116" lon="10.4959311"><ele>287.0</ele><time>2026-04-25T14:45:18.733Z</time></trkpt><trkpt lat="45.5678931" lon="10.4959942"><ele>286.0</ele><time>2026-04-25T14:45:20.733Z</time></trkpt><trkpt lat="45.567781" lon="10.4960523"><ele>285.0</ele><time>2026-04-25T14:45:22.732Z</time></trkpt><trkpt lat="45.567668" lon="10.4961107"><ele>284.0</ele><time>2026-04-25T14:45:24.734Z</time></trkpt><trkpt lat="45.5675622" lon="10.4961923"><ele>283.0</ele><time>2026-04-25T14:45:26.734Z</time></trkpt><trkpt lat="45.5674669" lon="10.4962917"><ele>283.0</ele><time>2026-04-25T14:45:28.734Z</time></trkpt><trkpt lat="45.5673922" lon="10.4963905"><ele>283.0</ele><time>2026-04-25T14:45:30.733Z</time></trkpt><trkpt lat="45.5673404" lon="10.4964557"><ele>283.0</ele><time>2026-04-25T14:45:32.732Z</time></trkpt><trkpt lat="45.5672921" lon="10.4965483"><ele>283.0</ele><time>2026-04-25T14:45:34.733Z</time></trkpt><trkpt lat="45.5672655" lon="10.4966385"><ele>283.0</ele><time>2026-04-25T14:45:44.733Z</time></trkpt><trkpt lat="45.567207" lon="10.4966933"><ele>283.0</ele><time>2026-04-25T14:46:02.733Z</time></trkpt><trkpt lat="45.5671995" lon="10.4967957"><ele>283.0</ele><time>2026-04-25T14:46:45.734Z</time></trkpt><trkpt lat="45.5671588" lon="10.4968901"><ele>283.0</ele><time>2026-04-25T14:46:47.733Z</time></trkpt><trkpt lat="45.5671298" lon="10.4970072"><ele>283.0</ele><time>2026-04-25T14:46:49.733Z</time></trkpt><trkpt lat="45.5671025" lon="10.4971221"><ele>283.0</ele><time>2026-04-25T14:46:51.733Z</time></trkpt><trkpt lat="45.5670522" lon="10.4972512"><ele>283.0</ele><time>2026-04-25T14:46:53.733Z</time></trkpt><trkpt lat="45.5669974" lon="10.497352"><ele>283.0</ele><time>2026-04-25T14:46:55.734Z</time></trkpt><trkpt lat="45.566951" lon="10.4974578"><ele>281.6</ele><time>2026-04-25T14:46:57.733Z</time></trkpt><trkpt lat="45.5669116" lon="10.4975772"><ele>280.20000000000005</ele><time>2026-04-25T14:46:59.733Z</time></trkpt><trkpt lat="45.5668501" lon="10.4976962"><ele>278.8</ele><time>2026-04-25T14:47:01.732Z</time></trkpt><trkpt lat="45.5667902" lon="10.4978052"><ele>277.40000000000003</ele><time>2026-04-25T14:47:03.734Z</time></trkpt><trkpt lat="45.5667045" lon="10.4978738"><ele>276.0</ele><time>2026-04-25T14:47:05.733Z</time></trkpt><trkpt lat="45.5666399" lon="10.4979885"><ele>276.0</ele><time>2026-04-25T14:47:07.733Z</time></trkpt><trkpt lat="45.5665785" lon="10.4981226"><ele>276.0</ele><time>2026-04-25T14:47:09.733Z</time></trkpt><trkpt lat="45.5665649" lon="10.4982238"><ele>276.0</ele><time>2026-04-25T14:47:11.734Z</time></trkpt><trkpt lat="45.5665577" lon="10.4983516"><ele>276.0</ele><time>2026-04-25T14:47:14.733Z</time></trkpt><trkpt lat="45.5665535" lon="10.4984596"><ele>276.0</ele><time>2026-04-25T14:47:16.734Z</time></trkpt><trkpt lat="45.5665379" lon="10.4985887"><ele>276.0</ele><time>2026-04-25T14:47:19.733Z</time></trkpt><trkpt lat="45.5665327" lon="10.4986947"><ele>276.0</ele><time>2026-04-25T14:47:22.734Z</time></trkpt><trkpt lat="45.5665444" lon="10.4985839"><ele>276.0</ele><time>2026-04-25T14:48:02.732Z</time></trkpt><trkpt lat="45.5665501" lon="10.4984526"><ele>276.0</ele><time>2026-04-25T14:48:05.734Z</time></trkpt><trkpt lat="45.5665804" lon="10.4983055"><ele>276.0</ele><time>2026-04-25T14:48:07.734Z</time></trkpt><trkpt lat="45.5665956" lon="10.4982162"><ele>276.0</ele><time>2026-04-25T14:48:08.733Z</time></trkpt><trkpt lat="45.5666247" lon="10.4980861"><ele>276.0</ele><time>2026-04-25T14:48:10.733Z</time></trkpt><trkpt lat="45.5666679" lon="10.4979899"><ele>275.0</ele><time>2026-04-25T14:48:12.734Z</time></trkpt><trkpt lat="45.5667343" lon="10.4979113"><ele>274.0</ele><time>2026-04-25T14:48:14.733Z</time></trkpt><trkpt lat="45.5668151" lon="10.4978404"><ele>273.0</ele><time>2026-04-25T14:48:16.733Z</time></trkpt><trkpt lat="45.5668667" lon="10.4977342"><ele>272.0</ele><time>2026-04-25T14:48:18.733Z</time></trkpt><trkpt lat="45.5669029" lon="10.4976275"><ele>271.0</ele><time>2026-04-25T14:48:20.733Z</time></trkpt><trkpt lat="45.5669417" lon="10.4975419"><ele>270.0</ele><time>2026-04-25T14:48:22.734Z</time></trkpt><trkpt lat="45.5669824" lon="10.4974549"><ele>272.6</ele><time>2026-04-25T14:48:23.733Z</time></trkpt><trkpt lat="45.5670407" lon="10.4973204"><ele>275.2</ele><time>2026-04-25T14:48:25.733Z</time></trkpt><trkpt lat="45.567102" lon="10.4971892"><ele>277.8</ele><time>2026-04-25T14:48:27.734Z</time></trkpt><trkpt lat="45.5671526" lon="10.4970462"><ele>280.4</ele><time>2026-04-25T14:48:29.734Z</time></trkpt><trkpt lat="45.5671987" lon="10.4969368"><ele>283.0</ele><time>2026-04-25T14:48:31.733Z</time></trkpt><trkpt lat="45.5672444" lon="10.4968176"><ele>283.0</ele><time>2026-04-25T14:48:33.734Z</time></trkpt><trkpt lat="45.5672799" lon="10.4967052"><ele>283.0</ele><time>2026-04-25T14:48:35.733Z</time></trkpt><trkpt lat="45.5673106" lon="10.4966043"><ele>283.0</ele><time>2026-04-25T14:48:37.734Z</time></trkpt><trkpt lat="45.5673414" lon="10.4965133"><ele>283.0</ele><time>2026-04-25T14:48:39.734Z</time></trkpt><trkpt lat="45.5673888" lon="10.4964329"><ele>283.0</ele><time>2026-04-25T14:48:41.734Z</time></trkpt><trkpt lat="45.5674442" lon="10.496361"><ele>283.0</ele><time>2026-04-25T14:48:43.733Z</time></trkpt><trkpt lat="45.5675047" lon="10.496282"><ele>282.16666666666663</ele><time>2026-04-25T14:48:45.734Z</time></trkpt><trkpt lat="45.5675554" lon="10.4961788"><ele>281.3333333333333</ele><time>2026-04-25T14:48:47.733Z</time></trkpt><trkpt lat="45.567566" lon="10.4960768"><ele>280.5</ele><time>2026-04-25T14:48:49.734Z</time></trkpt><trkpt lat="45.5675608" lon="10.4959715"><ele>279.6666666666667</ele><time>2026-04-25T14:48:51.732Z</time></trkpt><trkpt lat="45.5675571" lon="10.4958379"><ele>278.83333333333337</ele><time>2026-04-25T14:48:53.734Z</time></trkpt><trkpt lat="45.5675492" lon="10.4956993"><ele>278.0</ele><time>2026-04-25T14:48:55.734Z</time></trkpt><trkpt lat="45.5675585" lon="10.4955738"><ele>278.0</ele><time>2026-04-25T14:48:57.733Z</time></trkpt><trkpt lat="45.5675761" lon="10.4954713"><ele>278.0</ele><time>2026-04-25T14:48:59.734Z</time></trkpt><trkpt lat="45.5675817" lon="10.4953771"><ele>278.0</ele><time>2026-04-25T14:49:01.734Z</time></trkpt><trkpt lat="45.5675796" lon="10.4952611"><ele>278.0</ele><time>2026-04-25T14:49:04.732Z</time></trkpt><trkpt lat="45.5675264" lon="10.4951841"><ele>278.0</ele><time>2026-04-25T14:49:07.732Z</time></trkpt><trkpt lat="45.5674437" lon="10.4951621"><ele>278.0</ele><time>2026-04-25T14:49:11.734Z</time></trkpt><trkpt lat="45.56736" lon="10.495204"><ele>278.0</ele><time>2026-04-25T14:49:15.732Z</time></trkpt><trkpt lat="45.5672955" lon="10.4952646"><ele>278.0</ele><time>2026-04-25T14:49:18.733Z</time></trkpt><trkpt lat="45.5672337" lon="10.4953581"><ele>278.0</ele><time>2026-04-25T14:49:21.733Z</time></trkpt><trkpt lat="45.5671674" lon="10.495411"><ele>278.0</ele><time>2026-04-25T14:49:23.733Z</time></trkpt><trkpt lat="45.5670753" lon="10.4954264"><ele>278.0</ele><time>2026-04-25T14:49:25.734Z</time></trkpt><trkpt lat="45.5669992" lon="10.4954452"><ele>278.0</ele><time>2026-04-25T14:49:26.733Z</time></trkpt><trkpt lat="45.5669308" lon="10.4954587"><ele>277.2</ele><time>2026-04-25T14:49:27.734Z</time></trkpt><trkpt lat="45.5668627" lon="10.4954666"><ele>276.4</ele><time>2026-04-25T14:49:28.733Z</time></trkpt><trkpt lat="45.5667496" lon="10.4954712"><ele>275.59999999999997</ele><time>2026-04-25T14:49:30.734Z</time></trkpt><trkpt lat="45.566629" lon="10.4954631"><ele>274.8</ele><time>2026-04-25T14:49:32.733Z</time></trkpt><trkpt lat="45.5665152" lon="10.4954637"><ele>274.0</ele><time>2026-04-25T14:49:34.734Z</time></trkpt><trkpt lat="45.5663919" lon="10.495451"><ele>274.0</ele><time>2026-04-25T14:49:36.733Z</time></trkpt><trkpt lat="45.566329" lon="10.4954289"><ele>274.0</ele><time>2026-04-25T14:49:37.733Z</time></trkpt><trkpt lat="45.566262" lon="10.4954185"><ele>274.0</ele><time>2026-04-25T14:49:38.734Z</time></trkpt><trkpt lat="45.5661844" lon="10.4954032"><ele>274.0</ele><time>2026-04-25T14:49:39.733Z</time></trkpt><trkpt lat="45.5660961" lon="10.4953597"><ele>274.0</ele><time>2026-04-25T14:49:41.733Z</time></trkpt><trkpt lat="45.5660316" lon="10.4953144"><ele>274.0</ele><time>2026-04-25T14:49:43.733Z</time></trkpt><trkpt lat="45.5659574" lon="10.4952938"><ele>277.3333333333333</ele><time>2026-04-25T14:49:45.732Z</time></trkpt><trkpt lat="45.5658311" lon="10.4952769"><ele>280.66666666666663</ele><time>2026-04-25T14:49:47.734Z</time></trkpt><trkpt lat="45.5657658" lon="10.4952751"><ele>284.0</ele><time>2026-04-25T14:49:48.734Z</time></trkpt><trkpt lat="45.5656929" lon="10.4952463"><ele>287.3333333333333</ele><time>2026-04-25T14:49:49.734Z</time></trkpt><trkpt lat="45.5656268" lon="10.4952044"><ele>290.6666666666667</ele><time>2026-04-25T14:49:50.734Z</time></trkpt><trkpt lat="45.5655617" lon="10.4951507"><ele>294.0</ele><time>2026-04-25T14:49:51.734Z</time></trkpt><trkpt lat="45.5654981" lon="10.4950958"><ele>294.0</ele><time>2026-04-25T14:49:52.734Z</time></trkpt><trkpt lat="45.565431" lon="10.4950475"><ele>294.0</ele><time>2026-04-25T14:49:53.732Z</time></trkpt><trkpt lat="45.5653423" lon="10.495005"><ele>294.0</ele><time>2026-04-25T14:49:55.733Z</time></trkpt><trkpt lat="45.5652231" lon="10.4949651"><ele>294.0</ele><time>2026-04-25T14:49:57.733Z</time></trkpt><trkpt lat="45.5651423" lon="10.4949566"><ele>294.0</ele><time>2026-04-25T14:49:58.734Z</time></trkpt><trkpt lat="45.5650767" lon="10.4949652"><ele>294.0</ele><time>2026-04-25T14:49:59.733Z</time></trkpt><trkpt lat="45.565008" lon="10.4949499"><ele>292.0</ele><time>2026-04-25T14:50:00.733Z</time></trkpt><trkpt lat="45.5648896" lon="10.494988"><ele>290.0</ele><time>2026-04-25T14:50:02.733Z</time></trkpt><trkpt lat="45.5648061" lon="10.4950616"><ele>288.0</ele><time>2026-04-25T14:50:04.733Z</time></trkpt><trkpt lat="45.5647666" lon="10.495136"><ele>286.0</ele><time>2026-04-25T14:50:05.733Z</time></trkpt><trkpt lat="45.5647319" lon="10.4952967"><ele>284.0</ele><time>2026-04-25T14:50:07.733Z</time></trkpt><trkpt lat="45.5646875" lon="10.4954659"><ele>283.6666666666667</ele><time>2026-04-25T14:50:09.734Z</time></trkpt><trkpt lat="45.5646169" lon="10.4955594"><ele>283.33333333333337</ele><time>2026-04-25T14:50:11.734Z</time></trkpt><trkpt lat="45.5645387" lon="10.4956525"><ele>283.0</ele><time>2026-04-25T14:50:13.733Z</time></trkpt><trkpt lat="45.5644639" lon="10.4956214"><ele>282.6666666666667</ele><time>2026-04-25T14:50:16.734Z</time></trkpt><trkpt lat="45.564369" lon="10.4956362"><ele>282.3333333333333</ele><time>2026-04-25T14:50:19.733Z</time></trkpt><trkpt lat="45.5642998" lon="10.4956666"><ele>282.0</ele><time>2026-04-25T14:50:21.733Z</time></trkpt><trkpt lat="45.5642479" lon="10.4957626"><ele>282.0</ele><time>2026-04-25T14:50:24.733Z</time></trkpt><trkpt lat="45.5642334" lon="10.4958556"><ele>282.0</ele><time>2026-04-25T14:50:26.734Z</time></trkpt><trkpt lat="45.5642093" lon="10.4959519"><ele>282.0</ele><time>2026-04-25T14:50:28.733Z</time></trkpt><trkpt lat="45.5641799" lon="10.4960419"><ele>282.0</ele><time>2026-04-25T14:50:30.733Z</time></trkpt><trkpt lat="45.56413" lon="10.4961274"><ele>282.0</ele><time>2026-04-25T14:50:32.732Z</time></trkpt><trkpt lat="45.564051" lon="10.4962369"><ele>282.0</ele><time>2026-04-25T14:50:34.734Z</time></trkpt><trkpt lat="45.5639696" lon="10.4963497"><ele>281.6</ele><time>2026-04-25T14:50:36.734Z</time></trkpt><trkpt lat="45.5639242" lon="10.4964124"><ele>281.2</ele><time>2026-04-25T14:50:37.734Z</time></trkpt><trkpt lat="45.5638376" lon="10.4965352"><ele>280.8</ele><time>2026-04-25T14:50:39.733Z</time></trkpt><trkpt lat="45.5637686" lon="10.496645"><ele>280.4</ele><time>2026-04-25T14:50:41.734Z</time></trkpt><trkpt lat="45.563691" lon="10.4967587"><ele>280.0</ele><time>2026-04-25T14:50:43.732Z</time></trkpt><trkpt lat="45.5636221" lon="10.4968504"><ele>280.3333333333333</ele><time>2026-04-25T14:50:45.734Z</time></trkpt><trkpt lat="45.5635641" lon="10.4969402"><ele>280.66666666666663</ele><time>2026-04-25T14:50:47.733Z</time></trkpt><trkpt lat="45.5635188" lon="10.4970375"><ele>281.0</ele><time>2026-04-25T14:50:50.733Z</time></trkpt><trkpt lat="45.5634687" lon="10.4971211"><ele>281.3333333333333</ele><time>2026-04-25T14:50:52.733Z</time></trkpt><trkpt lat="45.5634075" lon="10.497232"><ele>281.6666666666667</ele><time>2026-04-25T14:50:54.733Z</time></trkpt><trkpt lat="45.5633601" lon="10.4973253"><ele>282.0</ele><time>2026-04-25T14:50:56.734Z</time></trkpt><trkpt lat="45.5632927" lon="10.4973673"><ele>282.0</ele><time>2026-04-25T14:50:59.734Z</time></trkpt><trkpt lat="45.5632252" lon="10.4972969"><ele>282.0</ele><time>2026-04-25T14:51:02.733Z</time></trkpt><trkpt lat="45.5631618" lon="10.4972481"><ele>282.0</ele><time>2026-04-25T14:51:04.734Z</time></trkpt><trkpt lat="45.5630995" lon="10.4971818"><ele>282.0</ele><time>2026-04-25T14:51:06.733Z</time></trkpt><trkpt lat="45.5630364" lon="10.4971149"><ele>282.0</ele><time>2026-04-25T14:51:08.733Z</time></trkpt><trkpt lat="45.5629815" lon="10.4970677"><ele>282.0</ele><time>2026-04-25T14:51:10.734Z</time></trkpt><trkpt lat="45.5628999" lon="10.4970067"><ele>283.6666666666667</ele><time>2026-04-25T14:51:13.733Z</time></trkpt><trkpt lat="45.5628348" lon="10.4969358"><ele>285.3333333333333</ele><time>2026-04-25T14:51:16.733Z</time></trkpt><trkpt lat="45.5627671" lon="10.4968541"><ele>287.0</ele><time>2026-04-25T14:51:19.734Z</time></trkpt><trkpt lat="45.5626943" lon="10.4967836"><ele>288.66666666666663</ele><time>2026-04-25T14:51:22.732Z</time></trkpt><trkpt lat="45.5626328" lon="10.4966833"><ele>290.3333333333333</ele><time>2026-04-25T14:51:25.733Z</time></trkpt><trkpt lat="45.562579" lon="10.4965793"><ele>292.0</ele><time>2026-04-25T14:51:28.733Z</time></trkpt><trkpt lat="45.5625276" lon="10.4964841"><ele>292.0</ele><time>2026-04-25T14:51:30.734Z</time></trkpt><trkpt lat="45.5624548" lon="10.4963546"><ele>292.0</ele><time>2026-04-25T14:51:32.733Z</time></trkpt><trkpt lat="45.5623688" lon="10.4962357"><ele>292.0</ele><time>2026-04-25T14:51:34.734Z</time></trkpt><trkpt lat="45.5622723" lon="10.4961084"><ele>292.0</ele><time>2026-04-25T14:51:36.733Z</time></trkpt><trkpt lat="45.5622256" lon="10.4960358"><ele>292.0</ele><time>2026-04-25T14:51:37.734Z</time></trkpt><trkpt lat="45.5621732" lon="10.4959752"><ele>291.4</ele><time>2026-04-25T14:51:38.734Z</time></trkpt><trkpt lat="45.5621343" lon="10.4958994"><ele>290.79999999999995</ele><time>2026-04-25T14:51:39.734Z</time></trkpt><trkpt lat="45.5620546" lon="10.4957677"><ele>290.2</ele><time>2026-04-25T14:51:41.734Z</time></trkpt><trkpt lat="45.5620295" lon="10.4956287"><ele>289.59999999999997</ele><time>2026-04-25T14:51:43.734Z</time></trkpt><trkpt lat="45.5620236" lon="10.4954838"><ele>289.0</ele><time>2026-04-25T14:51:45.733Z</time></trkpt><trkpt lat="45.5620159" lon="10.4953327"><ele>289.0</ele><time>2026-04-25T14:51:47.732Z</time></trkpt><trkpt lat="45.5619333" lon="10.4952478"><ele>289.0</ele><time>2026-04-25T14:51:49.732Z</time></trkpt><trkpt lat="45.5618332" lon="10.4952345"><ele>289.0</ele><time>2026-04-25T14:51:50.733Z</time></trkpt><trkpt lat="45.5617654" lon="10.4952281"><ele>289.0</ele><time>2026-04-25T14:51:51.734Z</time></trkpt><trkpt lat="45.5616985" lon="10.4952201"><ele>289.0</ele><time>2026-04-25T14:51:52.733Z</time></trkpt><trkpt lat="45.5615899" lon="10.4952038"><ele>289.0</ele><time>2026-04-25T14:51:54.733Z</time></trkpt><trkpt lat="45.5614873" lon="10.4952014"><ele>289.0</ele><time>2026-04-25T14:51:56.734Z</time></trkpt><trkpt lat="45.5614168" lon="10.4952012"><ele>289.0</ele><time>2026-04-25T14:51:57.733Z</time></trkpt><trkpt lat="45.5613054" lon="10.4951962"><ele>289.0</ele><time>2026-04-25T14:51:59.733Z</time></trkpt><trkpt lat="45.5612032" lon="10.4951486"><ele>289.0</ele><time>2026-04-25T14:52:01.734Z</time></trkpt><trkpt lat="45.5611457" lon="10.4951005"><ele>289.0</ele><time>2026-04-25T14:52:02.733Z</time></trkpt><trkpt lat="45.5610833" lon="10.4950438"><ele>289.0</ele><time>2026-04-25T14:52:03.733Z</time></trkpt><trkpt lat="45.561022" lon="10.4949882"><ele>288.66666666666663</ele><time>2026-04-25T14:52:04.734Z</time></trkpt><trkpt lat="45.5609545" lon="10.4949282"><ele>288.3333333333333</ele><time>2026-04-25T14:52:05.732Z</time></trkpt><trkpt lat="45.5608874" lon="10.4948742"><ele>288.0</ele><time>2026-04-25T14:52:06.734Z</time></trkpt><trkpt lat="45.5608195" lon="10.4948257"><ele>287.6666666666667</ele><time>2026-04-25T14:52:07.733Z</time></trkpt><trkpt lat="45.5607513" lon="10.4947817"><ele>287.33333333333337</ele><time>2026-04-25T14:52:08.733Z</time></trkpt><trkpt lat="45.5606785" lon="10.4947388"><ele>287.0</ele><time>2026-04-25T14:52:09.733Z</time></trkpt><trkpt lat="45.5606142" lon="10.4946974"><ele>287.0</ele><time>2026-04-25T14:52:10.733Z</time></trkpt><trkpt lat="45.560547" lon="10.4946631"><ele>287.0</ele><time>2026-04-25T14:52:11.733Z</time></trkpt><trkpt lat="45.5604773" lon="10.4946319"><ele>287.0</ele><time>2026-04-25T14:52:12.734Z</time></trkpt><trkpt lat="45.5604101" lon="10.4946016"><ele>287.0</ele><time>2026-04-25T14:52:13.734Z</time></trkpt><trkpt lat="45.5603401" lon="10.4945721"><ele>287.0</ele><time>2026-04-25T14:52:14.732Z</time></trkpt><trkpt lat="45.5602678" lon="10.4945478"><ele>287.0</ele><time>2026-04-25T14:52:15.733Z</time></trkpt><trkpt lat="45.5601934" lon="10.4945171"><ele>287.0</ele><time>2026-04-25T14:52:16.733Z</time></trkpt><trkpt lat="45.5601232" lon="10.4944833"><ele>286.1666666666667</ele><time>2026-04-25T14:52:17.733Z</time></trkpt><trkpt lat="45.5600448" lon="10.494458"><ele>285.33333333333337</ele><time>2026-04-25T14:52:18.733Z</time></trkpt><trkpt lat="45.5599707" lon="10.4944285"><ele>284.5</ele><time>2026-04-25T14:52:19.732Z</time></trkpt><trkpt lat="45.5598954" lon="10.4944025"><ele>283.6666666666667</ele><time>2026-04-25T14:52:20.734Z</time></trkpt><trkpt lat="45.5598095" lon="10.4943964"><ele>282.8333333333333</ele><time>2026-04-25T14:52:21.733Z</time></trkpt><trkpt lat="45.5597271" lon="10.494398"><ele>282.0</ele><time>2026-04-25T14:52:22.733Z</time></trkpt><trkpt lat="45.5596437" lon="10.4944119"><ele>282.0</ele><time>2026-04-25T14:52:23.734Z</time></trkpt><trkpt lat="45.5595623" lon="10.4944381"><ele>282.0</ele><time>2026-04-25T14:52:24.734Z</time></trkpt><trkpt lat="45.5594797" lon="10.4944653"><ele>282.0</ele><time>2026-04-25T14:52:25.734Z</time></trkpt><trkpt lat="45.5594015" lon="10.4944897"><ele>282.0</ele><time>2026-04-25T14:52:26.734Z</time></trkpt><trkpt lat="45.5593257" lon="10.4945218"><ele>282.0</ele><time>2026-04-25T14:52:27.733Z</time></trkpt><trkpt lat="45.5592509" lon="10.4945386"><ele>282.0</ele><time>2026-04-25T14:52:28.734Z</time></trkpt><trkpt lat="45.5591773" lon="10.4945538"><ele>282.5</ele><time>2026-04-25T14:52:29.733Z</time></trkpt><trkpt lat="45.5591063" lon="10.4945647"><ele>283.0</ele><time>2026-04-25T14:52:30.734Z</time></trkpt><trkpt lat="45.5590292" lon="10.4945708"><ele>283.5</ele><time>2026-04-25T14:52:31.732Z</time></trkpt><trkpt lat="45.5589609" lon="10.4945805"><ele>284.0</ele><time>2026-04-25T14:52:32.733Z</time></trkpt><trkpt lat="45.558893" lon="10.4945928"><ele>284.5</ele><time>2026-04-25T14:52:33.732Z</time></trkpt><trkpt lat="45.5588275" lon="10.4945958"><ele>285.0</ele><time>2026-04-25T14:52:34.734Z</time></trkpt><trkpt lat="45.5587006" lon="10.494618"><ele>283.2</ele><time>2026-04-25T14:52:36.734Z</time></trkpt><trkpt lat="45.5586335" lon="10.4946187"><ele>281.4</ele><time>2026-04-25T14:52:37.734Z</time></trkpt><trkpt lat="45.5585701" lon="10.4946298"><ele>279.6</ele><time>2026-04-25T14:52:38.734Z</time></trkpt><trkpt lat="45.5584482" lon="10.4946511"><ele>277.8</ele><time>2026-04-25T14:52:40.734Z</time></trkpt><trkpt lat="45.5583402" lon="10.4946771"><ele>276.0</ele><time>2026-04-25T14:52:42.734Z</time></trkpt><trkpt lat="45.5582372" lon="10.494675"><ele>276.0</ele><time>2026-04-25T14:52:44.734Z</time></trkpt><trkpt lat="45.5581389" lon="10.4946938"><ele>276.0</ele><time>2026-04-25T14:52:46.733Z</time></trkpt><trkpt lat="45.5580406" lon="10.4946957"><ele>276.0</ele><time>2026-04-25T14:52:48.734Z</time></trkpt><trkpt lat="45.557955" lon="10.4946159"><ele>276.0</ele><time>2026-04-25T14:52:50.734Z</time></trkpt><trkpt lat="45.5579099" lon="10.4945502"><ele>276.0</ele><time>2026-04-25T14:52:51.732Z</time></trkpt><trkpt lat="45.5578661" lon="10.4944851"><ele>276.0</ele><time>2026-04-25T14:52:52.734Z</time></trkpt><trkpt lat="45.5577798" lon="10.4943457"><ele>275.2857142857143</ele><time>2026-04-25T14:52:54.733Z</time></trkpt><trkpt lat="45.5577319" lon="10.4942784"><ele>274.5714285714286</ele><time>2026-04-25T14:52:55.734Z</time></trkpt><trkpt lat="45.557695" lon="10.4941828"><ele>273.8571428571429</ele><time>2026-04-25T14:52:56.733Z</time></trkpt><trkpt lat="45.5576593" lon="10.4940857"><ele>273.14285714285717</ele><time>2026-04-25T14:52:57.734Z</time></trkpt><trkpt lat="45.5576303" lon="10.4939918"><ele>272.42857142857144</ele><time>2026-04-25T14:52:58.732Z</time></trkpt><trkpt lat="45.5576104" lon="10.4938912"><ele>271.7142857142857</ele><time>2026-04-25T14:52:59.733Z</time></trkpt><trkpt lat="45.5575935" lon="10.4937792"><ele>271.0</ele><time>2026-04-25T14:53:00.732Z</time></trkpt><trkpt lat="45.5575742" lon="10.4936699"><ele>271.0</ele><time>2026-04-25T14:53:01.733Z</time></trkpt><trkpt lat="45.5575487" lon="10.493555"><ele>271.0</ele><time>2026-04-25T14:53:02.734Z</time></trkpt><trkpt lat="45.557523" lon="10.4934387"><ele>271.0</ele><time>2026-04-25T14:53:03.734Z</time></trkpt><trkpt lat="45.5574982" lon="10.49332"><ele>271.0</ele><time>2026-04-25T14:53:04.733Z</time></trkpt><trkpt lat="45.5574874" lon="10.4932009"><ele>271.0</ele><time>2026-04-25T14:53:05.733Z</time></trkpt><trkpt lat="45.5574779" lon="10.4931024"><ele>271.0</ele><time>2026-04-25T14:53:06.733Z</time></trkpt><trkpt lat="45.5574656" lon="10.4930137"><ele>271.0</ele><time>2026-04-25T14:53:07.733Z</time></trkpt><trkpt lat="45.5573701" lon="10.4928928"><ele>271.0</ele><time>2026-04-25T14:53:09.734Z</time></trkpt><trkpt lat="45.5573081" lon="10.4928691"><ele>271.0</ele><time>2026-04-25T14:53:10.734Z</time></trkpt><trkpt lat="45.5572434" lon="10.4928525"><ele>271.0</ele><time>2026-04-25T14:53:11.734Z</time></trkpt><trkpt lat="45.5571736" lon="10.4928336"><ele>271.0</ele><time>2026-04-25T14:53:12.733Z</time></trkpt><trkpt lat="45.5571007" lon="10.4928009"><ele>271.0</ele><time>2026-04-25T14:53:13.733Z</time></trkpt><trkpt lat="45.557022" lon="10.4927631"><ele>269.8333333333333</ele><time>2026-04-25T14:53:14.734Z</time></trkpt><trkpt lat="45.5569423" lon="10.4927275"><ele>268.66666666666663</ele><time>2026-04-25T14:53:15.733Z</time></trkpt><trkpt lat="45.5568595" lon="10.4926824"><ele>267.5</ele><time>2026-04-25T14:53:16.734Z</time></trkpt><trkpt lat="45.556778" lon="10.4926266"><ele>266.3333333333333</ele><time>2026-04-25T14:53:17.732Z</time></trkpt><trkpt lat="45.5567014" lon="10.4925589"><ele>265.1666666666667</ele><time>2026-04-25T14:53:18.732Z</time></trkpt><trkpt lat="45.556627" lon="10.4924802"><ele>264.0</ele><time>2026-04-25T14:53:19.733Z</time></trkpt><trkpt lat="45.5565621" lon="10.4923948"><ele>264.0</ele><time>2026-04-25T14:53:20.732Z</time></trkpt><trkpt lat="45.5565032" lon="10.4923065"><ele>264.0</ele><time>2026-04-25T14:53:21.734Z</time></trkpt><trkpt lat="45.5564502" lon="10.4922122"><ele>264.0</ele><time>2026-04-25T14:53:22.734Z</time></trkpt><trkpt lat="45.5564014" lon="10.4921151"><ele>264.0</ele><time>2026-04-25T14:53:23.734Z</time></trkpt><trkpt lat="45.5563595" lon="10.4920112"><ele>264.0</ele><time>2026-04-25T14:53:24.734Z</time></trkpt><trkpt lat="45.5563236" lon="10.4919091"><ele>264.0</ele><time>2026-04-25T14:53:25.732Z</time></trkpt><trkpt lat="45.5562939" lon="10.4918127"><ele>264.5</ele><time>2026-04-25T14:53:26.732Z</time></trkpt><trkpt lat="45.5562705" lon="10.4917172"><ele>265.0</ele><time>2026-04-25T14:53:27.733Z</time></trkpt><trkpt lat="45.5562411" lon="10.4916371"><ele>265.5</ele><time>2026-04-25T14:53:28.732Z</time></trkpt><trkpt lat="45.5561659" lon="10.491592"><ele>266.0</ele><time>2026-04-25T14:53:30.734Z</time></trkpt><trkpt lat="45.556082" lon="10.4916697"><ele>266.5</ele><time>2026-04-25T14:53:32.734Z</time></trkpt><trkpt lat="45.5560122" lon="10.4917904"><ele>267.0</ele><time>2026-04-25T14:53:34.734Z</time></trkpt><trkpt lat="45.5559646" lon="10.4918545"><ele>265.8333333333333</ele><time>2026-04-25T14:53:35.733Z</time></trkpt><trkpt lat="45.5559111" lon="10.4919134"><ele>264.6666666666667</ele><time>2026-04-25T14:53:36.734Z</time></trkpt><trkpt lat="45.5558563" lon="10.4919609"><ele>263.5</ele><time>2026-04-25T14:53:37.733Z</time></trkpt><trkpt lat="45.5558023" lon="10.4920175"><ele>262.33333333333337</ele><time>2026-04-25T14:53:38.733Z</time></trkpt><trkpt lat="45.5557463" lon="10.4920787"><ele>261.1666666666667</ele><time>2026-04-25T14:53:39.732Z</time></trkpt><trkpt lat="45.5556918" lon="10.4921465"><ele>260.0</ele><time>2026-04-25T14:53:40.734Z</time></trkpt><trkpt lat="45.5555971" lon="10.4922753"><ele>259.8571428571429</ele><time>2026-04-25T14:53:42.734Z</time></trkpt><trkpt lat="45.5555563" lon="10.4923535"><ele>259.7142857142857</ele><time>2026-04-25T14:53:43.734Z</time></trkpt><trkpt lat="45.5555186" lon="10.4924387"><ele>259.57142857142856</ele><time>2026-04-25T14:53:44.733Z</time></trkpt><trkpt lat="45.555487" lon="10.4925222"><ele>259.42857142857144</ele><time>2026-04-25T14:53:45.732Z</time></trkpt><trkpt lat="45.5554548" lon="10.4926064"><ele>259.2857142857143</ele><time>2026-04-25T14:53:46.734Z</time></trkpt><trkpt lat="45.5554223" lon="10.4926946"><ele>259.14285714285717</ele><time>2026-04-25T14:53:47.734Z</time></trkpt><trkpt lat="45.5553864" lon="10.4927807"><ele>259.0</ele><time>2026-04-25T14:53:48.733Z</time></trkpt><trkpt lat="45.555346" lon="10.492862"><ele>259.2857142857143</ele><time>2026-04-25T14:53:49.733Z</time></trkpt><trkpt lat="45.5553027" lon="10.4929436"><ele>259.57142857142856</ele><time>2026-04-25T14:53:50.733Z</time></trkpt><trkpt lat="45.5552536" lon="10.4930228"><ele>259.8571428571429</ele><time>2026-04-25T14:53:51.733Z</time></trkpt><trkpt lat="45.5552027" lon="10.4930952"><ele>260.1428571428571</ele><time>2026-04-25T14:53:52.732Z</time></trkpt><trkpt lat="45.5551451" lon="10.4931577"><ele>260.42857142857144</ele><time>2026-04-25T14:53:53.734Z</time></trkpt><trkpt lat="45.5550801" lon="10.4931956"><ele>260.7142857142857</ele><time>2026-04-25T14:53:54.734Z</time></trkpt><trkpt lat="45.555014" lon="10.4932109"><ele>261.0</ele><time>2026-04-25T14:53:55.734Z</time></trkpt><trkpt lat="45.5549461" lon="10.4932211"><ele>261.0</ele><time>2026-04-25T14:53:56.734Z</time></trkpt><trkpt lat="45.5548802" lon="10.4932246"><ele>261.0</ele><time>2026-04-25T14:53:57.733Z</time></trkpt><trkpt lat="45.5548163" lon="10.4932272"><ele>261.0</ele><time>2026-04-25T14:53:58.734Z</time></trkpt><trkpt lat="45.5547513" lon="10.4932379"><ele>261.0</ele><time>2026-04-25T14:53:59.734Z</time></trkpt><trkpt lat="45.5546866" lon="10.4932503"><ele>261.0</ele><time>2026-04-25T14:54:00.734Z</time></trkpt><trkpt lat="45.5546224" lon="10.4932677"><ele>261.0</ele><time>2026-04-25T14:54:01.733Z</time></trkpt><trkpt lat="45.5545136" lon="10.4933575"><ele>261.3333333333333</ele><time>2026-04-25T14:54:03.734Z</time></trkpt><trkpt lat="45.5544325" lon="10.4934977"><ele>261.6666666666667</ele><time>2026-04-25T14:54:05.734Z</time></trkpt><trkpt lat="45.5543924" lon="10.493573"><ele>262.0</ele><time>2026-04-25T14:54:06.733Z</time></trkpt><trkpt lat="45.5543533" lon="10.4936481"><ele>262.33333333333337</ele><time>2026-04-25T14:54:07.734Z</time></trkpt><trkpt lat="45.5543088" lon="10.4937129"><ele>262.6666666666667</ele><time>2026-04-25T14:54:08.733Z</time></trkpt><trkpt lat="45.5542086" lon="10.4938127"><ele>263.0</ele><time>2026-04-25T14:54:10.733Z</time></trkpt><trkpt lat="45.5540976" lon="10.493872"><ele>263.0</ele><time>2026-04-25T14:54:12.733Z</time></trkpt><trkpt lat="45.5540022" lon="10.4938884"><ele>263.0</ele><time>2026-04-25T14:54:14.734Z</time></trkpt><trkpt lat="45.5539067" lon="10.4939042"><ele>263.0</ele><time>2026-04-25T14:54:16.733Z</time></trkpt><trkpt lat="45.5538114" lon="10.4939256"><ele>263.0</ele><time>2026-04-25T14:54:18.734Z</time></trkpt><trkpt lat="45.5537205" lon="10.4939595"><ele>263.0</ele><time>2026-04-25T14:54:20.732Z</time></trkpt><trkpt lat="45.5536337" lon="10.493986"><ele>262.83333333333337</ele><time>2026-04-25T14:54:22.732Z</time></trkpt><trkpt lat="45.5535494" lon="10.4940177"><ele>262.6666666666667</ele><time>2026-04-25T14:54:24.734Z</time></trkpt><trkpt lat="45.5534717" lon="10.4940713"><ele>262.5</ele><time>2026-04-25T14:54:26.733Z</time></trkpt><trkpt lat="45.5534064" lon="10.494143"><ele>262.3333333333333</ele><time>2026-04-25T14:54:28.733Z</time></trkpt><trkpt lat="45.553365" lon="10.4942302"><ele>262.16666666666663</ele><time>2026-04-25T14:54:30.732Z</time></trkpt><trkpt lat="45.5533229" lon="10.4943175"><ele>262.0</ele><time>2026-04-25T14:54:32.734Z</time></trkpt><trkpt lat="45.5532801" lon="10.4944071"><ele>262.0</ele><time>2026-04-25T14:54:34.733Z</time></trkpt><trkpt lat="45.5532302" lon="10.4945375"><ele>262.0</ele><time>2026-04-25T14:54:37.733Z</time></trkpt><trkpt lat="45.5531966" lon="10.4946233"><ele>262.0</ele><time>2026-04-25T14:54:39.734Z</time></trkpt><trkpt lat="45.5531675" lon="10.4947098"><ele>262.0</ele><time>2026-04-25T14:54:41.733Z</time></trkpt><trkpt lat="45.5531332" lon="10.4947927"><ele>262.0</ele><time>2026-04-25T14:54:43.732Z</time></trkpt><trkpt lat="45.5530925" lon="10.4949049"><ele>262.0</ele><time>2026-04-25T14:54:46.734Z</time></trkpt><trkpt lat="45.5530636" lon="10.4949912"><ele>262.2857142857143</ele><time>2026-04-25T14:54:50.734Z</time></trkpt><trkpt lat="45.5530303" lon="10.4950759"><ele>262.5714285714286</ele><time>2026-04-25T14:54:52.734Z</time></trkpt><trkpt lat="45.5529833" lon="10.4951636"><ele>262.8571428571429</ele><time>2026-04-25T14:54:54.734Z</time></trkpt><trkpt lat="45.5529324" lon="10.4952412"><ele>263.14285714285717</ele><time>2026-04-25T14:54:56.733Z</time></trkpt><trkpt lat="45.5528791" lon="10.4953115"><ele>263.42857142857144</ele><time>2026-04-25T14:54:58.733Z</time></trkpt><trkpt lat="45.5528316" lon="10.4953751"><ele>263.7142857142857</ele><time>2026-04-25T14:55:00.732Z</time></trkpt><trkpt lat="45.5527828" lon="10.4954353"><ele>264.0</ele><time>2026-04-25T14:55:03.733Z</time></trkpt><trkpt lat="45.5527014" lon="10.4955166"><ele>265.0</ele><time>2026-04-25T14:55:06.734Z</time></trkpt><trkpt lat="45.5526311" lon="10.4955847"><ele>266.0</ele><time>2026-04-25T14:55:08.733Z</time></trkpt><trkpt lat="45.5525471" lon="10.4956712"><ele>267.0</ele><time>2026-04-25T14:55:10.734Z</time></trkpt><trkpt lat="45.5524798" lon="10.4957765"><ele>268.0</ele><time>2026-04-25T14:55:12.734Z</time></trkpt><trkpt lat="45.5524277" lon="10.4959146"><ele>269.0</ele><time>2026-04-25T14:55:14.734Z</time></trkpt><trkpt lat="45.552417" lon="10.4960771"><ele>269.0</ele><time>2026-04-25T14:55:16.734Z</time></trkpt><trkpt lat="45.5524125" lon="10.4962058"><ele>269.0</ele><time>2026-04-25T14:55:18.734Z</time></trkpt><trkpt lat="45.5524173" lon="10.4963372"><ele>269.0</ele><time>2026-04-25T14:55:20.733Z</time></trkpt><trkpt lat="45.5524067" lon="10.4964367"><ele>269.0</ele><time>2026-04-25T14:55:22.733Z</time></trkpt><trkpt lat="45.552333" lon="10.4964716"><ele>269.0</ele><time>2026-04-25T14:55:27.733Z</time></trkpt><trkpt lat="45.5522594" lon="10.496372"><ele>269.0</ele><time>2026-04-25T14:55:30.733Z</time></trkpt><trkpt lat="45.5522043" lon="10.4962823"><ele>269.0</ele><time>2026-04-25T14:55:31.733Z</time></trkpt><trkpt lat="45.5521045" lon="10.496189"><ele>269.0</ele><time>2026-04-25T14:55:33.733Z</time></trkpt><trkpt lat="45.5520116" lon="10.4960915"><ele>269.0</ele><time>2026-04-25T14:55:35.734Z</time></trkpt><trkpt lat="45.5519574" lon="10.4960424"><ele>269.0</ele><time>2026-04-25T14:55:36.734Z</time></trkpt><trkpt lat="45.5518651" lon="10.4959719"><ele>269.0</ele><time>2026-04-25T14:55:38.732Z</time></trkpt><trkpt lat="45.55179" lon="10.4959163"><ele>267.2</ele><time>2026-04-25T14:55:40.732Z</time></trkpt><trkpt lat="45.5517363" lon="10.4958669"><ele>265.4</ele><time>2026-04-25T14:55:42.733Z</time></trkpt><trkpt lat="45.5516701" lon="10.4957935"><ele>263.6</ele><time>2026-04-25T14:55:44.733Z</time></trkpt><trkpt lat="45.5515969" lon="10.4957001"><ele>261.8</ele><time>2026-04-25T14:55:46.734Z</time></trkpt><trkpt lat="45.5515136" lon="10.4955884"><ele>260.0</ele><time>2026-04-25T14:55:48.734Z</time></trkpt><trkpt lat="45.5514311" lon="10.495472"><ele>259.8</ele><time>2026-04-25T14:55:50.732Z</time></trkpt><trkpt lat="45.5513554" lon="10.4953551"><ele>259.6</ele><time>2026-04-25T14:55:52.734Z</time></trkpt><trkpt lat="45.5512825" lon="10.4952326"><ele>259.4</ele><time>2026-04-25T14:55:54.733Z</time></trkpt><trkpt lat="45.551207" lon="10.4951147"><ele>259.2</ele><time>2026-04-25T14:55:56.734Z</time></trkpt><trkpt lat="45.5511277" lon="10.4950066"><ele>259.0</ele><time>2026-04-25T14:55:58.733Z</time></trkpt><trkpt lat="45.5510432" lon="10.494908"><ele>258.59999999999997</ele><time>2026-04-25T14:56:00.733Z</time></trkpt><trkpt lat="45.5509632" lon="10.4948125"><ele>258.2</ele><time>2026-04-25T14:56:02.733Z</time></trkpt><trkpt lat="45.5508885" lon="10.4947442"><ele>257.79999999999995</ele><time>2026-04-25T14:56:04.733Z</time></trkpt><trkpt lat="45.5508087" lon="10.4947706"><ele>257.4</ele><time>2026-04-25T14:56:06.732Z</time></trkpt><trkpt lat="45.5507212" lon="10.494839"><ele>257.0</ele><time>2026-04-25T14:56:08.734Z</time></trkpt><trkpt lat="45.5506607" lon="10.4949427"><ele>257.0</ele><time>2026-04-25T14:56:10.734Z</time></trkpt><trkpt lat="45.550576" lon="10.4950471"><ele>257.0</ele><time>2026-04-25T14:56:12.733Z</time></trkpt><trkpt lat="45.5505254" lon="10.4951156"><ele>257.0</ele><time>2026-04-25T14:56:13.734Z</time></trkpt><trkpt lat="45.550429" lon="10.495231"><ele>257.0</ele><time>2026-04-25T14:56:15.734Z</time></trkpt><trkpt lat="45.5503766" lon="10.4952893"><ele>257.0</ele><time>2026-04-25T14:56:16.733Z</time></trkpt><trkpt lat="45.5503285" lon="10.495351"><ele>257.0</ele><time>2026-04-25T14:56:17.734Z</time></trkpt><trkpt lat="45.5502813" lon="10.495415"><ele>256.8</ele><time>2026-04-25T14:56:18.732Z</time></trkpt><trkpt lat="45.5502335" lon="10.4954814"><ele>256.6</ele><time>2026-04-25T14:56:19.733Z</time></trkpt><trkpt lat="45.5501847" lon="10.4955493"><ele>256.40000000000003</ele><time>2026-04-25T14:56:20.734Z</time></trkpt><trkpt lat="45.5500951" lon="10.4956759"><ele>256.2</ele><time>2026-04-25T14:56:22.734Z</time></trkpt><trkpt lat="45.5500479" lon="10.4957424"><ele>256.0</ele><time>2026-04-25T14:56:23.733Z</time></trkpt><trkpt lat="45.5499606" lon="10.4958725"><ele>256.0</ele><time>2026-04-25T14:56:25.734Z</time></trkpt><trkpt lat="45.5498721" lon="10.4960023"><ele>256.0</ele><time>2026-04-25T14:56:27.733Z</time></trkpt><trkpt lat="45.5498303" lon="10.4960735"><ele>256.0</ele><time>2026-04-25T14:56:28.734Z</time></trkpt><trkpt lat="45.5497449" lon="10.4962086"><ele>256.0</ele><time>2026-04-25T14:56:30.733Z</time></trkpt><trkpt lat="45.5496599" lon="10.4963226"><ele>256.0</ele><time>2026-04-25T14:56:32.734Z</time></trkpt><trkpt lat="45.5495726" lon="10.4964382"><ele>256.0</ele><time>2026-04-25T14:56:34.734Z</time></trkpt><trkpt lat="45.5494784" lon="10.4964469"><ele>256.0</ele><time>2026-04-25T14:56:36.734Z</time></trkpt><trkpt lat="45.5493911" lon="10.4964144"><ele>256.0</ele><time>2026-04-25T14:56:38.733Z</time></trkpt><trkpt lat="45.5492879" lon="10.496378"><ele>256.0</ele><time>2026-04-25T14:56:40.733Z</time></trkpt><trkpt lat="45.5491988" lon="10.4963432"><ele>256.0</ele><time>2026-04-25T14:56:42.734Z</time></trkpt><trkpt lat="45.5490898" lon="10.4963094"><ele>256.0</ele><time>2026-04-25T14:56:44.734Z</time></trkpt><trkpt lat="45.5489939" lon="10.4962644"><ele>256.0</ele><time>2026-04-25T14:56:46.734Z</time></trkpt><trkpt lat="45.5488935" lon="10.496229"><ele>256.0</ele><time>2026-04-25T14:56:48.734Z</time></trkpt><trkpt lat="45.5488124" lon="10.4961871"><ele>256.0</ele><time>2026-04-25T14:56:50.733Z</time></trkpt><trkpt lat="45.5487262" lon="10.4961793"><ele>256.0</ele><time>2026-04-25T14:56:52.733Z</time></trkpt><trkpt lat="45.5486618" lon="10.4962493"><ele>255.60000000000002</ele><time>2026-04-25T14:56:54.733Z</time></trkpt><trkpt lat="45.5486318" lon="10.4963784"><ele>255.20000000000002</ele><time>2026-04-25T14:56:56.732Z</time></trkpt><trkpt lat="45.5485987" lon="10.4965248"><ele>254.79999999999998</ele><time>2026-04-25T14:56:58.733Z</time></trkpt><trkpt lat="45.5485677" lon="10.4966756"><ele>254.39999999999998</ele><time>2026-04-25T14:57:00.733Z</time></trkpt><trkpt lat="45.5485327" lon="10.4968389"><ele>254.0</ele><time>2026-04-25T14:57:02.734Z</time></trkpt><trkpt lat="45.5485132" lon="10.4969261"><ele>254.0</ele><time>2026-04-25T14:57:03.733Z</time></trkpt><trkpt lat="45.5484794" lon="10.4970595"><ele>253.99999999999997</ele><time>2026-04-25T14:57:05.732Z</time></trkpt><trkpt lat="45.5484486" lon="10.497184"><ele>253.99999999999997</ele><time>2026-04-25T14:57:07.732Z</time></trkpt><trkpt lat="45.5484019" lon="10.4972764"><ele>254.0</ele><time>2026-04-25T14:57:09.733Z</time></trkpt><trkpt lat="45.5483183" lon="10.4973388"><ele>254.0</ele><time>2026-04-25T14:57:11.734Z</time></trkpt><trkpt lat="45.5482305" lon="10.4972758"><ele>254.79999999999998</ele><time>2026-04-25T14:57:13.734Z</time></trkpt><trkpt lat="45.5481425" lon="10.4972193"><ele>255.59999999999997</ele><time>2026-04-25T14:57:15.733Z</time></trkpt><trkpt lat="45.5480562" lon="10.497162"><ele>256.4</ele><time>2026-04-25T14:57:17.734Z</time></trkpt><trkpt lat="45.5479674" lon="10.4970948"><ele>257.2</ele><time>2026-04-25T14:57:19.733Z</time></trkpt><trkpt lat="45.547876" lon="10.497028"><ele>258.0</ele><time>2026-04-25T14:57:21.732Z</time></trkpt><trkpt lat="45.5477888" lon="10.4969616"><ele>258.0</ele><time>2026-04-25T14:57:23.734Z</time></trkpt><trkpt lat="45.5476865" lon="10.496917"><ele>258.0</ele><time>2026-04-25T14:57:25.733Z</time></trkpt><trkpt lat="45.5475996" lon="10.4968738"><ele>258.0</ele><time>2026-04-25T14:57:27.733Z</time></trkpt><trkpt lat="45.5474874" lon="10.496893"><ele>258.0</ele><time>2026-04-25T14:57:29.733Z</time></trkpt><trkpt lat="45.5474219" lon="10.4969415"><ele>258.0</ele><time>2026-04-25T14:57:32.733Z</time></trkpt><trkpt lat="45.5473603" lon="10.4970362"><ele>258.0</ele><time>2026-04-25T14:57:35.734Z</time></trkpt><trkpt lat="45.5472996" lon="10.4970766"><ele>258.0</ele><time>2026-04-25T14:57:37.733Z</time></trkpt><trkpt lat="45.5472225" lon="10.4970828"><ele>258.0</ele><time>2026-04-25T14:57:39.734Z</time></trkpt><trkpt lat="45.5471424" lon="10.4970661"><ele>258.0</ele><time>2026-04-25T14:57:41.733Z</time></trkpt><trkpt lat="45.5470519" lon="10.497058"><ele>258.0</ele><time>2026-04-25T14:57:43.734Z</time></trkpt><trkpt lat="45.5469718" lon="10.4970568"><ele>258.0</ele><time>2026-04-25T14:57:45.733Z</time></trkpt><trkpt lat="45.5469112" lon="10.4970935"><ele>258.3333333333333</ele><time>2026-04-25T14:57:47.734Z</time></trkpt><trkpt lat="45.5468503" lon="10.4971407"><ele>258.6666666666667</ele><time>2026-04-25T14:57:50.734Z</time></trkpt><trkpt lat="45.5467735" lon="10.497148"><ele>259.0</ele><time>2026-04-25T14:57:52.733Z</time></trkpt><trkpt lat="45.5466792" lon="10.4971544"><ele>259.33333333333337</ele><time>2026-04-25T14:57:54.732Z</time></trkpt><trkpt lat="45.5465954" lon="10.4971626"><ele>259.6666666666667</ele><time>2026-04-25T14:57:56.733Z</time></trkpt><trkpt lat="45.5465088" lon="10.4971647"><ele>260.0</ele><time>2026-04-25T14:57:58.734Z</time></trkpt><trkpt lat="45.546425" lon="10.4971589"><ele>260.0</ele><time>2026-04-25T14:58:00.732Z</time></trkpt><trkpt lat="45.5463176" lon="10.4971601"><ele>260.0</ele><time>2026-04-25T14:58:02.734Z</time></trkpt><trkpt lat="45.5462236" lon="10.4971585"><ele>260.0</ele><time>2026-04-25T14:58:04.734Z</time></trkpt><trkpt lat="45.5461503" lon="10.4971724"><ele>260.0</ele><time>2026-04-25T14:58:06.733Z</time></trkpt><trkpt lat="45.5460844" lon="10.4971923"><ele>260.0</ele><time>2026-04-25T14:58:09.733Z</time></trkpt><trkpt lat="45.546011" lon="10.4971469"><ele>260.0</ele><time>2026-04-25T14:58:12.734Z</time></trkpt><trkpt lat="45.54594" lon="10.4971409"><ele>259.5714285714286</ele><time>2026-04-25T14:58:16.733Z</time></trkpt><trkpt lat="45.5459011" lon="10.4970495"><ele>259.14285714285717</ele><time>2026-04-25T14:58:21.733Z</time></trkpt><trkpt lat="45.5458392" lon="10.4969955"><ele>258.7142857142857</ele><time>2026-04-25T14:58:23.734Z</time></trkpt><trkpt lat="45.5457759" lon="10.4969445"><ele>258.28571428571433</ele><time>2026-04-25T14:58:26.733Z</time></trkpt><trkpt lat="45.5457092" lon="10.496954"><ele>257.8571428571429</ele><time>2026-04-25T14:58:33.734Z</time></trkpt><trkpt lat="45.5457087" lon="10.4968591"><ele>257.42857142857144</ele><time>2026-04-25T14:58:47.733Z</time></trkpt><trkpt lat="45.5456874" lon="10.4967735"><ele>257.0</ele><time>2026-04-25T14:58:50.733Z</time></trkpt><trkpt lat="45.5456669" lon="10.496682"><ele>257.0</ele><time>2026-04-25T14:58:52.734Z</time></trkpt><trkpt lat="45.5456443" lon="10.4965852"><ele>257.0</ele><time>2026-04-25T14:58:54.733Z</time></trkpt><trkpt lat="45.5456222" lon="10.4964899"><ele>257.0</ele><time>2026-04-25T14:58:56.732Z</time></trkpt><trkpt lat="45.545601" lon="10.4963822"><ele>257.0</ele><time>2026-04-25T14:58:58.732Z</time></trkpt><trkpt lat="45.5455821" lon="10.4962588"><ele>257.0</ele><time>2026-04-25T14:59:00.733Z</time></trkpt><trkpt lat="45.5455644" lon="10.4961211"><ele>257.0</ele><time>2026-04-25T14:59:02.733Z</time></trkpt><trkpt lat="45.5455524" lon="10.4959805"><ele>257.6</ele><time>2026-04-25T14:59:04.734Z</time></trkpt><trkpt lat="45.5455424" lon="10.4958429"><ele>258.2</ele><time>2026-04-25T14:59:06.733Z</time></trkpt><trkpt lat="45.5455348" lon="10.4957129"><ele>258.8</ele><time>2026-04-25T14:59:08.734Z</time></trkpt><trkpt lat="45.5455283" lon="10.4955815"><ele>259.4</ele><time>2026-04-25T14:59:10.734Z</time></trkpt><trkpt lat="45.5455146" lon="10.4954528"><ele>260.0</ele><time>2026-04-25T14:59:12.733Z</time></trkpt><trkpt lat="45.5454978" lon="10.4953341"><ele>260.0</ele><time>2026-04-25T14:59:14.733Z</time></trkpt><trkpt lat="45.5454821" lon="10.4952193"><ele>260.0</ele><time>2026-04-25T14:59:16.734Z</time></trkpt><trkpt lat="45.5454577" lon="10.4951141"><ele>260.0</ele><time>2026-04-25T14:59:18.733Z</time></trkpt><trkpt lat="45.5454296" lon="10.4950129"><ele>260.0</ele><time>2026-04-25T14:59:20.734Z</time></trkpt><trkpt lat="45.5453998" lon="10.4949276"><ele>260.0</ele><time>2026-04-25T14:59:22.733Z</time></trkpt><trkpt lat="45.5453526" lon="10.4948286"><ele>260.0</ele><time>2026-04-25T14:59:25.734Z</time></trkpt><trkpt lat="45.5453166" lon="10.4947534"><ele>260.0</ele><time>2026-04-25T14:59:37.733Z</time></trkpt><trkpt lat="45.5452841" lon="10.4948471"><ele>260.0</ele><time>2026-04-25T14:59:40.733Z</time></trkpt><trkpt lat="45.5453458" lon="10.4949445"><ele>260.0</ele><time>2026-04-25T14:59:42.734Z</time></trkpt><trkpt lat="45.5453865" lon="10.4950735"><ele>260.0</ele><time>2026-04-25T14:59:44.733Z</time></trkpt><trkpt lat="45.5454317" lon="10.4952441"><ele>260.0</ele><time>2026-04-25T14:59:46.734Z</time></trkpt><trkpt lat="45.5454539" lon="10.4953416"><ele>260.00000000000006</ele><time>2026-04-25T14:59:47.734Z</time></trkpt><trkpt lat="45.5454733" lon="10.4954411"><ele>260.0</ele><time>2026-04-25T14:59:48.734Z</time></trkpt><trkpt lat="45.5454881" lon="10.4955449"><ele>260.0</ele><time>2026-04-25T14:59:49.733Z</time></trkpt><trkpt lat="45.545511" lon="10.4956477"><ele>260.0</ele><time>2026-04-25T14:59:50.733Z</time></trkpt><trkpt lat="45.545529" lon="10.4957425"><ele>260.0</ele><time>2026-04-25T14:59:51.734Z</time></trkpt><trkpt lat="45.5455201" lon="10.4958401"><ele>260.00000000000006</ele><time>2026-04-25T14:59:52.733Z</time></trkpt><trkpt lat="45.545518" lon="10.4959455"><ele>260.0</ele><time>2026-04-25T14:59:53.734Z</time></trkpt><trkpt lat="45.5455216" lon="10.4960544"><ele>260.00000000000006</ele><time>2026-04-25T14:59:54.734Z</time></trkpt><trkpt lat="45.545527" lon="10.4961578"><ele>260.0</ele><time>2026-04-25T14:59:55.733Z</time></trkpt><trkpt lat="45.545529" lon="10.496257"><ele>260.0</ele><time>2026-04-25T14:59:56.734Z</time></trkpt><trkpt lat="45.5455364" lon="10.4963563"><ele>260.0</ele><time>2026-04-25T14:59:57.733Z</time></trkpt><trkpt lat="45.5455487" lon="10.4964503"><ele>260.0</ele><time>2026-04-25T14:59:58.733Z</time></trkpt><trkpt lat="45.5455669" lon="10.4965392"><ele>260.00000000000006</ele><time>2026-04-25T14:59:59.733Z</time></trkpt><trkpt lat="45.5455868" lon="10.4966248"><ele>260.0</ele><time>2026-04-25T15:00:00.733Z</time></trkpt><trkpt lat="45.5456114" lon="10.4967102"><ele>259.5</ele><time>2026-04-25T15:00:01.732Z</time></trkpt><trkpt lat="45.5456355" lon="10.4967985"><ele>259.0</ele><time>2026-04-25T15:00:02.733Z</time></trkpt><trkpt lat="45.5456921" lon="10.4969654"><ele>258.5</ele><time>2026-04-25T15:00:04.733Z</time></trkpt><trkpt lat="45.5457277" lon="10.4970514"><ele>258.0</ele><time>2026-04-25T15:00:05.734Z</time></trkpt><trkpt lat="45.5457606" lon="10.497147"><ele>257.5</ele><time>2026-04-25T15:00:06.733Z</time></trkpt><trkpt lat="45.5457973" lon="10.4972389"><ele>257.0</ele><time>2026-04-25T15:00:07.733Z</time></trkpt><trkpt lat="45.5458364" lon="10.4973372"><ele>256.6666666666667</ele><time>2026-04-25T15:00:08.733Z</time></trkpt><trkpt lat="45.5458714" lon="10.4974435"><ele>256.33333333333337</ele><time>2026-04-25T15:00:09.734Z</time></trkpt><trkpt lat="45.5459044" lon="10.4975491"><ele>256.0</ele><time>2026-04-25T15:00:10.733Z</time></trkpt><trkpt lat="45.5459387" lon="10.4976522"><ele>255.66666666666669</ele><time>2026-04-25T15:00:11.734Z</time></trkpt><trkpt lat="45.5459758" lon="10.49776"><ele>255.33333333333334</ele><time>2026-04-25T15:00:12.734Z</time></trkpt><trkpt lat="45.5460027" lon="10.4978509"><ele>255.0</ele><time>2026-04-25T15:00:13.734Z</time></trkpt><trkpt lat="45.5460294" lon="10.49794"><ele>254.71428571428572</ele><time>2026-04-25T15:00:14.733Z</time></trkpt><trkpt lat="45.5460652" lon="10.4980372"><ele>254.42857142857144</ele><time>2026-04-25T15:00:15.734Z</time></trkpt><trkpt lat="45.5460996" lon="10.4981294"><ele>254.14285714285717</ele><time>2026-04-25T15:00:16.733Z</time></trkpt><trkpt lat="45.5461302" lon="10.4982212"><ele>253.8571428571429</ele><time>2026-04-25T15:00:17.733Z</time></trkpt><trkpt lat="45.5461614" lon="10.49831"><ele>253.57142857142858</ele><time>2026-04-25T15:00:18.733Z</time></trkpt><trkpt lat="45.5461919" lon="10.4983899"><ele>253.28571428571433</ele><time>2026-04-25T15:00:19.734Z</time></trkpt><trkpt lat="45.5462191" lon="10.4985072"><ele>253.00000000000003</ele><time>2026-04-25T15:00:21.733Z</time></trkpt><trkpt lat="45.5461775" lon="10.4986011"><ele>251.83333333333331</ele><time>2026-04-25T15:00:24.734Z</time></trkpt><trkpt lat="45.5461113" lon="10.4985591"><ele>250.66666666666666</ele><time>2026-04-25T15:00:27.734Z</time></trkpt><trkpt lat="45.5460853" lon="10.4984518"><ele>249.5</ele><time>2026-04-25T15:00:30.733Z</time></trkpt><trkpt lat="45.5460428" lon="10.4983326"><ele>248.33333333333331</ele><time>2026-04-25T15:00:33.733Z</time></trkpt><trkpt lat="45.5459986" lon="10.4982378"><ele>247.16666666666666</ele><time>2026-04-25T15:00:35.734Z</time></trkpt><trkpt lat="45.5459388" lon="10.498148"><ele>246.0</ele><time>2026-04-25T15:00:37.734Z</time></trkpt><trkpt lat="45.5458671" lon="10.4980786"><ele>246.0</ele><time>2026-04-25T15:00:39.733Z</time></trkpt><trkpt lat="45.5457894" lon="10.4980794"><ele>246.0</ele><time>2026-04-25T15:00:41.733Z</time></trkpt><trkpt lat="45.5457349" lon="10.4980282"><ele>246.0</ele><time>2026-04-25T15:00:43.734Z</time></trkpt><trkpt lat="45.5458033" lon="10.4979497"><ele>246.0</ele><time>2026-04-25T15:00:46.734Z</time></trkpt><trkpt lat="45.5458247" lon="10.4978607"><ele>246.0</ele><time>2026-04-25T15:00:51.734Z</time></trkpt><trkpt lat="45.5457728" lon="10.4977438"><ele>246.0</ele><time>2026-04-25T15:00:54.734Z</time></trkpt><trkpt lat="45.5457288" lon="10.4976651"><ele>245.83333333333334</ele><time>2026-04-25T15:00:56.734Z</time></trkpt><trkpt lat="45.5456768" lon="10.49759"><ele>245.66666666666669</ele><time>2026-04-25T15:00:57.733Z</time></trkpt><trkpt lat="45.5455954" lon="10.4974778"><ele>245.5</ele><time>2026-04-25T15:00:59.734Z</time></trkpt><trkpt lat="45.5455497" lon="10.497414"><ele>245.33333333333334</ele><time>2026-04-25T15:01:00.733Z</time></trkpt><trkpt lat="45.5454961" lon="10.4973458"><ele>245.16666666666669</ele><time>2026-04-25T15:01:01.733Z</time></trkpt><trkpt lat="45.5454401" lon="10.4972792"><ele>245.0</ele><time>2026-04-25T15:01:02.733Z</time></trkpt><trkpt lat="45.5453716" lon="10.4972305"><ele>245.00000000000003</ele><time>2026-04-25T15:01:03.732Z</time></trkpt><trkpt lat="45.5453153" lon="10.497173"><ele>245.0</ele><time>2026-04-25T15:01:04.732Z</time></trkpt><trkpt lat="45.5451842" lon="10.4970908"><ele>245.0</ele><time>2026-04-25T15:01:06.733Z</time></trkpt><trkpt lat="45.545114" lon="10.4970591"><ele>245.0</ele><time>2026-04-25T15:01:07.734Z</time></trkpt><trkpt lat="45.5450438" lon="10.4970369"><ele>245.00000000000003</ele><time>2026-04-25T15:01:08.733Z</time></trkpt><trkpt lat="45.5449755" lon="10.4970108"><ele>245.0</ele><time>2026-04-25T15:01:09.732Z</time></trkpt><trkpt lat="45.544908" lon="10.4969824"><ele>244.71428571428572</ele><time>2026-04-25T15:01:10.733Z</time></trkpt><trkpt lat="45.5448423" lon="10.4969574"><ele>244.42857142857144</ele><time>2026-04-25T15:01:11.733Z</time></trkpt><trkpt lat="45.5447777" lon="10.4969288"><ele>244.14285714285714</ele><time>2026-04-25T15:01:12.734Z</time></trkpt><trkpt lat="45.5447129" lon="10.4969008"><ele>243.85714285714286</ele><time>2026-04-25T15:01:13.734Z</time></trkpt><trkpt lat="45.5446458" lon="10.4968742"><ele>243.57142857142858</ele><time>2026-04-25T15:01:14.733Z</time></trkpt><trkpt lat="45.5445806" lon="10.4968496"><ele>243.28571428571428</ele><time>2026-04-25T15:01:15.733Z</time></trkpt><trkpt lat="45.5445111" lon="10.4968333"><ele>243.0</ele><time>2026-04-25T15:01:16.733Z</time></trkpt><trkpt lat="45.5444433" lon="10.4968096"><ele>243.0</ele><time>2026-04-25T15:01:17.734Z</time></trkpt><trkpt lat="45.5443779" lon="10.4967811"><ele>243.0</ele><time>2026-04-25T15:01:18.733Z</time></trkpt><trkpt lat="45.5443098" lon="10.4967522"><ele>243.0</ele><time>2026-04-25T15:01:19.734Z</time></trkpt><trkpt lat="45.5442464" lon="10.4967264"><ele>243.0</ele><time>2026-04-25T15:01:20.733Z</time></trkpt><trkpt lat="45.5441478" lon="10.49668"><ele>243.0</ele><time>2026-04-25T15:01:22.734Z</time></trkpt><trkpt lat="45.544072" lon="10.4966609"><ele>243.0</ele><time>2026-04-25T15:01:23.734Z</time></trkpt><trkpt lat="45.5440088" lon="10.4966449"><ele>243.0</ele><time>2026-04-25T15:01:24.734Z</time></trkpt><trkpt lat="45.5439428" lon="10.496632"><ele>243.0</ele><time>2026-04-25T15:01:25.733Z</time></trkpt><trkpt lat="45.5438797" lon="10.4966192"><ele>243.0</ele><time>2026-04-25T15:01:26.734Z</time></trkpt><trkpt lat="45.5438154" lon="10.4966069"><ele>243.0</ele><time>2026-04-25T15:01:27.734Z</time></trkpt><trkpt lat="45.5437479" lon="10.4965949"><ele>243.0</ele><time>2026-04-25T15:01:28.733Z</time></trkpt><trkpt lat="45.5436818" lon="10.4965951"><ele>243.0</ele><time>2026-04-25T15:01:29.734Z</time></trkpt><trkpt lat="45.543615" lon="10.4965946"><ele>243.0</ele><time>2026-04-25T15:01:30.734Z</time></trkpt><trkpt lat="45.5434892" lon="10.4965874"><ele>243.16666666666666</ele><time>2026-04-25T15:01:32.732Z</time></trkpt><trkpt lat="45.5433683" lon="10.4965819"><ele>243.33333333333331</ele><time>2026-04-25T15:01:34.733Z</time></trkpt><trkpt lat="45.5433053" lon="10.49658"><ele>243.5</ele><time>2026-04-25T15:01:35.733Z</time></trkpt><trkpt lat="45.5431775" lon="10.4965869"><ele>243.66666666666666</ele><time>2026-04-25T15:01:37.734Z</time></trkpt><trkpt lat="45.543113" lon="10.4965965"><ele>243.83333333333331</ele><time>2026-04-25T15:01:38.733Z</time></trkpt><trkpt lat="45.5430499" lon="10.4965977"><ele>244.0</ele><time>2026-04-25T15:01:39.733Z</time></trkpt><trkpt lat="45.5429856" lon="10.4966006"><ele>243.99999999999997</ele><time>2026-04-25T15:01:40.734Z</time></trkpt><trkpt lat="45.5429204" lon="10.4966001"><ele>244.0</ele><time>2026-04-25T15:01:41.733Z</time></trkpt><trkpt lat="45.5428505" lon="10.4966052"><ele>244.0</ele><time>2026-04-25T15:01:42.734Z</time></trkpt><trkpt lat="45.5427769" lon="10.4966079"><ele>244.0</ele><time>2026-04-25T15:01:43.732Z</time></trkpt><trkpt lat="45.5426969" lon="10.4966088"><ele>243.99999999999997</ele><time>2026-04-25T15:01:44.733Z</time></trkpt><trkpt lat="45.5426197" lon="10.4966039"><ele>244.0</ele><time>2026-04-25T15:01:45.734Z</time></trkpt><trkpt lat="45.5425076" lon="10.4965656"><ele>243.16666666666666</ele><time>2026-04-25T15:01:47.733Z</time></trkpt><trkpt lat="45.542425" lon="10.4965438"><ele>242.33333333333331</ele><time>2026-04-25T15:01:48.733Z</time></trkpt><trkpt lat="45.5423503" lon="10.4965214"><ele>241.5</ele><time>2026-04-25T15:01:49.734Z</time></trkpt><trkpt lat="45.5422808" lon="10.4965002"><ele>240.66666666666669</ele><time>2026-04-25T15:01:50.734Z</time></trkpt><trkpt lat="45.5422073" lon="10.496484"><ele>239.83333333333334</ele><time>2026-04-25T15:01:51.734Z</time></trkpt><trkpt lat="45.5421335" lon="10.4964634"><ele>239.0</ele><time>2026-04-25T15:01:52.733Z</time></trkpt><trkpt lat="45.5420602" lon="10.4964455"><ele>238.5714285714286</ele><time>2026-04-25T15:01:53.734Z</time></trkpt><trkpt lat="45.5419844" lon="10.4964276"><ele>238.14285714285717</ele><time>2026-04-25T15:01:54.733Z</time></trkpt><trkpt lat="45.541912" lon="10.4963989"><ele>237.71428571428572</ele><time>2026-04-25T15:01:55.732Z</time></trkpt><trkpt lat="45.5418612" lon="10.4963424"><ele>237.2857142857143</ele><time>2026-04-25T15:01:56.733Z</time></trkpt><trkpt lat="45.5418179" lon="10.4962579"><ele>236.8571428571429</ele><time>2026-04-25T15:01:57.733Z</time></trkpt><trkpt lat="45.5417837" lon="10.4961592"><ele>236.42857142857142</ele><time>2026-04-25T15:01:58.734Z</time></trkpt><trkpt lat="45.5417532" lon="10.4960604"><ele>236.0</ele><time>2026-04-25T15:01:59.734Z</time></trkpt><trkpt lat="45.5417137" lon="10.4959692"><ele>237.20000000000002</ele><time>2026-04-25T15:02:00.733Z</time></trkpt><trkpt lat="45.5416672" lon="10.4958957"><ele>238.40000000000003</ele><time>2026-04-25T15:02:01.732Z</time></trkpt><trkpt lat="45.5416166" lon="10.4958356"><ele>239.6</ele><time>2026-04-25T15:02:02.734Z</time></trkpt><trkpt lat="45.5415011" lon="10.4957962"><ele>240.8</ele><time>2026-04-25T15:02:04.732Z</time></trkpt><trkpt lat="45.5413765" lon="10.4957771"><ele>242.0</ele><time>2026-04-25T15:02:06.733Z</time></trkpt><trkpt lat="45.5412525" lon="10.4957672"><ele>242.00000000000003</ele><time>2026-04-25T15:02:08.733Z</time></trkpt><trkpt lat="45.541178" lon="10.4957573"><ele>242.0</ele><time>2026-04-25T15:02:09.733Z</time></trkpt><trkpt lat="45.541071" lon="10.4957322"><ele>242.0</ele><time>2026-04-25T15:02:11.733Z</time></trkpt><trkpt lat="45.5410058" lon="10.4957203"><ele>242.0</ele><time>2026-04-25T15:02:12.733Z</time></trkpt><trkpt lat="45.5408838" lon="10.4957083"><ele>242.00000000000003</ele><time>2026-04-25T15:02:14.734Z</time></trkpt><trkpt lat="45.5408175" lon="10.4957106"><ele>242.0</ele><time>2026-04-25T15:02:15.734Z</time></trkpt><trkpt lat="45.5406964" lon="10.4956969"><ele>242.0</ele><time>2026-04-25T15:02:17.733Z</time></trkpt><trkpt lat="45.5405821" lon="10.4956969"><ele>242.0</ele><time>2026-04-25T15:02:19.732Z</time></trkpt><trkpt lat="45.5404743" lon="10.4956823"><ele>242.0</ele><time>2026-04-25T15:02:21.734Z</time></trkpt><trkpt lat="45.5403706" lon="10.4956696"><ele>242.0</ele><time>2026-04-25T15:02:23.733Z</time></trkpt><trkpt lat="45.5402598" lon="10.4956657"><ele>242.0</ele><time>2026-04-25T15:02:25.732Z</time></trkpt><trkpt lat="45.540145" lon="10.4956766"><ele>241.85714285714283</ele><time>2026-04-25T15:02:27.732Z</time></trkpt><trkpt lat="45.5400803" lon="10.4956951"><ele>241.7142857142857</ele><time>2026-04-25T15:02:28.733Z</time></trkpt><trkpt lat="45.5400148" lon="10.4957058"><ele>241.57142857142856</ele><time>2026-04-25T15:02:29.734Z</time></trkpt><trkpt lat="45.5399442" lon="10.4957265"><ele>241.42857142857144</ele><time>2026-04-25T15:02:30.732Z</time></trkpt><trkpt lat="45.5398766" lon="10.4957559"><ele>241.2857142857143</ele><time>2026-04-25T15:02:31.733Z</time></trkpt><trkpt lat="45.5398105" lon="10.4957853"><ele>241.14285714285717</ele><time>2026-04-25T15:02:32.734Z</time></trkpt><trkpt lat="45.539736" lon="10.4958185"><ele>241.0</ele><time>2026-04-25T15:02:33.734Z</time></trkpt><trkpt lat="45.5396644" lon="10.4958508"><ele>240.99999999999997</ele><time>2026-04-25T15:02:34.732Z</time></trkpt><trkpt lat="45.5395915" lon="10.4958915"><ele>241.0</ele><time>2026-04-25T15:02:35.733Z</time></trkpt><trkpt lat="45.5395136" lon="10.4959215"><ele>241.0</ele><time>2026-04-25T15:02:36.734Z</time></trkpt><trkpt lat="45.539439" lon="10.495952"><ele>241.0</ele><time>2026-04-25T15:02:37.733Z</time></trkpt><trkpt lat="45.5393602" lon="10.4959787"><ele>240.99999999999997</ele><time>2026-04-25T15:02:38.734Z</time></trkpt><trkpt lat="45.5392799" lon="10.4960019"><ele>241.0</ele><time>2026-04-25T15:02:39.733Z</time></trkpt><trkpt lat="45.5391994" lon="10.496021"><ele>240.33333333333331</ele><time>2026-04-25T15:02:40.734Z</time></trkpt><trkpt lat="45.539119" lon="10.4960335"><ele>239.66666666666666</ele><time>2026-04-25T15:02:41.733Z</time></trkpt><trkpt lat="45.5390381" lon="10.4960406"><ele>239.0</ele><time>2026-04-25T15:02:42.734Z</time></trkpt><trkpt lat="45.5389599" lon="10.4960468"><ele>238.33333333333331</ele><time>2026-04-25T15:02:43.733Z</time></trkpt><trkpt lat="45.5388844" lon="10.4960505"><ele>237.66666666666666</ele><time>2026-04-25T15:02:44.734Z</time></trkpt><trkpt lat="45.5388095" lon="10.4960532"><ele>237.0</ele><time>2026-04-25T15:02:45.733Z</time></trkpt><trkpt lat="45.5387403" lon="10.4960583"><ele>237.25</ele><time>2026-04-25T15:02:46.733Z</time></trkpt><trkpt lat="45.5386156" lon="10.4960632"><ele>237.5</ele><time>2026-04-25T15:02:48.733Z</time></trkpt><trkpt lat="45.5384515" lon="10.4960913"><ele>237.75</ele><time>2026-04-25T15:02:51.734Z</time></trkpt><trkpt lat="45.5383481" lon="10.4961163"><ele>238.0</ele><time>2026-04-25T15:02:53.734Z</time></trkpt><trkpt lat="45.5382336" lon="10.4961466"><ele>237.99999999999997</ele><time>2026-04-25T15:02:55.733Z</time></trkpt><trkpt lat="45.5381121" lon="10.4961859"><ele>238.0</ele><time>2026-04-25T15:02:57.734Z</time></trkpt><trkpt lat="45.53805" lon="10.4962032"><ele>238.0</ele><time>2026-04-25T15:02:58.733Z</time></trkpt><trkpt lat="45.537986" lon="10.4962239"><ele>238.0</ele><time>2026-04-25T15:02:59.733Z</time></trkpt><trkpt lat="45.5379199" lon="10.496242"><ele>237.99999999999997</ele><time>2026-04-25T15:03:00.732Z</time></trkpt><trkpt lat="45.5378521" lon="10.49626"><ele>238.0</ele><time>2026-04-25T15:03:01.734Z</time></trkpt><trkpt lat="45.5377855" lon="10.4962757"><ele>237.57142857142856</ele><time>2026-04-25T15:03:02.734Z</time></trkpt><trkpt lat="45.5377169" lon="10.496295"><ele>237.14285714285714</ele><time>2026-04-25T15:03:03.733Z</time></trkpt><trkpt lat="45.537649" lon="10.4963234"><ele>236.71428571428572</ele><time>2026-04-25T15:03:04.733Z</time></trkpt><trkpt lat="45.5375811" lon="10.496347"><ele>236.28571428571428</ele><time>2026-04-25T15:03:05.734Z</time></trkpt><trkpt lat="45.5375139" lon="10.4963671"><ele>235.85714285714283</ele><time>2026-04-25T15:03:06.733Z</time></trkpt><trkpt lat="45.5374469" lon="10.4963886"><ele>235.42857142857142</ele><time>2026-04-25T15:03:07.733Z</time></trkpt><trkpt lat="45.537391" lon="10.4964457"><ele>235.0</ele><time>2026-04-25T15:03:08.733Z</time></trkpt><trkpt lat="45.5373477" lon="10.4965225"><ele>235.0</ele><time>2026-04-25T15:03:09.734Z</time></trkpt><trkpt lat="45.537318" lon="10.4966198"><ele>234.99999999999997</ele><time>2026-04-25T15:03:10.734Z</time></trkpt><trkpt lat="45.5372888" lon="10.4967189"><ele>235.0</ele><time>2026-04-25T15:03:11.734Z</time></trkpt><trkpt lat="45.5372632" lon="10.4968033"><ele>235.0</ele><time>2026-04-25T15:03:12.734Z</time></trkpt><trkpt lat="45.5372312" lon="10.496889"><ele>234.99999999999997</ele><time>2026-04-25T15:03:13.733Z</time></trkpt><trkpt lat="45.5372013" lon="10.4969796"><ele>235.0</ele><time>2026-04-25T15:03:14.733Z</time></trkpt><trkpt lat="45.5371737" lon="10.4970668"><ele>235.0</ele><time>2026-04-25T15:03:15.734Z</time></trkpt><trkpt lat="45.5371423" lon="10.497153"><ele>234.66666666666666</ele><time>2026-04-25T15:03:16.734Z</time></trkpt><trkpt lat="45.5371044" lon="10.497241"><ele>234.33333333333331</ele><time>2026-04-25T15:03:17.734Z</time></trkpt><trkpt lat="45.5370735" lon="10.4973195"><ele>234.0</ele><time>2026-04-25T15:03:18.733Z</time></trkpt><trkpt lat="45.5370313" lon="10.4974528"><ele>233.66666666666669</ele><time>2026-04-25T15:03:20.733Z</time></trkpt><trkpt lat="45.5369935" lon="10.4975845"><ele>233.33333333333334</ele><time>2026-04-25T15:03:22.733Z</time></trkpt><trkpt lat="45.536954" lon="10.4977273"><ele>233.0</ele><time>2026-04-25T15:03:24.733Z</time></trkpt><trkpt lat="45.536934" lon="10.4978896"><ele>231.50000000000003</ele><time>2026-04-25T15:03:26.734Z</time></trkpt><trkpt lat="45.5369348" lon="10.4980291"><ele>230.0</ele><time>2026-04-25T15:03:27.734Z</time></trkpt><trkpt lat="45.5369422" lon="10.498126"><ele>228.5</ele><time>2026-04-25T15:03:28.734Z</time></trkpt><trkpt lat="45.5369515" lon="10.4982442"><ele>227.0</ele><time>2026-04-25T15:03:29.733Z</time></trkpt><trkpt lat="45.5369653" lon="10.498355"><ele>225.50000000000003</ele><time>2026-04-25T15:03:30.733Z</time></trkpt><trkpt lat="45.5369661" lon="10.4984675"><ele>224.0</ele><time>2026-04-25T15:03:31.734Z</time></trkpt><trkpt lat="45.5369596" lon="10.4985838"><ele>224.0</ele><time>2026-04-25T15:03:32.733Z</time></trkpt><trkpt lat="45.5369138" lon="10.498731"><ele>223.99999999999997</ele><time>2026-04-25T15:03:34.732Z</time></trkpt><trkpt lat="45.5368891" lon="10.4988147"><ele>223.99999999999997</ele><time>2026-04-25T15:03:35.734Z</time></trkpt><trkpt lat="45.5368325" lon="10.4989674"><ele>224.0</ele><time>2026-04-25T15:03:37.733Z</time></trkpt><trkpt lat="45.536776" lon="10.4991025"><ele>224.0</ele><time>2026-04-25T15:03:39.734Z</time></trkpt><trkpt lat="45.5366982" lon="10.4991687"><ele>224.2</ele><time>2026-04-25T15:03:41.733Z</time></trkpt><trkpt lat="45.5366302" lon="10.4992315"><ele>224.39999999999998</ele><time>2026-04-25T15:03:43.733Z</time></trkpt><trkpt lat="45.5365143" lon="10.4992594"><ele>224.6</ele><time>2026-04-25T15:03:45.734Z</time></trkpt><trkpt lat="45.5364133" lon="10.4993062"><ele>224.8</ele><time>2026-04-25T15:03:47.732Z</time></trkpt><trkpt lat="45.5362858" lon="10.4993571"><ele>225.0</ele><time>2026-04-25T15:03:49.732Z</time></trkpt><trkpt lat="45.5362234" lon="10.4993985"><ele>225.25</ele><time>2026-04-25T15:03:50.733Z</time></trkpt><trkpt lat="45.536104" lon="10.49947"><ele>225.5</ele><time>2026-04-25T15:03:52.734Z</time></trkpt><trkpt lat="45.5359931" lon="10.4995302"><ele>225.75</ele><time>2026-04-25T15:03:54.734Z</time></trkpt><trkpt lat="45.5358829" lon="10.4995707"><ele>226.0</ele><time>2026-04-25T15:03:56.733Z</time></trkpt><trkpt lat="45.535775" lon="10.4995989"><ele>226.0</ele><time>2026-04-25T15:03:58.734Z</time></trkpt><trkpt lat="45.5356588" lon="10.4996284"><ele>226.00000000000003</ele><time>2026-04-25T15:04:00.734Z</time></trkpt><trkpt lat="45.5355432" lon="10.4996603"><ele>226.00000000000003</ele><time>2026-04-25T15:04:02.734Z</time></trkpt><trkpt lat="45.5354201" lon="10.4996953"><ele>226.0</ele><time>2026-04-25T15:04:04.734Z</time></trkpt><trkpt lat="45.5353523" lon="10.4997178"><ele>226.0</ele><time>2026-04-25T15:04:05.734Z</time></trkpt><trkpt lat="45.5352841" lon="10.499747"><ele>225.16666666666666</ele><time>2026-04-25T15:04:06.732Z</time></trkpt><trkpt lat="45.5352183" lon="10.4997847"><ele>224.33333333333331</ele><time>2026-04-25T15:04:07.733Z</time></trkpt><trkpt lat="45.5351596" lon="10.4998335"><ele>223.5</ele><time>2026-04-25T15:04:08.733Z</time></trkpt><trkpt lat="45.5351051" lon="10.4999085"><ele>222.66666666666669</ele><time>2026-04-25T15:04:09.733Z</time></trkpt><trkpt lat="45.5350664" lon="10.4999928"><ele>221.83333333333334</ele><time>2026-04-25T15:04:10.733Z</time></trkpt><trkpt lat="45.5350172" lon="10.5001632"><ele>221.0</ele><time>2026-04-25T15:04:12.733Z</time></trkpt><trkpt lat="45.5349965" lon="10.5002707"><ele>221.00000000000003</ele><time>2026-04-25T15:04:13.733Z</time></trkpt><trkpt lat="45.5349734" lon="10.5003719"><ele>221.0</ele><time>2026-04-25T15:04:14.734Z</time></trkpt><trkpt lat="45.5349576" lon="10.5004743"><ele>221.0</ele><time>2026-04-25T15:04:15.733Z</time></trkpt><trkpt lat="45.5349423" lon="10.500578"><ele>221.0</ele><time>2026-04-25T15:04:16.733Z</time></trkpt><trkpt lat="45.5349229" lon="10.5006788"><ele>221.0</ele><time>2026-04-25T15:04:17.734Z</time></trkpt><trkpt lat="45.5349071" lon="10.5007769"><ele>221.00000000000003</ele><time>2026-04-25T15:04:18.732Z</time></trkpt><trkpt lat="45.5348925" lon="10.500871"><ele>221.0</ele><time>2026-04-25T15:04:19.734Z</time></trkpt><trkpt lat="45.5348809" lon="10.500961"><ele>221.00000000000003</ele><time>2026-04-25T15:04:20.734Z</time></trkpt><trkpt lat="45.5348633" lon="10.5010497"><ele>221.0</ele><time>2026-04-25T15:04:21.733Z</time></trkpt><trkpt lat="45.5348413" lon="10.5011394"><ele>221.0</ele><time>2026-04-25T15:04:22.733Z</time></trkpt><trkpt lat="45.5347794" lon="10.5012983"><ele>221.0</ele><time>2026-04-25T15:04:24.734Z</time></trkpt><trkpt lat="45.5347131" lon="10.5014466"><ele>221.00000000000003</ele><time>2026-04-25T15:04:26.733Z</time></trkpt><trkpt lat="45.5346732" lon="10.5015196"><ele>221.0</ele><time>2026-04-25T15:04:27.733Z</time></trkpt><trkpt lat="45.53463" lon="10.501597"><ele>221.4</ele><time>2026-04-25T15:04:28.733Z</time></trkpt><trkpt lat="45.5345492" lon="10.5017331"><ele>221.8</ele><time>2026-04-25T15:04:30.734Z</time></trkpt><trkpt lat="45.5345" lon="10.5017947"><ele>222.20000000000002</ele><time>2026-04-25T15:04:31.733Z</time></trkpt><trkpt lat="45.5344567" lon="10.5018612"><ele>222.60000000000002</ele><time>2026-04-25T15:04:32.732Z</time></trkpt><trkpt lat="45.5343801" lon="10.5019813"><ele>223.0</ele><time>2026-04-25T15:04:34.734Z</time></trkpt><trkpt lat="45.5342896" lon="10.5020838"><ele>223.4</ele><time>2026-04-25T15:04:36.734Z</time></trkpt><trkpt lat="45.5342068" lon="10.5022214"><ele>223.8</ele><time>2026-04-25T15:04:38.733Z</time></trkpt><trkpt lat="45.5341368" lon="10.5023709"><ele>224.2</ele><time>2026-04-25T15:04:40.734Z</time></trkpt><trkpt lat="45.534067" lon="10.5025084"><ele>224.6</ele><time>2026-04-25T15:04:42.734Z</time></trkpt><trkpt lat="45.5340249" lon="10.5025824"><ele>225.0</ele><time>2026-04-25T15:04:43.734Z</time></trkpt><trkpt lat="45.533986" lon="10.5026605"><ele>225.0</ele><time>2026-04-25T15:04:44.733Z</time></trkpt><trkpt lat="45.5339325" lon="10.5027861"><ele>225.0</ele><time>2026-04-25T15:04:46.733Z</time></trkpt><trkpt lat="45.5338799" lon="10.5029474"><ele>225.0</ele><time>2026-04-25T15:04:48.734Z</time></trkpt><trkpt lat="45.5338743" lon="10.5030469"><ele>225.0</ele><time>2026-04-25T15:04:49.734Z</time></trkpt><trkpt lat="45.5338526" lon="10.5031338"><ele>225.0</ele><time>2026-04-25T15:04:50.734Z</time></trkpt><trkpt lat="45.5338402" lon="10.503262"><ele>225.33333333333334</ele><time>2026-04-25T15:04:52.732Z</time></trkpt><trkpt lat="45.5338071" lon="10.5033508"><ele>225.66666666666669</ele><time>2026-04-25T15:04:53.733Z</time></trkpt><trkpt lat="45.5337583" lon="10.5034944"><ele>226.0</ele><time>2026-04-25T15:04:55.733Z</time></trkpt><trkpt lat="45.5337346" lon="10.5035869"><ele>226.33333333333334</ele><time>2026-04-25T15:04:56.734Z</time></trkpt><trkpt lat="45.5336789" lon="10.5037374"><ele>226.66666666666669</ele><time>2026-04-25T15:04:58.733Z</time></trkpt><trkpt lat="45.5336506" lon="10.5038183"><ele>227.0</ele><time>2026-04-25T15:04:59.732Z</time></trkpt><trkpt lat="45.5336582" lon="10.5039639"><ele>225.0</ele><time>2026-04-25T15:05:01.734Z</time></trkpt><trkpt lat="45.5336648" lon="10.5041388"><ele>223.0</ele><time>2026-04-25T15:05:03.733Z</time></trkpt><trkpt lat="45.5336315" lon="10.5043076"><ele>221.0</ele><time>2026-04-25T15:05:05.734Z</time></trkpt><trkpt lat="45.5336027" lon="10.5044089"><ele>219.0</ele><time>2026-04-25T15:05:06.733Z</time></trkpt><trkpt lat="45.5335702" lon="10.5045076"><ele>217.0</ele><time>2026-04-25T15:05:07.733Z</time></trkpt><trkpt lat="45.5335313" lon="10.5045935"><ele>217.0</ele><time>2026-04-25T15:05:08.734Z</time></trkpt><trkpt lat="45.5334832" lon="10.5046689"><ele>217.0</ele><time>2026-04-25T15:05:09.733Z</time></trkpt><trkpt lat="45.5334196" lon="10.5047216"><ele>217.0</ele><time>2026-04-25T15:05:10.733Z</time></trkpt><trkpt lat="45.5333482" lon="10.504755"><ele>217.0</ele><time>2026-04-25T15:05:11.734Z</time></trkpt><trkpt lat="45.5332709" lon="10.5047608"><ele>217.0</ele><time>2026-04-25T15:05:12.733Z</time></trkpt><trkpt lat="45.5331964" lon="10.5047666"><ele>217.0</ele><time>2026-04-25T15:05:13.734Z</time></trkpt><trkpt lat="45.5331348" lon="10.5047242"><ele>217.0</ele><time>2026-04-25T15:05:14.734Z</time></trkpt><trkpt lat="45.5330707" lon="10.5046912"><ele>217.0</ele><time>2026-04-25T15:05:15.733Z</time></trkpt><trkpt lat="45.5330143" lon="10.5046448"><ele>217.0</ele><time>2026-04-25T15:05:16.734Z</time></trkpt><trkpt lat="45.5329214" lon="10.5045526"><ele>217.0</ele><time>2026-04-25T15:05:18.733Z</time></trkpt><trkpt lat="45.5328456" lon="10.504513"><ele>217.0</ele><time>2026-04-25T15:05:20.734Z</time></trkpt><trkpt lat="45.5327147" lon="10.5045015"><ele>217.0</ele><time>2026-04-25T15:05:22.733Z</time></trkpt><trkpt lat="45.53265" lon="10.5044977"><ele>216.6</ele><time>2026-04-25T15:05:23.732Z</time></trkpt><trkpt lat="45.5325216" lon="10.5044921"><ele>216.2</ele><time>2026-04-25T15:05:25.733Z</time></trkpt><trkpt lat="45.5324001" lon="10.5044937"><ele>215.8</ele><time>2026-04-25T15:05:27.734Z</time></trkpt><trkpt lat="45.5322751" lon="10.5045061"><ele>215.4</ele><time>2026-04-25T15:05:29.733Z</time></trkpt><trkpt lat="45.5322084" lon="10.5045162"><ele>215.0</ele><time>2026-04-25T15:05:30.733Z</time></trkpt><trkpt lat="45.5321417" lon="10.5045371"><ele>215.0</ele><time>2026-04-25T15:05:31.734Z</time></trkpt><trkpt lat="45.5320767" lon="10.5045667"><ele>215.0</ele><time>2026-04-25T15:05:32.734Z</time></trkpt><trkpt lat="45.5320081" lon="10.5045968"><ele>215.0</ele><time>2026-04-25T15:05:33.733Z</time></trkpt><trkpt lat="45.5319409" lon="10.5046351"><ele>215.0</ele><time>2026-04-25T15:05:34.734Z</time></trkpt><trkpt lat="45.5318778" lon="10.5046775"><ele>215.0</ele><time>2026-04-25T15:05:35.734Z</time></trkpt><trkpt lat="45.5318132" lon="10.5047098"><ele>215.0</ele><time>2026-04-25T15:05:36.734Z</time></trkpt><trkpt lat="45.5317493" lon="10.5047446"><ele>215.0</ele><time>2026-04-25T15:05:37.734Z</time></trkpt><trkpt lat="45.5316873" lon="10.5047746"><ele>214.6</ele><time>2026-04-25T15:05:38.734Z</time></trkpt><trkpt lat="45.5316239" lon="10.5047955"><ele>214.2</ele><time>2026-04-25T15:05:39.733Z</time></trkpt><trkpt lat="45.5315048" lon="10.5048364"><ele>213.8</ele><time>2026-04-25T15:05:41.734Z</time></trkpt><trkpt lat="45.5313811" lon="10.50487"><ele>213.4</ele><time>2026-04-25T15:05:43.734Z</time></trkpt><trkpt lat="45.5313142" lon="10.5048828"><ele>213.0</ele><time>2026-04-25T15:05:44.733Z</time></trkpt><trkpt lat="45.5312127" lon="10.504896"><ele>213.0</ele><time>2026-04-25T15:05:46.734Z</time></trkpt><trkpt lat="45.531089" lon="10.5049327"><ele>213.0</ele><time>2026-04-25T15:05:48.732Z</time></trkpt><trkpt lat="45.5309599" lon="10.5049784"><ele>213.0</ele><time>2026-04-25T15:05:50.732Z</time></trkpt><trkpt lat="45.5308931" lon="10.5050145"><ele>213.0</ele><time>2026-04-25T15:05:51.733Z</time></trkpt><trkpt lat="45.5308271" lon="10.5050567"><ele>213.0</ele><time>2026-04-25T15:05:52.733Z</time></trkpt><trkpt lat="45.5307692" lon="10.5051006"><ele>213.0</ele><time>2026-04-25T15:05:53.733Z</time></trkpt><trkpt lat="45.5307101" lon="10.5051441"><ele>213.0</ele><time>2026-04-25T15:05:54.734Z</time></trkpt><trkpt lat="45.5306526" lon="10.505186"><ele>213.0</ele><time>2026-04-25T15:05:55.733Z</time></trkpt><trkpt lat="45.5305503" lon="10.5052594"><ele>213.0</ele><time>2026-04-25T15:05:57.733Z</time></trkpt><trkpt lat="45.5304346" lon="10.5052971"><ele>213.0</ele><time>2026-04-25T15:05:59.734Z</time></trkpt><trkpt lat="45.5303118" lon="10.5052667"><ele>213.28571428571428</ele><time>2026-04-25T15:06:01.734Z</time></trkpt><trkpt lat="45.530245" lon="10.5052594"><ele>213.57142857142856</ele><time>2026-04-25T15:06:02.733Z</time></trkpt><trkpt lat="45.5301709" lon="10.5052602"><ele>213.85714285714283</ele><time>2026-04-25T15:06:03.733Z</time></trkpt><trkpt lat="45.5300968" lon="10.505272"><ele>214.14285714285714</ele><time>2026-04-25T15:06:04.733Z</time></trkpt><trkpt lat="45.5300209" lon="10.50528"><ele>214.42857142857144</ele><time>2026-04-25T15:06:05.734Z</time></trkpt><trkpt lat="45.5299437" lon="10.5052915"><ele>214.7142857142857</ele><time>2026-04-25T15:06:06.733Z</time></trkpt><trkpt lat="45.5298681" lon="10.5053066"><ele>215.0</ele><time>2026-04-25T15:06:07.734Z</time></trkpt><trkpt lat="45.5297963" lon="10.5053004"><ele>215.0</ele><time>2026-04-25T15:06:08.732Z</time></trkpt><trkpt lat="45.5296838" lon="10.5052045"><ele>215.0</ele><time>2026-04-25T15:06:10.734Z</time></trkpt><trkpt lat="45.5296016" lon="10.5050943"><ele>215.0</ele><time>2026-04-25T15:06:12.733Z</time></trkpt><trkpt lat="45.5295414" lon="10.5049762"><ele>215.0</ele><time>2026-04-25T15:06:14.733Z</time></trkpt><trkpt lat="45.5294834" lon="10.5048522"><ele>216.00000000000003</ele><time>2026-04-25T15:06:16.734Z</time></trkpt><trkpt lat="45.5294354" lon="10.5047671"><ele>217.0</ele><time>2026-04-25T15:06:18.734Z</time></trkpt><trkpt lat="45.5293786" lon="10.5046699"><ele>218.0</ele><time>2026-04-25T15:06:20.734Z</time></trkpt><trkpt lat="45.5293149" lon="10.5046183"><ele>219.0</ele><time>2026-04-25T15:06:22.733Z</time></trkpt><trkpt lat="45.5292244" lon="10.5045724"><ele>220.00000000000003</ele><time>2026-04-25T15:06:24.733Z</time></trkpt><trkpt lat="45.5291202" lon="10.5045277"><ele>221.0</ele><time>2026-04-25T15:06:26.733Z</time></trkpt><trkpt lat="45.5289863" lon="10.5044669"><ele>221.00000000000003</ele><time>2026-04-25T15:06:28.733Z</time></trkpt><trkpt lat="45.5289052" lon="10.5044333"><ele>221.0</ele><time>2026-04-25T15:06:29.732Z</time></trkpt><trkpt lat="45.5288262" lon="10.5043907"><ele>221.0</ele><time>2026-04-25T15:06:30.733Z</time></trkpt><trkpt lat="45.5287486" lon="10.5043581"><ele>221.0</ele><time>2026-04-25T15:06:31.733Z</time></trkpt><trkpt lat="45.5286673" lon="10.5043188"><ele>221.00000000000003</ele><time>2026-04-25T15:06:32.734Z</time></trkpt><trkpt lat="45.5285624" lon="10.5042629"><ele>221.0</ele><time>2026-04-25T15:06:33.734Z</time></trkpt><trkpt lat="45.5284727" lon="10.5042255"><ele>219.00000000000003</ele><time>2026-04-25T15:06:34.734Z</time></trkpt><trkpt lat="45.5283976" lon="10.5041845"><ele>217.0</ele><time>2026-04-25T15:06:35.732Z</time></trkpt><trkpt lat="45.5283216" lon="10.504138"><ele>215.0</ele><time>2026-04-25T15:06:36.733Z</time></trkpt><trkpt lat="45.5282463" lon="10.5040857"><ele>213.0</ele><time>2026-04-25T15:06:37.734Z</time></trkpt><trkpt lat="45.5281837" lon="10.5040239"><ele>211.00000000000003</ele><time>2026-04-25T15:06:38.734Z</time></trkpt><trkpt lat="45.5280911" lon="10.5039455"><ele>209.0</ele><time>2026-04-25T15:06:40.734Z</time></trkpt><trkpt lat="45.5280293" lon="10.5038288"><ele>209.0</ele><time>2026-04-25T15:06:42.734Z</time></trkpt><trkpt lat="45.5279878" lon="10.5036756"><ele>209.0</ele><time>2026-04-25T15:06:44.733Z</time></trkpt><trkpt lat="45.5279471" lon="10.5035554"><ele>209.0</ele><time>2026-04-25T15:06:46.734Z</time></trkpt><trkpt lat="45.5278733" lon="10.5036093"><ele>209.0</ele><time>2026-04-25T15:06:49.735Z</time></trkpt><trkpt lat="45.5279202" lon="10.5037221"><ele>209.0</ele><time>2026-04-25T15:06:51.734Z</time></trkpt><trkpt lat="45.527942" lon="10.5038658"><ele>209.0</ele><time>2026-04-25T15:06:53.735Z</time></trkpt><trkpt lat="45.5279449" lon="10.5039858"><ele>209.0</ele><time>2026-04-25T15:06:55.735Z</time></trkpt><trkpt lat="45.5278752" lon="10.5039814"><ele>209.0</ele><time>2026-04-25T15:06:56.733Z</time></trkpt><trkpt lat="45.5277673" lon="10.5039504"><ele>209.0</ele><time>2026-04-25T15:06:58.733Z</time></trkpt><trkpt lat="45.5276494" lon="10.5038851"><ele>209.0</ele><time>2026-04-25T15:07:00.735Z</time></trkpt><trkpt lat="45.5275849" lon="10.5038549"><ele>207.85714285714286</ele><time>2026-04-25T15:07:01.734Z</time></trkpt><trkpt lat="45.5275224" lon="10.5038252"><ele>206.71428571428572</ele><time>2026-04-25T15:07:02.734Z</time></trkpt><trkpt lat="45.5274573" lon="10.5038089"><ele>205.57142857142856</ele><time>2026-04-25T15:07:03.735Z</time></trkpt><trkpt lat="45.5273888" lon="10.50379"><ele>204.42857142857144</ele><time>2026-04-25T15:07:04.735Z</time></trkpt><trkpt lat="45.5273193" lon="10.5037768"><ele>203.2857142857143</ele><time>2026-04-25T15:07:05.734Z</time></trkpt><trkpt lat="45.5272524" lon="10.5037607"><ele>202.14285714285714</ele><time>2026-04-25T15:07:06.735Z</time></trkpt><trkpt lat="45.5271851" lon="10.5037427"><ele>201.0</ele><time>2026-04-25T15:07:07.733Z</time></trkpt><trkpt lat="45.5270986" lon="10.5037174"><ele>199.25</ele><time>2026-04-25T15:07:09.735Z</time></trkpt><trkpt lat="45.5269778" lon="10.503701"><ele>197.5</ele><time>2026-04-25T15:07:11.734Z</time></trkpt><trkpt lat="45.52686" lon="10.5036787"><ele>195.75</ele><time>2026-04-25T15:07:13.734Z</time></trkpt><trkpt lat="45.5267482" lon="10.5036609"><ele>194.0</ele><time>2026-04-25T15:07:15.734Z</time></trkpt><trkpt lat="45.5266098" lon="10.5036512"><ele>194.0</ele><time>2026-04-25T15:07:17.734Z</time></trkpt><trkpt lat="45.5265371" lon="10.5036921"><ele>194.0</ele><time>2026-04-25T15:07:18.734Z</time></trkpt><trkpt lat="45.5264075" lon="10.5037388"><ele>194.0</ele><time>2026-04-25T15:07:20.733Z</time></trkpt><trkpt lat="45.5263316" lon="10.5037702"><ele>194.0</ele><time>2026-04-25T15:07:21.735Z</time></trkpt><trkpt lat="45.5262586" lon="10.503809"><ele>194.0</ele><time>2026-04-25T15:07:22.734Z</time></trkpt><trkpt lat="45.5261308" lon="10.50384"><ele>193.75</ele><time>2026-04-25T15:07:24.734Z</time></trkpt><trkpt lat="45.526006" lon="10.5038151"><ele>193.5</ele><time>2026-04-25T15:07:26.734Z</time></trkpt><trkpt lat="45.5258953" lon="10.5037327"><ele>193.25</ele><time>2026-04-25T15:07:28.733Z</time></trkpt><trkpt lat="45.5257953" lon="10.5036551"><ele>193.0</ele><time>2026-04-25T15:07:30.734Z</time></trkpt><trkpt lat="45.5257067" lon="10.5035937"><ele>192.99999999999997</ele><time>2026-04-25T15:07:32.735Z</time></trkpt><trkpt lat="45.5256445" lon="10.5035737"><ele>193.0</ele><time>2026-04-25T15:07:33.735Z</time></trkpt><trkpt lat="45.5255364" lon="10.5035209"><ele>193.0</ele><time>2026-04-25T15:07:35.735Z</time></trkpt><trkpt lat="45.5254325" lon="10.5034961"><ele>193.0</ele><time>2026-04-25T15:07:37.733Z</time></trkpt><trkpt lat="45.5253652" lon="10.5035036"><ele>192.99999999999997</ele><time>2026-04-25T15:07:39.734Z</time></trkpt><trkpt lat="45.5252899" lon="10.5035687"><ele>193.0</ele><time>2026-04-25T15:07:41.735Z</time></trkpt><trkpt lat="45.5252298" lon="10.5036488"><ele>193.0</ele><time>2026-04-25T15:07:43.734Z</time></trkpt><trkpt lat="45.5251382" lon="10.5037284"><ele>193.0</ele><time>2026-04-25T15:07:45.734Z</time></trkpt><trkpt lat="45.5250317" lon="10.5037976"><ele>193.0</ele><time>2026-04-25T15:07:47.734Z</time></trkpt><trkpt lat="45.5249278" lon="10.5038218"><ele>193.0</ele><time>2026-04-25T15:07:49.735Z</time></trkpt><trkpt lat="45.5248622" lon="10.5038399"><ele>193.0</ele><time>2026-04-25T15:07:50.734Z</time></trkpt><trkpt lat="45.5247409" lon="10.5038485"><ele>194.66666666666666</ele><time>2026-04-25T15:07:52.735Z</time></trkpt><trkpt lat="45.5246718" lon="10.5038556"><ele>196.33333333333331</ele><time>2026-04-25T15:07:53.734Z</time></trkpt><trkpt lat="45.5245455" lon="10.5038677"><ele>198.0</ele><time>2026-04-25T15:07:55.735Z</time></trkpt><trkpt lat="45.5244752" lon="10.5038682"><ele>199.66666666666669</ele><time>2026-04-25T15:07:56.735Z</time></trkpt><trkpt lat="45.5244026" lon="10.5038707"><ele>201.33333333333334</ele><time>2026-04-25T15:07:57.735Z</time></trkpt><trkpt lat="45.5243334" lon="10.5038577"><ele>203.0</ele><time>2026-04-25T15:07:58.735Z</time></trkpt><trkpt lat="45.5242417" lon="10.5038341"><ele>203.00000000000003</ele><time>2026-04-25T15:08:00.734Z</time></trkpt><trkpt lat="45.5241239" lon="10.5038089"><ele>203.0</ele><time>2026-04-25T15:08:02.734Z</time></trkpt><trkpt lat="45.5240323" lon="10.5038352"><ele>203.0</ele><time>2026-04-25T15:08:04.734Z</time></trkpt><trkpt lat="45.5239671" lon="10.5038558"><ele>203.0</ele><time>2026-04-25T15:08:05.734Z</time></trkpt><trkpt lat="45.5239043" lon="10.503868"><ele>203.00000000000003</ele><time>2026-04-25T15:08:06.734Z</time></trkpt><trkpt lat="45.5238262" lon="10.5038723"><ele>203.0</ele><time>2026-04-25T15:08:07.735Z</time></trkpt><trkpt lat="45.5237633" lon="10.5038554"><ele>201.66666666666669</ele><time>2026-04-25T15:08:08.735Z</time></trkpt><trkpt lat="45.5236808" lon="10.5037455"><ele>200.33333333333334</ele><time>2026-04-25T15:08:10.735Z</time></trkpt><trkpt lat="45.5236522" lon="10.5036486"><ele>199.0</ele><time>2026-04-25T15:08:11.735Z</time></trkpt><trkpt lat="45.5236269" lon="10.5035085"><ele>197.66666666666669</ele><time>2026-04-25T15:08:13.735Z</time></trkpt><trkpt lat="45.5236102" lon="10.5034133"><ele>196.33333333333334</ele><time>2026-04-25T15:08:14.733Z</time></trkpt><trkpt lat="45.5235915" lon="10.5033209"><ele>195.0</ele><time>2026-04-25T15:08:15.734Z</time></trkpt><trkpt lat="45.5235774" lon="10.5032313"><ele>195.0</ele><time>2026-04-25T15:08:16.734Z</time></trkpt><trkpt lat="45.523551" lon="10.5030811"><ele>195.0</ele><time>2026-04-25T15:08:18.733Z</time></trkpt><trkpt lat="45.5235396" lon="10.5029911"><ele>195.0</ele><time>2026-04-25T15:08:19.735Z</time></trkpt><trkpt lat="45.5235001" lon="10.5028285"><ele>195.0</ele><time>2026-04-25T15:08:21.735Z</time></trkpt><trkpt lat="45.5234583" lon="10.5026699"><ele>195.0</ele><time>2026-04-25T15:08:23.735Z</time></trkpt><trkpt lat="45.5234131" lon="10.502506"><ele>195.0</ele><time>2026-04-25T15:08:25.735Z</time></trkpt><trkpt lat="45.5233232" lon="10.5024014"><ele>195.0</ele><time>2026-04-25T15:08:27.734Z</time></trkpt><trkpt lat="45.5232505" lon="10.5023304"><ele>195.0</ele><time>2026-04-25T15:08:29.735Z</time></trkpt><trkpt lat="45.5231442" lon="10.5022944"><ele>195.0</ele><time>2026-04-25T15:08:31.735Z</time></trkpt><trkpt lat="45.5230403" lon="10.5022948"><ele>195.0</ele><time>2026-04-25T15:08:33.735Z</time></trkpt><trkpt lat="45.5229538" lon="10.5022883"><ele>197.4</ele><time>2026-04-25T15:08:35.734Z</time></trkpt><trkpt lat="45.5228519" lon="10.5022797"><ele>199.8</ele><time>2026-04-25T15:08:37.734Z</time></trkpt><trkpt lat="45.5227592" lon="10.5022458"><ele>202.2</ele><time>2026-04-25T15:08:39.735Z</time></trkpt><trkpt lat="45.5226579" lon="10.5022062"><ele>204.6</ele><time>2026-04-25T15:08:41.734Z</time></trkpt><trkpt lat="45.5225601" lon="10.5021787"><ele>207.0</ele><time>2026-04-25T15:08:43.734Z</time></trkpt><trkpt lat="45.5224735" lon="10.5021368"><ele>207.0</ele><time>2026-04-25T15:08:45.735Z</time></trkpt><trkpt lat="45.5223879" lon="10.5020878"><ele>207.0</ele><time>2026-04-25T15:08:47.735Z</time></trkpt><trkpt lat="45.5223327" lon="10.5020089"><ele>207.0</ele><time>2026-04-25T15:08:49.733Z</time></trkpt><trkpt lat="45.5222834" lon="10.501939"><ele>207.0</ele><time>2026-04-25T15:08:50.735Z</time></trkpt><trkpt lat="45.5222419" lon="10.5018704"><ele>207.0</ele><time>2026-04-25T15:08:51.734Z</time></trkpt><trkpt lat="45.5221618" lon="10.5017366"><ele>207.0</ele><time>2026-04-25T15:08:53.734Z</time></trkpt><trkpt lat="45.5221219" lon="10.50166"><ele>205.16666666666666</ele><time>2026-04-25T15:08:54.735Z</time></trkpt><trkpt lat="45.5220818" lon="10.5015691"><ele>203.33333333333331</ele><time>2026-04-25T15:08:55.733Z</time></trkpt><trkpt lat="45.5220447" lon="10.5014732"><ele>201.5</ele><time>2026-04-25T15:08:56.735Z</time></trkpt><trkpt lat="45.5220091" lon="10.5013755"><ele>199.66666666666666</ele><time>2026-04-25T15:08:57.733Z</time></trkpt><trkpt lat="45.5219644" lon="10.5012939"><ele>197.83333333333331</ele><time>2026-04-25T15:08:58.733Z</time></trkpt><trkpt lat="45.5219118" lon="10.5012054"><ele>196.0</ele><time>2026-04-25T15:08:59.733Z</time></trkpt><trkpt lat="45.5218757" lon="10.5010247"><ele>196.75</ele><time>2026-04-25T15:09:01.734Z</time></trkpt><trkpt lat="45.5218763" lon="10.5008444"><ele>197.5</ele><time>2026-04-25T15:09:03.734Z</time></trkpt><trkpt lat="45.5218598" lon="10.5006435"><ele>198.25</ele><time>2026-04-25T15:09:05.735Z</time></trkpt><trkpt lat="45.5218315" lon="10.5005136"><ele>199.0</ele><time>2026-04-25T15:09:07.734Z</time></trkpt><trkpt lat="45.5218064" lon="10.5003729"><ele>198.99999999999997</ele><time>2026-04-25T15:09:09.734Z</time></trkpt><trkpt lat="45.521779" lon="10.5002331"><ele>199.0</ele><time>2026-04-25T15:09:11.735Z</time></trkpt><trkpt lat="45.5217408" lon="10.5001403"><ele>199.0</ele><time>2026-04-25T15:09:13.734Z</time></trkpt><trkpt lat="45.5217005" lon="10.5000437"><ele>199.0</ele><time>2026-04-25T15:09:15.734Z</time></trkpt><trkpt lat="45.5216534" lon="10.4999774"><ele>198.99999999999997</ele><time>2026-04-25T15:09:17.734Z</time></trkpt><trkpt lat="45.5216115" lon="10.4998899"><ele>199.0</ele><time>2026-04-25T15:09:19.734Z</time></trkpt><trkpt lat="45.5215654" lon="10.4997332"><ele>199.0</ele><time>2026-04-25T15:09:21.735Z</time></trkpt><trkpt lat="45.5215429" lon="10.4996314"><ele>199.0</ele><time>2026-04-25T15:09:22.735Z</time></trkpt><trkpt lat="45.521506" lon="10.4994583"><ele>199.0</ele><time>2026-04-25T15:09:24.733Z</time></trkpt><trkpt lat="45.5214787" lon="10.4992663"><ele>199.0</ele><time>2026-04-25T15:09:26.735Z</time></trkpt><trkpt lat="45.5214404" lon="10.4990769"><ele>198.49999999999997</ele><time>2026-04-25T15:09:28.734Z</time></trkpt><trkpt lat="45.5213937" lon="10.4989653"><ele>198.0</ele><time>2026-04-25T15:09:29.734Z</time></trkpt><trkpt lat="45.5213393" lon="10.4988752"><ele>197.5</ele><time>2026-04-25T15:09:30.735Z</time></trkpt><trkpt lat="45.5213018" lon="10.4987661"><ele>197.0</ele><time>2026-04-25T15:09:31.735Z</time></trkpt><trkpt lat="45.5212567" lon="10.4986649"><ele>196.49999999999997</ele><time>2026-04-25T15:09:32.734Z</time></trkpt><trkpt lat="45.5212083" lon="10.4985696"><ele>196.0</ele><time>2026-04-25T15:09:33.734Z</time></trkpt><trkpt lat="45.5211563" lon="10.4984865"><ele>195.99999999999997</ele><time>2026-04-25T15:09:34.734Z</time></trkpt><trkpt lat="45.5211056" lon="10.4984068"><ele>196.0</ele><time>2026-04-25T15:09:35.734Z</time></trkpt><trkpt lat="45.5210553" lon="10.4983331"><ele>196.0</ele><time>2026-04-25T15:09:36.735Z</time></trkpt><trkpt lat="45.5210021" lon="10.4982749"><ele>196.0</ele><time>2026-04-25T15:09:37.734Z</time></trkpt><trkpt lat="45.5209392" lon="10.498234"><ele>195.99999999999997</ele><time>2026-04-25T15:09:38.735Z</time></trkpt><trkpt lat="45.5208402" lon="10.4981817"><ele>196.0</ele><time>2026-04-25T15:09:40.734Z</time></trkpt><trkpt lat="45.5207658" lon="10.4981396"><ele>195.99999999999997</ele><time>2026-04-25T15:09:41.733Z</time></trkpt><trkpt lat="45.5207018" lon="10.4981714"><ele>196.0</ele><time>2026-04-25T15:09:42.734Z</time></trkpt><trkpt lat="45.5206444" lon="10.4982115"><ele>196.0</ele><time>2026-04-25T15:09:43.734Z</time></trkpt><trkpt lat="45.5205632" lon="10.4982939"><ele>196.0</ele><time>2026-04-25T15:09:45.735Z</time></trkpt><trkpt lat="45.5204655" lon="10.4982681"><ele>195.99999999999997</ele><time>2026-04-25T15:09:47.735Z</time></trkpt><trkpt lat="45.5203608" lon="10.4982202"><ele>196.0</ele><time>2026-04-25T15:09:49.734Z</time></trkpt><trkpt lat="45.5202579" lon="10.4981656"><ele>194.8</ele><time>2026-04-25T15:09:51.735Z</time></trkpt><trkpt lat="45.5201387" lon="10.4981193"><ele>193.60000000000002</ele><time>2026-04-25T15:09:53.735Z</time></trkpt><trkpt lat="45.5200343" lon="10.4980559"><ele>192.4</ele><time>2026-04-25T15:09:55.733Z</time></trkpt><trkpt lat="45.5199781" lon="10.4980061"><ele>191.2</ele><time>2026-04-25T15:09:56.734Z</time></trkpt><trkpt lat="45.5198738" lon="10.4979103"><ele>190.0</ele><time>2026-04-25T15:09:58.734Z</time></trkpt><trkpt lat="45.5198183" lon="10.4978533"><ele>191.0</ele><time>2026-04-25T15:09:59.735Z</time></trkpt><trkpt lat="45.5197188" lon="10.4977585"><ele>192.0</ele><time>2026-04-25T15:10:01.734Z</time></trkpt><trkpt lat="45.5196255" lon="10.4976534"><ele>193.0</ele><time>2026-04-25T15:10:03.734Z</time></trkpt><trkpt lat="45.5195391" lon="10.4975599"><ele>194.0</ele><time>2026-04-25T15:10:05.735Z</time></trkpt><trkpt lat="45.519462" lon="10.4974885"><ele>195.0</ele><time>2026-04-25T15:10:07.733Z</time></trkpt><trkpt lat="45.5194084" lon="10.4974412"><ele>195.0</ele><time>2026-04-25T15:10:09.733Z</time></trkpt><trkpt lat="45.5193736" lon="10.4973444"><ele>195.0</ele><time>2026-04-25T15:10:13.734Z</time></trkpt><trkpt lat="45.5193914" lon="10.4972246"><ele>195.0</ele><time>2026-04-25T15:10:16.734Z</time></trkpt><trkpt lat="45.5194011" lon="10.4970977"><ele>195.0</ele><time>2026-04-25T15:10:19.735Z</time></trkpt><trkpt lat="45.5194024" lon="10.4969995"><ele>195.0</ele><time>2026-04-25T15:10:22.735Z</time></trkpt><trkpt lat="45.5194061" lon="10.4968848"><ele>195.0</ele><time>2026-04-25T15:10:25.734Z</time></trkpt><trkpt lat="45.5194145" lon="10.4967933"><ele>195.5</ele><time>2026-04-25T15:10:27.735Z</time></trkpt><trkpt lat="45.519424" lon="10.4966811"><ele>196.0</ele><time>2026-04-25T15:10:30.734Z</time></trkpt><trkpt lat="45.5194286" lon="10.496545"><ele>196.5</ele><time>2026-04-25T15:10:33.734Z</time></trkpt><trkpt lat="45.5194326" lon="10.4964438"><ele>197.0</ele><time>2026-04-25T15:10:35.734Z</time></trkpt><trkpt lat="45.5194396" lon="10.4963461"><ele>197.5</ele><time>2026-04-25T15:10:37.734Z</time></trkpt><trkpt lat="45.5194506" lon="10.4962452"><ele>198.0</ele><time>2026-04-25T15:10:39.735Z</time></trkpt><trkpt lat="45.5194639" lon="10.4961429"><ele>198.16666666666666</ele><time>2026-04-25T15:10:41.735Z</time></trkpt><trkpt lat="45.5194731" lon="10.4960329"><ele>198.33333333333331</ele><time>2026-04-25T15:10:43.734Z</time></trkpt><trkpt lat="45.519473" lon="10.4959015"><ele>198.5</ele><time>2026-04-25T15:10:46.735Z</time></trkpt><trkpt lat="45.5194757" lon="10.4957965"><ele>198.66666666666666</ele><time>2026-04-25T15:10:48.733Z</time></trkpt><trkpt lat="45.5194735" lon="10.4956798"><ele>198.83333333333331</ele><time>2026-04-25T15:10:50.734Z</time></trkpt><trkpt lat="45.5194678" lon="10.495562"><ele>199.0</ele><time>2026-04-25T15:10:52.734Z</time></trkpt><trkpt lat="45.5194481" lon="10.4954231"><ele>199.39999999999998</ele><time>2026-04-25T15:10:54.734Z</time></trkpt><trkpt lat="45.5194227" lon="10.4952806"><ele>199.8</ele><time>2026-04-25T15:10:56.735Z</time></trkpt><trkpt lat="45.5193963" lon="10.4951486"><ele>200.2</ele><time>2026-04-25T15:10:58.734Z</time></trkpt><trkpt lat="45.5193675" lon="10.4950056"><ele>200.60000000000002</ele><time>2026-04-25T15:11:00.734Z</time></trkpt><trkpt lat="45.5193334" lon="10.4948621"><ele>201.0</ele><time>2026-04-25T15:11:02.733Z</time></trkpt><trkpt lat="45.5193057" lon="10.494712"><ele>201.75</ele><time>2026-04-25T15:11:04.735Z</time></trkpt><trkpt lat="45.5192846" lon="10.4945531"><ele>202.5</ele><time>2026-04-25T15:11:06.734Z</time></trkpt><trkpt lat="45.5192585" lon="10.4943916"><ele>203.25</ele><time>2026-04-25T15:11:08.734Z</time></trkpt><trkpt lat="45.5192285" lon="10.4942356"><ele>204.0</ele><time>2026-04-25T15:11:10.734Z</time></trkpt><trkpt lat="45.5191909" lon="10.4940824"><ele>204.0</ele><time>2026-04-25T15:11:12.735Z</time></trkpt><trkpt lat="45.5191485" lon="10.4939377"><ele>204.0</ele><time>2026-04-25T15:11:14.735Z</time></trkpt><trkpt lat="45.5190996" lon="10.4938075"><ele>204.0</ele><time>2026-04-25T15:11:16.735Z</time></trkpt><trkpt lat="45.519029" lon="10.4936974"><ele>204.0</ele><time>2026-04-25T15:11:18.735Z</time></trkpt><trkpt lat="45.5189561" lon="10.4936266"><ele>204.0</ele><time>2026-04-25T15:11:20.734Z</time></trkpt><trkpt lat="45.5188855" lon="10.4935772"><ele>204.5</ele><time>2026-04-25T15:11:22.735Z</time></trkpt><trkpt lat="45.5188174" lon="10.4935494"><ele>205.0</ele><time>2026-04-25T15:11:24.734Z</time></trkpt><trkpt lat="45.5187521" lon="10.4935369"><ele>205.5</ele><time>2026-04-25T15:11:26.734Z</time></trkpt><trkpt lat="45.5186861" lon="10.4935323"><ele>206.0</ele><time>2026-04-25T15:11:28.735Z</time></trkpt><trkpt lat="45.5186073" lon="10.493546"><ele>206.5</ele><time>2026-04-25T15:11:30.734Z</time></trkpt><trkpt lat="45.5185099" lon="10.4935812"><ele>207.0</ele><time>2026-04-25T15:11:32.735Z</time></trkpt><trkpt lat="45.5184109" lon="10.4936236"><ele>207.0</ele><time>2026-04-25T15:11:34.733Z</time></trkpt><trkpt lat="45.5182992" lon="10.4936629"><ele>207.0</ele><time>2026-04-25T15:11:36.735Z</time></trkpt><trkpt lat="45.5181784" lon="10.4937044"><ele>207.0</ele><time>2026-04-25T15:11:38.733Z</time></trkpt><trkpt lat="45.5180609" lon="10.4937484"><ele>207.0</ele><time>2026-04-25T15:11:40.734Z</time></trkpt><trkpt lat="45.5179544" lon="10.4937943"><ele>207.39999999999998</ele><time>2026-04-25T15:11:42.733Z</time></trkpt><trkpt lat="45.5178558" lon="10.4938337"><ele>207.79999999999998</ele><time>2026-04-25T15:11:44.735Z</time></trkpt><trkpt lat="45.5177615" lon="10.4938662"><ele>208.2</ele><time>2026-04-25T15:11:46.735Z</time></trkpt><trkpt lat="45.5176736" lon="10.4938821"><ele>208.6</ele><time>2026-04-25T15:11:48.735Z</time></trkpt><trkpt lat="45.5175901" lon="10.4938649"><ele>209.0</ele><time>2026-04-25T15:11:50.734Z</time></trkpt><trkpt lat="45.5175167" lon="10.4937985"><ele>209.16666666666669</ele><time>2026-04-25T15:11:52.734Z</time></trkpt><trkpt lat="45.5174696" lon="10.4936946"><ele>209.33333333333334</ele><time>2026-04-25T15:11:54.734Z</time></trkpt><trkpt lat="45.5174365" lon="10.4935826"><ele>209.5</ele><time>2026-04-25T15:11:56.733Z</time></trkpt><trkpt lat="45.5174173" lon="10.4934571"><ele>209.66666666666669</ele><time>2026-04-25T15:11:58.733Z</time></trkpt><trkpt lat="45.5174102" lon="10.4933348"><ele>209.83333333333334</ele><time>2026-04-25T15:12:00.734Z</time></trkpt><trkpt lat="45.5174037" lon="10.4932217"><ele>210.0</ele><time>2026-04-25T15:12:02.734Z</time></trkpt><trkpt lat="45.5173888" lon="10.4931182"><ele>210.0</ele><time>2026-04-25T15:12:04.734Z</time></trkpt><trkpt lat="45.5173634" lon="10.4930113"><ele>210.0</ele><time>2026-04-25T15:12:06.735Z</time></trkpt><trkpt lat="45.5173271" lon="10.4929075"><ele>210.0</ele><time>2026-04-25T15:12:08.734Z</time></trkpt><trkpt lat="45.5172803" lon="10.4928058"><ele>210.0</ele><time>2026-04-25T15:12:10.735Z</time></trkpt><trkpt lat="45.5172254" lon="10.492697"><ele>210.0</ele><time>2026-04-25T15:12:12.735Z</time></trkpt><trkpt lat="45.5171505" lon="10.4925832"><ele>210.0</ele><time>2026-04-25T15:12:14.733Z</time></trkpt><trkpt lat="45.5170757" lon="10.4924595"><ele>210.0</ele><time>2026-04-25T15:12:16.735Z</time></trkpt><trkpt lat="45.5170302" lon="10.4923917"><ele>210.0</ele><time>2026-04-25T15:12:17.734Z</time></trkpt><trkpt lat="45.5169871" lon="10.4923255"><ele>210.0</ele><time>2026-04-25T15:12:18.734Z</time></trkpt><trkpt lat="45.5169456" lon="10.4922562"><ele>210.0</ele><time>2026-04-25T15:12:19.733Z</time></trkpt><trkpt lat="45.5168682" lon="10.4921341"><ele>210.0</ele><time>2026-04-25T15:12:21.735Z</time></trkpt><trkpt lat="45.5167929" lon="10.4920187"><ele>210.0</ele><time>2026-04-25T15:12:23.735Z</time></trkpt><trkpt lat="45.5167263" lon="10.491901"><ele>210.0</ele><time>2026-04-25T15:12:25.735Z</time></trkpt><trkpt lat="45.5166486" lon="10.4917786"><ele>210.0</ele><time>2026-04-25T15:12:27.734Z</time></trkpt><trkpt lat="45.5165768" lon="10.4916593"><ele>210.0</ele><time>2026-04-25T15:12:29.734Z</time></trkpt><trkpt lat="45.5165076" lon="10.491544"><ele>210.0</ele><time>2026-04-25T15:12:31.735Z</time></trkpt><trkpt lat="45.5164256" lon="10.4914812"><ele>210.0</ele><time>2026-04-25T15:12:33.735Z</time></trkpt><trkpt lat="45.5163409" lon="10.4914982"><ele>210.0</ele><time>2026-04-25T15:12:35.734Z</time></trkpt><trkpt lat="45.5162772" lon="10.4915484"><ele>210.0</ele><time>2026-04-25T15:13:54.733Z</time></trkpt><trkpt lat="45.5162011" lon="10.4915924"><ele>210.0</ele><time>2026-04-25T15:13:57.735Z</time></trkpt><trkpt lat="45.5161369" lon="10.4916325"><ele>210.0</ele><time>2026-04-25T15:13:59.734Z</time></trkpt><trkpt lat="45.5160669" lon="10.4916759"><ele>210.0</ele><time>2026-04-25T15:14:01.734Z</time></trkpt><trkpt lat="45.5159983" lon="10.4917168"><ele>210.0</ele><time>2026-04-25T15:14:03.734Z</time></trkpt><trkpt lat="45.5159384" lon="10.4917556"><ele>210.0</ele><time>2026-04-25T15:14:05.734Z</time></trkpt><trkpt lat="45.5158646" lon="10.4918087"><ele>210.5</ele><time>2026-04-25T15:14:08.734Z</time></trkpt><trkpt lat="45.5157851" lon="10.4918706"><ele>211.0</ele><time>2026-04-25T15:14:11.735Z</time></trkpt><trkpt lat="45.5157076" lon="10.4919332"><ele>211.5</ele><time>2026-04-25T15:14:14.735Z</time></trkpt><trkpt lat="45.5156539" lon="10.4919863"><ele>212.0</ele><time>2026-04-25T15:14:16.734Z</time></trkpt><trkpt lat="45.5155923" lon="10.4920588"><ele>212.5</ele><time>2026-04-25T15:14:19.733Z</time></trkpt><trkpt lat="45.5155447" lon="10.492157"><ele>213.0</ele><time>2026-04-25T15:14:23.734Z</time></trkpt><trkpt lat="45.5154834" lon="10.4922432"><ele>214.0</ele><time>2026-04-25T15:14:26.734Z</time></trkpt><trkpt lat="45.5154399" lon="10.4923371"><ele>215.0</ele><time>2026-04-25T15:14:29.733Z</time></trkpt><trkpt lat="45.5153986" lon="10.4924379"><ele>216.0</ele><time>2026-04-25T15:14:32.733Z</time></trkpt><trkpt lat="45.5153592" lon="10.492533"><ele>217.0</ele><time>2026-04-25T15:14:35.733Z</time></trkpt><trkpt lat="45.515326" lon="10.4926169"><ele>218.0</ele><time>2026-04-25T15:14:37.734Z</time></trkpt><trkpt lat="45.5152865" lon="10.4926896"><ele>219.0</ele><time>2026-04-25T15:14:39.734Z</time></trkpt><trkpt lat="45.5152141" lon="10.4927759"><ele>219.5</ele><time>2026-04-25T15:14:42.734Z</time></trkpt><trkpt lat="45.5151507" lon="10.4928027"><ele>220.0</ele><time>2026-04-25T15:14:44.734Z</time></trkpt><trkpt lat="45.5150834" lon="10.4928221"><ele>220.5</ele><time>2026-04-25T15:14:46.734Z</time></trkpt><trkpt lat="45.5149959" lon="10.4928341"><ele>221.0</ele><time>2026-04-25T15:14:48.734Z</time></trkpt><trkpt lat="45.5149137" lon="10.4928525"><ele>221.5</ele><time>2026-04-25T15:14:50.735Z</time></trkpt><trkpt lat="45.5148242" lon="10.4929094"><ele>222.0</ele><time>2026-04-25T15:14:51.734Z</time></trkpt><trkpt lat="45.5147573" lon="10.4930069"><ele>222.39999999999998</ele><time>2026-04-25T15:14:53.734Z</time></trkpt><trkpt lat="45.5147028" lon="10.4931265"><ele>222.79999999999998</ele><time>2026-04-25T15:14:55.735Z</time></trkpt><trkpt lat="45.5146293" lon="10.4932529"><ele>223.2</ele><time>2026-04-25T15:14:57.735Z</time></trkpt><trkpt lat="45.514552" lon="10.4933879"><ele>223.6</ele><time>2026-04-25T15:14:59.733Z</time></trkpt><trkpt lat="45.5145093" lon="10.4934553"><ele>224.0</ele><time>2026-04-25T15:15:00.733Z</time></trkpt><trkpt lat="45.5144343" lon="10.4935765"><ele>223.0</ele><time>2026-04-25T15:15:02.733Z</time></trkpt><trkpt lat="45.5143699" lon="10.4937215"><ele>222.0</ele><time>2026-04-25T15:15:04.735Z</time></trkpt><trkpt lat="45.5143066" lon="10.4938729"><ele>221.0</ele><time>2026-04-25T15:15:06.735Z</time></trkpt><trkpt lat="45.5142406" lon="10.4940301"><ele>220.0</ele><time>2026-04-25T15:15:08.733Z</time></trkpt><trkpt lat="45.514189" lon="10.4941295"><ele>220.0</ele><time>2026-04-25T15:15:10.735Z</time></trkpt><trkpt lat="45.5141189" lon="10.4942719"><ele>220.0</ele><time>2026-04-25T15:15:12.735Z</time></trkpt><trkpt lat="45.5140501" lon="10.4943976"><ele>220.0</ele><time>2026-04-25T15:15:14.735Z</time></trkpt><trkpt lat="45.5139753" lon="10.4945273"><ele>220.0</ele><time>2026-04-25T15:15:16.734Z</time></trkpt><trkpt lat="45.513923" lon="10.4946067"><ele>220.0</ele><time>2026-04-25T15:15:17.734Z</time></trkpt><trkpt lat="45.5138815" lon="10.4946754"><ele>220.2</ele><time>2026-04-25T15:15:18.735Z</time></trkpt><trkpt lat="45.5138308" lon="10.4947376"><ele>220.4</ele><time>2026-04-25T15:15:19.734Z</time></trkpt><trkpt lat="45.5137352" lon="10.494835"><ele>220.60000000000002</ele><time>2026-04-25T15:15:21.735Z</time></trkpt><trkpt lat="45.5136369" lon="10.4949219"><ele>220.8</ele><time>2026-04-25T15:15:23.733Z</time></trkpt><trkpt lat="45.5135424" lon="10.4950011"><ele>221.0</ele><time>2026-04-25T15:15:25.735Z</time></trkpt><trkpt lat="45.5134647" lon="10.4950915"><ele>219.8</ele><time>2026-04-25T15:15:27.735Z</time></trkpt><trkpt lat="45.5133829" lon="10.4952042"><ele>218.60000000000002</ele><time>2026-04-25T15:15:29.734Z</time></trkpt><trkpt lat="45.5133229" lon="10.4953027"><ele>217.4</ele><time>2026-04-25T15:15:31.733Z</time></trkpt><trkpt lat="45.5132438" lon="10.4953935"><ele>216.2</ele><time>2026-04-25T15:15:33.735Z</time></trkpt><trkpt lat="45.5131457" lon="10.4954724"><ele>215.0</ele><time>2026-04-25T15:15:35.735Z</time></trkpt><trkpt lat="45.5130846" lon="10.4955086"><ele>214.85714285714286</ele><time>2026-04-25T15:15:36.735Z</time></trkpt><trkpt lat="45.5130144" lon="10.4955413"><ele>214.71428571428572</ele><time>2026-04-25T15:15:37.735Z</time></trkpt><trkpt lat="45.5129449" lon="10.4955789"><ele>214.57142857142858</ele><time>2026-04-25T15:15:38.734Z</time></trkpt><trkpt lat="45.5128814" lon="10.4956182"><ele>214.42857142857144</ele><time>2026-04-25T15:15:39.735Z</time></trkpt><trkpt lat="45.5128109" lon="10.4956668"><ele>214.28571428571428</ele><time>2026-04-25T15:15:40.734Z</time></trkpt><trkpt lat="45.5127435" lon="10.4957072"><ele>214.14285714285717</ele><time>2026-04-25T15:15:41.734Z</time></trkpt><trkpt lat="45.5126998" lon="10.4957831"><ele>214.0</ele><time>2026-04-25T15:15:42.734Z</time></trkpt><trkpt lat="45.5126708" lon="10.4958787"><ele>213.42857142857144</ele><time>2026-04-25T15:15:43.734Z</time></trkpt><trkpt lat="45.5126482" lon="10.4959734"><ele>212.85714285714286</ele><time>2026-04-25T15:15:44.735Z</time></trkpt><trkpt lat="45.5126183" lon="10.4960615"><ele>212.28571428571428</ele><time>2026-04-25T15:15:45.734Z</time></trkpt><trkpt lat="45.5125848" lon="10.4961512"><ele>211.71428571428572</ele><time>2026-04-25T15:15:46.735Z</time></trkpt><trkpt lat="45.5125442" lon="10.4962451"><ele>211.14285714285714</ele><time>2026-04-25T15:15:47.734Z</time></trkpt><trkpt lat="45.5124943" lon="10.4963197"><ele>210.57142857142858</ele><time>2026-04-25T15:15:48.735Z</time></trkpt><trkpt lat="45.5124288" lon="10.4963439"><ele>210.0</ele><time>2026-04-25T15:15:49.734Z</time></trkpt><trkpt lat="45.5123658" lon="10.496384"><ele>210.0</ele><time>2026-04-25T15:15:50.735Z</time></trkpt><trkpt lat="45.5123002" lon="10.4964159"><ele>210.0</ele><time>2026-04-25T15:15:51.735Z</time></trkpt><trkpt lat="45.5121548" lon="10.4964455"><ele>210.0</ele><time>2026-04-25T15:15:53.734Z</time></trkpt><trkpt lat="45.5120642" lon="10.4964227"><ele>210.0</ele><time>2026-04-25T15:15:54.735Z</time></trkpt><trkpt lat="45.5119616" lon="10.4964199"><ele>210.0</ele><time>2026-04-25T15:15:55.734Z</time></trkpt><trkpt lat="45.5118574" lon="10.4964082"><ele>209.33333333333334</ele><time>2026-04-25T15:15:56.735Z</time></trkpt><trkpt lat="45.5117568" lon="10.49641"><ele>208.66666666666669</ele><time>2026-04-25T15:15:57.735Z</time></trkpt><trkpt lat="45.5116647" lon="10.4964126"><ele>208.0</ele><time>2026-04-25T15:15:58.735Z</time></trkpt><trkpt lat="45.5115829" lon="10.4964402"><ele>207.33333333333334</ele><time>2026-04-25T15:15:59.734Z</time></trkpt><trkpt lat="45.5114987" lon="10.4964726"><ele>206.66666666666669</ele><time>2026-04-25T15:16:00.735Z</time></trkpt><trkpt lat="45.5114234" lon="10.4965299"><ele>206.0</ele><time>2026-04-25T15:16:01.735Z</time></trkpt><trkpt lat="45.5113493" lon="10.4965927"><ele>206.00000000000003</ele><time>2026-04-25T15:16:02.734Z</time></trkpt><trkpt lat="45.5112845" lon="10.4966704"><ele>206.0</ele><time>2026-04-25T15:16:03.734Z</time></trkpt><trkpt lat="45.5112152" lon="10.4967301"><ele>206.0</ele><time>2026-04-25T15:16:04.735Z</time></trkpt><trkpt lat="45.5111616" lon="10.4967887"><ele>206.0</ele><time>2026-04-25T15:16:05.735Z</time></trkpt><trkpt lat="45.5110936" lon="10.4968459"><ele>206.00000000000003</ele><time>2026-04-25T15:16:06.734Z</time></trkpt><trkpt lat="45.5109773" lon="10.496933"><ele>206.0</ele><time>2026-04-25T15:16:08.733Z</time></trkpt><trkpt lat="45.5108544" lon="10.496964"><ele>205.66666666666669</ele><time>2026-04-25T15:16:10.735Z</time></trkpt><trkpt lat="45.5107902" lon="10.4969757"><ele>205.33333333333334</ele><time>2026-04-25T15:16:11.735Z</time></trkpt><trkpt lat="45.5107201" lon="10.4969873"><ele>205.0</ele><time>2026-04-25T15:16:12.734Z</time></trkpt><trkpt lat="45.5106572" lon="10.4969822"><ele>204.66666666666669</ele><time>2026-04-25T15:16:13.733Z</time></trkpt><trkpt lat="45.5105214" lon="10.4969784"><ele>204.33333333333334</ele><time>2026-04-25T15:16:15.735Z</time></trkpt><trkpt lat="45.5104486" lon="10.4969704"><ele>204.0</ele><time>2026-04-25T15:16:16.735Z</time></trkpt><trkpt lat="45.5103791" lon="10.4969454"><ele>201.66666666666666</ele><time>2026-04-25T15:16:17.734Z</time></trkpt><trkpt lat="45.5103012" lon="10.4969018"><ele>199.33333333333334</ele><time>2026-04-25T15:16:18.734Z</time></trkpt><trkpt lat="45.5102272" lon="10.4968543"><ele>197.0</ele><time>2026-04-25T15:16:19.735Z</time></trkpt><trkpt lat="45.5101532" lon="10.4967874"><ele>194.66666666666669</ele><time>2026-04-25T15:16:20.735Z</time></trkpt><trkpt lat="45.5100832" lon="10.496727"><ele>192.33333333333334</ele><time>2026-04-25T15:16:21.735Z</time></trkpt><trkpt lat="45.5100136" lon="10.496657"><ele>190.0</ele><time>2026-04-25T15:16:22.735Z</time></trkpt><trkpt lat="45.5099371" lon="10.4965894"><ele>190.0</ele><time>2026-04-25T15:16:23.733Z</time></trkpt><trkpt lat="45.5098674" lon="10.4965237"><ele>190.0</ele><time>2026-04-25T15:16:24.734Z</time></trkpt><trkpt lat="45.5098016" lon="10.4964639"><ele>190.0</ele><time>2026-04-25T15:16:25.734Z</time></trkpt><trkpt lat="45.5097265" lon="10.4964435"><ele>190.0</ele><time>2026-04-25T15:16:26.733Z</time></trkpt><trkpt lat="45.5096535" lon="10.496419"><ele>190.0</ele><time>2026-04-25T15:16:27.734Z</time></trkpt><trkpt lat="45.5095088" lon="10.4964503"><ele>189.8</ele><time>2026-04-25T15:16:29.735Z</time></trkpt><trkpt lat="45.5094529" lon="10.4965125"><ele>189.6</ele><time>2026-04-25T15:16:30.735Z</time></trkpt><trkpt lat="45.5093662" lon="10.4965927"><ele>189.39999999999998</ele><time>2026-04-25T15:16:31.734Z</time></trkpt><trkpt lat="45.5092841" lon="10.4966739"><ele>189.2</ele><time>2026-04-25T15:16:32.734Z</time></trkpt><trkpt lat="45.5092056" lon="10.4967497"><ele>189.0</ele><time>2026-04-25T15:16:33.735Z</time></trkpt><trkpt lat="45.5091223" lon="10.4968291"><ele>189.0</ele><time>2026-04-25T15:16:34.735Z</time></trkpt><trkpt lat="45.5090358" lon="10.4969083"><ele>189.0</ele><time>2026-04-25T15:16:35.733Z</time></trkpt><trkpt lat="45.5089595" lon="10.4969743"><ele>189.0</ele><time>2026-04-25T15:16:36.734Z</time></trkpt><trkpt lat="45.5088872" lon="10.4970357"><ele>189.0</ele><time>2026-04-25T15:16:37.733Z</time></trkpt><trkpt lat="45.5088052" lon="10.497106"><ele>189.0</ele><time>2026-04-25T15:16:38.735Z</time></trkpt><trkpt lat="45.508708" lon="10.4971888"><ele>188.33333333333334</ele><time>2026-04-25T15:16:39.734Z</time></trkpt><trkpt lat="45.5086358" lon="10.4972384"><ele>187.66666666666666</ele><time>2026-04-25T15:16:40.735Z</time></trkpt><trkpt lat="45.5085525" lon="10.4972871"><ele>187.0</ele><time>2026-04-25T15:16:41.735Z</time></trkpt><trkpt lat="45.5084719" lon="10.497336"><ele>186.33333333333331</ele><time>2026-04-25T15:16:42.735Z</time></trkpt><trkpt lat="45.5083961" lon="10.497386"><ele>185.66666666666666</ele><time>2026-04-25T15:16:43.734Z</time></trkpt><trkpt lat="45.5083259" lon="10.4974498"><ele>185.0</ele><time>2026-04-25T15:16:44.734Z</time></trkpt><trkpt lat="45.5082696" lon="10.4975478"><ele>185.0</ele><time>2026-04-25T15:16:45.734Z</time></trkpt><trkpt lat="45.5082326" lon="10.4976242"><ele>185.0</ele><time>2026-04-25T15:16:46.734Z</time></trkpt><trkpt lat="45.5082014" lon="10.4977083"><ele>185.0</ele><time>2026-04-25T15:16:47.734Z</time></trkpt><trkpt lat="45.5081557" lon="10.497802"><ele>185.0</ele><time>2026-04-25T15:16:48.734Z</time></trkpt><trkpt lat="45.5081205" lon="10.4979639"><ele>185.0</ele><time>2026-04-25T15:16:50.735Z</time></trkpt><trkpt lat="45.508095" lon="10.4980478"><ele>185.0</ele><time>2026-04-25T15:16:51.734Z</time></trkpt><trkpt lat="45.5080717" lon="10.498166"><ele>185.4</ele><time>2026-04-25T15:16:52.735Z</time></trkpt><trkpt lat="45.5080425" lon="10.4982969"><ele>185.8</ele><time>2026-04-25T15:16:54.735Z</time></trkpt><trkpt lat="45.5079984" lon="10.4983922"><ele>186.2</ele><time>2026-04-25T15:16:56.734Z</time></trkpt><trkpt lat="45.5079284" lon="10.4984686"><ele>186.6</ele><time>2026-04-25T15:16:58.734Z</time></trkpt><trkpt lat="45.5078433" lon="10.4985564"><ele>187.0</ele><time>2026-04-25T15:17:00.734Z</time></trkpt><trkpt lat="45.5077481" lon="10.4986468"><ele>185.39999999999998</ele><time>2026-04-25T15:17:02.734Z</time></trkpt><trkpt lat="45.5076564" lon="10.4987538"><ele>183.79999999999998</ele><time>2026-04-25T15:17:04.735Z</time></trkpt><trkpt lat="45.5075666" lon="10.4988523"><ele>182.2</ele><time>2026-04-25T15:17:06.735Z</time></trkpt><trkpt lat="45.5074913" lon="10.4989205"><ele>180.6</ele><time>2026-04-25T15:17:08.734Z</time></trkpt><trkpt lat="45.50739" lon="10.49897"><ele>179.0</ele><time>2026-04-25T15:17:10.734Z</time></trkpt><trkpt lat="45.5072834" lon="10.4989882"><ele>179.0</ele><time>2026-04-25T15:17:12.735Z</time></trkpt><trkpt lat="45.5071687" lon="10.4989759"><ele>179.0</ele><time>2026-04-25T15:17:14.735Z</time></trkpt><trkpt lat="45.5070741" lon="10.4989678"><ele>179.0</ele><time>2026-04-25T15:17:16.733Z</time></trkpt><trkpt lat="45.5069792" lon="10.4989047"><ele>179.0</ele><time>2026-04-25T15:17:18.735Z</time></trkpt><trkpt lat="45.5068947" lon="10.498851"><ele>179.0</ele><time>2026-04-25T15:17:20.735Z</time></trkpt><trkpt lat="45.5068363" lon="10.4988144"><ele>181.6</ele><time>2026-04-25T15:17:21.734Z</time></trkpt><trkpt lat="45.5067324" lon="10.4987324"><ele>184.2</ele><time>2026-04-25T15:17:23.734Z</time></trkpt><trkpt lat="45.5066209" lon="10.498657"><ele>186.79999999999998</ele><time>2026-04-25T15:17:25.734Z</time></trkpt><trkpt lat="45.5065406" lon="10.4986177"><ele>189.39999999999998</ele><time>2026-04-25T15:17:26.734Z</time></trkpt><trkpt lat="45.5064848" lon="10.4985638"><ele>192.0</ele><time>2026-04-25T15:17:27.735Z</time></trkpt><trkpt lat="45.5064254" lon="10.4985256"><ele>192.0</ele><time>2026-04-25T15:17:28.734Z</time></trkpt><trkpt lat="45.5063332" lon="10.4984642"><ele>192.0</ele><time>2026-04-25T15:17:30.735Z</time></trkpt><trkpt lat="45.5062465" lon="10.4984072"><ele>192.0</ele><time>2026-04-25T15:17:32.733Z</time></trkpt><trkpt lat="45.5061688" lon="10.4983491"><ele>192.0</ele><time>2026-04-25T15:17:34.734Z</time></trkpt><trkpt lat="45.5060851" lon="10.4983243"><ele>192.0</ele><time>2026-04-25T15:17:36.735Z</time></trkpt><trkpt lat="45.5060153" lon="10.498286"><ele>192.0</ele><time>2026-04-25T15:17:38.735Z</time></trkpt><trkpt lat="45.5059465" lon="10.4982158"><ele>191.66666666666666</ele><time>2026-04-25T15:17:40.735Z</time></trkpt><trkpt lat="45.5058781" lon="10.4981532"><ele>191.33333333333334</ele><time>2026-04-25T15:17:42.733Z</time></trkpt><trkpt lat="45.5057901" lon="10.4980751"><ele>191.0</ele><time>2026-04-25T15:17:44.734Z</time></trkpt><trkpt lat="45.5057179" lon="10.4980316"><ele>190.66666666666669</ele><time>2026-04-25T15:17:46.735Z</time></trkpt><trkpt lat="45.5056676" lon="10.4979243"><ele>190.33333333333334</ele><time>2026-04-25T15:17:49.735Z</time></trkpt><trkpt lat="45.5056484" lon="10.4978349"><ele>190.0</ele><time>2026-04-25T15:17:53.734Z</time></trkpt><trkpt lat="45.505619" lon="10.4979363"><ele>190.0</ele><time>2026-04-25T15:17:59.735Z</time></trkpt><trkpt lat="45.5056361" lon="10.4980399"><ele>190.0</ele><time>2026-04-25T15:18:01.735Z</time></trkpt><trkpt lat="45.5055695" lon="10.498026"><ele>190.0</ele><time>2026-04-25T15:18:05.735Z</time></trkpt><trkpt lat="45.5055787" lon="10.4979081"><ele>190.0</ele><time>2026-04-25T15:18:08.734Z</time></trkpt><trkpt lat="45.5055581" lon="10.4977913"><ele>190.0</ele><time>2026-04-25T15:18:11.735Z</time></trkpt><trkpt lat="45.5055351" lon="10.4977065"><ele>190.0</ele><time>2026-04-25T15:18:13.734Z</time></trkpt><trkpt lat="45.5054918" lon="10.4975871"><ele>190.0</ele><time>2026-04-25T15:18:16.735Z</time></trkpt><trkpt lat="45.5054584" lon="10.4975066"><ele>190.0</ele><time>2026-04-25T15:18:18.733Z</time></trkpt><trkpt lat="45.5053946" lon="10.4974118"><ele>190.0</ele><time>2026-04-25T15:18:21.734Z</time></trkpt><trkpt lat="45.5053288" lon="10.4973254"><ele>190.0</ele><time>2026-04-25T15:18:24.734Z</time></trkpt><trkpt lat="45.5052758" lon="10.4972308"><ele>190.0</ele><time>2026-04-25T15:18:27.735Z</time></trkpt><trkpt lat="45.5052206" lon="10.4971402"><ele>190.0</ele><time>2026-04-25T15:18:30.734Z</time></trkpt><trkpt lat="45.5051636" lon="10.4970463"><ele>189.33333333333334</ele><time>2026-04-25T15:18:33.735Z</time></trkpt><trkpt lat="45.5051143" lon="10.4969421"><ele>188.66666666666669</ele><time>2026-04-25T15:18:36.733Z</time></trkpt><trkpt lat="45.5050794" lon="10.4968658"><ele>188.0</ele><time>2026-04-25T15:18:38.733Z</time></trkpt><trkpt lat="45.5050496" lon="10.4967859"><ele>187.33333333333334</ele><time>2026-04-25T15:18:40.733Z</time></trkpt><trkpt lat="45.5050173" lon="10.4966597"><ele>186.66666666666666</ele><time>2026-04-25T15:18:43.735Z</time></trkpt><trkpt lat="45.5049943" lon="10.4965757"><ele>186.0</ele><time>2026-04-25T15:18:45.734Z</time></trkpt><trkpt lat="45.5049623" lon="10.4964503"><ele>186.0</ele><time>2026-04-25T15:18:48.734Z</time></trkpt><trkpt lat="45.5049339" lon="10.4963259"><ele>186.0</ele><time>2026-04-25T15:18:51.733Z</time></trkpt><trkpt lat="45.5049031" lon="10.4962036"><ele>186.0</ele><time>2026-04-25T15:18:54.734Z</time></trkpt><trkpt lat="45.5048603" lon="10.4961003"><ele>186.0</ele><time>2026-04-25T15:18:57.735Z</time></trkpt><trkpt lat="45.5047765" lon="10.4960857"><ele>186.0</ele><time>2026-04-25T15:19:00.734Z</time></trkpt><trkpt lat="45.5047709" lon="10.4959921"><ele>186.0</ele><time>2026-04-25T15:19:04.733Z</time></trkpt><trkpt lat="45.5048032" lon="10.4958939"><ele>187.33333333333334</ele><time>2026-04-25T15:19:07.733Z</time></trkpt><trkpt lat="45.5047724" lon="10.4957902"><ele>188.66666666666669</ele><time>2026-04-25T15:19:10.734Z</time></trkpt><trkpt lat="45.5047308" lon="10.4956815"><ele>190.0</ele><time>2026-04-25T15:19:13.734Z</time></trkpt><trkpt lat="45.5046933" lon="10.4955649"><ele>191.33333333333334</ele><time>2026-04-25T15:19:16.735Z</time></trkpt><trkpt lat="45.5046623" lon="10.4954474"><ele>192.66666666666669</ele><time>2026-04-25T15:19:19.735Z</time></trkpt><trkpt lat="45.5046259" lon="10.4953302"><ele>194.0</ele><time>2026-04-25T15:19:22.734Z</time></trkpt><trkpt lat="45.5045882" lon="10.4952168"><ele>193.83333333333334</ele><time>2026-04-25T15:19:25.735Z</time></trkpt><trkpt lat="45.5045566" lon="10.4951026"><ele>193.66666666666669</ele><time>2026-04-25T15:19:28.735Z</time></trkpt><trkpt lat="45.5045329" lon="10.4949841"><ele>193.5</ele><time>2026-04-25T15:19:31.735Z</time></trkpt><trkpt lat="45.5045022" lon="10.4948762"><ele>193.33333333333331</ele><time>2026-04-25T15:19:34.734Z</time></trkpt><trkpt lat="45.5044453" lon="10.4947732"><ele>193.16666666666666</ele><time>2026-04-25T15:19:37.734Z</time></trkpt><trkpt lat="45.5043897" lon="10.4947135"><ele>193.0</ele><time>2026-04-25T15:19:39.735Z</time></trkpt><trkpt lat="45.50433" lon="10.4946653"><ele>193.00000000000003</ele><time>2026-04-25T15:19:41.734Z</time></trkpt><trkpt lat="45.5042753" lon="10.4946137"><ele>193.0</ele><time>2026-04-25T15:19:43.734Z</time></trkpt><trkpt lat="45.5041974" lon="10.4945377"><ele>193.0</ele><time>2026-04-25T15:19:46.734Z</time></trkpt><trkpt lat="45.5041402" lon="10.494489"><ele>193.0</ele><time>2026-04-25T15:19:48.733Z</time></trkpt><trkpt lat="45.5040854" lon="10.4944381"><ele>193.0</ele><time>2026-04-25T15:19:50.734Z</time></trkpt><trkpt lat="45.5040379" lon="10.4943767"><ele>193.00000000000003</ele><time>2026-04-25T15:19:52.735Z</time></trkpt><trkpt lat="45.5039994" lon="10.4942991"><ele>193.0</ele><time>2026-04-25T15:19:54.735Z</time></trkpt><trkpt lat="45.5039756" lon="10.4942051"><ele>193.66666666666666</ele><time>2026-04-25T15:19:56.734Z</time></trkpt><trkpt lat="45.5039546" lon="10.4941114"><ele>194.33333333333331</ele><time>2026-04-25T15:19:58.735Z</time></trkpt><trkpt lat="45.5039252" lon="10.4940194"><ele>195.0</ele><time>2026-04-25T15:20:00.735Z</time></trkpt><trkpt lat="45.50388" lon="10.4939338"><ele>195.66666666666669</ele><time>2026-04-25T15:20:02.734Z</time></trkpt><trkpt lat="45.5038273" lon="10.4938519"><ele>196.33333333333334</ele><time>2026-04-25T15:20:04.735Z</time></trkpt><trkpt lat="45.5037646" lon="10.493774"><ele>197.0</ele><time>2026-04-25T15:20:06.734Z</time></trkpt><trkpt lat="45.5036793" lon="10.4937053"><ele>197.0</ele><time>2026-04-25T15:20:08.735Z</time></trkpt><trkpt lat="45.5035779" lon="10.4936255"><ele>197.0</ele><time>2026-04-25T15:20:10.734Z</time></trkpt><trkpt lat="45.503488" lon="10.4935535"><ele>197.0</ele><time>2026-04-25T15:20:12.735Z</time></trkpt><trkpt lat="45.5033943" lon="10.4935046"><ele>197.0</ele><time>2026-04-25T15:20:14.735Z</time></trkpt><trkpt lat="45.5033294" lon="10.493495"><ele>197.0</ele><time>2026-04-25T15:20:15.734Z</time></trkpt><trkpt lat="45.5032124" lon="10.493461"><ele>197.00000000000003</ele><time>2026-04-25T15:20:17.733Z</time></trkpt><trkpt lat="45.5031109" lon="10.4934293"><ele>197.0</ele><time>2026-04-25T15:20:19.735Z</time></trkpt><trkpt lat="45.5030387" lon="10.4933843"><ele>197.0</ele><time>2026-04-25T15:20:21.734Z</time></trkpt><trkpt lat="45.5029853" lon="10.4933149"><ele>197.0</ele><time>2026-04-25T15:20:24.734Z</time></trkpt><trkpt lat="45.5029258" lon="10.4932402"><ele>197.00000000000003</ele><time>2026-04-25T15:20:26.734Z</time></trkpt><trkpt lat="45.5028442" lon="10.4931611"><ele>197.0</ele><time>2026-04-25T15:20:28.734Z</time></trkpt><trkpt lat="45.5027466" lon="10.4930955"><ele>197.2</ele><time>2026-04-25T15:20:30.735Z</time></trkpt><trkpt lat="45.5026555" lon="10.4930403"><ele>197.39999999999998</ele><time>2026-04-25T15:20:32.734Z</time></trkpt><trkpt lat="45.5025419" lon="10.4930407"><ele>197.60000000000002</ele><time>2026-04-25T15:20:34.734Z</time></trkpt><trkpt lat="45.5024133" lon="10.4930422"><ele>197.8</ele><time>2026-04-25T15:20:36.735Z</time></trkpt><trkpt lat="45.5023478" lon="10.4930412"><ele>198.0</ele><time>2026-04-25T15:20:37.734Z</time></trkpt><trkpt lat="45.502284" lon="10.4930427"><ele>198.0</ele><time>2026-04-25T15:20:38.733Z</time></trkpt><trkpt lat="45.5022202" lon="10.4930451"><ele>198.0</ele><time>2026-04-25T15:20:39.734Z</time></trkpt><trkpt lat="45.5020999" lon="10.4930526"><ele>198.0</ele><time>2026-04-25T15:20:41.735Z</time></trkpt><trkpt lat="45.5019857" lon="10.4930533"><ele>198.0</ele><time>2026-04-25T15:20:43.733Z</time></trkpt><trkpt lat="45.5018718" lon="10.4930618"><ele>198.0</ele><time>2026-04-25T15:20:45.734Z</time></trkpt><trkpt lat="45.5017646" lon="10.4930859"><ele>197.2</ele><time>2026-04-25T15:20:47.734Z</time></trkpt><trkpt lat="45.5016488" lon="10.4931139"><ele>196.4</ele><time>2026-04-25T15:20:49.735Z</time></trkpt><trkpt lat="45.501527" lon="10.4931621"><ele>195.6</ele><time>2026-04-25T15:20:51.735Z</time></trkpt><trkpt lat="45.5014614" lon="10.4931824"><ele>194.79999999999998</ele><time>2026-04-25T15:20:52.734Z</time></trkpt><trkpt lat="45.5013936" lon="10.4932088"><ele>194.0</ele><time>2026-04-25T15:20:53.734Z</time></trkpt><trkpt lat="45.5013223" lon="10.493239"><ele>194.0</ele><time>2026-04-25T15:20:54.734Z</time></trkpt><trkpt lat="45.5012559" lon="10.4932604"><ele>194.0</ele><time>2026-04-25T15:20:55.734Z</time></trkpt><trkpt lat="45.5011854" lon="10.4932692"><ele>194.0</ele><time>2026-04-25T15:20:56.733Z</time></trkpt><trkpt lat="45.5011182" lon="10.4932617"><ele>194.0</ele><time>2026-04-25T15:20:57.735Z</time></trkpt><trkpt lat="45.5010505" lon="10.4932505"><ele>194.0</ele><time>2026-04-25T15:20:58.733Z</time></trkpt><trkpt lat="45.5009866" lon="10.4932139"><ele>194.0</ele><time>2026-04-25T15:20:59.735Z</time></trkpt><trkpt lat="45.5009197" lon="10.4931928"><ele>194.0</ele><time>2026-04-25T15:21:00.734Z</time></trkpt><trkpt lat="45.5008544" lon="10.49317"><ele>193.66666666666669</ele><time>2026-04-25T15:21:01.734Z</time></trkpt><trkpt lat="45.5007901" lon="10.4931477"><ele>193.33333333333334</ele><time>2026-04-25T15:21:02.735Z</time></trkpt><trkpt lat="45.5006723" lon="10.4930948"><ele>193.0</ele><time>2026-04-25T15:21:04.734Z</time></trkpt><trkpt lat="45.5005936" lon="10.4930789"><ele>192.66666666666669</ele><time>2026-04-25T15:21:05.734Z</time></trkpt><trkpt lat="45.5005278" lon="10.4930582"><ele>192.33333333333334</ele><time>2026-04-25T15:21:06.734Z</time></trkpt><trkpt lat="45.5004615" lon="10.4930558"><ele>192.0</ele><time>2026-04-25T15:21:07.735Z</time></trkpt><trkpt lat="45.5003374" lon="10.4930343"><ele>192.0</ele><time>2026-04-25T15:21:09.735Z</time></trkpt><trkpt lat="45.5002706" lon="10.4930318"><ele>192.0</ele><time>2026-04-25T15:21:10.735Z</time></trkpt><trkpt lat="45.5001497" lon="10.4930373"><ele>192.0</ele><time>2026-04-25T15:21:12.734Z</time></trkpt><trkpt lat="45.5000321" lon="10.4930347"><ele>192.0</ele><time>2026-04-25T15:21:14.735Z</time></trkpt><trkpt lat="45.4999236" lon="10.493031"><ele>192.0</ele><time>2026-04-25T15:21:16.735Z</time></trkpt><trkpt lat="45.4998205" lon="10.4930127"><ele>192.0</ele><time>2026-04-25T15:21:18.734Z</time></trkpt><trkpt lat="45.4997218" lon="10.492989"><ele>192.0</ele><time>2026-04-25T15:21:20.734Z</time></trkpt><trkpt lat="45.4996255" lon="10.4929614"><ele>192.0</ele><time>2026-04-25T15:21:22.735Z</time></trkpt><trkpt lat="45.4995301" lon="10.4929215"><ele>192.0</ele><time>2026-04-25T15:21:24.734Z</time></trkpt><trkpt lat="45.4994365" lon="10.4928836"><ele>192.0</ele><time>2026-04-25T15:21:26.734Z</time></trkpt><trkpt lat="45.4993437" lon="10.4928499"><ele>194.6</ele><time>2026-04-25T15:21:28.734Z</time></trkpt><trkpt lat="45.4992544" lon="10.4928337"><ele>197.2</ele><time>2026-04-25T15:21:30.734Z</time></trkpt><trkpt lat="45.4991546" lon="10.4928202"><ele>199.8</ele><time>2026-04-25T15:21:32.735Z</time></trkpt><trkpt lat="45.4990459" lon="10.4928146"><ele>202.4</ele><time>2026-04-25T15:21:34.734Z</time></trkpt><trkpt lat="45.4989392" lon="10.4927755"><ele>205.0</ele><time>2026-04-25T15:21:36.734Z</time></trkpt><trkpt lat="45.4988409" lon="10.492732"><ele>204.8</ele><time>2026-04-25T15:21:38.733Z</time></trkpt><trkpt lat="45.4987488" lon="10.4926818"><ele>204.6</ele><time>2026-04-25T15:21:40.735Z</time></trkpt><trkpt lat="45.4986608" lon="10.492601"><ele>204.39999999999998</ele><time>2026-04-25T15:21:42.735Z</time></trkpt><trkpt lat="45.4985818" lon="10.4925232"><ele>204.2</ele><time>2026-04-25T15:21:44.735Z</time></trkpt><trkpt lat="45.4985124" lon="10.4924351"><ele>204.0</ele><time>2026-04-25T15:21:46.735Z</time></trkpt><trkpt lat="45.4984451" lon="10.4923395"><ele>204.0</ele><time>2026-04-25T15:21:48.734Z</time></trkpt><trkpt lat="45.4983716" lon="10.4922438"><ele>204.0</ele><time>2026-04-25T15:21:50.733Z</time></trkpt><trkpt lat="45.4982898" lon="10.4921279"><ele>204.0</ele><time>2026-04-25T15:21:52.735Z</time></trkpt><trkpt lat="45.498194" lon="10.492005"><ele>204.0</ele><time>2026-04-25T15:21:54.734Z</time></trkpt><trkpt lat="45.4981445" lon="10.4919234"><ele>204.0</ele><time>2026-04-25T15:21:55.734Z</time></trkpt><trkpt lat="45.4980901" lon="10.491855"><ele>203.71428571428572</ele><time>2026-04-25T15:21:56.735Z</time></trkpt><trkpt lat="45.4980431" lon="10.4917906"><ele>203.42857142857144</ele><time>2026-04-25T15:21:57.734Z</time></trkpt><trkpt lat="45.4979907" lon="10.4917295"><ele>203.14285714285714</ele><time>2026-04-25T15:21:58.734Z</time></trkpt><trkpt lat="45.4979387" lon="10.4916653"><ele>202.85714285714286</ele><time>2026-04-25T15:21:59.734Z</time></trkpt><trkpt lat="45.4978794" lon="10.4916075"><ele>202.57142857142856</ele><time>2026-04-25T15:22:00.734Z</time></trkpt><trkpt lat="45.4978256" lon="10.4915403"><ele>202.28571428571428</ele><time>2026-04-25T15:22:01.735Z</time></trkpt><trkpt lat="45.4977653" lon="10.49148"><ele>202.0</ele><time>2026-04-25T15:22:02.733Z</time></trkpt><trkpt lat="45.4977009" lon="10.491423"><ele>201.99999999999997</ele><time>2026-04-25T15:22:03.735Z</time></trkpt><trkpt lat="45.4976354" lon="10.4913738"><ele>202.0</ele><time>2026-04-25T15:22:04.735Z</time></trkpt><trkpt lat="45.4975731" lon="10.4913211"><ele>202.0</ele><time>2026-04-25T15:22:05.734Z</time></trkpt><trkpt lat="45.4975101" lon="10.4912737"><ele>202.0</ele><time>2026-04-25T15:22:06.735Z</time></trkpt><trkpt lat="45.4974487" lon="10.4912343"><ele>201.99999999999997</ele><time>2026-04-25T15:22:07.734Z</time></trkpt><trkpt lat="45.4973866" lon="10.4911911"><ele>202.0</ele><time>2026-04-25T15:22:08.734Z</time></trkpt><trkpt lat="45.4972746" lon="10.4911169"><ele>201.66666666666666</ele><time>2026-04-25T15:22:10.735Z</time></trkpt><trkpt lat="45.4972191" lon="10.4910723"><ele>201.33333333333331</ele><time>2026-04-25T15:22:11.733Z</time></trkpt><trkpt lat="45.4971113" lon="10.4909806"><ele>201.0</ele><time>2026-04-25T15:22:13.734Z</time></trkpt><trkpt lat="45.4970529" lon="10.4909427"><ele>200.66666666666669</ele><time>2026-04-25T15:22:14.734Z</time></trkpt><trkpt lat="45.4969944" lon="10.4909042"><ele>200.33333333333334</ele><time>2026-04-25T15:22:15.734Z</time></trkpt><trkpt lat="45.4969383" lon="10.490859"><ele>200.0</ele><time>2026-04-25T15:22:16.735Z</time></trkpt><trkpt lat="45.4968758" lon="10.4908135"><ele>200.00000000000003</ele><time>2026-04-25T15:22:17.735Z</time></trkpt><trkpt lat="45.4968183" lon="10.4907661"><ele>200.0</ele><time>2026-04-25T15:22:18.734Z</time></trkpt><trkpt lat="45.496762" lon="10.4907199"><ele>200.0</ele><time>2026-04-25T15:22:19.734Z</time></trkpt><trkpt lat="45.4967096" lon="10.4906636"><ele>200.0</ele><time>2026-04-25T15:22:20.735Z</time></trkpt><trkpt lat="45.4966452" lon="10.4905937"><ele>200.0</ele><time>2026-04-25T15:22:21.733Z</time></trkpt><trkpt lat="45.4965824" lon="10.4905312"><ele>200.00000000000003</ele><time>2026-04-25T15:22:22.734Z</time></trkpt><trkpt lat="45.4965143" lon="10.4904775"><ele>200.0</ele><time>2026-04-25T15:22:23.735Z</time></trkpt><trkpt lat="45.496443" lon="10.4904312"><ele>199.66666666666669</ele><time>2026-04-25T15:22:24.733Z</time></trkpt><trkpt lat="45.4963698" lon="10.4903917"><ele>199.33333333333334</ele><time>2026-04-25T15:22:25.735Z</time></trkpt><trkpt lat="45.4962951" lon="10.4903544"><ele>199.0</ele><time>2026-04-25T15:22:26.733Z</time></trkpt><trkpt lat="45.4962199" lon="10.4903279"><ele>198.66666666666669</ele><time>2026-04-25T15:22:27.734Z</time></trkpt><trkpt lat="45.4961423" lon="10.4903057"><ele>198.33333333333334</ele><time>2026-04-25T15:22:28.734Z</time></trkpt><trkpt lat="45.4960665" lon="10.49028"><ele>198.0</ele><time>2026-04-25T15:22:29.733Z</time></trkpt><trkpt lat="45.4959877" lon="10.4902693"><ele>198.0</ele><time>2026-04-25T15:22:30.735Z</time></trkpt><trkpt lat="45.4959088" lon="10.4902634"><ele>198.0</ele><time>2026-04-25T15:22:31.734Z</time></trkpt><trkpt lat="45.495828" lon="10.4902613"><ele>198.0</ele><time>2026-04-25T15:22:32.734Z</time></trkpt><trkpt lat="45.4957509" lon="10.4902692"><ele>198.0</ele><time>2026-04-25T15:22:33.733Z</time></trkpt><trkpt lat="45.4956742" lon="10.4902726"><ele>198.0</ele><time>2026-04-25T15:22:34.733Z</time></trkpt><trkpt lat="45.4955957" lon="10.4902805"><ele>198.0</ele><time>2026-04-25T15:22:35.735Z</time></trkpt><trkpt lat="45.4955191" lon="10.4902895"><ele>198.0</ele><time>2026-04-25T15:22:36.733Z</time></trkpt><trkpt lat="45.4954435" lon="10.4902994"><ele>198.0</ele><time>2026-04-25T15:22:37.734Z</time></trkpt><trkpt lat="45.4953672" lon="10.4903044"><ele>198.0</ele><time>2026-04-25T15:22:38.733Z</time></trkpt><trkpt lat="45.4952926" lon="10.4903032"><ele>198.0</ele><time>2026-04-25T15:22:39.735Z</time></trkpt><trkpt lat="45.4952225" lon="10.490309"><ele>198.0</ele><time>2026-04-25T15:22:40.735Z</time></trkpt><trkpt lat="45.4951583" lon="10.4903082"><ele>198.0</ele><time>2026-04-25T15:22:41.734Z</time></trkpt><trkpt lat="45.4950856" lon="10.4903007"><ele>198.0</ele><time>2026-04-25T15:22:42.735Z</time></trkpt><trkpt lat="45.4950174" lon="10.4902938"><ele>197.85714285714286</ele><time>2026-04-25T15:22:43.735Z</time></trkpt><trkpt lat="45.4949463" lon="10.490278"><ele>197.7142857142857</ele><time>2026-04-25T15:22:44.733Z</time></trkpt><trkpt lat="45.4948801" lon="10.4902578"><ele>197.57142857142856</ele><time>2026-04-25T15:22:45.733Z</time></trkpt><trkpt lat="45.4948168" lon="10.490234"><ele>197.42857142857144</ele><time>2026-04-25T15:22:46.734Z</time></trkpt><trkpt lat="45.4947554" lon="10.4902103"><ele>197.28571428571428</ele><time>2026-04-25T15:22:47.735Z</time></trkpt><trkpt lat="45.4946902" lon="10.4901827"><ele>197.14285714285714</ele><time>2026-04-25T15:22:48.735Z</time></trkpt><trkpt lat="45.4946309" lon="10.4901467"><ele>197.0</ele><time>2026-04-25T15:22:49.734Z</time></trkpt><trkpt lat="45.4945663" lon="10.4901144"><ele>197.0</ele><time>2026-04-25T15:22:50.735Z</time></trkpt><trkpt lat="45.4944409" lon="10.4900679"><ele>197.0</ele><time>2026-04-25T15:22:52.735Z</time></trkpt><trkpt lat="45.4943286" lon="10.4900333"><ele>197.0</ele><time>2026-04-25T15:22:54.734Z</time></trkpt><trkpt lat="45.4942021" lon="10.4900146"><ele>197.0</ele><time>2026-04-25T15:22:56.734Z</time></trkpt><trkpt lat="45.4941372" lon="10.4900056"><ele>197.0</ele><time>2026-04-25T15:22:57.734Z</time></trkpt><trkpt lat="45.4940677" lon="10.4900045"><ele>197.0</ele><time>2026-04-25T15:22:58.735Z</time></trkpt><trkpt lat="45.4939652" lon="10.4899705"><ele>197.0</ele><time>2026-04-25T15:23:00.735Z</time></trkpt><trkpt lat="45.493854" lon="10.4899701"><ele>197.0</ele><time>2026-04-25T15:23:02.735Z</time></trkpt><trkpt lat="45.4937665" lon="10.4900059"><ele>197.0</ele><time>2026-04-25T15:23:05.735Z</time></trkpt><trkpt lat="45.4936979" lon="10.4900218"><ele>197.0</ele><time>2026-04-25T15:23:06.735Z</time></trkpt><trkpt lat="45.4935885" lon="10.4900383"><ele>197.2</ele><time>2026-04-25T15:23:08.734Z</time></trkpt><trkpt lat="45.4934829" lon="10.4900422"><ele>197.39999999999998</ele><time>2026-04-25T15:23:10.736Z</time></trkpt><trkpt lat="45.4933824" lon="10.4900448"><ele>197.60000000000002</ele><time>2026-04-25T15:23:12.735Z</time></trkpt><trkpt lat="45.4932735" lon="10.4900385"><ele>197.8</ele><time>2026-04-25T15:23:14.734Z</time></trkpt><trkpt lat="45.4931732" lon="10.4900455"><ele>198.0</ele><time>2026-04-25T15:23:16.734Z</time></trkpt><trkpt lat="45.4930639" lon="10.4900532"><ele>198.0</ele><time>2026-04-25T15:23:18.735Z</time></trkpt><trkpt lat="45.4929518" lon="10.4900759"><ele>198.0</ele><time>2026-04-25T15:23:20.734Z</time></trkpt><trkpt lat="45.4928906" lon="10.4900989"><ele>198.0</ele><time>2026-04-25T15:23:21.736Z</time></trkpt><trkpt lat="45.4927739" lon="10.4901437"><ele>198.0</ele><time>2026-04-25T15:23:23.736Z</time></trkpt><trkpt lat="45.4926626" lon="10.490178"><ele>198.0</ele><time>2026-04-25T15:23:25.735Z</time></trkpt><trkpt lat="45.4925496" lon="10.4902122"><ele>198.4</ele><time>2026-04-25T15:23:27.735Z</time></trkpt><trkpt lat="45.49244" lon="10.4902568"><ele>198.8</ele><time>2026-04-25T15:23:29.736Z</time></trkpt><trkpt lat="45.4923189" lon="10.4903031"><ele>199.2</ele><time>2026-04-25T15:23:31.735Z</time></trkpt><trkpt lat="45.4921927" lon="10.4903275"><ele>199.6</ele><time>2026-04-25T15:23:33.734Z</time></trkpt><trkpt lat="45.4921269" lon="10.4903298"><ele>200.0</ele><time>2026-04-25T15:23:34.735Z</time></trkpt><trkpt lat="45.4920566" lon="10.4903314"><ele>200.6</ele><time>2026-04-25T15:23:35.735Z</time></trkpt><trkpt lat="45.4919324" lon="10.4903418"><ele>201.2</ele><time>2026-04-25T15:23:37.736Z</time></trkpt><trkpt lat="45.4918293" lon="10.4903857"><ele>201.8</ele><time>2026-04-25T15:23:39.735Z</time></trkpt><trkpt lat="45.4917696" lon="10.4904587"><ele>202.4</ele><time>2026-04-25T15:23:40.735Z</time></trkpt><trkpt lat="45.4916999" lon="10.490522"><ele>203.0</ele><time>2026-04-25T15:23:41.736Z</time></trkpt><trkpt lat="45.4916324" lon="10.4905643"><ele>201.28571428571428</ele><time>2026-04-25T15:23:42.735Z</time></trkpt><trkpt lat="45.4915622" lon="10.4906027"><ele>199.57142857142856</ele><time>2026-04-25T15:23:43.736Z</time></trkpt><trkpt lat="45.4915013" lon="10.4906467"><ele>197.85714285714286</ele><time>2026-04-25T15:23:44.736Z</time></trkpt><trkpt lat="45.4914354" lon="10.4906841"><ele>196.14285714285714</ele><time>2026-04-25T15:23:45.735Z</time></trkpt><trkpt lat="45.4913566" lon="10.4907224"><ele>194.42857142857142</ele><time>2026-04-25T15:23:46.735Z</time></trkpt><trkpt lat="45.4912861" lon="10.4907494"><ele>192.71428571428572</ele><time>2026-04-25T15:23:47.734Z</time></trkpt><trkpt lat="45.4912169" lon="10.4907953"><ele>191.0</ele><time>2026-04-25T15:23:48.735Z</time></trkpt><trkpt lat="45.4911451" lon="10.4908267"><ele>191.0</ele><time>2026-04-25T15:23:49.736Z</time></trkpt><trkpt lat="45.4910677" lon="10.4908577"><ele>191.0</ele><time>2026-04-25T15:23:50.736Z</time></trkpt><trkpt lat="45.4909915" lon="10.4908819"><ele>191.0</ele><time>2026-04-25T15:23:51.735Z</time></trkpt><trkpt lat="45.4909185" lon="10.490903"><ele>191.0</ele><time>2026-04-25T15:23:52.735Z</time></trkpt><trkpt lat="45.4908445" lon="10.490949"><ele>191.0</ele><time>2026-04-25T15:23:53.736Z</time></trkpt><trkpt lat="45.4907707" lon="10.4909922"><ele>191.0</ele><time>2026-04-25T15:23:54.734Z</time></trkpt><trkpt lat="45.4906993" lon="10.4910278"><ele>191.0</ele><time>2026-04-25T15:23:55.736Z</time></trkpt><trkpt lat="45.4906397" lon="10.4910647"><ele>191.0</ele><time>2026-04-25T15:23:56.735Z</time></trkpt><trkpt lat="45.4905682" lon="10.4911132"><ele>191.0</ele><time>2026-04-25T15:23:57.736Z</time></trkpt><trkpt lat="45.4905038" lon="10.4911547"><ele>191.0</ele><time>2026-04-25T15:23:58.734Z</time></trkpt><trkpt lat="45.4904407" lon="10.4911801"><ele>191.0</ele><time>2026-04-25T15:23:59.735Z</time></trkpt><trkpt lat="45.4903746" lon="10.4912344"><ele>191.0</ele><time>2026-04-25T15:24:00.735Z</time></trkpt><trkpt lat="45.4903118" lon="10.4912666"><ele>191.0</ele><time>2026-04-25T15:24:01.736Z</time></trkpt><trkpt lat="45.4902522" lon="10.491303"><ele>189.83333333333331</ele><time>2026-04-25T15:24:02.735Z</time></trkpt><trkpt lat="45.4901892" lon="10.4913306"><ele>188.66666666666666</ele><time>2026-04-25T15:24:03.735Z</time></trkpt><trkpt lat="45.4901259" lon="10.4913667"><ele>187.5</ele><time>2026-04-25T15:24:04.735Z</time></trkpt><trkpt lat="45.4900644" lon="10.4914056"><ele>186.33333333333334</ele><time>2026-04-25T15:24:05.734Z</time></trkpt><trkpt lat="45.4900067" lon="10.4914462"><ele>185.16666666666669</ele><time>2026-04-25T15:24:06.735Z</time></trkpt><trkpt lat="45.4899463" lon="10.4914734"><ele>184.0</ele><time>2026-04-25T15:24:07.735Z</time></trkpt><trkpt lat="45.4898285" lon="10.491535"><ele>184.0</ele><time>2026-04-25T15:24:09.736Z</time></trkpt><trkpt lat="45.4897648" lon="10.4915689"><ele>184.0</ele><time>2026-04-25T15:24:10.734Z</time></trkpt><trkpt lat="45.489704" lon="10.4915952"><ele>184.0</ele><time>2026-04-25T15:24:11.736Z</time></trkpt><trkpt lat="45.489642" lon="10.4916176"><ele>184.0</ele><time>2026-04-25T15:24:12.736Z</time></trkpt><trkpt lat="45.489519" lon="10.491654"><ele>184.0</ele><time>2026-04-25T15:24:14.734Z</time></trkpt><trkpt lat="45.4894028" lon="10.491667"><ele>184.0</ele><time>2026-04-25T15:24:16.736Z</time></trkpt><trkpt lat="45.4893179" lon="10.4916794"><ele>185.16666666666669</ele><time>2026-04-25T15:24:18.735Z</time></trkpt><trkpt lat="45.4892528" lon="10.49168"><ele>186.33333333333334</ele><time>2026-04-25T15:24:20.736Z</time></trkpt><trkpt lat="45.4891871" lon="10.4916913"><ele>187.5</ele><time>2026-04-25T15:24:22.735Z</time></trkpt><trkpt lat="45.4891219" lon="10.4917338"><ele>188.66666666666666</ele><time>2026-04-25T15:24:24.736Z</time></trkpt><trkpt lat="45.4890344" lon="10.4917769"><ele>189.83333333333331</ele><time>2026-04-25T15:24:26.736Z</time></trkpt><trkpt lat="45.4889362" lon="10.4918556"><ele>191.0</ele><time>2026-04-25T15:24:28.736Z</time></trkpt><trkpt lat="45.488878" lon="10.4919097"><ele>191.0</ele><time>2026-04-25T15:24:29.735Z</time></trkpt><trkpt lat="45.4887731" lon="10.4919899"><ele>191.0</ele><time>2026-04-25T15:24:31.735Z</time></trkpt><trkpt lat="45.4886645" lon="10.4920359"><ele>191.0</ele><time>2026-04-25T15:24:33.734Z</time></trkpt><trkpt lat="45.4885503" lon="10.4920911"><ele>191.0</ele><time>2026-04-25T15:24:35.736Z</time></trkpt><trkpt lat="45.4884596" lon="10.4921312"><ele>191.0</ele><time>2026-04-25T15:24:37.736Z</time></trkpt><trkpt lat="45.4883555" lon="10.4921662"><ele>190.60000000000002</ele><time>2026-04-25T15:24:39.735Z</time></trkpt><trkpt lat="45.4882629" lon="10.4921681"><ele>190.2</ele><time>2026-04-25T15:24:41.736Z</time></trkpt><trkpt lat="45.4881527" lon="10.4921986"><ele>189.8</ele><time>2026-04-25T15:24:43.735Z</time></trkpt><trkpt lat="45.4880517" lon="10.4922242"><ele>189.39999999999998</ele><time>2026-04-25T15:24:45.736Z</time></trkpt><trkpt lat="45.4879647" lon="10.4922333"><ele>189.0</ele><time>2026-04-25T15:24:47.734Z</time></trkpt><trkpt lat="45.4878583" lon="10.4922648"><ele>190.0</ele><time>2026-04-25T15:24:49.736Z</time></trkpt><trkpt lat="45.4877675" lon="10.4922799"><ele>191.0</ele><time>2026-04-25T15:24:51.735Z</time></trkpt><trkpt lat="45.4876704" lon="10.4922974"><ele>192.0</ele><time>2026-04-25T15:24:53.735Z</time></trkpt><trkpt lat="45.4875631" lon="10.4923303"><ele>193.0</ele><time>2026-04-25T15:24:55.735Z</time></trkpt><trkpt lat="45.4874495" lon="10.4923457"><ele>194.0</ele><time>2026-04-25T15:24:57.736Z</time></trkpt><trkpt lat="45.4873233" lon="10.4923917"><ele>194.0</ele><time>2026-04-25T15:24:59.734Z</time></trkpt><trkpt lat="45.4872007" lon="10.4924503"><ele>194.0</ele><time>2026-04-25T15:25:01.735Z</time></trkpt><trkpt lat="45.4871291" lon="10.4924778"><ele>194.0</ele><time>2026-04-25T15:25:02.735Z</time></trkpt><trkpt lat="45.4870667" lon="10.4925061"><ele>194.0</ele><time>2026-04-25T15:25:03.735Z</time></trkpt><trkpt lat="45.4869409" lon="10.4925416"><ele>194.0</ele><time>2026-04-25T15:25:05.735Z</time></trkpt><trkpt lat="45.486871" lon="10.4925412"><ele>194.28571428571428</ele><time>2026-04-25T15:25:06.736Z</time></trkpt><trkpt lat="45.4867964" lon="10.4925524"><ele>194.57142857142858</ele><time>2026-04-25T15:25:07.736Z</time></trkpt><trkpt lat="45.4867271" lon="10.4925706"><ele>194.85714285714286</ele><time>2026-04-25T15:25:08.735Z</time></trkpt><trkpt lat="45.4866547" lon="10.4925828"><ele>195.14285714285714</ele><time>2026-04-25T15:25:09.735Z</time></trkpt><trkpt lat="45.486588" lon="10.4926042"><ele>195.42857142857144</ele><time>2026-04-25T15:25:10.736Z</time></trkpt><trkpt lat="45.4865258" lon="10.4926262"><ele>195.71428571428572</ele><time>2026-04-25T15:25:11.736Z</time></trkpt><trkpt lat="45.4864623" lon="10.4926472"><ele>196.0</ele><time>2026-04-25T15:25:12.736Z</time></trkpt><trkpt lat="45.4863468" lon="10.4926671"><ele>196.16666666666666</ele><time>2026-04-25T15:25:14.735Z</time></trkpt><trkpt lat="45.4862237" lon="10.4926899"><ele>196.33333333333331</ele><time>2026-04-25T15:25:16.735Z</time></trkpt><trkpt lat="45.4861041" lon="10.4927039"><ele>196.5</ele><time>2026-04-25T15:25:18.735Z</time></trkpt><trkpt lat="45.4860352" lon="10.4927133"><ele>196.66666666666669</ele><time>2026-04-25T15:25:19.736Z</time></trkpt><trkpt lat="45.4859701" lon="10.4927187"><ele>196.83333333333334</ele><time>2026-04-25T15:25:20.736Z</time></trkpt><trkpt lat="45.485905" lon="10.4927243"><ele>197.0</ele><time>2026-04-25T15:25:21.735Z</time></trkpt><trkpt lat="45.4858385" lon="10.492732"><ele>197.0</ele><time>2026-04-25T15:25:22.736Z</time></trkpt><trkpt lat="45.4857703" lon="10.4927358"><ele>197.0</ele><time>2026-04-25T15:25:23.734Z</time></trkpt><trkpt lat="45.4857026" lon="10.4927358"><ele>197.0</ele><time>2026-04-25T15:25:24.735Z</time></trkpt><trkpt lat="45.4856333" lon="10.4927354"><ele>197.0</ele><time>2026-04-25T15:25:25.735Z</time></trkpt><trkpt lat="45.4855653" lon="10.4927366"><ele>197.0</ele><time>2026-04-25T15:25:26.734Z</time></trkpt><trkpt lat="45.4854986" lon="10.4927391"><ele>197.0</ele><time>2026-04-25T15:25:27.736Z</time></trkpt><trkpt lat="45.4854353" lon="10.4927163"><ele>197.0</ele><time>2026-04-25T15:25:28.736Z</time></trkpt><trkpt lat="45.4853709" lon="10.4927014"><ele>196.42857142857144</ele><time>2026-04-25T15:25:29.735Z</time></trkpt><trkpt lat="45.4853065" lon="10.4926963"><ele>195.85714285714286</ele><time>2026-04-25T15:25:30.735Z</time></trkpt><trkpt lat="45.485239" lon="10.4926897"><ele>195.28571428571428</ele><time>2026-04-25T15:25:31.735Z</time></trkpt><trkpt lat="45.4851699" lon="10.4926883"><ele>194.71428571428572</ele><time>2026-04-25T15:25:32.735Z</time></trkpt><trkpt lat="45.4851011" lon="10.4926829"><ele>194.14285714285714</ele><time>2026-04-25T15:25:33.736Z</time></trkpt><trkpt lat="45.4850373" lon="10.4926839"><ele>193.57142857142858</ele><time>2026-04-25T15:25:34.735Z</time></trkpt><trkpt lat="45.484965" lon="10.4926803"><ele>193.0</ele><time>2026-04-25T15:25:35.736Z</time></trkpt><trkpt lat="45.4848906" lon="10.4926773"><ele>193.0</ele><time>2026-04-25T15:25:36.734Z</time></trkpt><trkpt lat="45.4848213" lon="10.492681"><ele>193.0</ele><time>2026-04-25T15:25:37.735Z</time></trkpt><trkpt lat="45.4847503" lon="10.4926785"><ele>193.0</ele><time>2026-04-25T15:25:38.736Z</time></trkpt><trkpt lat="45.4846297" lon="10.4926873"><ele>193.0</ele><time>2026-04-25T15:25:40.736Z</time></trkpt><trkpt lat="45.4845627" lon="10.4926891"><ele>193.0</ele><time>2026-04-25T15:25:41.734Z</time></trkpt><trkpt lat="45.4844407" lon="10.4927003"><ele>192.83333333333331</ele><time>2026-04-25T15:25:43.736Z</time></trkpt><trkpt lat="45.4843732" lon="10.4926956"><ele>192.66666666666666</ele><time>2026-04-25T15:25:44.735Z</time></trkpt><trkpt lat="45.4843093" lon="10.4926877"><ele>192.5</ele><time>2026-04-25T15:25:45.736Z</time></trkpt><trkpt lat="45.4842427" lon="10.4926795"><ele>192.33333333333331</ele><time>2026-04-25T15:25:46.734Z</time></trkpt><trkpt lat="45.4841803" lon="10.4926636"><ele>192.16666666666666</ele><time>2026-04-25T15:25:47.734Z</time></trkpt><trkpt lat="45.4840571" lon="10.4926367"><ele>192.0</ele><time>2026-04-25T15:25:49.734Z</time></trkpt><trkpt lat="45.483949" lon="10.4925975"><ele>192.0</ele><time>2026-04-25T15:25:51.735Z</time></trkpt><trkpt lat="45.4838871" lon="10.4925803"><ele>192.0</ele><time>2026-04-25T15:25:52.734Z</time></trkpt><trkpt lat="45.4838247" lon="10.4925585"><ele>192.0</ele><time>2026-04-25T15:25:53.736Z</time></trkpt><trkpt lat="45.4836941" lon="10.4925143"><ele>192.0</ele><time>2026-04-25T15:25:55.736Z</time></trkpt><trkpt lat="45.483622" lon="10.4924827"><ele>192.0</ele><time>2026-04-25T15:25:56.735Z</time></trkpt><trkpt lat="45.4835526" lon="10.4924491"><ele>192.0</ele><time>2026-04-25T15:25:57.735Z</time></trkpt><trkpt lat="45.4834822" lon="10.4924141"><ele>191.57142857142856</ele><time>2026-04-25T15:25:58.735Z</time></trkpt><trkpt lat="45.4834133" lon="10.49238"><ele>191.14285714285714</ele><time>2026-04-25T15:25:59.736Z</time></trkpt><trkpt lat="45.4833497" lon="10.4923375"><ele>190.71428571428572</ele><time>2026-04-25T15:26:00.736Z</time></trkpt><trkpt lat="45.4832854" lon="10.4923047"><ele>190.28571428571428</ele><time>2026-04-25T15:26:01.735Z</time></trkpt><trkpt lat="45.4832236" lon="10.4922748"><ele>189.85714285714286</ele><time>2026-04-25T15:26:02.736Z</time></trkpt><trkpt lat="45.4831582" lon="10.4922436"><ele>189.42857142857142</ele><time>2026-04-25T15:26:03.736Z</time></trkpt><trkpt lat="45.4830945" lon="10.4922068"><ele>189.0</ele><time>2026-04-25T15:26:04.736Z</time></trkpt><trkpt lat="45.4830317" lon="10.492178"><ele>189.0</ele><time>2026-04-25T15:26:05.735Z</time></trkpt><trkpt lat="45.4829662" lon="10.4921499"><ele>189.0</ele><time>2026-04-25T15:26:06.735Z</time></trkpt><trkpt lat="45.4829006" lon="10.4921205"><ele>189.0</ele><time>2026-04-25T15:26:07.734Z</time></trkpt><trkpt lat="45.4828345" lon="10.492098"><ele>189.0</ele><time>2026-04-25T15:26:08.736Z</time></trkpt><trkpt lat="45.4827642" lon="10.4920752"><ele>189.0</ele><time>2026-04-25T15:26:09.736Z</time></trkpt><trkpt lat="45.4826941" lon="10.4920554"><ele>189.0</ele><time>2026-04-25T15:26:10.736Z</time></trkpt><trkpt lat="45.4825727" lon="10.4920221"><ele>189.83333333333334</ele><time>2026-04-25T15:26:12.736Z</time></trkpt><trkpt lat="45.4824942" lon="10.4920152"><ele>190.66666666666669</ele><time>2026-04-25T15:26:14.736Z</time></trkpt><trkpt lat="45.4824281" lon="10.4920013"><ele>191.5</ele><time>2026-04-25T15:26:16.735Z</time></trkpt><trkpt lat="45.4823577" lon="10.4919156"><ele>192.33333333333334</ele><time>2026-04-25T15:26:19.735Z</time></trkpt><trkpt lat="45.4823067" lon="10.4918337"><ele>193.16666666666669</ele><time>2026-04-25T15:26:21.736Z</time></trkpt><trkpt lat="45.4822526" lon="10.4917489"><ele>194.0</ele><time>2026-04-25T15:26:23.735Z</time></trkpt><trkpt lat="45.4821769" lon="10.4916305"><ele>194.0</ele><time>2026-04-25T15:26:25.734Z</time></trkpt><trkpt lat="45.4821085" lon="10.4915278"><ele>194.0</ele><time>2026-04-25T15:26:27.735Z</time></trkpt><trkpt lat="45.4820422" lon="10.491412"><ele>194.0</ele><time>2026-04-25T15:26:29.736Z</time></trkpt><trkpt lat="45.4819519" lon="10.4912677"><ele>194.0</ele><time>2026-04-25T15:26:31.736Z</time></trkpt><trkpt lat="45.4818633" lon="10.4911316"><ele>193.79999999999998</ele><time>2026-04-25T15:26:33.736Z</time></trkpt><trkpt lat="45.4817968" lon="10.4909908"><ele>193.6</ele><time>2026-04-25T15:26:35.736Z</time></trkpt><trkpt lat="45.4817145" lon="10.4908517"><ele>193.4</ele><time>2026-04-25T15:26:37.735Z</time></trkpt><trkpt lat="45.4816641" lon="10.4907884"><ele>193.2</ele><time>2026-04-25T15:26:38.735Z</time></trkpt><trkpt lat="45.4816027" lon="10.490674"><ele>193.0</ele><time>2026-04-25T15:26:40.735Z</time></trkpt><trkpt lat="45.4815291" lon="10.4905553"><ele>192.99999999999997</ele><time>2026-04-25T15:26:42.736Z</time></trkpt><trkpt lat="45.4814831" lon="10.4904422"><ele>193.0</ele><time>2026-04-25T15:26:44.736Z</time></trkpt><trkpt lat="45.4814461" lon="10.4903256"><ele>193.0</ele><time>2026-04-25T15:26:46.735Z</time></trkpt><trkpt lat="45.481417" lon="10.4902329"><ele>193.0</ele><time>2026-04-25T15:26:48.736Z</time></trkpt><trkpt lat="45.4813839" lon="10.4901114"><ele>192.99999999999997</ele><time>2026-04-25T15:26:51.735Z</time></trkpt><trkpt lat="45.4813591" lon="10.4899735"><ele>193.0</ele><time>2026-04-25T15:26:53.735Z</time></trkpt><trkpt lat="45.4813374" lon="10.4898357"><ele>195.0</ele><time>2026-04-25T15:26:55.735Z</time></trkpt><trkpt lat="45.4813142" lon="10.4896723"><ele>197.0</ele><time>2026-04-25T15:26:57.736Z</time></trkpt><trkpt lat="45.4813093" lon="10.4895642"><ele>199.0</ele><time>2026-04-25T15:26:59.736Z</time></trkpt><trkpt lat="45.4813052" lon="10.4894214"><ele>201.0</ele><time>2026-04-25T15:27:01.735Z</time></trkpt><trkpt lat="45.4813118" lon="10.4892921"><ele>203.0</ele><time>2026-04-25T15:27:03.736Z</time></trkpt><trkpt lat="45.4813358" lon="10.4891421"><ele>203.4</ele><time>2026-04-25T15:27:05.735Z</time></trkpt><trkpt lat="45.4813691" lon="10.4889943"><ele>203.8</ele><time>2026-04-25T15:27:07.735Z</time></trkpt><trkpt lat="45.4814078" lon="10.4888776"><ele>204.2</ele><time>2026-04-25T15:27:09.734Z</time></trkpt><trkpt lat="45.4814479" lon="10.4887368"><ele>204.6</ele><time>2026-04-25T15:27:11.736Z</time></trkpt><trkpt lat="45.48149" lon="10.4886049"><ele>205.0</ele><time>2026-04-25T15:27:13.736Z</time></trkpt><trkpt lat="45.4815163" lon="10.4885054"><ele>204.99999999999997</ele><time>2026-04-25T15:27:15.736Z</time></trkpt><trkpt lat="45.4815497" lon="10.4883901"><ele>205.0</ele><time>2026-04-25T15:27:17.734Z</time></trkpt><trkpt lat="45.4815977" lon="10.4882822"><ele>205.0</ele><time>2026-04-25T15:27:19.735Z</time></trkpt><trkpt lat="45.4816448" lon="10.4881969"><ele>205.0</ele><time>2026-04-25T15:27:21.734Z</time></trkpt><trkpt lat="45.4817362" lon="10.4881145"><ele>204.99999999999997</ele><time>2026-04-25T15:27:24.736Z</time></trkpt><trkpt lat="45.4818031" lon="10.4880669"><ele>205.0</ele><time>2026-04-25T15:27:26.736Z</time></trkpt><trkpt lat="45.4818612" lon="10.4880215"><ele>204.99999999999997</ele><time>2026-04-25T15:27:28.736Z</time></trkpt><trkpt lat="45.4819244" lon="10.4879846"><ele>205.0</ele><time>2026-04-25T15:27:30.735Z</time></trkpt><trkpt lat="45.4819933" lon="10.4879475"><ele>205.0</ele><time>2026-04-25T15:27:32.735Z</time></trkpt><trkpt lat="45.4820543" lon="10.4879212"><ele>205.0</ele><time>2026-04-25T15:27:34.735Z</time></trkpt><trkpt lat="45.4821445" lon="10.4878893"><ele>204.99999999999997</ele><time>2026-04-25T15:27:37.736Z</time></trkpt><trkpt lat="45.482232" lon="10.4878732"><ele>205.0</ele><time>2026-04-25T15:27:40.735Z</time></trkpt><trkpt lat="45.4823305" lon="10.4878683"><ele>205.85714285714286</ele><time>2026-04-25T15:27:43.735Z</time></trkpt><trkpt lat="45.4823955" lon="10.4878623"><ele>206.7142857142857</ele><time>2026-04-25T15:27:45.735Z</time></trkpt><trkpt lat="45.4824682" lon="10.4878608"><ele>207.57142857142856</ele><time>2026-04-25T15:27:48.735Z</time></trkpt><trkpt lat="45.482532" lon="10.4878565"><ele>208.42857142857144</ele><time>2026-04-25T15:27:50.735Z</time></trkpt><trkpt lat="45.4825976" lon="10.4878315"><ele>209.28571428571428</ele><time>2026-04-25T15:27:52.735Z</time></trkpt><trkpt lat="45.4826675" lon="10.4877699"><ele>210.14285714285714</ele><time>2026-04-25T15:27:54.735Z</time></trkpt><trkpt lat="45.4827373" lon="10.4876899"><ele>211.0</ele><time>2026-04-25T15:27:56.736Z</time></trkpt><trkpt lat="45.4828181" lon="10.4875963"><ele>210.99999999999997</ele><time>2026-04-25T15:27:58.736Z</time></trkpt><trkpt lat="45.4829053" lon="10.4874994"><ele>211.0</ele><time>2026-04-25T15:28:00.736Z</time></trkpt><trkpt lat="45.482965" lon="10.4874528"><ele>211.0</ele><time>2026-04-25T15:28:01.735Z</time></trkpt><trkpt lat="45.4830127" lon="10.4873935"><ele>211.0</ele><time>2026-04-25T15:28:02.735Z</time></trkpt><trkpt lat="45.4830907" lon="10.4873033"><ele>210.99999999999997</ele><time>2026-04-25T15:28:04.736Z</time></trkpt><trkpt lat="45.4831722" lon="10.4872042"><ele>211.0</ele><time>2026-04-25T15:28:06.735Z</time></trkpt><trkpt lat="45.4832379" lon="10.4871233"><ele>211.60000000000002</ele><time>2026-04-25T15:28:08.736Z</time></trkpt><trkpt lat="45.4833096" lon="10.4870268"><ele>212.2</ele><time>2026-04-25T15:28:10.735Z</time></trkpt><trkpt lat="45.4833612" lon="10.4869162"><ele>212.79999999999998</ele><time>2026-04-25T15:28:12.735Z</time></trkpt><trkpt lat="45.4833918" lon="10.4868364"><ele>213.39999999999998</ele><time>2026-04-25T15:28:13.736Z</time></trkpt><trkpt lat="45.4834586" lon="10.4866953"><ele>214.0</ele><time>2026-04-25T15:28:15.735Z</time></trkpt><trkpt lat="45.483531" lon="10.4865257"><ele>213.99999999999997</ele><time>2026-04-25T15:28:17.736Z</time></trkpt><trkpt lat="45.4835636" lon="10.486435"><ele>214.0</ele><time>2026-04-25T15:28:18.736Z</time></trkpt><trkpt lat="45.4835887" lon="10.4863308"><ele>214.0</ele><time>2026-04-25T15:28:19.735Z</time></trkpt><trkpt lat="45.4836187" lon="10.4862508"><ele>214.0</ele><time>2026-04-25T15:28:20.735Z</time></trkpt><trkpt lat="45.4836634" lon="10.4861466"><ele>213.99999999999997</ele><time>2026-04-25T15:28:21.735Z</time></trkpt><trkpt lat="45.4837025" lon="10.4860349"><ele>214.0</ele><time>2026-04-25T15:28:22.735Z</time></trkpt><trkpt lat="45.4837289" lon="10.4859366"><ele>213.66666666666666</ele><time>2026-04-25T15:28:23.734Z</time></trkpt><trkpt lat="45.4837388" lon="10.4858176"><ele>213.33333333333331</ele><time>2026-04-25T15:28:24.735Z</time></trkpt><trkpt lat="45.4837572" lon="10.4857043"><ele>213.0</ele><time>2026-04-25T15:28:25.735Z</time></trkpt><trkpt lat="45.4837749" lon="10.485595"><ele>212.66666666666669</ele><time>2026-04-25T15:28:26.735Z</time></trkpt><trkpt lat="45.4837958" lon="10.4854779"><ele>212.33333333333334</ele><time>2026-04-25T15:28:27.736Z</time></trkpt><trkpt lat="45.4838306" lon="10.4853719"><ele>212.0</ele><time>2026-04-25T15:28:28.735Z</time></trkpt><trkpt lat="45.4838731" lon="10.4852798"><ele>210.83333333333334</ele><time>2026-04-25T15:28:29.735Z</time></trkpt><trkpt lat="45.4839148" lon="10.4851908"><ele>209.66666666666669</ele><time>2026-04-25T15:28:30.735Z</time></trkpt><trkpt lat="45.4839536" lon="10.4850963"><ele>208.5</ele><time>2026-04-25T15:28:31.735Z</time></trkpt><trkpt lat="45.483989" lon="10.4849949"><ele>207.33333333333331</ele><time>2026-04-25T15:28:32.736Z</time></trkpt><trkpt lat="45.484026" lon="10.4848929"><ele>206.16666666666666</ele><time>2026-04-25T15:28:33.735Z</time></trkpt><trkpt lat="45.48407" lon="10.4847851"><ele>205.0</ele><time>2026-04-25T15:28:34.734Z</time></trkpt><trkpt lat="45.4841097" lon="10.4846785"><ele>204.66666666666666</ele><time>2026-04-25T15:28:35.735Z</time></trkpt><trkpt lat="45.4841523" lon="10.4845739"><ele>204.33333333333331</ele><time>2026-04-25T15:28:36.735Z</time></trkpt><trkpt lat="45.4841875" lon="10.4844629"><ele>204.0</ele><time>2026-04-25T15:28:37.734Z</time></trkpt><trkpt lat="45.4842268" lon="10.4843609"><ele>203.66666666666669</ele><time>2026-04-25T15:28:38.736Z</time></trkpt><trkpt lat="45.4842646" lon="10.4842531"><ele>203.33333333333334</ele><time>2026-04-25T15:28:39.735Z</time></trkpt><trkpt lat="45.484303" lon="10.4841428"><ele>203.0</ele><time>2026-04-25T15:28:40.736Z</time></trkpt><trkpt lat="45.4843399" lon="10.484036"><ele>203.00000000000003</ele><time>2026-04-25T15:28:41.735Z</time></trkpt><trkpt lat="45.4843786" lon="10.4839228"><ele>203.0</ele><time>2026-04-25T15:28:42.736Z</time></trkpt><trkpt lat="45.484418" lon="10.4838162"><ele>203.0</ele><time>2026-04-25T15:28:43.735Z</time></trkpt><trkpt lat="45.4844616" lon="10.4837078"><ele>203.0</ele><time>2026-04-25T15:28:44.736Z</time></trkpt><trkpt lat="45.4845025" lon="10.4835985"><ele>203.00000000000003</ele><time>2026-04-25T15:28:45.734Z</time></trkpt><trkpt lat="45.4845436" lon="10.4834883"><ele>203.0</ele><time>2026-04-25T15:28:46.736Z</time></trkpt><trkpt lat="45.4845818" lon="10.4833736"><ele>202.0</ele><time>2026-04-25T15:28:47.735Z</time></trkpt><trkpt lat="45.4846189" lon="10.483268"><ele>201.0</ele><time>2026-04-25T15:28:48.735Z</time></trkpt><trkpt lat="45.4846652" lon="10.4831407"><ele>200.0</ele><time>2026-04-25T15:28:49.735Z</time></trkpt><trkpt lat="45.4847116" lon="10.4830248"><ele>199.0</ele><time>2026-04-25T15:28:50.736Z</time></trkpt><trkpt lat="45.4847566" lon="10.4829103"><ele>198.0</ele><time>2026-04-25T15:28:51.735Z</time></trkpt><trkpt lat="45.4848001" lon="10.4828053"><ele>197.83333333333334</ele><time>2026-04-25T15:28:52.735Z</time></trkpt><trkpt lat="45.4848472" lon="10.4827061"><ele>197.66666666666669</ele><time>2026-04-25T15:28:53.735Z</time></trkpt><trkpt lat="45.4848889" lon="10.4826015"><ele>197.5</ele><time>2026-04-25T15:28:54.734Z</time></trkpt><trkpt lat="45.4849283" lon="10.4824994"><ele>197.33333333333334</ele><time>2026-04-25T15:28:55.734Z</time></trkpt><trkpt lat="45.4849699" lon="10.4823892"><ele>197.16666666666669</ele><time>2026-04-25T15:28:56.734Z</time></trkpt><trkpt lat="45.4850151" lon="10.4822806"><ele>197.0</ele><time>2026-04-25T15:28:57.736Z</time></trkpt><trkpt lat="45.4850539" lon="10.4821757"><ele>197.00000000000003</ele><time>2026-04-25T15:28:58.734Z</time></trkpt><trkpt lat="45.4850971" lon="10.4820707"><ele>197.0</ele><time>2026-04-25T15:28:59.736Z</time></trkpt><trkpt lat="45.4851448" lon="10.4819542"><ele>197.0</ele><time>2026-04-25T15:29:00.736Z</time></trkpt><trkpt lat="45.4851893" lon="10.4818469"><ele>197.0</ele><time>2026-04-25T15:29:01.735Z</time></trkpt><trkpt lat="45.4852365" lon="10.4817439"><ele>197.00000000000003</ele><time>2026-04-25T15:29:02.735Z</time></trkpt><trkpt lat="45.4852702" lon="10.4816542"><ele>197.0</ele><time>2026-04-25T15:29:03.735Z</time></trkpt><trkpt lat="45.4853169" lon="10.4815595"><ele>197.00000000000003</ele><time>2026-04-25T15:29:04.736Z</time></trkpt><trkpt lat="45.4853512" lon="10.4814545"><ele>197.0</ele><time>2026-04-25T15:29:05.735Z</time></trkpt><trkpt lat="45.4853954" lon="10.4813702"><ele>197.0</ele><time>2026-04-25T15:29:06.736Z</time></trkpt><trkpt lat="45.4854291" lon="10.4812874"><ele>197.0</ele><time>2026-04-25T15:29:07.735Z</time></trkpt><trkpt lat="45.4854646" lon="10.4812081"><ele>197.00000000000003</ele><time>2026-04-25T15:29:08.735Z</time></trkpt><trkpt lat="45.4854994" lon="10.4811167"><ele>197.0</ele><time>2026-04-25T15:29:09.735Z</time></trkpt><trkpt lat="45.4855769" lon="10.4809576"><ele>196.42857142857144</ele><time>2026-04-25T15:29:11.736Z</time></trkpt><trkpt lat="45.4856143" lon="10.4808804"><ele>195.85714285714286</ele><time>2026-04-25T15:29:12.735Z</time></trkpt><trkpt lat="45.4856516" lon="10.4807895"><ele>195.28571428571428</ele><time>2026-04-25T15:29:13.736Z</time></trkpt><trkpt lat="45.4856865" lon="10.4807106"><ele>194.71428571428572</ele><time>2026-04-25T15:29:14.736Z</time></trkpt><trkpt lat="45.4857223" lon="10.4806204"><ele>194.14285714285714</ele><time>2026-04-25T15:29:15.735Z</time></trkpt><trkpt lat="45.4857656" lon="10.4805159"><ele>193.57142857142858</ele><time>2026-04-25T15:29:16.735Z</time></trkpt><trkpt lat="45.4858022" lon="10.480425"><ele>193.0</ele><time>2026-04-25T15:29:17.736Z</time></trkpt><trkpt lat="45.4858388" lon="10.4803407"><ele>193.00000000000003</ele><time>2026-04-25T15:29:18.735Z</time></trkpt><trkpt lat="45.4858776" lon="10.480253"><ele>193.0</ele><time>2026-04-25T15:29:19.734Z</time></trkpt><trkpt lat="45.4859223" lon="10.4801701"><ele>193.0</ele><time>2026-04-25T15:29:20.735Z</time></trkpt><trkpt lat="45.4859656" lon="10.4800924"><ele>193.0</ele><time>2026-04-25T15:29:21.734Z</time></trkpt><trkpt lat="45.4860086" lon="10.4800128"><ele>193.0</ele><time>2026-04-25T15:29:22.736Z</time></trkpt><trkpt lat="45.486051" lon="10.4799324"><ele>193.00000000000003</ele><time>2026-04-25T15:29:23.735Z</time></trkpt><trkpt lat="45.4860884" lon="10.4798586"><ele>193.0</ele><time>2026-04-25T15:29:24.735Z</time></trkpt><trkpt lat="45.4861608" lon="10.4797016"><ele>192.99999999999997</ele><time>2026-04-25T15:29:26.734Z</time></trkpt><trkpt lat="45.4861953" lon="10.4796141"><ele>193.0</ele><time>2026-04-25T15:29:27.735Z</time></trkpt><trkpt lat="45.4862352" lon="10.4795261"><ele>193.0</ele><time>2026-04-25T15:29:28.736Z</time></trkpt><trkpt lat="45.4863043" lon="10.4793756"><ele>193.0</ele><time>2026-04-25T15:29:30.735Z</time></trkpt><trkpt lat="45.4863377" lon="10.4792873"><ele>192.99999999999997</ele><time>2026-04-25T15:29:31.735Z</time></trkpt><trkpt lat="45.4863865" lon="10.4791841"><ele>193.0</ele><time>2026-04-25T15:29:32.735Z</time></trkpt><trkpt lat="45.4864532" lon="10.4790597"><ele>192.49999999999997</ele><time>2026-04-25T15:29:34.734Z</time></trkpt><trkpt lat="45.4865081" lon="10.4788818"><ele>192.0</ele><time>2026-04-25T15:29:36.736Z</time></trkpt><trkpt lat="45.4865286" lon="10.4787903"><ele>191.5</ele><time>2026-04-25T15:29:37.735Z</time></trkpt><trkpt lat="45.4865708" lon="10.4786905"><ele>191.0</ele><time>2026-04-25T15:29:38.736Z</time></trkpt><trkpt lat="45.4866072" lon="10.4785982"><ele>190.5</ele><time>2026-04-25T15:29:39.735Z</time></trkpt><trkpt lat="45.4866342" lon="10.478501"><ele>190.0</ele><time>2026-04-25T15:29:40.736Z</time></trkpt><trkpt lat="45.4866684" lon="10.4783984"><ele>189.66666666666669</ele><time>2026-04-25T15:29:41.735Z</time></trkpt><trkpt lat="45.4867107" lon="10.4782965"><ele>189.33333333333334</ele><time>2026-04-25T15:29:42.735Z</time></trkpt><trkpt lat="45.4867502" lon="10.4781913"><ele>189.0</ele><time>2026-04-25T15:29:43.735Z</time></trkpt><trkpt lat="45.486787" lon="10.47809"><ele>188.66666666666666</ele><time>2026-04-25T15:29:44.736Z</time></trkpt><trkpt lat="45.486824" lon="10.4779861"><ele>188.33333333333331</ele><time>2026-04-25T15:29:45.736Z</time></trkpt><trkpt lat="45.4868636" lon="10.4778796"><ele>188.0</ele><time>2026-04-25T15:29:46.736Z</time></trkpt><trkpt lat="45.4868999" lon="10.4777738"><ele>187.66666666666666</ele><time>2026-04-25T15:29:47.735Z</time></trkpt><trkpt lat="45.486937" lon="10.4776689"><ele>187.33333333333331</ele><time>2026-04-25T15:29:48.736Z</time></trkpt><trkpt lat="45.4869784" lon="10.4775713"><ele>187.0</ele><time>2026-04-25T15:29:49.735Z</time></trkpt><trkpt lat="45.4870213" lon="10.4774698"><ele>186.66666666666666</ele><time>2026-04-25T15:29:50.736Z</time></trkpt><trkpt lat="45.4870609" lon="10.4773764"><ele>186.33333333333334</ele><time>2026-04-25T15:29:51.736Z</time></trkpt><trkpt lat="45.4871029" lon="10.4772765"><ele>186.0</ele><time>2026-04-25T15:29:52.736Z</time></trkpt><trkpt lat="45.4871475" lon="10.4772011"><ele>186.0</ele><time>2026-04-25T15:29:53.734Z</time></trkpt><trkpt lat="45.4871863" lon="10.47711"><ele>186.0</ele><time>2026-04-25T15:29:54.735Z</time></trkpt><trkpt lat="45.4872406" lon="10.4769427"><ele>186.0</ele><time>2026-04-25T15:29:56.734Z</time></trkpt><trkpt lat="45.4872886" lon="10.4768342"><ele>186.0</ele><time>2026-04-25T15:29:57.736Z</time></trkpt><trkpt lat="45.4873288" lon="10.476729"><ele>186.0</ele><time>2026-04-25T15:29:58.736Z</time></trkpt><trkpt lat="45.4873658" lon="10.4766319"><ele>185.71428571428572</ele><time>2026-04-25T15:29:59.736Z</time></trkpt><trkpt lat="45.4873958" lon="10.4765329"><ele>185.42857142857144</ele><time>2026-04-25T15:30:00.736Z</time></trkpt><trkpt lat="45.487421" lon="10.4764385"><ele>185.14285714285717</ele><time>2026-04-25T15:30:01.735Z</time></trkpt><trkpt lat="45.487441" lon="10.4763412"><ele>184.85714285714286</ele><time>2026-04-25T15:30:02.734Z</time></trkpt><trkpt lat="45.4874605" lon="10.4762505"><ele>184.57142857142856</ele><time>2026-04-25T15:30:03.736Z</time></trkpt><trkpt lat="45.4874834" lon="10.4761596"><ele>184.2857142857143</ele><time>2026-04-25T15:30:04.735Z</time></trkpt><trkpt lat="45.4874963" lon="10.4760639"><ele>184.0</ele><time>2026-04-25T15:30:05.736Z</time></trkpt><trkpt lat="45.4875029" lon="10.4759605"><ele>184.0</ele><time>2026-04-25T15:30:06.735Z</time></trkpt><trkpt lat="45.4875138" lon="10.4758608"><ele>184.0</ele><time>2026-04-25T15:30:07.736Z</time></trkpt><trkpt lat="45.4875001" lon="10.4756876"><ele>184.0</ele><time>2026-04-25T15:30:09.735Z</time></trkpt><trkpt lat="45.4874677" lon="10.4755489"><ele>184.0</ele><time>2026-04-25T15:30:11.736Z</time></trkpt><trkpt lat="45.4874555" lon="10.4754264"><ele>184.0</ele><time>2026-04-25T15:30:14.734Z</time></trkpt><trkpt lat="45.487484" lon="10.4753374"><ele>183.6</ele><time>2026-04-25T15:30:16.736Z</time></trkpt><trkpt lat="45.4875348" lon="10.4752399"><ele>183.2</ele><time>2026-04-25T15:30:19.735Z</time></trkpt><trkpt lat="45.4875828" lon="10.4751745"><ele>182.79999999999998</ele><time>2026-04-25T15:30:21.736Z</time></trkpt><trkpt lat="45.4876794" lon="10.4750978"><ele>182.39999999999998</ele><time>2026-04-25T15:30:23.735Z</time></trkpt><trkpt lat="45.4877766" lon="10.4750287"><ele>182.0</ele><time>2026-04-25T15:30:25.734Z</time></trkpt><trkpt lat="45.4878734" lon="10.4749588"><ele>182.39999999999998</ele><time>2026-04-25T15:30:27.736Z</time></trkpt><trkpt lat="45.487957" lon="10.4748944"><ele>182.79999999999998</ele><time>2026-04-25T15:30:29.735Z</time></trkpt><trkpt lat="45.4880504" lon="10.4748354"><ele>183.2</ele><time>2026-04-25T15:30:31.736Z</time></trkpt><trkpt lat="45.4881695" lon="10.4747806"><ele>183.6</ele><time>2026-04-25T15:30:33.736Z</time></trkpt><trkpt lat="45.4882738" lon="10.4747283"><ele>184.0</ele><time>2026-04-25T15:30:35.736Z</time></trkpt><trkpt lat="45.4883853" lon="10.4746661"><ele>184.0</ele><time>2026-04-25T15:30:37.735Z</time></trkpt><trkpt lat="45.4884947" lon="10.4746001"><ele>184.0</ele><time>2026-04-25T15:30:39.735Z</time></trkpt><trkpt lat="45.488599" lon="10.4745376"><ele>184.0</ele><time>2026-04-25T15:30:41.736Z</time></trkpt><trkpt lat="45.4886593" lon="10.4745065"><ele>184.0</ele><time>2026-04-25T15:30:42.736Z</time></trkpt><trkpt lat="45.48879" lon="10.4744452"><ele>184.0</ele><time>2026-04-25T15:30:44.736Z</time></trkpt><trkpt lat="45.488903" lon="10.4743925"><ele>184.5</ele><time>2026-04-25T15:30:46.734Z</time></trkpt><trkpt lat="45.4890164" lon="10.4743374"><ele>185.0</ele><time>2026-04-25T15:30:48.735Z</time></trkpt><trkpt lat="45.4891272" lon="10.4742792"><ele>185.5</ele><time>2026-04-25T15:30:50.736Z</time></trkpt><trkpt lat="45.4892405" lon="10.4742107"><ele>186.0</ele><time>2026-04-25T15:30:52.734Z</time></trkpt><trkpt lat="45.4893421" lon="10.474141"><ele>186.0</ele><time>2026-04-25T15:30:54.736Z</time></trkpt><trkpt lat="45.4894495" lon="10.4740679"><ele>186.0</ele><time>2026-04-25T15:30:56.735Z</time></trkpt><trkpt lat="45.489552" lon="10.4739841"><ele>186.0</ele><time>2026-04-25T15:30:58.735Z</time></trkpt><trkpt lat="45.489642" lon="10.4738889"><ele>186.0</ele><time>2026-04-25T15:31:00.735Z</time></trkpt><trkpt lat="45.4897328" lon="10.4737976"><ele>186.60000000000002</ele><time>2026-04-25T15:31:02.736Z</time></trkpt><trkpt lat="45.4898288" lon="10.4737021"><ele>187.2</ele><time>2026-04-25T15:31:04.735Z</time></trkpt><trkpt lat="45.4899112" lon="10.4736132"><ele>187.8</ele><time>2026-04-25T15:31:06.734Z</time></trkpt><trkpt lat="45.4899932" lon="10.4735402"><ele>188.39999999999998</ele><time>2026-04-25T15:31:08.735Z</time></trkpt><trkpt lat="45.4900761" lon="10.4734686"><ele>189.0</ele><time>2026-04-25T15:31:10.736Z</time></trkpt><trkpt lat="45.4901812" lon="10.4733786"><ele>189.0</ele><time>2026-04-25T15:31:12.736Z</time></trkpt><trkpt lat="45.4902834" lon="10.4733057"><ele>189.0</ele><time>2026-04-25T15:31:14.736Z</time></trkpt><trkpt lat="45.4903504" lon="10.4732724"><ele>189.0</ele><time>2026-04-25T15:31:15.736Z</time></trkpt><trkpt lat="45.4904108" lon="10.4732405"><ele>189.0</ele><time>2026-04-25T15:31:16.736Z</time></trkpt><trkpt lat="45.4904727" lon="10.4732011"><ele>189.0</ele><time>2026-04-25T15:31:17.735Z</time></trkpt><trkpt lat="45.4905682" lon="10.4731538"><ele>189.0</ele><time>2026-04-25T15:31:19.735Z</time></trkpt><trkpt lat="45.4906304" lon="10.4731329"><ele>191.39999999999998</ele><time>2026-04-25T15:31:20.736Z</time></trkpt><trkpt lat="45.4907112" lon="10.4730922"><ele>193.8</ele><time>2026-04-25T15:31:22.735Z</time></trkpt><trkpt lat="45.4907952" lon="10.4730736"><ele>196.2</ele><time>2026-04-25T15:31:24.734Z</time></trkpt><trkpt lat="45.4908857" lon="10.4730562"><ele>198.60000000000002</ele><time>2026-04-25T15:31:26.736Z</time></trkpt><trkpt lat="45.4909821" lon="10.4730296"><ele>201.0</ele><time>2026-04-25T15:31:27.736Z</time></trkpt><trkpt lat="45.4910906" lon="10.4730317"><ele>201.0</ele><time>2026-04-25T15:31:29.736Z</time></trkpt><trkpt lat="45.4911973" lon="10.4730065"><ele>201.0</ele><time>2026-04-25T15:31:31.735Z</time></trkpt><trkpt lat="45.4913027" lon="10.472994"><ele>201.0</ele><time>2026-04-25T15:31:33.735Z</time></trkpt><trkpt lat="45.4913976" lon="10.472974"><ele>201.0</ele><time>2026-04-25T15:31:35.736Z</time></trkpt><trkpt lat="45.4914847" lon="10.4729578"><ele>201.0</ele><time>2026-04-25T15:31:37.735Z</time></trkpt><trkpt lat="45.4915745" lon="10.4729428"><ele>200.0</ele><time>2026-04-25T15:31:39.735Z</time></trkpt><trkpt lat="45.4916393" lon="10.4729147"><ele>199.0</ele><time>2026-04-25T15:31:41.734Z</time></trkpt><trkpt lat="45.4917084" lon="10.4728882"><ele>198.0</ele><time>2026-04-25T15:31:43.735Z</time></trkpt><trkpt lat="45.4917912" lon="10.4728709"><ele>197.0</ele><time>2026-04-25T15:31:45.734Z</time></trkpt><trkpt lat="45.4918588" lon="10.4728757"><ele>196.0</ele><time>2026-04-25T15:31:47.736Z</time></trkpt><trkpt lat="45.4919453" lon="10.4728938"><ele>195.0</ele><time>2026-04-25T15:31:50.735Z</time></trkpt><trkpt lat="45.4920387" lon="10.4729326"><ele>197.5</ele><time>2026-04-25T15:31:53.735Z</time></trkpt><trkpt lat="45.4921136" lon="10.4729861"><ele>200.0</ele><time>2026-04-25T15:31:56.735Z</time></trkpt><trkpt lat="45.4921922" lon="10.4730534"><ele>202.5</ele><time>2026-04-25T15:31:59.736Z</time></trkpt><trkpt lat="45.4922503" lon="10.4731052"><ele>205.0</ele><time>2026-04-25T15:32:01.735Z</time></trkpt><trkpt lat="45.4923216" lon="10.4731889"><ele>207.5</ele><time>2026-04-25T15:32:04.735Z</time></trkpt><trkpt lat="45.4923621" lon="10.4732638"><ele>210.0</ele><time>2026-04-25T15:32:06.735Z</time></trkpt><trkpt lat="45.4923896" lon="10.4733512"><ele>210.0</ele><time>2026-04-25T15:32:08.736Z</time></trkpt><trkpt lat="45.4924291" lon="10.4734398"><ele>210.0</ele><time>2026-04-25T15:32:10.735Z</time></trkpt><trkpt lat="45.4924695" lon="10.4735475"><ele>210.0</ele><time>2026-04-25T15:32:13.734Z</time></trkpt><trkpt lat="45.4925079" lon="10.4736355"><ele>210.0</ele><time>2026-04-25T15:32:15.735Z</time></trkpt><trkpt lat="45.4925585" lon="10.4737285"><ele>210.0</ele><time>2026-04-25T15:32:17.736Z</time></trkpt><trkpt lat="45.4925986" lon="10.4738148"><ele>210.0</ele><time>2026-04-25T15:32:19.736Z</time></trkpt><trkpt lat="45.4926243" lon="10.4739026"><ele>211.0</ele><time>2026-04-25T15:32:21.735Z</time></trkpt><trkpt lat="45.4926489" lon="10.4740181"><ele>212.0</ele><time>2026-04-25T15:32:23.736Z</time></trkpt><trkpt lat="45.4926865" lon="10.4741339"><ele>213.0</ele><time>2026-04-25T15:32:25.736Z</time></trkpt><trkpt lat="45.4927141" lon="10.47426"><ele>214.0</ele><time>2026-04-25T15:32:27.736Z</time></trkpt><trkpt lat="45.4927378" lon="10.474353"><ele>215.0</ele><time>2026-04-25T15:32:28.736Z</time></trkpt><trkpt lat="45.4927741" lon="10.4744861"><ele>216.0</ele><time>2026-04-25T15:32:30.735Z</time></trkpt><trkpt lat="45.4927885" lon="10.4745922"><ele>216.60000000000002</ele><time>2026-04-25T15:32:32.735Z</time></trkpt><trkpt lat="45.4928087" lon="10.474705"><ele>217.20000000000002</ele><time>2026-04-25T15:32:34.736Z</time></trkpt><trkpt lat="45.4928129" lon="10.4748209"><ele>217.79999999999998</ele><time>2026-04-25T15:32:36.735Z</time></trkpt><trkpt lat="45.4928876" lon="10.4748996"><ele>218.39999999999998</ele><time>2026-04-25T15:32:39.736Z</time></trkpt><trkpt lat="45.4929939" lon="10.4748932"><ele>219.0</ele><time>2026-04-25T15:32:41.736Z</time></trkpt><trkpt lat="45.4931126" lon="10.4748992"><ele>217.25</ele><time>2026-04-25T15:32:43.735Z</time></trkpt><trkpt lat="45.4932356" lon="10.4748995"><ele>215.5</ele><time>2026-04-25T15:32:45.735Z</time></trkpt><trkpt lat="45.4933568" lon="10.4749138"><ele>213.75</ele><time>2026-04-25T15:32:47.734Z</time></trkpt><trkpt lat="45.4934753" lon="10.4749289"><ele>212.0</ele><time>2026-04-25T15:32:49.735Z</time></trkpt><trkpt lat="45.4935788" lon="10.4749254"><ele>212.0</ele><time>2026-04-25T15:32:51.735Z</time></trkpt><trkpt lat="45.4936857" lon="10.474918"><ele>212.0</ele><time>2026-04-25T15:32:53.736Z</time></trkpt><trkpt lat="45.4937794" lon="10.474909"><ele>212.0</ele><time>2026-04-25T15:32:55.734Z</time></trkpt><trkpt lat="45.4938797" lon="10.474897"><ele>212.0</ele><time>2026-04-25T15:32:57.736Z</time></trkpt><trkpt lat="45.4939928" lon="10.4748983"><ele>212.0</ele><time>2026-04-25T15:32:59.736Z</time></trkpt><trkpt lat="45.4940985" lon="10.4749102"><ele>211.2</ele><time>2026-04-25T15:33:01.735Z</time></trkpt><trkpt lat="45.4942009" lon="10.4749184"><ele>210.39999999999998</ele><time>2026-04-25T15:33:03.736Z</time></trkpt><trkpt lat="45.4943101" lon="10.4749262"><ele>209.60000000000002</ele><time>2026-04-25T15:33:05.736Z</time></trkpt><trkpt lat="45.4944176" lon="10.4749436"><ele>208.8</ele><time>2026-04-25T15:33:07.735Z</time></trkpt><trkpt lat="45.4945197" lon="10.4749482"><ele>208.0</ele><time>2026-04-25T15:33:09.736Z</time></trkpt><trkpt lat="45.4946126" lon="10.4749635"><ele>208.0</ele><time>2026-04-25T15:33:11.736Z</time></trkpt><trkpt lat="45.4947165" lon="10.4749688"><ele>208.0</ele><time>2026-04-25T15:33:13.735Z</time></trkpt><trkpt lat="45.4948297" lon="10.4749812"><ele>208.0</ele><time>2026-04-25T15:33:15.736Z</time></trkpt><trkpt lat="45.4949329" lon="10.474986"><ele>208.0</ele><time>2026-04-25T15:33:17.735Z</time></trkpt><trkpt lat="45.495047" lon="10.4749903"><ele>208.0</ele><time>2026-04-25T15:33:19.735Z</time></trkpt><trkpt lat="45.495138" lon="10.4749964"><ele>208.0</ele><time>2026-04-25T15:33:21.735Z</time></trkpt><trkpt lat="45.4952244" lon="10.4750038"><ele>208.0</ele><time>2026-04-25T15:33:23.736Z</time></trkpt><trkpt lat="45.4953343" lon="10.4750151"><ele>208.0</ele><time>2026-04-25T15:33:25.735Z</time></trkpt><trkpt lat="45.495438" lon="10.4750124"><ele>208.0</ele><time>2026-04-25T15:33:27.735Z</time></trkpt><trkpt lat="45.4955397" lon="10.4750186"><ele>208.0</ele><time>2026-04-25T15:33:29.734Z</time></trkpt><trkpt lat="45.4956518" lon="10.4750201"><ele>207.8</ele><time>2026-04-25T15:33:31.734Z</time></trkpt><trkpt lat="45.4957585" lon="10.4750534"><ele>207.60000000000002</ele><time>2026-04-25T15:33:33.735Z</time></trkpt><trkpt lat="45.4958585" lon="10.4750771"><ele>207.39999999999998</ele><time>2026-04-25T15:33:35.735Z</time></trkpt><trkpt lat="45.4959852" lon="10.4750963"><ele>207.2</ele><time>2026-04-25T15:33:37.735Z</time></trkpt><trkpt lat="45.496093" lon="10.4751105"><ele>207.0</ele><time>2026-04-25T15:33:39.735Z</time></trkpt><trkpt lat="45.4961567" lon="10.4751244"><ele>207.0</ele><time>2026-04-25T15:33:40.735Z</time></trkpt><trkpt lat="45.4962215" lon="10.4751293"><ele>207.0</ele><time>2026-04-25T15:33:41.736Z</time></trkpt><trkpt lat="45.496337" lon="10.4751317"><ele>207.0</ele><time>2026-04-25T15:33:43.736Z</time></trkpt><trkpt lat="45.4964635" lon="10.4751485"><ele>207.0</ele><time>2026-04-25T15:33:45.735Z</time></trkpt><trkpt lat="45.496588" lon="10.4751669"><ele>207.0</ele><time>2026-04-25T15:33:47.735Z</time></trkpt><trkpt lat="45.4967029" lon="10.475191"><ele>206.66666666666666</ele><time>2026-04-25T15:33:49.735Z</time></trkpt><trkpt lat="45.4968008" lon="10.4752236"><ele>206.33333333333331</ele><time>2026-04-25T15:33:51.735Z</time></trkpt><trkpt lat="45.4969095" lon="10.4752861"><ele>206.0</ele><time>2026-04-25T15:33:53.735Z</time></trkpt><trkpt lat="45.4969992" lon="10.4753113"><ele>205.66666666666666</ele><time>2026-04-25T15:33:55.734Z</time></trkpt><trkpt lat="45.4970642" lon="10.4753269"><ele>205.33333333333331</ele><time>2026-04-25T15:33:56.736Z</time></trkpt><trkpt lat="45.497128" lon="10.4753294"><ele>205.0</ele><time>2026-04-25T15:33:57.735Z</time></trkpt><trkpt lat="45.4971969" lon="10.4753405"><ele>204.8</ele><time>2026-04-25T15:33:58.734Z</time></trkpt><trkpt lat="45.4973125" lon="10.475354"><ele>204.6</ele><time>2026-04-25T15:34:00.735Z</time></trkpt><trkpt lat="45.4974321" lon="10.4753917"><ele>204.39999999999998</ele><time>2026-04-25T15:34:02.735Z</time></trkpt><trkpt lat="45.497543" lon="10.4754267"><ele>204.2</ele><time>2026-04-25T15:34:04.734Z</time></trkpt><trkpt lat="45.4976392" lon="10.4754331"><ele>204.0</ele><time>2026-04-25T15:34:06.735Z</time></trkpt><trkpt lat="45.4977314" lon="10.4754593"><ele>204.66666666666666</ele><time>2026-04-25T15:34:08.735Z</time></trkpt><trkpt lat="45.4978304" lon="10.4754636"><ele>205.33333333333331</ele><time>2026-04-25T15:34:10.736Z</time></trkpt><trkpt lat="45.4979277" lon="10.4754757"><ele>206.0</ele><time>2026-04-25T15:34:12.735Z</time></trkpt><trkpt lat="45.4980294" lon="10.4754776"><ele>206.66666666666666</ele><time>2026-04-25T15:34:14.735Z</time></trkpt><trkpt lat="45.498095" lon="10.4754689"><ele>207.33333333333331</ele><time>2026-04-25T15:34:15.736Z</time></trkpt><trkpt lat="45.4981594" lon="10.4754759"><ele>208.0</ele><time>2026-04-25T15:34:16.735Z</time></trkpt><trkpt lat="45.4982798" lon="10.4754748"><ele>208.0</ele><time>2026-04-25T15:34:18.736Z</time></trkpt><trkpt lat="45.4983438" lon="10.4754553"><ele>208.0</ele><time>2026-04-25T15:34:19.735Z</time></trkpt><trkpt lat="45.4984473" lon="10.4754565"><ele>208.0</ele><time>2026-04-25T15:34:21.735Z</time></trkpt><trkpt lat="45.4985399" lon="10.4754509"><ele>208.0</ele><time>2026-04-25T15:34:23.735Z</time></trkpt><trkpt lat="45.4986324" lon="10.4754221"><ele>208.0</ele><time>2026-04-25T15:34:25.736Z</time></trkpt><trkpt lat="45.4987287" lon="10.4754175"><ele>207.33333333333331</ele><time>2026-04-25T15:34:27.734Z</time></trkpt><trkpt lat="45.4988137" lon="10.4754324"><ele>206.66666666666666</ele><time>2026-04-25T15:34:29.736Z</time></trkpt><trkpt lat="45.49888" lon="10.4754064"><ele>206.0</ele><time>2026-04-25T15:34:31.734Z</time></trkpt><trkpt lat="45.4989167" lon="10.4752948"><ele>205.33333333333331</ele><time>2026-04-25T15:34:34.735Z</time></trkpt><trkpt lat="45.4989223" lon="10.4751684"><ele>204.66666666666666</ele><time>2026-04-25T15:34:36.735Z</time></trkpt><trkpt lat="45.4989322" lon="10.4750031"><ele>204.0</ele><time>2026-04-25T15:34:38.735Z</time></trkpt><trkpt lat="45.4989409" lon="10.4749088"><ele>204.0</ele><time>2026-04-25T15:34:39.735Z</time></trkpt><trkpt lat="45.4989471" lon="10.4748145"><ele>204.0</ele><time>2026-04-25T15:34:40.735Z</time></trkpt><trkpt lat="45.4989513" lon="10.4747161"><ele>204.0</ele><time>2026-04-25T15:34:41.735Z</time></trkpt><trkpt lat="45.4989621" lon="10.4746112"><ele>204.0</ele><time>2026-04-25T15:34:42.736Z</time></trkpt><trkpt lat="45.498961" lon="10.4745039"><ele>204.0</ele><time>2026-04-25T15:34:43.736Z</time></trkpt><trkpt lat="45.4989676" lon="10.4744016"><ele>204.0</ele><time>2026-04-25T15:34:44.736Z</time></trkpt><trkpt lat="45.4989712" lon="10.4743036"><ele>204.0</ele><time>2026-04-25T15:34:45.735Z</time></trkpt><trkpt lat="45.4989772" lon="10.4741885"><ele>203.66666666666666</ele><time>2026-04-25T15:34:46.736Z</time></trkpt><trkpt lat="45.498984" lon="10.4740784"><ele>203.33333333333331</ele><time>2026-04-25T15:34:47.735Z</time></trkpt><trkpt lat="45.4989935" lon="10.473966"><ele>203.0</ele><time>2026-04-25T15:34:48.736Z</time></trkpt><trkpt lat="45.4989996" lon="10.4738573"><ele>202.66666666666666</ele><time>2026-04-25T15:34:49.735Z</time></trkpt><trkpt lat="45.4990095" lon="10.473745"><ele>202.33333333333331</ele><time>2026-04-25T15:34:50.736Z</time></trkpt><trkpt lat="45.4990138" lon="10.4736273"><ele>202.0</ele><time>2026-04-25T15:34:51.734Z</time></trkpt><trkpt lat="45.4990178" lon="10.4735269"><ele>201.66666666666666</ele><time>2026-04-25T15:34:52.735Z</time></trkpt><trkpt lat="45.4990189" lon="10.4734128"><ele>201.33333333333331</ele><time>2026-04-25T15:34:53.736Z</time></trkpt><trkpt lat="45.4990224" lon="10.4733038"><ele>201.0</ele><time>2026-04-25T15:34:54.736Z</time></trkpt><trkpt lat="45.4990269" lon="10.473192"><ele>200.66666666666669</ele><time>2026-04-25T15:34:55.734Z</time></trkpt><trkpt lat="45.4990266" lon="10.4730823"><ele>200.33333333333334</ele><time>2026-04-25T15:34:56.736Z</time></trkpt><trkpt lat="45.4990304" lon="10.4729758"><ele>200.0</ele><time>2026-04-25T15:34:57.735Z</time></trkpt><trkpt lat="45.4990324" lon="10.4728674"><ele>199.83333333333334</ele><time>2026-04-25T15:34:58.736Z</time></trkpt><trkpt lat="45.4990345" lon="10.4727754"><ele>199.66666666666669</ele><time>2026-04-25T15:34:59.736Z</time></trkpt><trkpt lat="45.4990419" lon="10.4726361"><ele>199.5</ele><time>2026-04-25T15:35:01.736Z</time></trkpt><trkpt lat="45.4991122" lon="10.4725777"><ele>199.33333333333331</ele><time>2026-04-25T15:35:04.735Z</time></trkpt><trkpt lat="45.4992023" lon="10.4726267"><ele>199.16666666666666</ele><time>2026-04-25T15:35:07.736Z</time></trkpt><trkpt lat="45.4992706" lon="10.4726666"><ele>199.0</ele><time>2026-04-25T15:35:09.735Z</time></trkpt><trkpt lat="45.4993481" lon="10.4726934"><ele>199.0</ele><time>2026-04-25T15:35:11.735Z</time></trkpt><trkpt lat="45.4994321" lon="10.4727148"><ele>199.0</ele><time>2026-04-25T15:35:13.736Z</time></trkpt><trkpt lat="45.4995182" lon="10.4727344"><ele>199.0</ele><time>2026-04-25T15:35:15.734Z</time></trkpt><trkpt lat="45.4996146" lon="10.4727661"><ele>199.0</ele><time>2026-04-25T15:35:17.736Z</time></trkpt><trkpt lat="45.4997101" lon="10.4727897"><ele>199.0</ele><time>2026-04-25T15:35:19.735Z</time></trkpt><trkpt lat="45.4998052" lon="10.4728176"><ele>199.6</ele><time>2026-04-25T15:35:21.735Z</time></trkpt><trkpt lat="45.4999014" lon="10.4728466"><ele>200.2</ele><time>2026-04-25T15:35:23.736Z</time></trkpt><trkpt lat="45.4999978" lon="10.4728724"><ele>200.79999999999998</ele><time>2026-04-25T15:35:25.735Z</time></trkpt><trkpt lat="45.5000924" lon="10.4729019"><ele>201.39999999999998</ele><time>2026-04-25T15:35:27.736Z</time></trkpt><trkpt lat="45.5001853" lon="10.4729237"><ele>202.0</ele><time>2026-04-25T15:35:29.736Z</time></trkpt><trkpt lat="45.5002738" lon="10.4729503"><ele>201.99999999999997</ele><time>2026-04-25T15:35:31.735Z</time></trkpt><trkpt lat="45.5003596" lon="10.4729765"><ele>202.0</ele><time>2026-04-25T15:35:33.736Z</time></trkpt><trkpt lat="45.5004378" lon="10.4729979"><ele>202.0</ele><time>2026-04-25T15:35:35.735Z</time></trkpt><trkpt lat="45.5005202" lon="10.4730207"><ele>202.0</ele><time>2026-04-25T15:35:37.735Z</time></trkpt><trkpt lat="45.5006002" lon="10.4730399"><ele>201.99999999999997</ele><time>2026-04-25T15:35:39.737Z</time></trkpt><trkpt lat="45.5006761" lon="10.4730757"><ele>202.0</ele><time>2026-04-25T15:35:41.736Z</time></trkpt><trkpt lat="45.5007207" lon="10.4731439"><ele>203.39999999999998</ele><time>2026-04-25T15:35:43.736Z</time></trkpt><trkpt lat="45.5007363" lon="10.4732361"><ele>204.79999999999998</ele><time>2026-04-25T15:35:45.737Z</time></trkpt><trkpt lat="45.5007651" lon="10.4733521"><ele>206.2</ele><time>2026-04-25T15:35:48.735Z</time></trkpt><trkpt lat="45.5008156" lon="10.4734566"><ele>207.6</ele><time>2026-04-25T15:35:50.737Z</time></trkpt><trkpt lat="45.5008698" lon="10.47356"><ele>209.0</ele><time>2026-04-25T15:35:52.736Z</time></trkpt><trkpt lat="45.5009234" lon="10.4737135"><ele>208.79999999999998</ele><time>2026-04-25T15:35:54.736Z</time></trkpt><trkpt lat="45.500976" lon="10.4738354"><ele>208.6</ele><time>2026-04-25T15:35:56.736Z</time></trkpt><trkpt lat="45.5010537" lon="10.473922"><ele>208.4</ele><time>2026-04-25T15:35:58.737Z</time></trkpt><trkpt lat="45.5011248" lon="10.4740419"><ele>208.2</ele><time>2026-04-25T15:36:00.736Z</time></trkpt><trkpt lat="45.5012125" lon="10.4741321"><ele>208.0</ele><time>2026-04-25T15:36:02.737Z</time></trkpt><trkpt lat="45.5013218" lon="10.4741228"><ele>208.4</ele><time>2026-04-25T15:36:04.737Z</time></trkpt><trkpt lat="45.5013963" lon="10.4740753"><ele>208.8</ele><time>2026-04-25T15:36:06.735Z</time></trkpt><trkpt lat="45.5014792" lon="10.4741067"><ele>209.2</ele><time>2026-04-25T15:36:08.736Z</time></trkpt><trkpt lat="45.5015652" lon="10.4741888"><ele>209.6</ele><time>2026-04-25T15:36:10.736Z</time></trkpt><trkpt lat="45.5016542" lon="10.4742655"><ele>210.0</ele><time>2026-04-25T15:36:12.736Z</time></trkpt><trkpt lat="45.5017403" lon="10.4743397"><ele>210.0</ele><time>2026-04-25T15:36:14.736Z</time></trkpt><trkpt lat="45.5018295" lon="10.4744119"><ele>210.0</ele><time>2026-04-25T15:36:16.736Z</time></trkpt><trkpt lat="45.5018888" lon="10.4744599"><ele>210.0</ele><time>2026-04-25T15:36:17.737Z</time></trkpt><trkpt lat="45.5019857" lon="10.4745141"><ele>210.0</ele><time>2026-04-25T15:36:19.737Z</time></trkpt><trkpt lat="45.5020899" lon="10.474581"><ele>210.0</ele><time>2026-04-25T15:36:21.736Z</time></trkpt><trkpt lat="45.5022004" lon="10.4746306"><ele>209.8</ele><time>2026-04-25T15:36:23.737Z</time></trkpt><trkpt lat="45.5023116" lon="10.4746661"><ele>209.6</ele><time>2026-04-25T15:36:25.736Z</time></trkpt><trkpt lat="45.5024193" lon="10.4746871"><ele>209.39999999999998</ele><time>2026-04-25T15:36:27.736Z</time></trkpt><trkpt lat="45.5025137" lon="10.4746793"><ele>209.2</ele><time>2026-04-25T15:36:29.736Z</time></trkpt><trkpt lat="45.5026208" lon="10.4746346"><ele>209.0</ele><time>2026-04-25T15:36:31.737Z</time></trkpt><trkpt lat="45.5027283" lon="10.4745677"><ele>208.79999999999998</ele><time>2026-04-25T15:36:33.737Z</time></trkpt><trkpt lat="45.5028452" lon="10.4744667"><ele>208.6</ele><time>2026-04-25T15:36:35.737Z</time></trkpt><trkpt lat="45.502903" lon="10.4744177"><ele>208.4</ele><time>2026-04-25T15:36:36.736Z</time></trkpt><trkpt lat="45.5029983" lon="10.4743428"><ele>208.2</ele><time>2026-04-25T15:36:38.737Z</time></trkpt><trkpt lat="45.5030881" lon="10.47428"><ele>208.0</ele><time>2026-04-25T15:36:40.737Z</time></trkpt><trkpt lat="45.5031799" lon="10.4742217"><ele>208.33333333333331</ele><time>2026-04-25T15:36:42.737Z</time></trkpt><trkpt lat="45.5032591" lon="10.4741659"><ele>208.66666666666666</ele><time>2026-04-25T15:36:44.737Z</time></trkpt><trkpt lat="45.503339" lon="10.4740995"><ele>209.0</ele><time>2026-04-25T15:36:46.736Z</time></trkpt><trkpt lat="45.5034197" lon="10.4740599"><ele>209.33333333333331</ele><time>2026-04-25T15:36:48.737Z</time></trkpt><trkpt lat="45.5034968" lon="10.4740341"><ele>209.66666666666666</ele><time>2026-04-25T15:36:50.736Z</time></trkpt><trkpt lat="45.5035871" lon="10.4740273"><ele>210.0</ele><time>2026-04-25T15:36:52.736Z</time></trkpt><trkpt lat="45.5036822" lon="10.4740265"><ele>209.28571428571428</ele><time>2026-04-25T15:36:54.736Z</time></trkpt><trkpt lat="45.5037805" lon="10.4740321"><ele>208.57142857142856</ele><time>2026-04-25T15:36:56.736Z</time></trkpt><trkpt lat="45.5038443" lon="10.4740416"><ele>207.85714285714286</ele><time>2026-04-25T15:36:57.737Z</time></trkpt><trkpt lat="45.5039074" lon="10.4740563"><ele>207.14285714285714</ele><time>2026-04-25T15:36:58.737Z</time></trkpt><trkpt lat="45.5039779" lon="10.4740612"><ele>206.42857142857142</ele><time>2026-04-25T15:36:59.737Z</time></trkpt><trkpt lat="45.5040534" lon="10.4740692"><ele>205.71428571428572</ele><time>2026-04-25T15:37:00.737Z</time></trkpt><trkpt lat="45.504129" lon="10.4740815"><ele>205.0</ele><time>2026-04-25T15:37:01.736Z</time></trkpt><trkpt lat="45.5042061" lon="10.4740935"><ele>204.99999999999997</ele><time>2026-04-25T15:37:02.737Z</time></trkpt><trkpt lat="45.5042916" lon="10.4741001"><ele>205.0</ele><time>2026-04-25T15:37:03.737Z</time></trkpt><trkpt lat="45.5043802" lon="10.4740966"><ele>205.0</ele><time>2026-04-25T15:37:04.735Z</time></trkpt><trkpt lat="45.5044729" lon="10.4740793"><ele>205.0</ele><time>2026-04-25T15:37:05.737Z</time></trkpt><trkpt lat="45.5045514" lon="10.4740499"><ele>204.99999999999997</ele><time>2026-04-25T15:37:06.736Z</time></trkpt><trkpt lat="45.5046406" lon="10.4740016"><ele>205.0</ele><time>2026-04-25T15:37:07.737Z</time></trkpt><trkpt lat="45.5047485" lon="10.4739201"><ele>202.5</ele><time>2026-04-25T15:37:08.736Z</time></trkpt><trkpt lat="45.5048727" lon="10.4737973"><ele>200.0</ele><time>2026-04-25T15:37:09.736Z</time></trkpt><trkpt lat="45.5049708" lon="10.4737002"><ele>197.5</ele><time>2026-04-25T15:37:10.736Z</time></trkpt><trkpt lat="45.5050584" lon="10.4735832"><ele>195.0</ele><time>2026-04-25T15:37:11.735Z</time></trkpt><trkpt lat="45.5051389" lon="10.4734787"><ele>195.0</ele><time>2026-04-25T15:37:12.736Z</time></trkpt><trkpt lat="45.5051992" lon="10.4733653"><ele>195.0</ele><time>2026-04-25T15:37:13.737Z</time></trkpt><trkpt lat="45.505273" lon="10.4732602"><ele>195.0</ele><time>2026-04-25T15:37:14.736Z</time></trkpt><trkpt lat="45.5053293" lon="10.4731785"><ele>195.0</ele><time>2026-04-25T15:37:15.737Z</time></trkpt><trkpt lat="45.5054186" lon="10.4730507"><ele>195.0</ele><time>2026-04-25T15:37:17.737Z</time></trkpt><trkpt lat="45.5055193" lon="10.4730339"><ele>194.83333333333334</ele><time>2026-04-25T15:37:19.736Z</time></trkpt><trkpt lat="45.5055832" lon="10.4731569"><ele>194.66666666666669</ele><time>2026-04-25T15:37:21.736Z</time></trkpt><trkpt lat="45.5056205" lon="10.4732766"><ele>194.5</ele><time>2026-04-25T15:37:22.736Z</time></trkpt><trkpt lat="45.5056414" lon="10.4733705"><ele>194.33333333333334</ele><time>2026-04-25T15:37:23.735Z</time></trkpt><trkpt lat="45.5056617" lon="10.4734601"><ele>194.16666666666669</ele><time>2026-04-25T15:37:24.736Z</time></trkpt><trkpt lat="45.505683" lon="10.4735478"><ele>194.0</ele><time>2026-04-25T15:37:25.737Z</time></trkpt><trkpt lat="45.5057123" lon="10.473721"><ele>194.0</ele><time>2026-04-25T15:37:27.736Z</time></trkpt><trkpt lat="45.5057342" lon="10.4738084"><ele>194.0</ele><time>2026-04-25T15:37:28.737Z</time></trkpt><trkpt lat="45.5057539" lon="10.473987"><ele>194.0</ele><time>2026-04-25T15:37:30.737Z</time></trkpt><trkpt lat="45.5057622" lon="10.4740797"><ele>194.0</ele><time>2026-04-25T15:37:31.737Z</time></trkpt><trkpt lat="45.50579" lon="10.4742577"><ele>194.0</ele><time>2026-04-25T15:37:33.736Z</time></trkpt><trkpt lat="45.5058193" lon="10.4743503"><ele>194.0</ele><time>2026-04-25T15:37:34.736Z</time></trkpt><trkpt lat="45.5058835" lon="10.4745009"><ele>194.0</ele><time>2026-04-25T15:37:36.737Z</time></trkpt><trkpt lat="45.5059656" lon="10.4746163"><ele>194.0</ele><time>2026-04-25T15:37:38.736Z</time></trkpt><trkpt lat="45.5060626" lon="10.4747226"><ele>194.0</ele><time>2026-04-25T15:37:40.736Z</time></trkpt><trkpt lat="45.5061292" lon="10.4748151"><ele>194.00000000000003</ele><time>2026-04-25T15:37:42.735Z</time></trkpt><trkpt lat="45.5061538" lon="10.4749104"><ele>194.0</ele><time>2026-04-25T15:37:45.737Z</time></trkpt><trkpt lat="45.5061908" lon="10.4750209"><ele>194.0</ele><time>2026-04-25T15:38:44.737Z</time></trkpt><trkpt lat="45.5062521" lon="10.4750824"><ele>194.0</ele><time>2026-04-25T15:38:46.735Z</time></trkpt><trkpt lat="45.5063453" lon="10.4750935"><ele>194.00000000000003</ele><time>2026-04-25T15:38:48.736Z</time></trkpt><trkpt lat="45.5064412" lon="10.4751435"><ele>194.0</ele><time>2026-04-25T15:38:50.737Z</time></trkpt><trkpt lat="45.5065218" lon="10.4752149"><ele>194.0</ele><time>2026-04-25T15:38:52.736Z</time></trkpt><trkpt lat="45.5066022" lon="10.4752918"><ele>194.0</ele><time>2026-04-25T15:38:54.737Z</time></trkpt><trkpt lat="45.5067021" lon="10.4753579"><ele>194.0</ele><time>2026-04-25T15:38:56.736Z</time></trkpt><trkpt lat="45.5068054" lon="10.4754493"><ele>194.0</ele><time>2026-04-25T15:38:58.736Z</time></trkpt><trkpt lat="45.5068732" lon="10.4754903"><ele>194.0</ele><time>2026-04-25T15:38:59.735Z</time></trkpt><trkpt lat="45.5069305" lon="10.4755332"><ele>194.25</ele><time>2026-04-25T15:39:00.737Z</time></trkpt><trkpt lat="45.5070433" lon="10.4756102"><ele>194.5</ele><time>2026-04-25T15:39:02.737Z</time></trkpt><trkpt lat="45.5071563" lon="10.4756912"><ele>194.75</ele><time>2026-04-25T15:39:04.736Z</time></trkpt><trkpt lat="45.5072644" lon="10.4757871"><ele>195.0</ele><time>2026-04-25T15:39:06.737Z</time></trkpt><trkpt lat="45.5073714" lon="10.4758803"><ele>195.2</ele><time>2026-04-25T15:39:08.736Z</time></trkpt><trkpt lat="45.5074725" lon="10.4759745"><ele>195.4</ele><time>2026-04-25T15:39:10.736Z</time></trkpt><trkpt lat="45.5075769" lon="10.4760681"><ele>195.60000000000002</ele><time>2026-04-25T15:39:12.736Z</time></trkpt><trkpt lat="45.5076323" lon="10.4761221"><ele>195.8</ele><time>2026-04-25T15:39:13.736Z</time></trkpt><trkpt lat="45.50775" lon="10.4762106"><ele>196.0</ele><time>2026-04-25T15:39:15.736Z</time></trkpt><trkpt lat="45.5078566" lon="10.4762866"><ele>196.8</ele><time>2026-04-25T15:39:17.737Z</time></trkpt><trkpt lat="45.5079657" lon="10.4763617"><ele>197.60000000000002</ele><time>2026-04-25T15:39:19.737Z</time></trkpt><trkpt lat="45.5080266" lon="10.4763936"><ele>198.4</ele><time>2026-04-25T15:39:20.737Z</time></trkpt><trkpt lat="45.5081488" lon="10.4764384"><ele>199.2</ele><time>2026-04-25T15:39:22.737Z</time></trkpt><trkpt lat="45.5082603" lon="10.4764641"><ele>200.0</ele><time>2026-04-25T15:39:24.737Z</time></trkpt><trkpt lat="45.5083226" lon="10.4764785"><ele>200.0</ele><time>2026-04-25T15:39:25.736Z</time></trkpt><trkpt lat="45.5084376" lon="10.4765057"><ele>200.0</ele><time>2026-04-25T15:39:27.737Z</time></trkpt><trkpt lat="45.5085572" lon="10.4765389"><ele>200.0</ele><time>2026-04-25T15:39:29.736Z</time></trkpt><trkpt lat="45.5086584" lon="10.4765718"><ele>200.0</ele><time>2026-04-25T15:39:31.735Z</time></trkpt><trkpt lat="45.5087763" lon="10.4765971"><ele>200.4</ele><time>2026-04-25T15:39:33.736Z</time></trkpt><trkpt lat="45.5088832" lon="10.4766128"><ele>200.8</ele><time>2026-04-25T15:39:35.736Z</time></trkpt><trkpt lat="45.5089924" lon="10.476629"><ele>201.2</ele><time>2026-04-25T15:39:37.736Z</time></trkpt><trkpt lat="45.5090969" lon="10.4766682"><ele>201.6</ele><time>2026-04-25T15:39:39.735Z</time></trkpt><trkpt lat="45.5091983" lon="10.4766959"><ele>202.0</ele><time>2026-04-25T15:39:41.736Z</time></trkpt><trkpt lat="45.5092959" lon="10.4767278"><ele>202.0</ele><time>2026-04-25T15:39:43.737Z</time></trkpt><trkpt lat="45.5093948" lon="10.4767908"><ele>202.0</ele><time>2026-04-25T15:39:45.736Z</time></trkpt><trkpt lat="45.5094884" lon="10.4768406"><ele>202.0</ele><time>2026-04-25T15:39:47.736Z</time></trkpt><trkpt lat="45.5095798" lon="10.4768984"><ele>202.0</ele><time>2026-04-25T15:39:49.736Z</time></trkpt><trkpt lat="45.5096568" lon="10.4769611"><ele>202.0</ele><time>2026-04-25T15:39:51.737Z</time></trkpt><trkpt lat="45.5097349" lon="10.477015"><ele>202.16666666666666</ele><time>2026-04-25T15:39:53.735Z</time></trkpt><trkpt lat="45.5098151" lon="10.477084"><ele>202.33333333333331</ele><time>2026-04-25T15:39:56.737Z</time></trkpt><trkpt lat="45.5098783" lon="10.4771399"><ele>202.5</ele><time>2026-04-25T15:39:58.736Z</time></trkpt><trkpt lat="45.5099367" lon="10.4772003"><ele>202.66666666666669</ele><time>2026-04-25T15:40:00.735Z</time></trkpt><trkpt lat="45.5099969" lon="10.4772752"><ele>202.83333333333334</ele><time>2026-04-25T15:40:02.736Z</time></trkpt><trkpt lat="45.5100523" lon="10.477367"><ele>203.0</ele><time>2026-04-25T15:40:04.736Z</time></trkpt><trkpt lat="45.5101021" lon="10.4774593"><ele>203.66666666666669</ele><time>2026-04-25T15:40:06.737Z</time></trkpt><trkpt lat="45.5101527" lon="10.4775402"><ele>204.33333333333334</ele><time>2026-04-25T15:40:08.737Z</time></trkpt><trkpt lat="45.5101961" lon="10.4776269"><ele>205.0</ele><time>2026-04-25T15:40:10.735Z</time></trkpt><trkpt lat="45.510236" lon="10.4777117"><ele>205.66666666666669</ele><time>2026-04-25T15:40:12.737Z</time></trkpt><trkpt lat="45.5102793" lon="10.4777804"><ele>206.33333333333334</ele><time>2026-04-25T15:40:14.736Z</time></trkpt><trkpt lat="45.5103393" lon="10.4778672"><ele>207.0</ele><time>2026-04-25T15:40:16.737Z</time></trkpt><trkpt lat="45.5104063" lon="10.4779384"><ele>207.6</ele><time>2026-04-25T15:40:18.736Z</time></trkpt><trkpt lat="45.5104696" lon="10.4780221"><ele>208.2</ele><time>2026-04-25T15:40:20.736Z</time></trkpt><trkpt lat="45.5105389" lon="10.4781102"><ele>208.8</ele><time>2026-04-25T15:40:22.737Z</time></trkpt><trkpt lat="45.5106043" lon="10.4782077"><ele>209.4</ele><time>2026-04-25T15:40:24.736Z</time></trkpt><trkpt lat="45.5106648" lon="10.4783016"><ele>210.0</ele><time>2026-04-25T15:40:26.737Z</time></trkpt><trkpt lat="45.5107204" lon="10.4783993"><ele>210.0</ele><time>2026-04-25T15:40:28.737Z</time></trkpt><trkpt lat="45.5107848" lon="10.4784889"><ele>210.0</ele><time>2026-04-25T15:40:30.737Z</time></trkpt><trkpt lat="45.5108592" lon="10.4785483"><ele>210.0</ele><time>2026-04-25T15:40:32.737Z</time></trkpt><trkpt lat="45.510949" lon="10.478565"><ele>210.0</ele><time>2026-04-25T15:40:34.737Z</time></trkpt><trkpt lat="45.5110315" lon="10.4785467"><ele>210.0</ele><time>2026-04-25T15:40:36.737Z</time></trkpt><trkpt lat="45.511107" lon="10.4785392"><ele>210.0</ele><time>2026-04-25T15:40:38.736Z</time></trkpt><trkpt lat="45.5111816" lon="10.4785345"><ele>210.0</ele><time>2026-04-25T15:40:40.735Z</time></trkpt><trkpt lat="45.5112298" lon="10.4786454"><ele>210.0</ele><time>2026-04-25T15:40:43.735Z</time></trkpt><trkpt lat="45.5112217" lon="10.4787509"><ele>210.0</ele><time>2026-04-25T15:40:45.737Z</time></trkpt><trkpt lat="45.511216" lon="10.4788616"><ele>210.0</ele><time>2026-04-25T15:40:47.736Z</time></trkpt><trkpt lat="45.5112179" lon="10.4789812"><ele>210.0</ele><time>2026-04-25T15:40:49.737Z</time></trkpt><trkpt lat="45.5112149" lon="10.4791296"><ele>210.0</ele><time>2026-04-25T15:40:51.736Z</time></trkpt><trkpt lat="45.5112293" lon="10.479273"><ele>211.0</ele><time>2026-04-25T15:40:53.737Z</time></trkpt><trkpt lat="45.5112347" lon="10.479433"><ele>212.0</ele><time>2026-04-25T15:40:55.736Z</time></trkpt><trkpt lat="45.5112477" lon="10.4795885"><ele>213.0</ele><time>2026-04-25T15:40:57.737Z</time></trkpt><trkpt lat="45.5112515" lon="10.4797366"><ele>214.0</ele><time>2026-04-25T15:40:59.737Z</time></trkpt><trkpt lat="45.5112963" lon="10.4798942"><ele>215.0</ele><time>2026-04-25T15:41:01.737Z</time></trkpt><trkpt lat="45.5113289" lon="10.4799756"><ele>215.6</ele><time>2026-04-25T15:41:02.737Z</time></trkpt><trkpt lat="45.5113935" lon="10.4801289"><ele>216.2</ele><time>2026-04-25T15:41:04.736Z</time></trkpt><trkpt lat="45.5114311" lon="10.4802156"><ele>216.8</ele><time>2026-04-25T15:41:05.737Z</time></trkpt><trkpt lat="45.511471" lon="10.480328"><ele>217.4</ele><time>2026-04-25T15:41:07.736Z</time></trkpt><trkpt lat="45.5115056" lon="10.480457"><ele>218.0</ele><time>2026-04-25T15:41:09.736Z</time></trkpt><trkpt lat="45.5115627" lon="10.480581"><ele>218.0</ele><time>2026-04-25T15:41:11.737Z</time></trkpt><trkpt lat="45.5116265" lon="10.4807022"><ele>218.0</ele><time>2026-04-25T15:41:13.737Z</time></trkpt><trkpt lat="45.5116682" lon="10.480778"><ele>218.0</ele><time>2026-04-25T15:41:14.737Z</time></trkpt><trkpt lat="45.5117106" lon="10.4808495"><ele>218.0</ele><time>2026-04-25T15:41:15.736Z</time></trkpt><trkpt lat="45.5117545" lon="10.4809191"><ele>218.0</ele><time>2026-04-25T15:41:16.736Z</time></trkpt><trkpt lat="45.5118248" lon="10.4809649"><ele>218.0</ele><time>2026-04-25T15:41:17.737Z</time></trkpt><trkpt lat="45.5118774" lon="10.48102"><ele>218.0</ele><time>2026-04-25T15:41:18.737Z</time></trkpt><trkpt lat="45.511922" lon="10.481092"><ele>218.0</ele><time>2026-04-25T15:41:19.737Z</time></trkpt><trkpt lat="45.511986" lon="10.4811398"><ele>218.0</ele><time>2026-04-25T15:41:20.736Z</time></trkpt><trkpt lat="45.5120457" lon="10.4811743"><ele>218.0</ele><time>2026-04-25T15:41:21.737Z</time></trkpt><trkpt lat="45.5121072" lon="10.4812132"><ele>218.0</ele><time>2026-04-25T15:41:22.735Z</time></trkpt><trkpt lat="45.5121669" lon="10.4812467"><ele>218.0</ele><time>2026-04-25T15:41:23.737Z</time></trkpt><trkpt lat="45.5122321" lon="10.4812747"><ele>218.0</ele><time>2026-04-25T15:41:24.737Z</time></trkpt><trkpt lat="45.5122929" lon="10.4813077"><ele>218.0</ele><time>2026-04-25T15:41:25.736Z</time></trkpt><trkpt lat="45.5123535" lon="10.4813341"><ele>217.14285714285714</ele><time>2026-04-25T15:41:26.737Z</time></trkpt><trkpt lat="45.5124156" lon="10.4813568"><ele>216.28571428571428</ele><time>2026-04-25T15:41:27.737Z</time></trkpt><trkpt lat="45.5124774" lon="10.4813837"><ele>215.42857142857144</ele><time>2026-04-25T15:41:28.737Z</time></trkpt><trkpt lat="45.5125433" lon="10.4814052"><ele>214.57142857142856</ele><time>2026-04-25T15:41:29.735Z</time></trkpt><trkpt lat="45.5126056" lon="10.4814289"><ele>213.7142857142857</ele><time>2026-04-25T15:41:30.737Z</time></trkpt><trkpt lat="45.5126688" lon="10.4814628"><ele>212.85714285714286</ele><time>2026-04-25T15:41:31.736Z</time></trkpt><trkpt lat="45.5127316" lon="10.4814936"><ele>212.0</ele><time>2026-04-25T15:41:32.737Z</time></trkpt><trkpt lat="45.5127917" lon="10.4815325"><ele>212.00000000000003</ele><time>2026-04-25T15:41:33.735Z</time></trkpt><trkpt lat="45.5128542" lon="10.4815616"><ele>212.0</ele><time>2026-04-25T15:41:34.737Z</time></trkpt><trkpt lat="45.5129763" lon="10.4816239"><ele>212.0</ele><time>2026-04-25T15:41:36.737Z</time></trkpt><trkpt lat="45.5130396" lon="10.4816544"><ele>212.0</ele><time>2026-04-25T15:41:37.735Z</time></trkpt><trkpt lat="45.5131026" lon="10.4816931"><ele>212.00000000000003</ele><time>2026-04-25T15:41:38.736Z</time></trkpt><trkpt lat="45.5131655" lon="10.4817338"><ele>212.0</ele><time>2026-04-25T15:41:39.737Z</time></trkpt><trkpt lat="45.5132737" lon="10.481783"><ele>213.00000000000003</ele><time>2026-04-25T15:41:41.736Z</time></trkpt><trkpt lat="45.5133343" lon="10.481812"><ele>214.0</ele><time>2026-04-25T15:41:42.737Z</time></trkpt><trkpt lat="45.5133982" lon="10.4818402"><ele>215.0</ele><time>2026-04-25T15:41:43.736Z</time></trkpt><trkpt lat="45.5135194" lon="10.4818846"><ele>216.0</ele><time>2026-04-25T15:41:45.737Z</time></trkpt><trkpt lat="45.5136215" lon="10.4819141"><ele>217.00000000000003</ele><time>2026-04-25T15:41:47.736Z</time></trkpt><trkpt lat="45.5136948" lon="10.4819525"><ele>218.0</ele><time>2026-04-25T15:41:49.737Z</time></trkpt><trkpt lat="45.5137656" lon="10.4819976"><ele>219.00000000000003</ele><time>2026-04-25T15:41:51.737Z</time></trkpt><trkpt lat="45.5138419" lon="10.4820014"><ele>220.0</ele><time>2026-04-25T15:41:53.736Z</time></trkpt><trkpt lat="45.5139168" lon="10.4819588"><ele>221.0</ele><time>2026-04-25T15:41:56.736Z</time></trkpt><trkpt lat="45.5139287" lon="10.4818673"><ele>222.0</ele><time>2026-04-25T15:41:58.737Z</time></trkpt><trkpt lat="45.5139479" lon="10.4817504"><ele>223.00000000000003</ele><time>2026-04-25T15:42:01.737Z</time></trkpt><trkpt lat="45.5140171" lon="10.4817093"><ele>224.0</ele><time>2026-04-25T15:42:03.736Z</time></trkpt><trkpt lat="45.5141063" lon="10.4816955"><ele>224.00000000000003</ele><time>2026-04-25T15:42:05.735Z</time></trkpt><trkpt lat="45.5141645" lon="10.4816404"><ele>224.0</ele><time>2026-04-25T15:42:07.735Z</time></trkpt><trkpt lat="45.5142284" lon="10.481574"><ele>224.0</ele><time>2026-04-25T15:42:10.737Z</time></trkpt><trkpt lat="45.5143232" lon="10.481555"><ele>224.0</ele><time>2026-04-25T15:42:13.736Z</time></trkpt><trkpt lat="45.5143883" lon="10.4815358"><ele>224.00000000000003</ele><time>2026-04-25T15:42:15.736Z</time></trkpt><trkpt lat="45.5144678" lon="10.4815342"><ele>224.0</ele><time>2026-04-25T15:42:17.736Z</time></trkpt><trkpt lat="45.5145581" lon="10.4815122"><ele>224.2</ele><time>2026-04-25T15:42:19.737Z</time></trkpt><trkpt lat="45.5146624" lon="10.4814887"><ele>224.39999999999998</ele><time>2026-04-25T15:42:21.737Z</time></trkpt><trkpt lat="45.514771" lon="10.4814688"><ele>224.6</ele><time>2026-04-25T15:42:23.735Z</time></trkpt><trkpt lat="45.5148769" lon="10.4814331"><ele>224.8</ele><time>2026-04-25T15:42:25.737Z</time></trkpt><trkpt lat="45.5149887" lon="10.4814052"><ele>225.0</ele><time>2026-04-25T15:42:27.736Z</time></trkpt><trkpt lat="45.5151038" lon="10.4813898"><ele>225.0</ele><time>2026-04-25T15:42:29.737Z</time></trkpt><trkpt lat="45.5152146" lon="10.4813755"><ele>225.0</ele><time>2026-04-25T15:42:31.737Z</time></trkpt><trkpt lat="45.5153343" lon="10.4813846"><ele>225.0</ele><time>2026-04-25T15:42:33.737Z</time></trkpt><trkpt lat="45.5154532" lon="10.481407"><ele>225.0</ele><time>2026-04-25T15:42:35.735Z</time></trkpt><trkpt lat="45.5155694" lon="10.4814333"><ele>225.33333333333334</ele><time>2026-04-25T15:42:37.735Z</time></trkpt><trkpt lat="45.515693" lon="10.4814647"><ele>225.66666666666669</ele><time>2026-04-25T15:42:39.737Z</time></trkpt><trkpt lat="45.5157574" lon="10.4814756"><ele>226.0</ele><time>2026-04-25T15:42:40.737Z</time></trkpt><trkpt lat="45.5158205" lon="10.4815026"><ele>226.33333333333334</ele><time>2026-04-25T15:42:41.736Z</time></trkpt><trkpt lat="45.5158843" lon="10.4815184"><ele>226.66666666666669</ele><time>2026-04-25T15:42:42.737Z</time></trkpt><trkpt lat="45.5159546" lon="10.4815355"><ele>227.0</ele><time>2026-04-25T15:42:43.735Z</time></trkpt><trkpt lat="45.516073" lon="10.4815902"><ele>227.0</ele><time>2026-04-25T15:42:45.736Z</time></trkpt><trkpt lat="45.5161817" lon="10.4816277"><ele>227.0</ele><time>2026-04-25T15:42:47.737Z</time></trkpt><trkpt lat="45.5162826" lon="10.4816462"><ele>227.0</ele><time>2026-04-25T15:42:49.737Z</time></trkpt><trkpt lat="45.5163924" lon="10.4816804"><ele>227.0</ele><time>2026-04-25T15:42:51.736Z</time></trkpt><trkpt lat="45.5165028" lon="10.4817381"><ele>227.0</ele><time>2026-04-25T15:42:53.736Z</time></trkpt><trkpt lat="45.516564" lon="10.4817619"><ele>228.2</ele><time>2026-04-25T15:42:54.736Z</time></trkpt><trkpt lat="45.5166849" lon="10.4818086"><ele>229.39999999999998</ele><time>2026-04-25T15:42:56.736Z</time></trkpt><trkpt lat="45.5167934" lon="10.4818528"><ele>230.60000000000002</ele><time>2026-04-25T15:42:58.737Z</time></trkpt><trkpt lat="45.5168563" lon="10.48186"><ele>231.8</ele><time>2026-04-25T15:42:59.737Z</time></trkpt><trkpt lat="45.5169656" lon="10.4819216"><ele>233.0</ele><time>2026-04-25T15:43:01.737Z</time></trkpt><trkpt lat="45.5170784" lon="10.481984"><ele>231.60000000000002</ele><time>2026-04-25T15:43:03.737Z</time></trkpt><trkpt lat="45.5171416" lon="10.4820048"><ele>230.20000000000002</ele><time>2026-04-25T15:43:04.737Z</time></trkpt><trkpt lat="45.5172611" lon="10.4820407"><ele>228.8</ele><time>2026-04-25T15:43:06.736Z</time></trkpt><trkpt lat="45.5173724" lon="10.482071"><ele>227.4</ele><time>2026-04-25T15:43:08.737Z</time></trkpt><trkpt lat="45.5174652" lon="10.4821367"><ele>226.0</ele><time>2026-04-25T15:43:10.736Z</time></trkpt><trkpt lat="45.5175499" lon="10.4822106"><ele>225.99999999999997</ele><time>2026-04-25T15:43:12.736Z</time></trkpt><trkpt lat="45.517637" lon="10.4822582"><ele>226.0</ele><time>2026-04-25T15:43:14.735Z</time></trkpt><trkpt lat="45.517713" lon="10.4822194"><ele>226.0</ele><time>2026-04-25T15:43:16.736Z</time></trkpt><trkpt lat="45.5177849" lon="10.4821598"><ele>226.0</ele><time>2026-04-25T15:43:18.737Z</time></trkpt><trkpt lat="45.5178527" lon="10.4821059"><ele>225.99999999999997</ele><time>2026-04-25T15:43:20.737Z</time></trkpt><trkpt lat="45.5179163" lon="10.4820519"><ele>226.0</ele><time>2026-04-25T15:43:22.737Z</time></trkpt><trkpt lat="45.5179842" lon="10.4820096"><ele>228.14285714285717</ele><time>2026-04-25T15:43:24.736Z</time></trkpt><trkpt lat="45.5180572" lon="10.4819813"><ele>230.28571428571428</ele><time>2026-04-25T15:43:26.737Z</time></trkpt><trkpt lat="45.5181301" lon="10.4819523"><ele>232.42857142857144</ele><time>2026-04-25T15:43:28.736Z</time></trkpt><trkpt lat="45.5182084" lon="10.4819539"><ele>234.57142857142858</ele><time>2026-04-25T15:43:30.737Z</time></trkpt><trkpt lat="45.5182817" lon="10.4819547"><ele>236.71428571428572</ele><time>2026-04-25T15:43:32.735Z</time></trkpt><trkpt lat="45.518353" lon="10.4819537"><ele>238.85714285714286</ele><time>2026-04-25T15:43:34.737Z</time></trkpt><trkpt lat="45.5184199" lon="10.4819559"><ele>241.0</ele><time>2026-04-25T15:43:36.736Z</time></trkpt><trkpt lat="45.5184841" lon="10.4819611"><ele>241.0</ele><time>2026-04-25T15:43:38.737Z</time></trkpt><trkpt lat="45.5185485" lon="10.4819544"><ele>241.00000000000003</ele><time>2026-04-25T15:43:40.737Z</time></trkpt><trkpt lat="45.5186132" lon="10.4819522"><ele>241.0</ele><time>2026-04-25T15:43:42.735Z</time></trkpt><trkpt lat="45.5186768" lon="10.4819684"><ele>241.0</ele><time>2026-04-25T15:43:44.737Z</time></trkpt><trkpt lat="45.5187451" lon="10.4820067"><ele>241.00000000000003</ele><time>2026-04-25T15:43:46.736Z</time></trkpt><trkpt lat="45.5188228" lon="10.4820369"><ele>241.0</ele><time>2026-04-25T15:43:48.737Z</time></trkpt><trkpt lat="45.5188962" lon="10.4820416"><ele>241.0</ele><time>2026-04-25T15:43:50.736Z</time></trkpt><trkpt lat="45.5189589" lon="10.4819951"><ele>241.0</ele><time>2026-04-25T15:43:52.736Z</time></trkpt><trkpt lat="45.5189981" lon="10.481913"><ele>241.00000000000003</ele><time>2026-04-25T15:43:54.737Z</time></trkpt><trkpt lat="45.519021" lon="10.4818217"><ele>241.0</ele><time>2026-04-25T15:43:56.737Z</time></trkpt><trkpt lat="45.519032" lon="10.4817245"><ele>241.0</ele><time>2026-04-25T15:43:58.736Z</time></trkpt><trkpt lat="45.5190289" lon="10.4816345"><ele>241.00000000000003</ele><time>2026-04-25T15:44:00.735Z</time></trkpt><trkpt lat="45.519025" lon="10.4815364"><ele>241.0</ele><time>2026-04-25T15:44:03.736Z</time></trkpt><trkpt lat="45.5190469" lon="10.4814494"><ele>241.0</ele><time>2026-04-25T15:44:05.737Z</time></trkpt><trkpt lat="45.5190653" lon="10.4813551"><ele>240.99999999999997</ele><time>2026-04-25T15:44:08.735Z</time></trkpt><trkpt lat="45.5191336" lon="10.4813152"><ele>241.0</ele><time>2026-04-25T15:45:45.736Z</time></trkpt><trkpt lat="45.5191614" lon="10.4814155"><ele>241.0</ele><time>2026-04-25T15:45:48.735Z</time></trkpt><trkpt lat="45.51921" lon="10.4814896"><ele>241.0</ele><time>2026-04-25T15:45:51.736Z</time></trkpt><trkpt lat="45.519288" lon="10.4815259"><ele>240.99999999999997</ele><time>2026-04-25T15:45:54.735Z</time></trkpt><trkpt lat="45.5193539" lon="10.4815804"><ele>241.0</ele><time>2026-04-25T15:45:56.736Z</time></trkpt><trkpt lat="45.5194316" lon="10.4816386"><ele>241.0</ele><time>2026-04-25T15:45:58.737Z</time></trkpt><trkpt lat="45.5195263" lon="10.4817069"><ele>241.00000000000003</ele><time>2026-04-25T15:46:00.736Z</time></trkpt><trkpt lat="45.5196254" lon="10.4817687"><ele>241.00000000000003</ele><time>2026-04-25T15:46:02.736Z</time></trkpt><trkpt lat="45.5197251" lon="10.4818268"><ele>241.0</ele><time>2026-04-25T15:46:04.736Z</time></trkpt><trkpt lat="45.5198147" lon="10.4818777"><ele>241.0</ele><time>2026-04-25T15:46:06.737Z</time></trkpt><trkpt lat="45.5198803" lon="10.4819338"><ele>242.49999999999997</ele><time>2026-04-25T15:46:08.737Z</time></trkpt><trkpt lat="45.5199537" lon="10.4819745"><ele>244.0</ele><time>2026-04-25T15:46:10.737Z</time></trkpt><trkpt lat="45.5200418" lon="10.4820075"><ele>245.5</ele><time>2026-04-25T15:46:13.736Z</time></trkpt><trkpt lat="45.5201069" lon="10.482036"><ele>247.0</ele><time>2026-04-25T15:46:15.736Z</time></trkpt><trkpt lat="45.5201894" lon="10.482049"><ele>248.49999999999997</ele><time>2026-04-25T15:46:17.736Z</time></trkpt><trkpt lat="45.5202878" lon="10.4820619"><ele>250.0</ele><time>2026-04-25T15:46:19.736Z</time></trkpt><trkpt lat="45.5203781" lon="10.4820241"><ele>250.83333333333331</ele><time>2026-04-25T15:46:21.735Z</time></trkpt><trkpt lat="45.5204729" lon="10.4819893"><ele>251.66666666666666</ele><time>2026-04-25T15:46:23.735Z</time></trkpt><trkpt lat="45.5205576" lon="10.4819497"><ele>252.5</ele><time>2026-04-25T15:46:25.736Z</time></trkpt><trkpt lat="45.5206373" lon="10.481932"><ele>253.33333333333331</ele><time>2026-04-25T15:46:27.736Z</time></trkpt><trkpt lat="45.520718" lon="10.4819935"><ele>254.16666666666666</ele><time>2026-04-25T15:46:30.737Z</time></trkpt><trkpt lat="45.5207868" lon="10.482021"><ele>255.0</ele><time>2026-04-25T15:46:32.737Z</time></trkpt><trkpt lat="45.5208625" lon="10.4820593"><ele>254.2</ele><time>2026-04-25T15:46:34.735Z</time></trkpt><trkpt lat="45.5209378" lon="10.4821182"><ele>253.4</ele><time>2026-04-25T15:46:36.736Z</time></trkpt><trkpt lat="45.5210232" lon="10.482158"><ele>252.60000000000002</ele><time>2026-04-25T15:46:38.737Z</time></trkpt><trkpt lat="45.5211132" lon="10.4821988"><ele>251.8</ele><time>2026-04-25T15:46:40.736Z</time></trkpt><trkpt lat="45.5211987" lon="10.4822732"><ele>251.0</ele><time>2026-04-25T15:46:42.737Z</time></trkpt><trkpt lat="45.5212845" lon="10.4823421"><ele>251.0</ele><time>2026-04-25T15:46:44.736Z</time></trkpt><trkpt lat="45.5213614" lon="10.4824311"><ele>251.00000000000003</ele><time>2026-04-25T15:46:46.736Z</time></trkpt><trkpt lat="45.5214432" lon="10.4824906"><ele>251.00000000000003</ele><time>2026-04-25T15:46:48.735Z</time></trkpt><trkpt lat="45.521516" lon="10.4825888"><ele>251.0</ele><time>2026-04-25T15:46:50.737Z</time></trkpt><trkpt lat="45.5215894" lon="10.4825943"><ele>251.0</ele><time>2026-04-25T15:46:52.736Z</time></trkpt><trkpt lat="45.5217033" lon="10.4825009"><ele>251.00000000000003</ele><time>2026-04-25T15:46:54.736Z</time></trkpt><trkpt lat="45.521808" lon="10.4825183"><ele>251.0</ele><time>2026-04-25T15:46:56.736Z</time></trkpt><trkpt lat="45.5219022" lon="10.4825603"><ele>251.0</ele><time>2026-04-25T15:46:58.737Z</time></trkpt><trkpt lat="45.5219569" lon="10.4826218"><ele>251.0</ele><time>2026-04-25T15:47:00.737Z</time></trkpt><trkpt lat="45.5220143" lon="10.4826768"><ele>251.00000000000003</ele><time>2026-04-25T15:47:02.737Z</time></trkpt><trkpt lat="45.522097" lon="10.4827288"><ele>251.0</ele><time>2026-04-25T15:47:04.737Z</time></trkpt><trkpt lat="45.5221753" lon="10.4827713"><ele>251.0</ele><time>2026-04-25T15:47:06.736Z</time></trkpt><trkpt lat="45.5222545" lon="10.4828247"><ele>251.00000000000003</ele><time>2026-04-25T15:47:08.736Z</time></trkpt><trkpt lat="45.5223402" lon="10.4828955"><ele>251.00000000000003</ele><time>2026-04-25T15:47:10.736Z</time></trkpt><trkpt lat="45.5224314" lon="10.4829616"><ele>251.0</ele><time>2026-04-25T15:47:12.737Z</time></trkpt><trkpt lat="45.5225376" lon="10.4829998"><ele>251.0</ele><time>2026-04-25T15:47:14.737Z</time></trkpt><trkpt lat="45.5226116" lon="10.483065"><ele>251.00000000000003</ele><time>2026-04-25T15:47:16.735Z</time></trkpt><trkpt lat="45.5226803" lon="10.4831345"><ele>251.0</ele><time>2026-04-25T15:47:19.737Z</time></trkpt><trkpt lat="45.5227547" lon="10.4831767"><ele>251.0</ele><time>2026-04-25T15:47:22.737Z</time></trkpt><trkpt lat="45.5228275" lon="10.4832279"><ele>251.0</ele><time>2026-04-25T15:47:25.736Z</time></trkpt><trkpt lat="45.5228947" lon="10.4832684"><ele>251.00000000000003</ele><time>2026-04-25T15:47:28.735Z</time></trkpt><trkpt lat="45.5229698" lon="10.4833187"><ele>251.0</ele><time>2026-04-25T15:47:30.737Z</time></trkpt><trkpt lat="45.5230366" lon="10.4834018"><ele>251.16666666666669</ele><time>2026-04-25T15:47:32.736Z</time></trkpt><trkpt lat="45.5230721" lon="10.4834786"><ele>251.33333333333334</ele><time>2026-04-25T15:47:34.737Z</time></trkpt><trkpt lat="45.5230483" lon="10.4835766"><ele>251.5</ele><time>2026-04-25T15:47:37.737Z</time></trkpt><trkpt lat="45.5230238" lon="10.4836808"><ele>251.66666666666669</ele><time>2026-04-25T15:47:39.737Z</time></trkpt><trkpt lat="45.5230008" lon="10.4838043"><ele>251.83333333333334</ele><time>2026-04-25T15:47:41.735Z</time></trkpt><trkpt lat="45.5229693" lon="10.4839362"><ele>252.0</ele><time>2026-04-25T15:47:43.737Z</time></trkpt><trkpt lat="45.5229277" lon="10.4840532"><ele>252.0</ele><time>2026-04-25T15:47:45.736Z</time></trkpt><trkpt lat="45.522901" lon="10.4841594"><ele>252.0</ele><time>2026-04-25T15:47:47.736Z</time></trkpt><trkpt lat="45.5229208" lon="10.4842834"><ele>252.0</ele><time>2026-04-25T15:47:50.736Z</time></trkpt><trkpt lat="45.5230026" lon="10.4842493"><ele>252.0</ele><time>2026-04-25T15:47:54.736Z</time></trkpt><trkpt lat="45.5230557" lon="10.4841857"><ele>252.0</ele><time>2026-04-25T15:47:56.735Z</time></trkpt><trkpt lat="45.5231407" lon="10.4841643"><ele>252.0</ele><time>2026-04-25T15:47:59.737Z</time></trkpt><trkpt lat="45.5232071" lon="10.4841644"><ele>252.0</ele><time>2026-04-25T15:48:02.737Z</time></trkpt><trkpt lat="45.5232805" lon="10.4841742"><ele>252.0</ele><time>2026-04-25T15:48:06.736Z</time></trkpt><trkpt lat="45.5233665" lon="10.4841917"><ele>252.0</ele><time>2026-04-25T15:48:09.736Z</time></trkpt><trkpt lat="45.5234534" lon="10.4842374"><ele>252.0</ele><time>2026-04-25T15:48:12.735Z</time></trkpt><trkpt lat="45.5235169" lon="10.4842941"><ele>252.0</ele><time>2026-04-25T15:48:15.735Z</time></trkpt><trkpt lat="45.5235775" lon="10.4843472"><ele>252.0</ele><time>2026-04-25T15:48:18.737Z</time></trkpt><trkpt lat="45.5236658" lon="10.4843944"><ele>251.85714285714286</ele><time>2026-04-25T15:48:21.737Z</time></trkpt><trkpt lat="45.5237439" lon="10.4844135"><ele>251.71428571428572</ele><time>2026-04-25T15:48:24.736Z</time></trkpt><trkpt lat="45.5238213" lon="10.4844728"><ele>251.57142857142856</ele><time>2026-04-25T15:48:27.735Z</time></trkpt><trkpt lat="45.523892" lon="10.4845029"><ele>251.42857142857142</ele><time>2026-04-25T15:48:29.735Z</time></trkpt><trkpt lat="45.5239594" lon="10.4845064"><ele>251.28571428571428</ele><time>2026-04-25T15:48:33.737Z</time></trkpt><trkpt lat="45.5240333" lon="10.4845385"><ele>251.1428571428571</ele><time>2026-04-25T15:48:37.737Z</time></trkpt><trkpt lat="45.5240913" lon="10.4845759"><ele>250.99999999999997</ele><time>2026-04-25T15:48:40.736Z</time></trkpt><trkpt lat="45.524161" lon="10.4846292"><ele>251.00000000000003</ele><time>2026-04-25T15:48:43.736Z</time></trkpt><trkpt lat="45.5242241" lon="10.4846835"><ele>251.0</ele><time>2026-04-25T15:48:45.736Z</time></trkpt><trkpt lat="45.5242872" lon="10.4847378"><ele>251.0</ele><time>2026-04-25T15:48:47.737Z</time></trkpt><trkpt lat="45.5243593" lon="10.4848027"><ele>251.0</ele><time>2026-04-25T15:48:49.737Z</time></trkpt><trkpt lat="45.5244123" lon="10.4848655"><ele>251.00000000000003</ele><time>2026-04-25T15:48:51.736Z</time></trkpt><trkpt lat="45.5244776" lon="10.4849431"><ele>251.0</ele><time>2026-04-25T15:48:53.737Z</time></trkpt><trkpt lat="45.5245445" lon="10.4850133"><ele>251.50000000000003</ele><time>2026-04-25T15:48:55.736Z</time></trkpt><trkpt lat="45.5246231" lon="10.4851133"><ele>252.0</ele><time>2026-04-25T15:48:57.736Z</time></trkpt><trkpt lat="45.524669" lon="10.4852195"><ele>252.5</ele><time>2026-04-25T15:49:00.737Z</time></trkpt><trkpt lat="45.5247252" lon="10.4852717"><ele>253.0</ele><time>2026-04-25T15:49:02.737Z</time></trkpt><trkpt lat="45.5247878" lon="10.485347"><ele>253.50000000000003</ele><time>2026-04-25T15:49:05.735Z</time></trkpt><trkpt lat="45.5248665" lon="10.4853867"><ele>254.0</ele><time>2026-04-25T15:49:09.735Z</time></trkpt><trkpt lat="45.5249442" lon="10.4854544"><ele>254.0</ele><time>2026-04-25T15:49:12.737Z</time></trkpt><trkpt lat="45.5250065" lon="10.4855242"><ele>253.99999999999997</ele><time>2026-04-25T15:49:14.737Z</time></trkpt><trkpt lat="45.5250758" lon="10.4855786"><ele>253.99999999999997</ele><time>2026-04-25T15:49:16.736Z</time></trkpt><trkpt lat="45.5251587" lon="10.485662"><ele>254.0</ele><time>2026-04-25T15:49:18.736Z</time></trkpt><trkpt lat="45.5252344" lon="10.4857472"><ele>254.0</ele><time>2026-04-25T15:49:20.736Z</time></trkpt><trkpt lat="45.5253334" lon="10.4858158"><ele>256.0</ele><time>2026-04-25T15:49:22.737Z</time></trkpt><trkpt lat="45.5254239" lon="10.4858655"><ele>258.0</ele><time>2026-04-25T15:49:24.737Z</time></trkpt><trkpt lat="45.5254865" lon="10.4859158"><ele>260.0</ele><time>2026-04-25T15:49:26.735Z</time></trkpt><trkpt lat="45.5255543" lon="10.4859738"><ele>262.0</ele><time>2026-04-25T15:49:28.736Z</time></trkpt><trkpt lat="45.5256179" lon="10.4860388"><ele>264.0</ele><time>2026-04-25T15:49:30.736Z</time></trkpt><trkpt lat="45.5256854" lon="10.486092"><ele>266.0</ele><time>2026-04-25T15:49:32.736Z</time></trkpt><trkpt lat="45.525748" lon="10.4861465"><ele>266.0</ele><time>2026-04-25T15:49:34.736Z</time></trkpt><trkpt lat="45.5258072" lon="10.4861989"><ele>266.0</ele><time>2026-04-25T15:49:36.736Z</time></trkpt><trkpt lat="45.5258673" lon="10.486279"><ele>266.0</ele><time>2026-04-25T15:49:38.736Z</time></trkpt><trkpt lat="45.5259192" lon="10.4863504"><ele>266.0</ele><time>2026-04-25T15:49:40.736Z</time></trkpt><trkpt lat="45.5259707" lon="10.4864191"><ele>266.0</ele><time>2026-04-25T15:49:42.736Z</time></trkpt><trkpt lat="45.5260319" lon="10.4864935"><ele>266.0</ele><time>2026-04-25T15:49:45.735Z</time></trkpt><trkpt lat="45.5260836" lon="10.4865535"><ele>266.0</ele><time>2026-04-25T15:49:48.737Z</time></trkpt><trkpt lat="45.5261398" lon="10.4865965"><ele>266.85714285714283</ele><time>2026-04-25T15:49:51.737Z</time></trkpt><trkpt lat="45.5262034" lon="10.4866429"><ele>267.7142857142857</ele><time>2026-04-25T15:49:54.737Z</time></trkpt><trkpt lat="45.5262732" lon="10.4866957"><ele>268.57142857142856</ele><time>2026-04-25T15:49:58.735Z</time></trkpt><trkpt lat="45.5263393" lon="10.4867387"><ele>269.42857142857144</ele><time>2026-04-25T15:50:01.736Z</time></trkpt><trkpt lat="45.5264046" lon="10.4867753"><ele>270.2857142857143</ele><time>2026-04-25T15:50:04.736Z</time></trkpt><trkpt lat="45.5264678" lon="10.486813"><ele>271.1428571428571</ele><time>2026-04-25T15:50:07.736Z</time></trkpt><trkpt lat="45.5265266" lon="10.4868464"><ele>272.0</ele><time>2026-04-25T15:50:10.737Z</time></trkpt><trkpt lat="45.5265964" lon="10.4869094"><ele>272.0</ele><time>2026-04-25T15:50:14.736Z</time></trkpt><trkpt lat="45.5266739" lon="10.4869545"><ele>272.0</ele><time>2026-04-25T15:50:17.736Z</time></trkpt><trkpt lat="45.5267357" lon="10.4869882"><ele>272.0</ele><time>2026-04-25T15:50:19.737Z</time></trkpt><trkpt lat="45.5268176" lon="10.4870392"><ele>272.0</ele><time>2026-04-25T15:50:22.737Z</time></trkpt><trkpt lat="45.5269065" lon="10.4870784"><ele>272.0</ele><time>2026-04-25T15:50:25.736Z</time></trkpt><trkpt lat="45.5269911" lon="10.4871346"><ele>272.0</ele><time>2026-04-25T15:50:28.736Z</time></trkpt><trkpt lat="45.5270737" lon="10.487165"><ele>271.6666666666667</ele><time>2026-04-25T15:50:31.737Z</time></trkpt><trkpt lat="45.5271389" lon="10.4871908"><ele>271.33333333333337</ele><time>2026-04-25T15:50:33.736Z</time></trkpt><trkpt lat="45.527203" lon="10.4872142"><ele>271.0</ele><time>2026-04-25T15:50:35.737Z</time></trkpt><trkpt lat="45.5272739" lon="10.4872357"><ele>270.6666666666667</ele><time>2026-04-25T15:50:38.737Z</time></trkpt><trkpt lat="45.5273492" lon="10.4872728"><ele>270.3333333333333</ele><time>2026-04-25T15:50:41.737Z</time></trkpt><trkpt lat="45.5274352" lon="10.4872893"><ele>270.0</ele><time>2026-04-25T15:50:44.735Z</time></trkpt><trkpt lat="45.5275188" lon="10.4873083"><ele>270.0</ele><time>2026-04-25T15:50:47.737Z</time></trkpt><trkpt lat="45.527602" lon="10.4873496"><ele>270.0</ele><time>2026-04-25T15:50:50.735Z</time></trkpt><trkpt lat="45.5276966" lon="10.4873704"><ele>270.0</ele><time>2026-04-25T15:50:53.735Z</time></trkpt><trkpt lat="45.5277719" lon="10.487372"><ele>270.0</ele><time>2026-04-25T15:50:55.736Z</time></trkpt><trkpt lat="45.5278421" lon="10.4873577"><ele>270.0</ele><time>2026-04-25T15:50:57.736Z</time></trkpt><trkpt lat="45.5279051" lon="10.4873597"><ele>270.0</ele><time>2026-04-25T15:50:59.737Z</time></trkpt><trkpt lat="45.5279966" lon="10.4873756"><ele>271.1428571428571</ele><time>2026-04-25T15:51:02.737Z</time></trkpt><trkpt lat="45.5280916" lon="10.4874038"><ele>272.2857142857143</ele><time>2026-04-25T15:51:05.736Z</time></trkpt><trkpt lat="45.5281591" lon="10.4874378"><ele>273.42857142857144</ele><time>2026-04-25T15:51:07.737Z</time></trkpt><trkpt lat="45.5282207" lon="10.4874568"><ele>274.57142857142856</ele><time>2026-04-25T15:51:09.736Z</time></trkpt><trkpt lat="45.5282886" lon="10.4874688"><ele>275.7142857142857</ele><time>2026-04-25T15:51:11.737Z</time></trkpt><trkpt lat="45.5283507" lon="10.4875008"><ele>276.85714285714283</ele><time>2026-04-25T15:51:13.736Z</time></trkpt><trkpt lat="45.5284197" lon="10.4875193"><ele>278.0</ele><time>2026-04-25T15:51:15.737Z</time></trkpt><trkpt lat="45.5284928" lon="10.4875342"><ele>278.0</ele><time>2026-04-25T15:51:17.736Z</time></trkpt><trkpt lat="45.5285606" lon="10.4875582"><ele>278.0</ele><time>2026-04-25T15:51:19.737Z</time></trkpt><trkpt lat="45.5286293" lon="10.4876007"><ele>278.0</ele><time>2026-04-25T15:51:21.736Z</time></trkpt><trkpt lat="45.5286999" lon="10.4876389"><ele>278.0</ele><time>2026-04-25T15:51:23.736Z</time></trkpt><trkpt lat="45.5287842" lon="10.487678"><ele>278.0</ele><time>2026-04-25T15:51:25.735Z</time></trkpt><trkpt lat="45.5288707" lon="10.4877026"><ele>278.0</ele><time>2026-04-25T15:51:27.735Z</time></trkpt><trkpt lat="45.5289506" lon="10.4877071"><ele>278.0</ele><time>2026-04-25T15:51:29.736Z</time></trkpt><trkpt lat="45.5290416" lon="10.4876936"><ele>278.0</ele><time>2026-04-25T15:51:31.737Z</time></trkpt><trkpt lat="45.5291537" lon="10.4876899"><ele>278.0</ele><time>2026-04-25T15:51:33.737Z</time></trkpt><trkpt lat="45.52926" lon="10.4876832"><ele>278.0</ele><time>2026-04-25T15:51:35.735Z</time></trkpt><trkpt lat="45.529353" lon="10.4876859"><ele>278.0</ele><time>2026-04-25T15:51:37.737Z</time></trkpt><trkpt lat="45.5294444" lon="10.4876694"><ele>278.0</ele><time>2026-04-25T15:51:39.735Z</time></trkpt><trkpt lat="45.5295401" lon="10.4876637"><ele>278.0</ele><time>2026-04-25T15:51:41.737Z</time></trkpt><trkpt lat="45.5296315" lon="10.487648"><ele>278.0</ele><time>2026-04-25T15:51:43.737Z</time></trkpt><trkpt lat="45.5297417" lon="10.4876239"><ele>278.0</ele><time>2026-04-25T15:51:46.737Z</time></trkpt><trkpt lat="45.5298172" lon="10.4876082"><ele>278.0</ele><time>2026-04-25T15:51:48.737Z</time></trkpt><trkpt lat="45.5299077" lon="10.4875808"><ele>278.0</ele><time>2026-04-25T15:51:51.735Z</time></trkpt><trkpt lat="45.5299843" lon="10.4876095"><ele>278.0</ele><time>2026-04-25T15:51:53.736Z</time></trkpt><trkpt lat="45.5300607" lon="10.4876138"><ele>278.0</ele><time>2026-04-25T15:51:55.736Z</time></trkpt><trkpt lat="45.5301525" lon="10.4876313"><ele>278.0</ele><time>2026-04-25T15:51:57.736Z</time></trkpt><trkpt lat="45.5302638" lon="10.4876565"><ele>278.0</ele><time>2026-04-25T15:51:59.737Z</time></trkpt><trkpt lat="45.5303292" lon="10.4876752"><ele>278.0</ele><time>2026-04-25T15:52:00.735Z</time></trkpt><trkpt lat="45.5304426" lon="10.4877072"><ele>277.4</ele><time>2026-04-25T15:52:02.735Z</time></trkpt><trkpt lat="45.530542" lon="10.4877122"><ele>276.8</ele><time>2026-04-25T15:52:04.736Z</time></trkpt><trkpt lat="45.5306437" lon="10.4876963"><ele>276.2</ele><time>2026-04-25T15:52:06.737Z</time></trkpt><trkpt lat="45.5307524" lon="10.4876798"><ele>275.6</ele><time>2026-04-25T15:52:08.737Z</time></trkpt><trkpt lat="45.5308524" lon="10.4876473"><ele>275.0</ele><time>2026-04-25T15:52:10.737Z</time></trkpt><trkpt lat="45.5309544" lon="10.4876214"><ele>275.0</ele><time>2026-04-25T15:52:12.735Z</time></trkpt><trkpt lat="45.53105" lon="10.4876164"><ele>275.0</ele><time>2026-04-25T15:52:14.737Z</time></trkpt><trkpt lat="45.5311393" lon="10.4876153"><ele>275.0</ele><time>2026-04-25T15:52:16.737Z</time></trkpt><trkpt lat="45.5312185" lon="10.4875779"><ele>275.0</ele><time>2026-04-25T15:52:18.735Z</time></trkpt><trkpt lat="45.5313008" lon="10.4874914"><ele>275.0</ele><time>2026-04-25T15:52:20.736Z</time></trkpt><trkpt lat="45.5313884" lon="10.4874097"><ele>275.4</ele><time>2026-04-25T15:52:22.736Z</time></trkpt><trkpt lat="45.5314683" lon="10.4873525"><ele>275.8</ele><time>2026-04-25T15:52:24.737Z</time></trkpt><trkpt lat="45.5315489" lon="10.4873268"><ele>276.2</ele><time>2026-04-25T15:52:26.737Z</time></trkpt><trkpt lat="45.5316369" lon="10.4873271"><ele>276.6</ele><time>2026-04-25T15:52:28.737Z</time></trkpt><trkpt lat="45.5317261" lon="10.4873307"><ele>277.0</ele><time>2026-04-25T15:52:30.737Z</time></trkpt><trkpt lat="45.5318269" lon="10.4873584"><ele>277.0</ele><time>2026-04-25T15:52:32.736Z</time></trkpt><trkpt lat="45.5319244" lon="10.4873824"><ele>277.0</ele><time>2026-04-25T15:52:34.736Z</time></trkpt><trkpt lat="45.5320289" lon="10.487396"><ele>277.0</ele><time>2026-04-25T15:52:36.737Z</time></trkpt><trkpt lat="45.532136" lon="10.4873986"><ele>277.0</ele><time>2026-04-25T15:52:38.737Z</time></trkpt><trkpt lat="45.532243" lon="10.4874201"><ele>277.0</ele><time>2026-04-25T15:52:40.736Z</time></trkpt><trkpt lat="45.5323566" lon="10.4874738"><ele>277.3333333333333</ele><time>2026-04-25T15:52:42.735Z</time></trkpt><trkpt lat="45.5324173" lon="10.487501"><ele>277.66666666666663</ele><time>2026-04-25T15:52:43.735Z</time></trkpt><trkpt lat="45.5324788" lon="10.4875277"><ele>278.0</ele><time>2026-04-25T15:52:44.737Z</time></trkpt><trkpt lat="45.5325399" lon="10.4875514"><ele>278.3333333333333</ele><time>2026-04-25T15:52:45.736Z</time></trkpt><trkpt lat="45.5326016" lon="10.4875808"><ele>278.6666666666667</ele><time>2026-04-25T15:52:46.737Z</time></trkpt><trkpt lat="45.5327173" lon="10.4876127"><ele>279.0</ele><time>2026-04-25T15:52:48.735Z</time></trkpt><trkpt lat="45.5328222" lon="10.4876494"><ele>279.6666666666667</ele><time>2026-04-25T15:52:50.736Z</time></trkpt><trkpt lat="45.5329204" lon="10.4876987"><ele>280.3333333333333</ele><time>2026-04-25T15:52:52.736Z</time></trkpt><trkpt lat="45.5330041" lon="10.4877336"><ele>281.0</ele><time>2026-04-25T15:52:54.736Z</time></trkpt><trkpt lat="45.5330747" lon="10.4877674"><ele>281.66666666666663</ele><time>2026-04-25T15:52:56.736Z</time></trkpt><trkpt lat="45.5331605" lon="10.4878125"><ele>282.3333333333333</ele><time>2026-04-25T15:53:00.737Z</time></trkpt><trkpt lat="45.5332275" lon="10.4878263"><ele>283.0</ele><time>2026-04-25T15:53:05.736Z</time></trkpt><trkpt lat="45.5333176" lon="10.4878021"><ele>283.0</ele><time>2026-04-25T15:53:08.737Z</time></trkpt><trkpt lat="45.5333904" lon="10.4877798"><ele>283.0</ele><time>2026-04-25T15:53:10.735Z</time></trkpt><trkpt lat="45.5334667" lon="10.4877556"><ele>283.0</ele><time>2026-04-25T15:53:12.737Z</time></trkpt><trkpt lat="45.5335427" lon="10.4877327"><ele>283.0</ele><time>2026-04-25T15:53:14.736Z</time></trkpt><trkpt lat="45.5336193" lon="10.4877041"><ele>283.0</ele><time>2026-04-25T15:53:16.736Z</time></trkpt><trkpt lat="45.5336981" lon="10.4876863"><ele>283.0</ele><time>2026-04-25T15:53:18.737Z</time></trkpt><trkpt lat="45.5337818" lon="10.4876873"><ele>284.0</ele><time>2026-04-25T15:53:20.737Z</time></trkpt><trkpt lat="45.5338684" lon="10.4877041"><ele>285.0</ele><time>2026-04-25T15:53:22.737Z</time></trkpt><trkpt lat="45.5339527" lon="10.4877215"><ele>286.0</ele><time>2026-04-25T15:53:24.736Z</time></trkpt><trkpt lat="45.534035" lon="10.487742"><ele>287.0</ele><time>2026-04-25T15:53:26.737Z</time></trkpt><trkpt lat="45.5341052" lon="10.4877475"><ele>288.0</ele><time>2026-04-25T15:53:28.737Z</time></trkpt><trkpt lat="45.5342" lon="10.4877645"><ele>289.0</ele><time>2026-04-25T15:53:31.737Z</time></trkpt><trkpt lat="45.5342653" lon="10.4877839"><ele>289.0</ele><time>2026-04-25T15:53:33.737Z</time></trkpt><trkpt lat="45.5343254" lon="10.487817"><ele>289.0</ele><time>2026-04-25T15:53:35.736Z</time></trkpt><trkpt lat="45.5343877" lon="10.4878377"><ele>289.0</ele><time>2026-04-25T15:53:37.736Z</time></trkpt><trkpt lat="45.5344655" lon="10.4878359"><ele>289.0</ele><time>2026-04-25T15:53:40.735Z</time></trkpt><trkpt lat="45.534536" lon="10.4878277"><ele>289.0</ele><time>2026-04-25T15:53:42.737Z</time></trkpt><trkpt lat="45.5346006" lon="10.4878128"><ele>289.0</ele><time>2026-04-25T15:53:44.737Z</time></trkpt><trkpt lat="45.5346928" lon="10.48779"><ele>289.0</ele><time>2026-04-25T15:53:47.736Z</time></trkpt><trkpt lat="45.534764" lon="10.4878155"><ele>289.0</ele><time>2026-04-25T15:53:49.737Z</time></trkpt><trkpt lat="45.5348494" lon="10.4878588"><ele>289.0</ele><time>2026-04-25T15:53:51.735Z</time></trkpt><trkpt lat="45.534906" lon="10.4879135"><ele>289.0</ele><time>2026-04-25T15:53:53.737Z</time></trkpt><trkpt lat="45.534962" lon="10.4879613"><ele>289.0</ele><time>2026-04-25T15:53:55.737Z</time></trkpt><trkpt lat="45.5350412" lon="10.4880156"><ele>289.0</ele><time>2026-04-25T15:53:57.737Z</time></trkpt><trkpt lat="45.5351095" lon="10.4880751"><ele>289.0</ele><time>2026-04-25T15:53:59.737Z</time></trkpt><trkpt lat="45.5351778" lon="10.4881085"><ele>289.0</ele><time>2026-04-25T15:54:01.738Z</time></trkpt><trkpt lat="45.535253" lon="10.4881619"><ele>289.0</ele><time>2026-04-25T15:54:04.737Z</time></trkpt><trkpt lat="45.53531" lon="10.488246"><ele>289.0</ele><time>2026-04-25T15:54:06.738Z</time></trkpt><trkpt lat="45.53539" lon="10.4883082"><ele>289.0</ele><time>2026-04-25T15:54:08.738Z</time></trkpt><trkpt lat="45.535465" lon="10.4883724"><ele>289.0</ele><time>2026-04-25T15:54:10.738Z</time></trkpt><trkpt lat="45.5355393" lon="10.4884489"><ele>289.0</ele><time>2026-04-25T15:54:12.738Z</time></trkpt><trkpt lat="45.5356266" lon="10.4885248"><ele>289.66666666666663</ele><time>2026-04-25T15:54:14.736Z</time></trkpt><trkpt lat="45.5356782" lon="10.4885858"><ele>290.3333333333333</ele><time>2026-04-25T15:54:16.738Z</time></trkpt><trkpt lat="45.5357553" lon="10.4886491"><ele>291.0</ele><time>2026-04-25T15:54:18.737Z</time></trkpt><trkpt lat="45.5358386" lon="10.4887183"><ele>291.6666666666667</ele><time>2026-04-25T15:54:20.738Z</time></trkpt><trkpt lat="45.5359124" lon="10.4887787"><ele>292.33333333333337</ele><time>2026-04-25T15:54:22.738Z</time></trkpt><trkpt lat="45.5359785" lon="10.4888164"><ele>293.0</ele><time>2026-04-25T15:54:24.737Z</time></trkpt><trkpt lat="45.5360552" lon="10.4888776"><ele>293.0</ele><time>2026-04-25T15:54:27.737Z</time></trkpt><trkpt lat="45.5361287" lon="10.488907"><ele>293.0</ele><time>2026-04-25T15:54:30.738Z</time></trkpt><trkpt lat="45.5362267" lon="10.4889691"><ele>293.0</ele><time>2026-04-25T15:54:33.737Z</time></trkpt><trkpt lat="45.536298" lon="10.4890212"><ele>293.0</ele><time>2026-04-25T15:54:35.737Z</time></trkpt><trkpt lat="45.5363574" lon="10.4890877"><ele>293.0</ele><time>2026-04-25T15:54:37.738Z</time></trkpt><trkpt lat="45.5364232" lon="10.4891269"><ele>293.0</ele><time>2026-04-25T15:54:39.738Z</time></trkpt><trkpt lat="45.5364918" lon="10.4891481"><ele>294.5</ele><time>2026-04-25T15:54:41.737Z</time></trkpt><trkpt lat="45.536555" lon="10.4892113"><ele>296.0</ele><time>2026-04-25T15:54:43.738Z</time></trkpt><trkpt lat="45.5366174" lon="10.4892817"><ele>297.5</ele><time>2026-04-25T15:54:45.737Z</time></trkpt><trkpt lat="45.5366809" lon="10.4893424"><ele>299.0</ele><time>2026-04-25T15:54:47.736Z</time></trkpt><trkpt lat="45.5367385" lon="10.4894015"><ele>300.5</ele><time>2026-04-25T15:54:49.737Z</time></trkpt><trkpt lat="45.5367916" lon="10.4894568"><ele>302.0</ele><time>2026-04-25T15:54:51.738Z</time></trkpt><trkpt lat="45.5368637" lon="10.4895151"><ele>302.0</ele><time>2026-04-25T15:54:54.738Z</time></trkpt><trkpt lat="45.5369184" lon="10.4895748"><ele>302.0</ele><time>2026-04-25T15:54:57.738Z</time></trkpt><trkpt lat="45.5369853" lon="10.4896135"><ele>302.0</ele><time>2026-04-25T15:54:59.738Z</time></trkpt><trkpt lat="45.5370688" lon="10.489634"><ele>302.0</ele><time>2026-04-25T15:55:02.738Z</time></trkpt><trkpt lat="45.5371373" lon="10.4897042"><ele>302.0</ele><time>2026-04-25T15:55:05.736Z</time></trkpt><trkpt lat="45.5371944" lon="10.4897678"><ele>302.0</ele><time>2026-04-25T15:55:07.738Z</time></trkpt><trkpt lat="45.5372599" lon="10.4898086"><ele>301.33333333333337</ele><time>2026-04-25T15:55:10.738Z</time></trkpt><trkpt lat="45.5373345" lon="10.4898481"><ele>300.6666666666667</ele><time>2026-04-25T15:55:13.737Z</time></trkpt><trkpt lat="45.5374045" lon="10.4899025"><ele>300.0</ele><time>2026-04-25T15:55:15.737Z</time></trkpt><trkpt lat="45.5374646" lon="10.4899835"><ele>299.3333333333333</ele><time>2026-04-25T15:55:18.738Z</time></trkpt><trkpt lat="45.5375333" lon="10.4900492"><ele>298.66666666666663</ele><time>2026-04-25T15:55:21.736Z</time></trkpt><trkpt lat="45.5376286" lon="10.4900896"><ele>298.0</ele><time>2026-04-25T15:55:24.738Z</time></trkpt><trkpt lat="45.5376925" lon="10.4901139"><ele>298.0</ele><time>2026-04-25T15:55:26.737Z</time></trkpt><trkpt lat="45.5377659" lon="10.4901467"><ele>298.0</ele><time>2026-04-25T15:55:29.738Z</time></trkpt><trkpt lat="45.5378361" lon="10.4901707"><ele>298.0</ele><time>2026-04-25T15:55:32.737Z</time></trkpt><trkpt lat="45.5379265" lon="10.4901824"><ele>298.0</ele><time>2026-04-25T15:55:35.737Z</time></trkpt><trkpt lat="45.5379897" lon="10.4901958"><ele>298.0</ele><time>2026-04-25T15:55:37.738Z</time></trkpt><trkpt lat="45.5380758" lon="10.4902065"><ele>298.0</ele><time>2026-04-25T15:55:40.737Z</time></trkpt><trkpt lat="45.5381741" lon="10.4902242"><ele>297.7142857142857</ele><time>2026-04-25T15:55:43.737Z</time></trkpt><trkpt lat="45.5382448" lon="10.4902552"><ele>297.4285714285714</ele><time>2026-04-25T15:55:45.737Z</time></trkpt><trkpt lat="45.5383156" lon="10.4902919"><ele>297.1428571428571</ele><time>2026-04-25T15:55:47.737Z</time></trkpt><trkpt lat="45.5383821" lon="10.4903298"><ele>296.85714285714283</ele><time>2026-04-25T15:55:49.738Z</time></trkpt><trkpt lat="45.5384472" lon="10.4903523"><ele>296.57142857142856</ele><time>2026-04-25T15:55:51.737Z</time></trkpt><trkpt lat="45.5385071" lon="10.4903807"><ele>296.2857142857143</ele><time>2026-04-25T15:55:53.737Z</time></trkpt><trkpt lat="45.538577" lon="10.4904102"><ele>296.0</ele><time>2026-04-25T15:55:55.738Z</time></trkpt><trkpt lat="45.538654" lon="10.490452"><ele>296.6666666666667</ele><time>2026-04-25T15:55:57.738Z</time></trkpt><trkpt lat="45.5387245" lon="10.4905052"><ele>297.33333333333337</ele><time>2026-04-25T15:55:59.738Z</time></trkpt><trkpt lat="45.5387873" lon="10.4905391"><ele>298.0</ele><time>2026-04-25T15:56:01.737Z</time></trkpt><trkpt lat="45.5388752" lon="10.4905738"><ele>298.6666666666667</ele><time>2026-04-25T15:56:04.737Z</time></trkpt><trkpt lat="45.5389496" lon="10.4906062"><ele>299.3333333333333</ele><time>2026-04-25T15:56:06.738Z</time></trkpt><trkpt lat="45.5390561" lon="10.4906269"><ele>300.0</ele><time>2026-04-25T15:56:08.737Z</time></trkpt><trkpt lat="45.539119" lon="10.4906478"><ele>300.0</ele><time>2026-04-25T15:56:09.738Z</time></trkpt><trkpt lat="45.5392442" lon="10.4906947"><ele>300.0</ele><time>2026-04-25T15:56:11.738Z</time></trkpt><trkpt lat="45.539314" lon="10.4907119"><ele>300.0</ele><time>2026-04-25T15:56:12.737Z</time></trkpt><trkpt lat="45.5393803" lon="10.4907359"><ele>300.0</ele><time>2026-04-25T15:56:13.737Z</time></trkpt><trkpt lat="45.5394919" lon="10.490782"><ele>300.0</ele><time>2026-04-25T15:56:15.738Z</time></trkpt><trkpt lat="45.5395545" lon="10.4907985"><ele>300.0</ele><time>2026-04-25T15:56:16.737Z</time></trkpt><trkpt lat="45.5396595" lon="10.4908051"><ele>300.2</ele><time>2026-04-25T15:56:19.736Z</time></trkpt><trkpt lat="45.5397429" lon="10.4908366"><ele>300.4</ele><time>2026-04-25T15:56:21.737Z</time></trkpt><trkpt lat="45.5398344" lon="10.490885"><ele>300.6</ele><time>2026-04-25T15:56:23.737Z</time></trkpt><trkpt lat="45.5399328" lon="10.4909278"><ele>300.8</ele><time>2026-04-25T15:56:25.737Z</time></trkpt><trkpt lat="45.5400284" lon="10.4909635"><ele>301.0</ele><time>2026-04-25T15:56:27.737Z</time></trkpt><trkpt lat="45.5401124" lon="10.4909944"><ele>301.0</ele><time>2026-04-25T15:56:29.738Z</time></trkpt><trkpt lat="45.5402019" lon="10.4910282"><ele>301.0</ele><time>2026-04-25T15:56:32.738Z</time></trkpt><trkpt lat="45.5402671" lon="10.4910204"><ele>301.0</ele><time>2026-04-25T15:57:58.737Z</time></trkpt><trkpt lat="45.540332" lon="10.4910544"><ele>301.0</ele><time>2026-04-25T15:58:01.737Z</time></trkpt><trkpt lat="45.5404104" lon="10.491042"><ele>301.0</ele><time>2026-04-25T15:58:05.737Z</time></trkpt><trkpt lat="45.5404846" lon="10.4910221"><ele>301.0</ele><time>2026-04-25T15:58:09.737Z</time></trkpt><trkpt lat="45.5405524" lon="10.4909729"><ele>300.8333333333333</ele><time>2026-04-25T15:58:13.738Z</time></trkpt><trkpt lat="45.5406432" lon="10.4909301"><ele>300.66666666666663</ele><time>2026-04-25T15:58:16.737Z</time></trkpt><trkpt lat="45.5407127" lon="10.490933"><ele>300.5</ele><time>2026-04-25T15:58:18.737Z</time></trkpt><trkpt lat="45.540791" lon="10.4909455"><ele>300.3333333333333</ele><time>2026-04-25T15:58:21.737Z</time></trkpt><trkpt lat="45.5408622" lon="10.4909958"><ele>300.1666666666667</ele><time>2026-04-25T15:58:25.737Z</time></trkpt><trkpt lat="45.5409551" lon="10.4909787"><ele>300.0</ele><time>2026-04-25T15:58:28.736Z</time></trkpt><trkpt lat="45.5410554" lon="10.490976"><ele>300.0</ele><time>2026-04-25T15:58:30.737Z</time></trkpt><trkpt lat="45.5411617" lon="10.4909766"><ele>300.0</ele><time>2026-04-25T15:58:32.737Z</time></trkpt><trkpt lat="45.541268" lon="10.4909865"><ele>300.0</ele><time>2026-04-25T15:58:34.738Z</time></trkpt><trkpt lat="45.5413644" lon="10.4909897"><ele>300.0</ele><time>2026-04-25T15:58:36.737Z</time></trkpt><trkpt lat="45.5414698" lon="10.4909976"><ele>300.0</ele><time>2026-04-25T15:58:38.737Z</time></trkpt><trkpt lat="45.5415622" lon="10.4909575"><ele>299.4285714285714</ele><time>2026-04-25T15:58:41.738Z</time></trkpt><trkpt lat="45.5416324" lon="10.4909605"><ele>298.85714285714283</ele><time>2026-04-25T15:58:43.736Z</time></trkpt><trkpt lat="45.541709" lon="10.4909808"><ele>298.2857142857143</ele><time>2026-04-25T15:58:46.738Z</time></trkpt><trkpt lat="45.5417741" lon="10.4909941"><ele>297.71428571428567</ele><time>2026-04-25T15:58:48.737Z</time></trkpt><trkpt lat="45.5418509" lon="10.4910082"><ele>297.1428571428571</ele><time>2026-04-25T15:58:50.737Z</time></trkpt><trkpt lat="45.5419327" lon="10.4910313"><ele>296.57142857142856</ele><time>2026-04-25T15:58:52.737Z</time></trkpt><trkpt lat="45.5420024" lon="10.4910554"><ele>296.0</ele><time>2026-04-25T15:58:54.737Z</time></trkpt><trkpt lat="45.5420653" lon="10.4910698"><ele>295.6666666666667</ele><time>2026-04-25T15:58:56.737Z</time></trkpt><trkpt lat="45.5421418" lon="10.4910903"><ele>295.33333333333337</ele><time>2026-04-25T15:58:58.738Z</time></trkpt><trkpt lat="45.5422289" lon="10.4911205"><ele>295.0</ele><time>2026-04-25T15:59:00.738Z</time></trkpt><trkpt lat="45.5423111" lon="10.4911498"><ele>294.6666666666667</ele><time>2026-04-25T15:59:02.737Z</time></trkpt><trkpt lat="45.5423856" lon="10.4912032"><ele>294.3333333333333</ele><time>2026-04-25T15:59:04.737Z</time></trkpt><trkpt lat="45.5424676" lon="10.4912394"><ele>294.0</ele><time>2026-04-25T15:59:06.738Z</time></trkpt><trkpt lat="45.5425363" lon="10.491269"><ele>293.0</ele><time>2026-04-25T15:59:09.737Z</time></trkpt><trkpt lat="45.5425424" lon="10.4913621"><ele>292.0</ele><time>2026-04-25T15:59:13.737Z</time></trkpt><trkpt lat="45.5425058" lon="10.4914397"><ele>291.0</ele><time>2026-04-25T15:59:16.736Z</time></trkpt><trkpt lat="45.5424427" lon="10.4915046"><ele>290.0</ele><time>2026-04-25T15:59:20.738Z</time></trkpt><trkpt lat="45.5423712" lon="10.4915411"><ele>289.0</ele><time>2026-04-25T15:59:23.738Z</time></trkpt><trkpt lat="45.5422939" lon="10.491535"><ele>288.0</ele><time>2026-04-25T15:59:26.737Z</time></trkpt><trkpt lat="45.5422087" lon="10.4915729"><ele>288.0</ele><time>2026-04-25T15:59:29.737Z</time></trkpt><trkpt lat="45.5421295" lon="10.4916586"><ele>288.0</ele><time>2026-04-25T15:59:31.736Z</time></trkpt><trkpt lat="45.5420338" lon="10.4917553"><ele>288.0</ele><time>2026-04-25T15:59:33.738Z</time></trkpt><trkpt lat="45.5419323" lon="10.4918405"><ele>288.0</ele><time>2026-04-25T15:59:35.737Z</time></trkpt><trkpt lat="45.5418367" lon="10.4919139"><ele>288.0</ele><time>2026-04-25T15:59:37.737Z</time></trkpt><trkpt lat="45.5417345" lon="10.4919999"><ele>288.0</ele><time>2026-04-25T15:59:39.738Z</time></trkpt><trkpt lat="45.5416289" lon="10.4920868"><ele>288.0</ele><time>2026-04-25T15:59:41.738Z</time></trkpt><trkpt lat="45.5415338" lon="10.4921496"><ele>288.0</ele><time>2026-04-25T15:59:43.738Z</time></trkpt><trkpt lat="45.541483" lon="10.4922265"><ele>288.0</ele><time>2026-04-25T15:59:45.736Z</time></trkpt><trkpt lat="45.5414698" lon="10.4923165"><ele>288.0</ele><time>2026-04-25T15:59:47.736Z</time></trkpt><trkpt lat="45.5414451" lon="10.4924144"><ele>288.0</ele><time>2026-04-25T15:59:49.737Z</time></trkpt><trkpt lat="45.5413804" lon="10.4924823"><ele>287.0</ele><time>2026-04-25T15:59:52.737Z</time></trkpt><trkpt lat="45.541347" lon="10.4925609"><ele>286.0</ele><time>2026-04-25T15:59:55.738Z</time></trkpt><trkpt lat="45.5414471" lon="10.4924903"><ele>285.0</ele><time>2026-04-25T15:59:57.738Z</time></trkpt><trkpt lat="45.5415133" lon="10.4924206"><ele>284.0</ele><time>2026-04-25T15:59:58.737Z</time></trkpt><trkpt lat="45.5418789" lon="10.4922323"><ele>284.0</ele><time>2026-04-25T15:59:59.737Z</time></trkpt><trkpt lat="45.5419337" lon="10.4921858"><ele>284.0</ele><time>2026-04-25T16:00:00.737Z</time></trkpt><trkpt lat="45.5420421" lon="10.4920805"><ele>284.0</ele><time>2026-04-25T16:00:02.737Z</time></trkpt><trkpt lat="45.5421025" lon="10.4920206"><ele>284.0</ele><time>2026-04-25T16:00:03.737Z</time></trkpt><trkpt lat="45.5421635" lon="10.4919772"><ele>284.0</ele><time>2026-04-25T16:00:04.738Z</time></trkpt><trkpt lat="45.5422701" lon="10.4919025"><ele>284.8</ele><time>2026-04-25T16:00:06.736Z</time></trkpt><trkpt lat="45.5423282" lon="10.4918626"><ele>285.59999999999997</ele><time>2026-04-25T16:00:07.738Z</time></trkpt><trkpt lat="45.5424374" lon="10.4918198"><ele>286.4</ele><time>2026-04-25T16:00:09.737Z</time></trkpt><trkpt lat="45.5425444" lon="10.4918022"><ele>287.2</ele><time>2026-04-25T16:00:11.737Z</time></trkpt><trkpt lat="45.5426537" lon="10.4917955"><ele>288.0</ele><time>2026-04-25T16:00:13.738Z</time></trkpt><trkpt lat="45.5427486" lon="10.4918128"><ele>288.0</ele><time>2026-04-25T16:00:15.737Z</time></trkpt><trkpt lat="45.5428394" lon="10.4918432"><ele>288.0</ele><time>2026-04-25T16:00:17.737Z</time></trkpt><trkpt lat="45.5429338" lon="10.4918721"><ele>288.0</ele><time>2026-04-25T16:00:19.737Z</time></trkpt><trkpt lat="45.5430321" lon="10.4918554"><ele>288.0</ele><time>2026-04-25T16:00:21.738Z</time></trkpt><trkpt lat="45.5431419" lon="10.4918"><ele>288.0</ele><time>2026-04-25T16:00:23.737Z</time></trkpt><trkpt lat="45.5432508" lon="10.4917384"><ele>286.6666666666667</ele><time>2026-04-25T16:00:25.738Z</time></trkpt><trkpt lat="45.5433469" lon="10.4916898"><ele>285.3333333333333</ele><time>2026-04-25T16:00:27.737Z</time></trkpt><trkpt lat="45.5434246" lon="10.4916356"><ele>284.0</ele><time>2026-04-25T16:00:30.738Z</time></trkpt><trkpt lat="45.5434873" lon="10.4915649"><ele>282.66666666666663</ele><time>2026-04-25T16:00:34.737Z</time></trkpt><trkpt lat="45.543537" lon="10.4914538"><ele>281.3333333333333</ele><time>2026-04-25T16:00:40.737Z</time></trkpt><trkpt lat="45.5435992" lon="10.491407"><ele>280.0</ele><time>2026-04-25T16:00:43.736Z</time></trkpt><trkpt lat="45.5436692" lon="10.4913767"><ele>280.0</ele><time>2026-04-25T16:00:45.738Z</time></trkpt><trkpt lat="45.5437484" lon="10.4913148"><ele>280.0</ele><time>2026-04-25T16:00:47.737Z</time></trkpt><trkpt lat="45.5438199" lon="10.4912521"><ele>280.0</ele><time>2026-04-25T16:00:49.736Z</time></trkpt><trkpt lat="45.5438849" lon="10.4911925"><ele>280.0</ele><time>2026-04-25T16:00:51.738Z</time></trkpt><trkpt lat="45.543952" lon="10.4911711"><ele>280.0</ele><time>2026-04-25T16:00:54.737Z</time></trkpt><trkpt lat="45.5440301" lon="10.4911415"><ele>280.0</ele><time>2026-04-25T16:00:59.737Z</time></trkpt><trkpt lat="45.544103" lon="10.491102"><ele>280.0</ele><time>2026-04-25T16:01:02.738Z</time></trkpt><trkpt lat="45.5441712" lon="10.4911335"><ele>280.0</ele><time>2026-04-25T16:01:05.737Z</time></trkpt><trkpt lat="45.5442389" lon="10.4911532"><ele>280.0</ele><time>2026-04-25T16:01:11.737Z</time></trkpt><trkpt lat="45.5443027" lon="10.4912139"><ele>280.0</ele><time>2026-04-25T16:01:15.737Z</time></trkpt><trkpt lat="45.5443617" lon="10.4912617"><ele>280.0</ele><time>2026-04-25T16:01:22.737Z</time></trkpt><trkpt lat="45.544435" lon="10.4913064"><ele>280.0</ele><time>2026-04-25T16:01:26.738Z</time></trkpt><trkpt lat="45.5445094" lon="10.4913727"><ele>278.2857142857143</ele><time>2026-04-25T16:01:29.738Z</time></trkpt><trkpt lat="45.5445777" lon="10.4913954"><ele>276.57142857142856</ele><time>2026-04-25T16:01:33.736Z</time></trkpt><trkpt lat="45.544644" lon="10.49143"><ele>274.8571428571429</ele><time>2026-04-25T16:01:49.738Z</time></trkpt><trkpt lat="45.544701" lon="10.4914789"><ele>273.1428571428571</ele><time>2026-04-25T16:01:52.737Z</time></trkpt><trkpt lat="45.5447819" lon="10.4915358"><ele>271.42857142857144</ele><time>2026-04-25T16:01:55.738Z</time></trkpt><trkpt lat="45.5448561" lon="10.4915129"><ele>269.7142857142857</ele><time>2026-04-25T16:01:57.737Z</time></trkpt><trkpt lat="45.5449125" lon="10.4914479"><ele>268.0</ele><time>2026-04-25T16:01:59.737Z</time></trkpt><trkpt lat="45.5449716" lon="10.4913827"><ele>268.0</ele><time>2026-04-25T16:02:02.737Z</time></trkpt><trkpt lat="45.5450508" lon="10.4913808"><ele>268.0</ele><time>2026-04-25T16:02:05.737Z</time></trkpt><trkpt lat="45.5451085" lon="10.491424"><ele>268.0</ele><time>2026-04-25T16:02:07.737Z</time></trkpt><trkpt lat="45.5451831" lon="10.4914855"><ele>268.0</ele><time>2026-04-25T16:02:10.738Z</time></trkpt><trkpt lat="45.5452467" lon="10.4915193"><ele>268.0</ele><time>2026-04-25T16:02:12.738Z</time></trkpt><trkpt lat="45.5453136" lon="10.4915581"><ele>268.0</ele><time>2026-04-25T16:02:14.737Z</time></trkpt><trkpt lat="45.5453859" lon="10.4915908"><ele>268.0</ele><time>2026-04-25T16:02:16.737Z</time></trkpt><trkpt lat="45.5454664" lon="10.4916287"><ele>267.6</ele><time>2026-04-25T16:02:18.736Z</time></trkpt><trkpt lat="45.5455511" lon="10.4916755"><ele>267.20000000000005</ele><time>2026-04-25T16:02:20.738Z</time></trkpt><trkpt lat="45.5456519" lon="10.4917303"><ele>266.8</ele><time>2026-04-25T16:02:22.738Z</time></trkpt><trkpt lat="45.545755" lon="10.4917749"><ele>266.40000000000003</ele><time>2026-04-25T16:02:24.738Z</time></trkpt><trkpt lat="45.5458564" lon="10.4918177"><ele>266.0</ele><time>2026-04-25T16:02:26.738Z</time></trkpt><trkpt lat="45.5459158" lon="10.4918528"><ele>266.0</ele><time>2026-04-25T16:02:27.738Z</time></trkpt><trkpt lat="45.5460239" lon="10.4919045"><ele>266.0</ele><time>2026-04-25T16:02:29.736Z</time></trkpt><trkpt lat="45.5461296" lon="10.4919419"><ele>266.0</ele><time>2026-04-25T16:02:31.738Z</time></trkpt><trkpt lat="45.5462092" lon="10.4919116"><ele>266.0</ele><time>2026-04-25T16:02:33.738Z</time></trkpt><trkpt lat="45.5462568" lon="10.4918448"><ele>266.0</ele><time>2026-04-25T16:02:35.737Z</time></trkpt><trkpt lat="45.5463088" lon="10.4917606"><ele>265.0</ele><time>2026-04-25T16:02:38.736Z</time></trkpt><trkpt lat="45.5463757" lon="10.4916646"><ele>264.0</ele><time>2026-04-25T16:02:41.738Z</time></trkpt><trkpt lat="45.5464268" lon="10.4915884"><ele>263.0</ele><time>2026-04-25T16:02:43.737Z</time></trkpt><trkpt lat="45.5464738" lon="10.4915136"><ele>262.0</ele><time>2026-04-25T16:02:45.737Z</time></trkpt><trkpt lat="45.5465269" lon="10.4914239"><ele>261.0</ele><time>2026-04-25T16:02:49.738Z</time></trkpt><trkpt lat="45.546569" lon="10.4913422"><ele>260.0</ele><time>2026-04-25T16:02:52.738Z</time></trkpt><trkpt lat="45.5466094" lon="10.4912643"><ele>261.6666666666667</ele><time>2026-04-25T16:02:54.738Z</time></trkpt><trkpt lat="45.546654" lon="10.4911889"><ele>263.33333333333337</ele><time>2026-04-25T16:02:57.737Z</time></trkpt><trkpt lat="45.5466916" lon="10.4911041"><ele>265.0</ele><time>2026-04-25T16:03:01.738Z</time></trkpt><trkpt lat="45.5467542" lon="10.4910468"><ele>266.6666666666667</ele><time>2026-04-25T16:03:04.737Z</time></trkpt><trkpt lat="45.5468389" lon="10.4910089"><ele>268.3333333333333</ele><time>2026-04-25T16:03:07.737Z</time></trkpt><trkpt lat="45.5469084" lon="10.4909531"><ele>270.0</ele><time>2026-04-25T16:03:10.737Z</time></trkpt><trkpt lat="45.5469854" lon="10.4908645"><ele>270.0</ele><time>2026-04-25T16:03:13.737Z</time></trkpt><trkpt lat="45.5470312" lon="10.490799"><ele>270.0</ele><time>2026-04-25T16:03:15.737Z</time></trkpt><trkpt lat="45.5470928" lon="10.4907076"><ele>270.0</ele><time>2026-04-25T16:03:18.736Z</time></trkpt><trkpt lat="45.5471685" lon="10.4905965"><ele>270.0</ele><time>2026-04-25T16:03:21.737Z</time></trkpt><trkpt lat="45.5472204" lon="10.4905009"><ele>270.0</ele><time>2026-04-25T16:03:23.738Z</time></trkpt><trkpt lat="45.5472566" lon="10.4903932"><ele>270.0</ele><time>2026-04-25T16:03:25.737Z</time></trkpt><trkpt lat="45.5472936" lon="10.4902811"><ele>268.5</ele><time>2026-04-25T16:03:27.738Z</time></trkpt><trkpt lat="45.5473432" lon="10.4901773"><ele>267.0</ele><time>2026-04-25T16:03:29.736Z</time></trkpt><trkpt lat="45.5473872" lon="10.490089"><ele>265.5</ele><time>2026-04-25T16:03:31.736Z</time></trkpt><trkpt lat="45.5474251" lon="10.4899567"><ele>264.0</ele><time>2026-04-25T16:03:34.738Z</time></trkpt><trkpt lat="45.5474642" lon="10.4898581"><ele>262.5</ele><time>2026-04-25T16:03:36.737Z</time></trkpt><trkpt lat="45.5475224" lon="10.4897495"><ele>261.0</ele><time>2026-04-25T16:03:38.737Z</time></trkpt><trkpt lat="45.5475674" lon="10.4896473"><ele>263.1666666666667</ele><time>2026-04-25T16:03:40.738Z</time></trkpt><trkpt lat="45.5476032" lon="10.4895492"><ele>265.3333333333333</ele><time>2026-04-25T16:03:42.738Z</time></trkpt><trkpt lat="45.5476404" lon="10.4894626"><ele>267.5</ele><time>2026-04-25T16:03:44.737Z</time></trkpt><trkpt lat="45.5476841" lon="10.4893423"><ele>269.66666666666663</ele><time>2026-04-25T16:03:46.737Z</time></trkpt><trkpt lat="45.54774" lon="10.4892227"><ele>271.8333333333333</ele><time>2026-04-25T16:03:49.738Z</time></trkpt><trkpt lat="45.547777" lon="10.4891237"><ele>274.0</ele><time>2026-04-25T16:03:51.737Z</time></trkpt><trkpt lat="45.5478048" lon="10.4890251"><ele>274.0</ele><time>2026-04-25T16:03:53.736Z</time></trkpt><trkpt lat="45.5478374" lon="10.4889361"><ele>274.0</ele><time>2026-04-25T16:03:55.738Z</time></trkpt><trkpt lat="45.547866" lon="10.4888313"><ele>274.0</ele><time>2026-04-25T16:03:57.736Z</time></trkpt><trkpt lat="45.5479013" lon="10.4887216"><ele>274.0</ele><time>2026-04-25T16:03:59.738Z</time></trkpt><trkpt lat="45.5479349" lon="10.4886063"><ele>274.0</ele><time>2026-04-25T16:04:01.738Z</time></trkpt><trkpt lat="45.5479641" lon="10.4884863"><ele>274.0</ele><time>2026-04-25T16:04:03.737Z</time></trkpt><trkpt lat="45.5479794" lon="10.4883814"><ele>271.66666666666663</ele><time>2026-04-25T16:04:05.736Z</time></trkpt><trkpt lat="45.5480288" lon="10.488247"><ele>269.3333333333333</ele><time>2026-04-25T16:04:07.738Z</time></trkpt><trkpt lat="45.5480622" lon="10.4881451"><ele>267.0</ele><time>2026-04-25T16:04:09.737Z</time></trkpt><trkpt lat="45.5480867" lon="10.4880522"><ele>264.6666666666667</ele><time>2026-04-25T16:04:11.738Z</time></trkpt><trkpt lat="45.5481188" lon="10.4879586"><ele>262.33333333333337</ele><time>2026-04-25T16:04:13.737Z</time></trkpt><trkpt lat="45.5481432" lon="10.4878637"><ele>260.0</ele><time>2026-04-25T16:04:14.738Z</time></trkpt><trkpt lat="45.5481649" lon="10.4877751"><ele>260.0</ele><time>2026-04-25T16:04:15.737Z</time></trkpt><trkpt lat="45.5481991" lon="10.4876942"><ele>260.0</ele><time>2026-04-25T16:04:16.737Z</time></trkpt><trkpt lat="45.5482444" lon="10.4875441"><ele>260.0</ele><time>2026-04-25T16:04:18.737Z</time></trkpt><trkpt lat="45.5482575" lon="10.4874159"><ele>260.0</ele><time>2026-04-25T16:04:20.737Z</time></trkpt><trkpt lat="45.5482847" lon="10.4872915"><ele>260.0</ele><time>2026-04-25T16:04:22.737Z</time></trkpt><trkpt lat="45.5483233" lon="10.4871544"><ele>261.8</ele><time>2026-04-25T16:04:24.737Z</time></trkpt><trkpt lat="45.5483649" lon="10.4870007"><ele>263.6</ele><time>2026-04-25T16:04:26.737Z</time></trkpt><trkpt lat="45.5484047" lon="10.4869166"><ele>265.4</ele><time>2026-04-25T16:04:27.737Z</time></trkpt><trkpt lat="45.5484118" lon="10.4867771"><ele>267.2</ele><time>2026-04-25T16:04:29.737Z</time></trkpt><trkpt lat="45.548452" lon="10.4866591"><ele>269.0</ele><time>2026-04-25T16:04:31.737Z</time></trkpt><trkpt lat="45.5484821" lon="10.4865259"><ele>269.0</ele><time>2026-04-25T16:04:34.738Z</time></trkpt><trkpt lat="45.5485133" lon="10.4864361"><ele>269.0</ele><time>2026-04-25T16:04:36.738Z</time></trkpt><trkpt lat="45.5485344" lon="10.4863485"><ele>269.0</ele><time>2026-04-25T16:04:38.738Z</time></trkpt><trkpt lat="45.5485518" lon="10.4862578"><ele>269.0</ele><time>2026-04-25T16:04:40.738Z</time></trkpt><trkpt lat="45.5485881" lon="10.4861588"><ele>269.0</ele><time>2026-04-25T16:04:42.736Z</time></trkpt><trkpt lat="45.5486218" lon="10.4860601"><ele>269.0</ele><time>2026-04-25T16:04:44.737Z</time></trkpt><trkpt lat="45.5486566" lon="10.4859707"><ele>269.0</ele><time>2026-04-25T16:04:46.738Z</time></trkpt><trkpt lat="45.5486908" lon="10.4858852"><ele>268.1666666666667</ele><time>2026-04-25T16:04:48.737Z</time></trkpt><trkpt lat="45.5487407" lon="10.4857999"><ele>267.33333333333337</ele><time>2026-04-25T16:04:50.738Z</time></trkpt><trkpt lat="45.5487971" lon="10.4857307"><ele>266.5</ele><time>2026-04-25T16:04:52.736Z</time></trkpt><trkpt lat="45.548847" lon="10.4856599"><ele>265.6666666666667</ele><time>2026-04-25T16:04:54.736Z</time></trkpt><trkpt lat="45.5488873" lon="10.4855736"><ele>264.8333333333333</ele><time>2026-04-25T16:04:56.738Z</time></trkpt><trkpt lat="45.5489298" lon="10.4854856"><ele>264.0</ele><time>2026-04-25T16:04:58.737Z</time></trkpt><trkpt lat="45.548993" lon="10.4853478"><ele>264.0</ele><time>2026-04-25T16:05:00.738Z</time></trkpt><trkpt lat="45.5490555" lon="10.48533"><ele>264.0</ele><time>2026-04-25T16:05:01.737Z</time></trkpt><trkpt lat="45.5490363" lon="10.4852173"><ele>264.0</ele><time>2026-04-25T16:05:02.737Z</time></trkpt><trkpt lat="45.5490839" lon="10.4850897"><ele>264.0</ele><time>2026-04-25T16:05:04.737Z</time></trkpt><trkpt lat="45.549105" lon="10.4849904"><ele>264.0</ele><time>2026-04-25T16:05:06.738Z</time></trkpt><trkpt lat="45.5491347" lon="10.484884"><ele>264.0</ele><time>2026-04-25T16:05:08.737Z</time></trkpt><trkpt lat="45.5491887" lon="10.484771"><ele>264.0</ele><time>2026-04-25T16:05:10.738Z</time></trkpt><trkpt lat="45.5492338" lon="10.4846621"><ele>264.0</ele><time>2026-04-25T16:05:12.738Z</time></trkpt><trkpt lat="45.5492836" lon="10.4845314"><ele>264.0</ele><time>2026-04-25T16:05:14.736Z</time></trkpt><trkpt lat="45.5493558" lon="10.4843974"><ele>264.0</ele><time>2026-04-25T16:05:16.738Z</time></trkpt><trkpt lat="45.5493911" lon="10.4843218"><ele>264.0</ele><time>2026-04-25T16:05:17.737Z</time></trkpt><trkpt lat="45.5494661" lon="10.4842122"><ele>263.59999999999997</ele><time>2026-04-25T16:05:19.738Z</time></trkpt><trkpt lat="45.5495329" lon="10.4841173"><ele>263.2</ele><time>2026-04-25T16:05:21.737Z</time></trkpt><trkpt lat="45.549585" lon="10.4840532"><ele>262.79999999999995</ele><time>2026-04-25T16:05:23.737Z</time></trkpt><trkpt lat="45.549688" lon="10.4839791"><ele>262.4</ele><time>2026-04-25T16:05:25.738Z</time></trkpt><trkpt lat="45.5497952" lon="10.4839389"><ele>262.0</ele><time>2026-04-25T16:05:27.737Z</time></trkpt><trkpt lat="45.5499172" lon="10.4838964"><ele>262.0</ele><time>2026-04-25T16:05:29.737Z</time></trkpt><trkpt lat="45.5499806" lon="10.4838865"><ele>262.0</ele><time>2026-04-25T16:05:30.738Z</time></trkpt><trkpt lat="45.550106" lon="10.4838896"><ele>262.0</ele><time>2026-04-25T16:05:32.736Z</time></trkpt><trkpt lat="45.5501704" lon="10.4838956"><ele>262.0</ele><time>2026-04-25T16:05:33.738Z</time></trkpt><trkpt lat="45.5502881" lon="10.4838996"><ele>262.0</ele><time>2026-04-25T16:05:35.738Z</time></trkpt><trkpt lat="45.5503958" lon="10.4838763"><ele>261.0</ele><time>2026-04-25T16:05:37.738Z</time></trkpt><trkpt lat="45.5505056" lon="10.4838254"><ele>260.0</ele><time>2026-04-25T16:05:39.738Z</time></trkpt><trkpt lat="45.5506195" lon="10.4837521"><ele>259.0</ele><time>2026-04-25T16:05:41.737Z</time></trkpt><trkpt lat="45.5506762" lon="10.483713"><ele>258.0</ele><time>2026-04-25T16:05:42.738Z</time></trkpt><trkpt lat="45.5507875" lon="10.4836263"><ele>257.0</ele><time>2026-04-25T16:05:44.737Z</time></trkpt><trkpt lat="45.5508937" lon="10.4835489"><ele>259.2</ele><time>2026-04-25T16:05:46.736Z</time></trkpt><trkpt lat="45.5509844" lon="10.4834799"><ele>261.4</ele><time>2026-04-25T16:05:48.737Z</time></trkpt><trkpt lat="45.5510822" lon="10.4834125"><ele>263.6</ele><time>2026-04-25T16:05:50.736Z</time></trkpt><trkpt lat="45.5511673" lon="10.4833373"><ele>265.8</ele><time>2026-04-25T16:05:52.737Z</time></trkpt><trkpt lat="45.5512414" lon="10.4832607"><ele>268.0</ele><time>2026-04-25T16:05:54.736Z</time></trkpt><trkpt lat="45.5513121" lon="10.4832158"><ele>268.5</ele><time>2026-04-25T16:05:56.738Z</time></trkpt><trkpt lat="45.5513996" lon="10.4831986"><ele>269.0</ele><time>2026-04-25T16:05:59.736Z</time></trkpt><trkpt lat="45.5514793" lon="10.4832185"><ele>269.5</ele><time>2026-04-25T16:06:04.738Z</time></trkpt><trkpt lat="45.5515311" lon="10.4833294"><ele>270.0</ele><time>2026-04-25T16:06:07.738Z</time></trkpt><trkpt lat="45.5515554" lon="10.4834186"><ele>270.5</ele><time>2026-04-25T16:06:09.738Z</time></trkpt><trkpt lat="45.5515821" lon="10.4835127"><ele>271.0</ele><time>2026-04-25T16:06:11.738Z</time></trkpt><trkpt lat="45.5516132" lon="10.4836003"><ele>271.0</ele><time>2026-04-25T16:06:13.738Z</time></trkpt><trkpt lat="45.5516442" lon="10.4836891"><ele>271.0</ele><time>2026-04-25T16:06:15.737Z</time></trkpt><trkpt lat="45.5516752" lon="10.4837745"><ele>271.0</ele><time>2026-04-25T16:06:17.738Z</time></trkpt><trkpt lat="45.5517208" lon="10.4838633"><ele>271.0</ele><time>2026-04-25T16:06:19.737Z</time></trkpt><trkpt lat="45.5517737" lon="10.4839639"><ele>271.0</ele><time>2026-04-25T16:06:22.737Z</time></trkpt><trkpt lat="45.5518372" lon="10.4840248"><ele>271.0</ele><time>2026-04-25T16:06:25.738Z</time></trkpt><trkpt lat="45.5518986" lon="10.4841024"><ele>271.8333333333333</ele><time>2026-04-25T16:06:28.736Z</time></trkpt><trkpt lat="45.5519678" lon="10.4841872"><ele>272.66666666666663</ele><time>2026-04-25T16:06:31.737Z</time></trkpt><trkpt lat="45.5520191" lon="10.4842417"><ele>273.5</ele><time>2026-04-25T16:06:33.737Z</time></trkpt><trkpt lat="45.5520749" lon="10.4843026"><ele>274.3333333333333</ele><time>2026-04-25T16:06:35.737Z</time></trkpt><trkpt lat="45.5521375" lon="10.4843534"><ele>275.1666666666667</ele><time>2026-04-25T16:06:37.737Z</time></trkpt><trkpt lat="45.5521895" lon="10.484443"><ele>276.0</ele><time>2026-04-25T16:06:39.737Z</time></trkpt><trkpt lat="45.55224" lon="10.4845253"><ele>276.0</ele><time>2026-04-25T16:06:42.737Z</time></trkpt><trkpt lat="45.552308" lon="10.4845675"><ele>276.0</ele><time>2026-04-25T16:06:44.738Z</time></trkpt><trkpt lat="45.5523806" lon="10.4846141"><ele>276.0</ele><time>2026-04-25T16:06:46.738Z</time></trkpt><trkpt lat="45.5524444" lon="10.4846557"><ele>276.0</ele><time>2026-04-25T16:06:48.737Z</time></trkpt><trkpt lat="45.5525358" lon="10.4846865"><ele>276.0</ele><time>2026-04-25T16:06:51.738Z</time></trkpt><trkpt lat="45.5526033" lon="10.4847079"><ele>276.0</ele><time>2026-04-25T16:06:53.738Z</time></trkpt><trkpt lat="45.5526742" lon="10.4847429"><ele>274.5</ele><time>2026-04-25T16:06:55.737Z</time></trkpt><trkpt lat="45.5527623" lon="10.4847834"><ele>273.0</ele><time>2026-04-25T16:06:57.737Z</time></trkpt><trkpt lat="45.5528466" lon="10.4847993"><ele>271.5</ele><time>2026-04-25T16:06:59.737Z</time></trkpt><trkpt lat="45.5529236" lon="10.4848104"><ele>270.0</ele><time>2026-04-25T16:07:01.736Z</time></trkpt><trkpt lat="45.5529952" lon="10.484833"><ele>268.5</ele><time>2026-04-25T16:07:03.738Z</time></trkpt><trkpt lat="45.5530692" lon="10.484883"><ele>267.0</ele><time>2026-04-25T16:07:05.737Z</time></trkpt><trkpt lat="45.5531279" lon="10.4849504"><ele>267.0</ele><time>2026-04-25T16:07:07.737Z</time></trkpt><trkpt lat="45.5532054" lon="10.4850002"><ele>267.0</ele><time>2026-04-25T16:07:09.737Z</time></trkpt><trkpt lat="45.5532951" lon="10.4849766"><ele>267.0</ele><time>2026-04-25T16:07:11.737Z</time></trkpt><trkpt lat="45.5533555" lon="10.4850408"><ele>267.0</ele><time>2026-04-25T16:07:13.736Z</time></trkpt><trkpt lat="45.5534261" lon="10.4851311"><ele>267.0</ele><time>2026-04-25T16:07:15.737Z</time></trkpt><trkpt lat="45.5534773" lon="10.4852349"><ele>267.0</ele><time>2026-04-25T16:07:17.737Z</time></trkpt><trkpt lat="45.5535091" lon="10.4853499"><ele>268.4</ele><time>2026-04-25T16:07:19.737Z</time></trkpt><trkpt lat="45.5535515" lon="10.4855008"><ele>269.79999999999995</ele><time>2026-04-25T16:07:21.738Z</time></trkpt><trkpt lat="45.5536043" lon="10.4856525"><ele>271.2</ele><time>2026-04-25T16:07:23.737Z</time></trkpt><trkpt lat="45.5536695" lon="10.4858212"><ele>272.59999999999997</ele><time>2026-04-25T16:07:25.736Z</time></trkpt><trkpt lat="45.5537074" lon="10.4859063"><ele>274.0</ele><time>2026-04-25T16:07:26.738Z</time></trkpt><trkpt lat="45.5537529" lon="10.4859849"><ele>274.0</ele><time>2026-04-25T16:07:27.736Z</time></trkpt><trkpt lat="45.5537925" lon="10.4861409"><ele>274.0</ele><time>2026-04-25T16:07:29.737Z</time></trkpt><trkpt lat="45.5538232" lon="10.4862324"><ele>274.0</ele><time>2026-04-25T16:07:30.737Z</time></trkpt><trkpt lat="45.5538705" lon="10.4863783"><ele>274.0</ele><time>2026-04-25T16:07:32.737Z</time></trkpt><trkpt lat="45.5539226" lon="10.486512"><ele>274.0</ele><time>2026-04-25T16:07:34.738Z</time></trkpt><trkpt lat="45.5539826" lon="10.4866334"><ele>272.8333333333333</ele><time>2026-04-25T16:07:36.737Z</time></trkpt><trkpt lat="45.5540281" lon="10.4867409"><ele>271.66666666666663</ele><time>2026-04-25T16:07:38.736Z</time></trkpt><trkpt lat="45.554077" lon="10.486816"><ele>270.5</ele><time>2026-04-25T16:07:40.737Z</time></trkpt><trkpt lat="45.5541236" lon="10.4868883"><ele>269.3333333333333</ele><time>2026-04-25T16:07:42.737Z</time></trkpt><trkpt lat="45.5541704" lon="10.48698"><ele>268.1666666666667</ele><time>2026-04-25T16:07:45.737Z</time></trkpt><trkpt lat="45.5542356" lon="10.4870419"><ele>267.0</ele><time>2026-04-25T16:07:48.738Z</time></trkpt><trkpt lat="45.5543097" lon="10.487131"><ele>267.4</ele><time>2026-04-25T16:07:51.738Z</time></trkpt><trkpt lat="45.5543943" lon="10.4872291"><ele>267.79999999999995</ele><time>2026-04-25T16:07:53.738Z</time></trkpt><trkpt lat="45.5544669" lon="10.4873345"><ele>268.2</ele><time>2026-04-25T16:07:55.737Z</time></trkpt><trkpt lat="45.5545356" lon="10.4874148"><ele>268.59999999999997</ele><time>2026-04-25T16:07:57.737Z</time></trkpt><trkpt lat="45.5546271" lon="10.4875047"><ele>269.0</ele><time>2026-04-25T16:07:59.737Z</time></trkpt><trkpt lat="45.5547169" lon="10.4875958"><ele>269.0</ele><time>2026-04-25T16:08:01.737Z</time></trkpt><trkpt lat="45.5548015" lon="10.487708"><ele>269.0</ele><time>2026-04-25T16:08:03.738Z</time></trkpt><trkpt lat="45.5548337" lon="10.4877949"><ele>269.0</ele><time>2026-04-25T16:08:04.737Z</time></trkpt><trkpt lat="45.5548765" lon="10.4878703"><ele>269.0</ele><time>2026-04-25T16:08:05.737Z</time></trkpt><trkpt lat="45.5549442" lon="10.4880086"><ele>269.0</ele><time>2026-04-25T16:08:07.738Z</time></trkpt><trkpt lat="45.5549815" lon="10.4880901"><ele>269.0</ele><time>2026-04-25T16:08:08.737Z</time></trkpt><trkpt lat="45.5550365" lon="10.4882304"><ele>268.0</ele><time>2026-04-25T16:08:11.738Z</time></trkpt><trkpt lat="45.5550917" lon="10.488336"><ele>267.0</ele><time>2026-04-25T16:08:14.738Z</time></trkpt><trkpt lat="45.555149" lon="10.4884049"><ele>266.0</ele><time>2026-04-25T16:08:18.737Z</time></trkpt><trkpt lat="45.5551884" lon="10.4884797"><ele>265.0</ele><time>2026-04-25T16:08:21.737Z</time></trkpt><trkpt lat="45.5552167" lon="10.4885642"><ele>264.0</ele><time>2026-04-25T16:08:23.737Z</time></trkpt><trkpt lat="45.5552424" lon="10.488655"><ele>263.0</ele><time>2026-04-25T16:08:25.737Z</time></trkpt><trkpt lat="45.5552622" lon="10.4887493"><ele>262.0</ele><time>2026-04-25T16:08:27.737Z</time></trkpt><trkpt lat="45.5552944" lon="10.4888643"><ele>262.4</ele><time>2026-04-25T16:08:29.737Z</time></trkpt><trkpt lat="45.5553216" lon="10.4889916"><ele>262.79999999999995</ele><time>2026-04-25T16:08:31.738Z</time></trkpt><trkpt lat="45.5553421" lon="10.4891547"><ele>263.2</ele><time>2026-04-25T16:08:33.737Z</time></trkpt><trkpt lat="45.5553531" lon="10.4893121"><ele>263.59999999999997</ele><time>2026-04-25T16:08:35.736Z</time></trkpt><trkpt lat="45.5553745" lon="10.4894528"><ele>264.0</ele><time>2026-04-25T16:08:37.738Z</time></trkpt><trkpt lat="45.5553977" lon="10.4895827"><ele>264.8</ele><time>2026-04-25T16:08:39.737Z</time></trkpt><trkpt lat="45.5553786" lon="10.4897226"><ele>265.59999999999997</ele><time>2026-04-25T16:08:41.738Z</time></trkpt><trkpt lat="45.5553447" lon="10.4898534"><ele>266.4</ele><time>2026-04-25T16:08:43.738Z</time></trkpt><trkpt lat="45.5553096" lon="10.4899821"><ele>267.2</ele><time>2026-04-25T16:08:45.737Z</time></trkpt><trkpt lat="45.5553305" lon="10.4901093"><ele>268.0</ele><time>2026-04-25T16:08:47.738Z</time></trkpt><trkpt lat="45.5553979" lon="10.4902051"><ele>268.0</ele><time>2026-04-25T16:08:49.738Z</time></trkpt><trkpt lat="45.5554747" lon="10.4902862"><ele>268.0</ele><time>2026-04-25T16:08:51.737Z</time></trkpt><trkpt lat="45.5555613" lon="10.4903549"><ele>268.0</ele><time>2026-04-25T16:08:53.738Z</time></trkpt><trkpt lat="45.5556437" lon="10.4904231"><ele>268.0</ele><time>2026-04-25T16:08:55.738Z</time></trkpt><trkpt lat="45.5557176" lon="10.4904822"><ele>268.0</ele><time>2026-04-25T16:08:57.737Z</time></trkpt><trkpt lat="45.555788" lon="10.4905472"><ele>267.3333333333333</ele><time>2026-04-25T16:08:59.737Z</time></trkpt><trkpt lat="45.5558584" lon="10.4906109"><ele>266.66666666666663</ele><time>2026-04-25T16:09:01.737Z</time></trkpt><trkpt lat="45.5559245" lon="10.4906892"><ele>266.0</ele><time>2026-04-25T16:09:03.738Z</time></trkpt><trkpt lat="45.5559822" lon="10.4907799"><ele>265.3333333333333</ele><time>2026-04-25T16:09:05.738Z</time></trkpt><trkpt lat="45.5560322" lon="10.4908803"><ele>264.6666666666667</ele><time>2026-04-25T16:09:07.737Z</time></trkpt><trkpt lat="45.5560751" lon="10.4909843"><ele>264.0</ele><time>2026-04-25T16:09:09.737Z</time></trkpt><trkpt lat="45.5561217" lon="10.4910889"><ele>264.0</ele><time>2026-04-25T16:09:11.738Z</time></trkpt><trkpt lat="45.5561519" lon="10.4912056"><ele>264.0</ele><time>2026-04-25T16:09:13.737Z</time></trkpt><trkpt lat="45.5561716" lon="10.4913219"><ele>264.0</ele><time>2026-04-25T16:09:15.738Z</time></trkpt><trkpt lat="45.5561753" lon="10.4914288"><ele>264.0</ele><time>2026-04-25T16:09:17.737Z</time></trkpt><trkpt lat="45.5561915" lon="10.4915332"><ele>264.0</ele><time>2026-04-25T16:09:19.736Z</time></trkpt><trkpt lat="45.5562212" lon="10.4916306"><ele>264.0</ele><time>2026-04-25T16:09:21.737Z</time></trkpt><trkpt lat="45.5562572" lon="10.4917264"><ele>264.0</ele><time>2026-04-25T16:09:24.738Z</time></trkpt><trkpt lat="45.5562852" lon="10.4918199"><ele>264.0</ele><time>2026-04-25T16:09:27.736Z</time></trkpt><trkpt lat="45.5563203" lon="10.4919473"><ele>264.0</ele><time>2026-04-25T16:09:30.737Z</time></trkpt><trkpt lat="45.5563531" lon="10.4920355"><ele>264.0</ele><time>2026-04-25T16:09:32.737Z</time></trkpt><trkpt lat="45.5563917" lon="10.4921249"><ele>264.0</ele><time>2026-04-25T16:09:34.737Z</time></trkpt><trkpt lat="45.556436" lon="10.4922111"><ele>264.0</ele><time>2026-04-25T16:09:36.736Z</time></trkpt><trkpt lat="45.5564833" lon="10.4922975"><ele>264.0</ele><time>2026-04-25T16:09:38.737Z</time></trkpt><trkpt lat="45.5565326" lon="10.4923804"><ele>264.0</ele><time>2026-04-25T16:09:40.737Z</time></trkpt><trkpt lat="45.5565855" lon="10.4924537"><ele>264.0</ele><time>2026-04-25T16:09:42.736Z</time></trkpt><trkpt lat="45.5566412" lon="10.4925245"><ele>264.0</ele><time>2026-04-25T16:09:44.737Z</time></trkpt><trkpt lat="45.5567004" lon="10.4925947"><ele>264.0</ele><time>2026-04-25T16:09:46.738Z</time></trkpt><trkpt lat="45.5567636" lon="10.4926542"><ele>264.0</ele><time>2026-04-25T16:09:48.738Z</time></trkpt><trkpt lat="45.5568265" lon="10.4926869"><ele>264.0</ele><time>2026-04-25T16:09:50.738Z</time></trkpt><trkpt lat="45.5568925" lon="10.4927121"><ele>264.0</ele><time>2026-04-25T16:09:52.738Z</time></trkpt><trkpt lat="45.5569502" lon="10.4927517"><ele>264.0</ele><time>2026-04-25T16:09:54.739Z</time></trkpt><trkpt lat="45.5570308" lon="10.4927892"><ele>264.0</ele><time>2026-04-25T16:09:57.738Z</time></trkpt><trkpt lat="45.5571123" lon="10.4928295"><ele>264.0</ele><time>2026-04-25T16:10:00.739Z</time></trkpt><trkpt lat="45.5571978" lon="10.4928595"><ele>264.0</ele><time>2026-04-25T16:10:03.737Z</time></trkpt><trkpt lat="45.557285" lon="10.4928783"><ele>264.0</ele><time>2026-04-25T16:10:06.738Z</time></trkpt><trkpt lat="45.5573694" lon="10.4929172"><ele>265.1666666666667</ele><time>2026-04-25T16:10:09.739Z</time></trkpt><trkpt lat="45.5574368" lon="10.4930021"><ele>266.3333333333333</ele><time>2026-04-25T16:10:12.738Z</time></trkpt><trkpt lat="45.5574625" lon="10.4931314"><ele>267.5</ele><time>2026-04-25T16:10:15.738Z</time></trkpt><trkpt lat="45.55747" lon="10.4932216"><ele>268.66666666666663</ele><time>2026-04-25T16:10:17.738Z</time></trkpt><trkpt lat="45.5574763" lon="10.4933117"><ele>269.8333333333333</ele><time>2026-04-25T16:10:19.738Z</time></trkpt><trkpt lat="45.5574941" lon="10.4934375"><ele>271.0</ele><time>2026-04-25T16:10:22.739Z</time></trkpt><trkpt lat="45.5575169" lon="10.4935229"><ele>271.0</ele><time>2026-04-25T16:10:24.738Z</time></trkpt><trkpt lat="45.5575479" lon="10.4936438"><ele>271.0</ele><time>2026-04-25T16:10:27.738Z</time></trkpt><trkpt lat="45.557566" lon="10.4937629"><ele>271.0</ele><time>2026-04-25T16:10:30.739Z</time></trkpt><trkpt lat="45.557578" lon="10.493894"><ele>271.0</ele><time>2026-04-25T16:10:33.738Z</time></trkpt><trkpt lat="45.557596" lon="10.493981"><ele>271.0</ele><time>2026-04-25T16:10:35.738Z</time></trkpt><trkpt lat="45.5576193" lon="10.4940681"><ele>271.0</ele><time>2026-04-25T16:10:37.739Z</time></trkpt><trkpt lat="45.5576494" lon="10.4941493"><ele>270.57142857142856</ele><time>2026-04-25T16:10:39.738Z</time></trkpt><trkpt lat="45.5576865" lon="10.4942261"><ele>270.14285714285717</ele><time>2026-04-25T16:10:41.738Z</time></trkpt><trkpt lat="45.5577285" lon="10.4942948"><ele>269.7142857142857</ele><time>2026-04-25T16:10:43.738Z</time></trkpt><trkpt lat="45.5577959" lon="10.4943915"><ele>269.2857142857143</ele><time>2026-04-25T16:10:46.738Z</time></trkpt><trkpt lat="45.5578417" lon="10.4944582"><ele>268.85714285714283</ele><time>2026-04-25T16:10:48.739Z</time></trkpt><trkpt lat="45.5578894" lon="10.494526"><ele>268.42857142857144</ele><time>2026-04-25T16:10:50.739Z</time></trkpt><trkpt lat="45.5579324" lon="10.4945937"><ele>268.0</ele><time>2026-04-25T16:10:52.738Z</time></trkpt><trkpt lat="45.5579841" lon="10.4946556"><ele>269.3333333333333</ele><time>2026-04-25T16:10:55.738Z</time></trkpt><trkpt lat="45.5580433" lon="10.494691"><ele>270.66666666666663</ele><time>2026-04-25T16:10:57.739Z</time></trkpt><trkpt lat="45.5581402" lon="10.4946931"><ele>272.0</ele><time>2026-04-25T16:11:00.739Z</time></trkpt><trkpt lat="45.5582152" lon="10.4946853"><ele>273.3333333333333</ele><time>2026-04-25T16:11:02.737Z</time></trkpt><trkpt lat="45.5583005" lon="10.4946748"><ele>274.6666666666667</ele><time>2026-04-25T16:11:04.739Z</time></trkpt><trkpt lat="45.5584018" lon="10.4946594"><ele>276.0</ele><time>2026-04-25T16:11:06.738Z</time></trkpt><trkpt lat="45.5585086" lon="10.494646"><ele>276.0</ele><time>2026-04-25T16:11:08.737Z</time></trkpt><trkpt lat="45.5586169" lon="10.4946264"><ele>276.0</ele><time>2026-04-25T16:11:10.737Z</time></trkpt><trkpt lat="45.5587143" lon="10.4946147"><ele>276.0</ele><time>2026-04-25T16:11:12.738Z</time></trkpt><trkpt lat="45.5588002" lon="10.4946091"><ele>276.0</ele><time>2026-04-25T16:11:14.739Z</time></trkpt><trkpt lat="45.5589136" lon="10.4946031"><ele>276.0</ele><time>2026-04-25T16:11:17.738Z</time></trkpt><trkpt lat="45.5589995" lon="10.494601"><ele>277.8</ele><time>2026-04-25T16:11:19.739Z</time></trkpt><trkpt lat="45.5590925" lon="10.4945876"><ele>279.6</ele><time>2026-04-25T16:11:21.739Z</time></trkpt><trkpt lat="45.5591814" lon="10.4945892"><ele>281.4</ele><time>2026-04-25T16:11:23.738Z</time></trkpt><trkpt lat="45.5592754" lon="10.4945765"><ele>283.2</ele><time>2026-04-25T16:11:25.738Z</time></trkpt><trkpt lat="45.5593624" lon="10.4945397"><ele>285.0</ele><time>2026-04-25T16:11:27.738Z</time></trkpt><trkpt lat="45.5594471" lon="10.4945016"><ele>284.4</ele><time>2026-04-25T16:11:29.739Z</time></trkpt><trkpt lat="45.5595298" lon="10.4944639"><ele>283.8</ele><time>2026-04-25T16:11:31.737Z</time></trkpt><trkpt lat="45.5596228" lon="10.4944291"><ele>283.2</ele><time>2026-04-25T16:11:33.737Z</time></trkpt><trkpt lat="45.5597272" lon="10.4944122"><ele>282.6</ele><time>2026-04-25T16:11:35.738Z</time></trkpt><trkpt lat="45.559837" lon="10.4944259"><ele>282.0</ele><time>2026-04-25T16:11:37.738Z</time></trkpt><trkpt lat="45.5599402" lon="10.4944499"><ele>282.0</ele><time>2026-04-25T16:11:39.739Z</time></trkpt><trkpt lat="45.5600393" lon="10.494491"><ele>282.0</ele><time>2026-04-25T16:11:41.738Z</time></trkpt><trkpt lat="45.5601348" lon="10.4945318"><ele>282.0</ele><time>2026-04-25T16:11:43.739Z</time></trkpt><trkpt lat="45.5602269" lon="10.4945674"><ele>282.0</ele><time>2026-04-25T16:11:45.739Z</time></trkpt><trkpt lat="45.5603193" lon="10.4945976"><ele>282.0</ele><time>2026-04-25T16:11:47.739Z</time></trkpt><trkpt lat="45.560412" lon="10.494641"><ele>283.0</ele><time>2026-04-25T16:11:49.739Z</time></trkpt><trkpt lat="45.560504" lon="10.4946776"><ele>284.0</ele><time>2026-04-25T16:11:51.739Z</time></trkpt><trkpt lat="45.560603" lon="10.4947287"><ele>285.0</ele><time>2026-04-25T16:11:53.738Z</time></trkpt><trkpt lat="45.5606814" lon="10.4947712"><ele>286.0</ele><time>2026-04-25T16:11:55.737Z</time></trkpt><trkpt lat="45.560775" lon="10.4948238"><ele>287.0</ele><time>2026-04-25T16:11:57.738Z</time></trkpt><trkpt lat="45.5608597" lon="10.4948965"><ele>287.0</ele><time>2026-04-25T16:11:59.738Z</time></trkpt><trkpt lat="45.5609491" lon="10.4949843"><ele>287.0</ele><time>2026-04-25T16:12:01.738Z</time></trkpt><trkpt lat="45.5610377" lon="10.4950523"><ele>287.0</ele><time>2026-04-25T16:12:03.738Z</time></trkpt><trkpt lat="45.5610923" lon="10.4951026"><ele>287.0</ele><time>2026-04-25T16:12:05.738Z</time></trkpt><trkpt lat="45.5611568" lon="10.4951523"><ele>287.0</ele><time>2026-04-25T16:12:07.739Z</time></trkpt><trkpt lat="45.5612187" lon="10.4952025"><ele>287.0</ele><time>2026-04-25T16:12:09.738Z</time></trkpt><trkpt lat="45.5612912" lon="10.4952245"><ele>287.4</ele><time>2026-04-25T16:12:12.738Z</time></trkpt><trkpt lat="45.5614014" lon="10.4952218"><ele>287.79999999999995</ele><time>2026-04-25T16:12:15.739Z</time></trkpt><trkpt lat="45.561477" lon="10.4952277"><ele>288.2</ele><time>2026-04-25T16:12:16.738Z</time></trkpt><trkpt lat="45.5615907" lon="10.495227"><ele>288.59999999999997</ele><time>2026-04-25T16:12:18.739Z</time></trkpt><trkpt lat="45.5616986" lon="10.4952417"><ele>289.0</ele><time>2026-04-25T16:12:20.739Z</time></trkpt><trkpt lat="45.5618019" lon="10.4952588"><ele>289.0</ele><time>2026-04-25T16:12:22.739Z</time></trkpt><trkpt lat="45.5618827" lon="10.4952879"><ele>289.0</ele><time>2026-04-25T16:12:24.738Z</time></trkpt><trkpt lat="45.5619596" lon="10.4953367"><ele>289.0</ele><time>2026-04-25T16:12:26.739Z</time></trkpt><trkpt lat="45.5620265" lon="10.4953937"><ele>289.0</ele><time>2026-04-25T16:12:28.737Z</time></trkpt><trkpt lat="45.5620223" lon="10.4954927"><ele>289.0</ele><time>2026-04-25T16:12:31.739Z</time></trkpt><trkpt lat="45.5620222" lon="10.4955906"><ele>289.0</ele><time>2026-04-25T16:12:33.738Z</time></trkpt><trkpt lat="45.5620304" lon="10.4957152"><ele>289.59999999999997</ele><time>2026-04-25T16:12:35.738Z</time></trkpt><trkpt lat="45.5620903" lon="10.4958463"><ele>290.2</ele><time>2026-04-25T16:12:37.738Z</time></trkpt><trkpt lat="45.5621666" lon="10.4959579"><ele>290.79999999999995</ele><time>2026-04-25T16:12:39.738Z</time></trkpt><trkpt lat="45.5622489" lon="10.4960609"><ele>291.4</ele><time>2026-04-25T16:12:41.739Z</time></trkpt><trkpt lat="45.5623299" lon="10.4961686"><ele>292.0</ele><time>2026-04-25T16:12:43.739Z</time></trkpt><trkpt lat="45.5623915" lon="10.4962731"><ele>292.0</ele><time>2026-04-25T16:12:45.739Z</time></trkpt><trkpt lat="45.562453" lon="10.496378"><ele>292.0</ele><time>2026-04-25T16:12:47.738Z</time></trkpt><trkpt lat="45.5625007" lon="10.4964882"><ele>292.0</ele><time>2026-04-25T16:12:49.738Z</time></trkpt><trkpt lat="45.5625487" lon="10.4965731"><ele>292.0</ele><time>2026-04-25T16:12:52.739Z</time></trkpt><trkpt lat="45.5625113" lon="10.4964783"><ele>292.0</ele><time>2026-04-25T16:13:07.738Z</time></trkpt><trkpt lat="45.5624688" lon="10.4964095"><ele>292.0</ele><time>2026-04-25T16:13:09.737Z</time></trkpt><trkpt lat="45.562444" lon="10.4962811"><ele>292.8333333333333</ele><time>2026-04-25T16:13:12.737Z</time></trkpt><trkpt lat="45.5624831" lon="10.4962012"><ele>293.66666666666663</ele><time>2026-04-25T16:13:15.738Z</time></trkpt><trkpt lat="45.5625383" lon="10.4961107"><ele>294.5</ele><time>2026-04-25T16:13:19.739Z</time></trkpt><trkpt lat="45.5625943" lon="10.4960332"><ele>295.3333333333333</ele><time>2026-04-25T16:13:22.739Z</time></trkpt><trkpt lat="45.562654" lon="10.4959541"><ele>296.1666666666667</ele><time>2026-04-25T16:13:25.739Z</time></trkpt><trkpt lat="45.5627158" lon="10.4958777"><ele>297.0</ele><time>2026-04-25T16:13:28.739Z</time></trkpt><trkpt lat="45.5627665" lon="10.4958114"><ele>297.0</ele><time>2026-04-25T16:13:31.738Z</time></trkpt><trkpt lat="45.5628149" lon="10.4957528"><ele>297.0</ele><time>2026-04-25T16:13:34.739Z</time></trkpt><trkpt lat="45.5628659" lon="10.4956974"><ele>297.0</ele><time>2026-04-25T16:13:36.739Z</time></trkpt><trkpt lat="45.5629323" lon="10.4956119"><ele>297.0</ele><time>2026-04-25T16:13:39.738Z</time></trkpt><trkpt lat="45.5629767" lon="10.4955388"><ele>297.0</ele><time>2026-04-25T16:13:41.739Z</time></trkpt><trkpt lat="45.5630222" lon="10.4954696"><ele>297.0</ele><time>2026-04-25T16:13:43.739Z</time></trkpt><trkpt lat="45.5630685" lon="10.4953946"><ele>297.0</ele><time>2026-04-25T16:13:45.739Z</time></trkpt><trkpt lat="45.5631149" lon="10.4953198"><ele>297.1666666666667</ele><time>2026-04-25T16:13:47.739Z</time></trkpt><trkpt lat="45.5631634" lon="10.4952428"><ele>297.3333333333333</ele><time>2026-04-25T16:13:49.738Z</time></trkpt><trkpt lat="45.56321" lon="10.4951588"><ele>297.5</ele><time>2026-04-25T16:13:51.738Z</time></trkpt><trkpt lat="45.5632581" lon="10.4950639"><ele>297.66666666666663</ele><time>2026-04-25T16:13:53.739Z</time></trkpt><trkpt lat="45.5633194" lon="10.4949752"><ele>297.8333333333333</ele><time>2026-04-25T16:13:55.738Z</time></trkpt><trkpt lat="45.5634003" lon="10.4949012"><ele>298.0</ele><time>2026-04-25T16:13:57.737Z</time></trkpt><trkpt lat="45.5634857" lon="10.4948366"><ele>298.0</ele><time>2026-04-25T16:13:59.738Z</time></trkpt><trkpt lat="45.563549" lon="10.4947439"><ele>298.0</ele><time>2026-04-25T16:14:01.739Z</time></trkpt><trkpt lat="45.5635842" lon="10.4946307"><ele>298.0</ele><time>2026-04-25T16:14:03.738Z</time></trkpt><trkpt lat="45.5635936" lon="10.4945317"><ele>298.0</ele><time>2026-04-25T16:14:05.738Z</time></trkpt><trkpt lat="45.5635845" lon="10.4944417"><ele>298.0</ele><time>2026-04-25T16:14:07.739Z</time></trkpt><trkpt lat="45.5635897" lon="10.4943134"><ele>298.0</ele><time>2026-04-25T16:14:10.739Z</time></trkpt><trkpt lat="45.563596" lon="10.4942231"><ele>297.57142857142856</ele><time>2026-04-25T16:14:12.739Z</time></trkpt><trkpt lat="45.5636005" lon="10.4941328"><ele>297.1428571428571</ele><time>2026-04-25T16:14:14.739Z</time></trkpt><trkpt lat="45.5636046" lon="10.4940371"><ele>296.7142857142857</ele><time>2026-04-25T16:14:16.737Z</time></trkpt><trkpt lat="45.5636111" lon="10.4939391"><ele>296.2857142857143</ele><time>2026-04-25T16:14:18.739Z</time></trkpt><trkpt lat="45.5636169" lon="10.4938473"><ele>295.8571428571429</ele><time>2026-04-25T16:14:20.739Z</time></trkpt><trkpt lat="45.5636201" lon="10.4937515"><ele>295.42857142857144</ele><time>2026-04-25T16:14:22.738Z</time></trkpt><trkpt lat="45.5636259" lon="10.4936513"><ele>295.0</ele><time>2026-04-25T16:14:24.739Z</time></trkpt><trkpt lat="45.5636311" lon="10.4935489"><ele>295.0</ele><time>2026-04-25T16:14:26.738Z</time></trkpt><trkpt lat="45.5636391" lon="10.4934424"><ele>295.0</ele><time>2026-04-25T16:14:28.738Z</time></trkpt><trkpt lat="45.5636493" lon="10.4933347"><ele>295.0</ele><time>2026-04-25T16:14:30.739Z</time></trkpt><trkpt lat="45.5636608" lon="10.4932377"><ele>295.0</ele><time>2026-04-25T16:14:32.739Z</time></trkpt><trkpt lat="45.5636765" lon="10.4931378"><ele>295.0</ele><time>2026-04-25T16:14:34.738Z</time></trkpt><trkpt lat="45.5637028" lon="10.49303"><ele>295.0</ele><time>2026-04-25T16:14:36.738Z</time></trkpt><trkpt lat="45.5637547" lon="10.4929203"><ele>296.8</ele><time>2026-04-25T16:14:38.739Z</time></trkpt><trkpt lat="45.5638178" lon="10.492811"><ele>298.6</ele><time>2026-04-25T16:14:40.737Z</time></trkpt><trkpt lat="45.5638659" lon="10.4926977"><ele>300.4</ele><time>2026-04-25T16:14:42.738Z</time></trkpt><trkpt lat="45.5639022" lon="10.4925942"><ele>302.2</ele><time>2026-04-25T16:14:44.738Z</time></trkpt><trkpt lat="45.5639327" lon="10.4924785"><ele>304.0</ele><time>2026-04-25T16:14:46.739Z</time></trkpt><trkpt lat="45.5639743" lon="10.4923268"><ele>304.0</ele><time>2026-04-25T16:14:48.738Z</time></trkpt><trkpt lat="45.5640026" lon="10.492197"><ele>304.0</ele><time>2026-04-25T16:14:50.738Z</time></trkpt><trkpt lat="45.5640524" lon="10.4920899"><ele>304.0</ele><time>2026-04-25T16:14:52.739Z</time></trkpt><trkpt lat="45.5640755" lon="10.4919633"><ele>304.0</ele><time>2026-04-25T16:14:55.738Z</time></trkpt><trkpt lat="45.5641171" lon="10.4918474"><ele>304.0</ele><time>2026-04-25T16:14:58.738Z</time></trkpt><trkpt lat="45.5641522" lon="10.4917397"><ele>303.5</ele><time>2026-04-25T16:15:01.738Z</time></trkpt><trkpt lat="45.5641789" lon="10.4916561"><ele>303.0</ele><time>2026-04-25T16:15:04.738Z</time></trkpt><trkpt lat="45.564193" lon="10.4915435"><ele>302.5</ele><time>2026-04-25T16:15:37.739Z</time></trkpt><trkpt lat="45.5641697" lon="10.4914488"><ele>302.0</ele><time>2026-04-25T16:15:41.739Z</time></trkpt><trkpt lat="45.5641505" lon="10.4913324"><ele>301.5</ele><time>2026-04-25T16:15:45.738Z</time></trkpt><trkpt lat="45.5641324" lon="10.4911948"><ele>301.0</ele><time>2026-04-25T16:15:48.739Z</time></trkpt><trkpt lat="45.5641388" lon="10.4910729"><ele>299.8</ele><time>2026-04-25T16:15:50.739Z</time></trkpt><trkpt lat="45.5641649" lon="10.4909233"><ele>298.6</ele><time>2026-04-25T16:15:52.739Z</time></trkpt><trkpt lat="45.564201" lon="10.4907775"><ele>297.4</ele><time>2026-04-25T16:15:54.737Z</time></trkpt><trkpt lat="45.564248" lon="10.4906302"><ele>296.2</ele><time>2026-04-25T16:15:56.739Z</time></trkpt><trkpt lat="45.564304" lon="10.4904927"><ele>295.0</ele><time>2026-04-25T16:15:58.738Z</time></trkpt><trkpt lat="45.5643496" lon="10.4903537"><ele>294.2</ele><time>2026-04-25T16:16:00.739Z</time></trkpt><trkpt lat="45.564411" lon="10.4902321"><ele>293.4</ele><time>2026-04-25T16:16:02.738Z</time></trkpt><trkpt lat="45.5644585" lon="10.4900973"><ele>292.6</ele><time>2026-04-25T16:16:04.739Z</time></trkpt><trkpt lat="45.5645268" lon="10.4899715"><ele>291.8</ele><time>2026-04-25T16:16:06.738Z</time></trkpt><trkpt lat="45.564594" lon="10.4898637"><ele>291.0</ele><time>2026-04-25T16:16:08.739Z</time></trkpt><trkpt lat="45.5646696" lon="10.4897664"><ele>291.0</ele><time>2026-04-25T16:16:10.739Z</time></trkpt><trkpt lat="45.5647548" lon="10.4896889"><ele>291.0</ele><time>2026-04-25T16:16:12.738Z</time></trkpt><trkpt lat="45.5648193" lon="10.4895913"><ele>291.0</ele><time>2026-04-25T16:16:14.739Z</time></trkpt><trkpt lat="45.5648906" lon="10.4895054"><ele>291.0</ele><time>2026-04-25T16:16:16.739Z</time></trkpt><trkpt lat="45.5649567" lon="10.489445"><ele>291.0</ele><time>2026-04-25T16:16:18.738Z</time></trkpt><trkpt lat="45.5650191" lon="10.4893764"><ele>291.0</ele><time>2026-04-25T16:16:20.738Z</time></trkpt><trkpt lat="45.5650856" lon="10.4892975"><ele>290.8333333333333</ele><time>2026-04-25T16:16:22.738Z</time></trkpt><trkpt lat="45.5651526" lon="10.4892243"><ele>290.6666666666667</ele><time>2026-04-25T16:16:24.738Z</time></trkpt><trkpt lat="45.5652354" lon="10.4891539"><ele>290.5</ele><time>2026-04-25T16:16:26.738Z</time></trkpt><trkpt lat="45.5653203" lon="10.4890984"><ele>290.33333333333337</ele><time>2026-04-25T16:16:28.738Z</time></trkpt><trkpt lat="45.5654001" lon="10.4890483"><ele>290.1666666666667</ele><time>2026-04-25T16:16:30.739Z</time></trkpt><trkpt lat="45.5654671" lon="10.4890265"><ele>290.0</ele><time>2026-04-25T16:16:32.739Z</time></trkpt><trkpt lat="45.5655299" lon="10.4890191"><ele>290.0</ele><time>2026-04-25T16:16:34.739Z</time></trkpt><trkpt lat="45.5655675" lon="10.4891088"><ele>290.0</ele><time>2026-04-25T16:16:36.737Z</time></trkpt><trkpt lat="45.5656159" lon="10.4892105"><ele>290.0</ele><time>2026-04-25T16:16:38.737Z</time></trkpt><trkpt lat="45.5656632" lon="10.4893174"><ele>290.0</ele><time>2026-04-25T16:16:40.739Z</time></trkpt><trkpt lat="45.5657256" lon="10.489419"><ele>290.0</ele><time>2026-04-25T16:16:42.739Z</time></trkpt><trkpt lat="45.5657905" lon="10.4895217"><ele>290.0</ele><time>2026-04-25T16:16:44.739Z</time></trkpt><trkpt lat="45.5658424" lon="10.4896418"><ele>290.5</ele><time>2026-04-25T16:16:46.738Z</time></trkpt><trkpt lat="45.5658991" lon="10.4897643"><ele>291.0</ele><time>2026-04-25T16:16:48.739Z</time></trkpt><trkpt lat="45.5659559" lon="10.4898779"><ele>291.5</ele><time>2026-04-25T16:16:50.739Z</time></trkpt><trkpt lat="45.5659978" lon="10.4899929"><ele>292.0</ele><time>2026-04-25T16:16:52.738Z</time></trkpt><trkpt lat="45.566032" lon="10.4900984"><ele>292.5</ele><time>2026-04-25T16:16:54.739Z</time></trkpt><trkpt lat="45.5660599" lon="10.4901839"><ele>293.0</ele><time>2026-04-25T16:16:56.739Z</time></trkpt><trkpt lat="45.5660961" lon="10.4902929"><ele>293.0</ele><time>2026-04-25T16:16:59.738Z</time></trkpt><trkpt lat="45.5661204" lon="10.4903829"><ele>293.0</ele><time>2026-04-25T16:17:01.737Z</time></trkpt><trkpt lat="45.5661482" lon="10.4904822"><ele>293.0</ele><time>2026-04-25T16:17:03.738Z</time></trkpt><trkpt lat="45.5661916" lon="10.4905825"><ele>293.0</ele><time>2026-04-25T16:17:05.738Z</time></trkpt><trkpt lat="45.5662479" lon="10.4906747"><ele>293.0</ele><time>2026-04-25T16:17:07.739Z</time></trkpt><trkpt lat="45.5663062" lon="10.4907634"><ele>293.0</ele><time>2026-04-25T16:17:09.738Z</time></trkpt><trkpt lat="45.5663586" lon="10.4908488"><ele>293.1666666666667</ele><time>2026-04-25T16:17:11.738Z</time></trkpt><trkpt lat="45.5664124" lon="10.490926"><ele>293.33333333333337</ele><time>2026-04-25T16:17:13.738Z</time></trkpt><trkpt lat="45.5664673" lon="10.4909861"><ele>293.5</ele><time>2026-04-25T16:17:15.738Z</time></trkpt><trkpt lat="45.5665302" lon="10.4910519"><ele>293.6666666666667</ele><time>2026-04-25T16:17:17.738Z</time></trkpt><trkpt lat="45.5666023" lon="10.4910954"><ele>293.8333333333333</ele><time>2026-04-25T16:17:19.739Z</time></trkpt><trkpt lat="45.5666776" lon="10.4911389"><ele>294.0</ele><time>2026-04-25T16:17:21.739Z</time></trkpt><trkpt lat="45.5667655" lon="10.4911791"><ele>294.0</ele><time>2026-04-25T16:17:23.738Z</time></trkpt><trkpt lat="45.5668559" lon="10.4912087"><ele>294.0</ele><time>2026-04-25T16:17:25.739Z</time></trkpt><trkpt lat="45.5669518" lon="10.491239"><ele>294.0</ele><time>2026-04-25T16:17:27.737Z</time></trkpt><trkpt lat="45.5670456" lon="10.4912418"><ele>294.0</ele><time>2026-04-25T16:17:29.739Z</time></trkpt><trkpt lat="45.5671482" lon="10.4912348"><ele>294.0</ele><time>2026-04-25T16:17:31.737Z</time></trkpt><trkpt lat="45.5672601" lon="10.4912252"><ele>294.59999999999997</ele><time>2026-04-25T16:17:33.739Z</time></trkpt><trkpt lat="45.5673666" lon="10.4912488"><ele>295.2</ele><time>2026-04-25T16:17:35.737Z</time></trkpt><trkpt lat="45.5674472" lon="10.4913213"><ele>295.79999999999995</ele><time>2026-04-25T16:17:37.739Z</time></trkpt><trkpt lat="45.5674813" lon="10.4914392"><ele>296.4</ele><time>2026-04-25T16:17:39.739Z</time></trkpt><trkpt lat="45.5675158" lon="10.491567"><ele>297.0</ele><time>2026-04-25T16:17:41.738Z</time></trkpt><trkpt lat="45.5675566" lon="10.4916906"><ele>297.0</ele><time>2026-04-25T16:17:43.738Z</time></trkpt><trkpt lat="45.5676085" lon="10.4918206"><ele>297.0</ele><time>2026-04-25T16:17:45.738Z</time></trkpt><trkpt lat="45.5676719" lon="10.4919234"><ele>297.0</ele><time>2026-04-25T16:17:47.738Z</time></trkpt><trkpt lat="45.5677264" lon="10.4919831"><ele>297.0</ele><time>2026-04-25T16:17:49.738Z</time></trkpt><trkpt lat="45.5678057" lon="10.4920646"><ele>297.0</ele><time>2026-04-25T16:17:51.738Z</time></trkpt><trkpt lat="45.5678686" lon="10.4921395"><ele>297.0</ele><time>2026-04-25T16:17:53.737Z</time></trkpt><trkpt lat="45.5678955" lon="10.4922321"><ele>296.8333333333333</ele><time>2026-04-25T16:17:59.739Z</time></trkpt><trkpt lat="45.5678656" lon="10.4923919"><ele>296.6666666666667</ele><time>2026-04-25T16:18:43.738Z</time></trkpt><trkpt lat="45.5678579" lon="10.4924975"><ele>296.5</ele><time>2026-04-25T16:18:45.738Z</time></trkpt><trkpt lat="45.5678837" lon="10.4926118"><ele>296.33333333333337</ele><time>2026-04-25T16:18:48.738Z</time></trkpt><trkpt lat="45.5678859" lon="10.4927245"><ele>296.1666666666667</ele><time>2026-04-25T16:18:51.737Z</time></trkpt><trkpt lat="45.567878" lon="10.4928175"><ele>296.0</ele><time>2026-04-25T16:18:53.739Z</time></trkpt><trkpt lat="45.5678538" lon="10.4929582"><ele>296.0</ele><time>2026-04-25T16:18:55.738Z</time></trkpt><trkpt lat="45.5678485" lon="10.4930796"><ele>296.0</ele><time>2026-04-25T16:18:57.739Z</time></trkpt><trkpt lat="45.5678354" lon="10.4932418"><ele>296.0</ele><time>2026-04-25T16:18:59.737Z</time></trkpt><trkpt lat="45.5678144" lon="10.4933645"><ele>296.0</ele><time>2026-04-25T16:19:01.739Z</time></trkpt><trkpt lat="45.5677849" lon="10.4934657"><ele>296.0</ele><time>2026-04-25T16:19:03.739Z</time></trkpt><trkpt lat="45.5677576" lon="10.4935748"><ele>296.0</ele><time>2026-04-25T16:19:05.739Z</time></trkpt><trkpt lat="45.5677284" lon="10.493694"><ele>295.8</ele><time>2026-04-25T16:19:07.737Z</time></trkpt><trkpt lat="45.5677384" lon="10.493881"><ele>295.6</ele><time>2026-04-25T16:19:09.739Z</time></trkpt><trkpt lat="45.5677406" lon="10.4939724"><ele>295.4</ele><time>2026-04-25T16:19:10.739Z</time></trkpt><trkpt lat="45.5677581" lon="10.4941076"><ele>295.2</ele><time>2026-04-25T16:19:12.738Z</time></trkpt><trkpt lat="45.5677463" lon="10.4941978"><ele>295.0</ele><time>2026-04-25T16:19:13.738Z</time></trkpt><trkpt lat="45.5677558" lon="10.4943367"><ele>295.0</ele><time>2026-04-25T16:19:15.738Z</time></trkpt><trkpt lat="45.5677532" lon="10.4944789"><ele>295.0</ele><time>2026-04-25T16:19:17.738Z</time></trkpt><trkpt lat="45.5677631" lon="10.4945684"><ele>295.0</ele><time>2026-04-25T16:19:18.739Z</time></trkpt><trkpt lat="45.5677553" lon="10.4947448"><ele>295.0</ele><time>2026-04-25T16:19:20.738Z</time></trkpt><trkpt lat="45.5677525" lon="10.4948434"><ele>295.0</ele><time>2026-04-25T16:19:21.739Z</time></trkpt><trkpt lat="45.5677442" lon="10.4949392"><ele>295.0</ele><time>2026-04-25T16:19:22.739Z</time></trkpt><trkpt lat="45.5677045" lon="10.4950359"><ele>293.4</ele><time>2026-04-25T16:19:23.739Z</time></trkpt><trkpt lat="45.56766" lon="10.4951762"><ele>291.8</ele><time>2026-04-25T16:19:25.738Z</time></trkpt><trkpt lat="45.5676493" lon="10.495276"><ele>290.2</ele><time>2026-04-25T16:19:26.739Z</time></trkpt><trkpt lat="45.567624" lon="10.4953788"><ele>288.6</ele><time>2026-04-25T16:19:27.737Z</time></trkpt><trkpt lat="45.5675852" lon="10.4954999"><ele>287.0</ele><time>2026-04-25T16:19:28.739Z</time></trkpt><trkpt lat="45.567574" lon="10.4956471"><ele>286.33333333333337</ele><time>2026-04-25T16:19:30.738Z</time></trkpt><trkpt lat="45.5675495" lon="10.4957486"><ele>285.6666666666667</ele><time>2026-04-25T16:19:31.738Z</time></trkpt><trkpt lat="45.567567" lon="10.4958378"><ele>285.0</ele><time>2026-04-25T16:19:32.739Z</time></trkpt><trkpt lat="45.5675765" lon="10.495997"><ele>284.3333333333333</ele><time>2026-04-25T16:19:34.738Z</time></trkpt><trkpt lat="45.5675705" lon="10.4961307"><ele>283.66666666666663</ele><time>2026-04-25T16:19:36.738Z</time></trkpt><trkpt lat="45.5675414" lon="10.4962598"><ele>283.0</ele><time>2026-04-25T16:19:38.739Z</time></trkpt><trkpt lat="45.5674754" lon="10.4963434"><ele>283.0</ele><time>2026-04-25T16:19:40.739Z</time></trkpt><trkpt lat="45.5674009" lon="10.4964282"><ele>283.0</ele><time>2026-04-25T16:19:42.739Z</time></trkpt><trkpt lat="45.5673584" lon="10.4965474"><ele>283.0</ele><time>2026-04-25T16:19:44.738Z</time></trkpt><trkpt lat="45.5673143" lon="10.496682"><ele>283.0</ele><time>2026-04-25T16:19:46.738Z</time></trkpt><trkpt lat="45.5672697" lon="10.4968156"><ele>283.0</ele><time>2026-04-25T16:19:48.739Z</time></trkpt><trkpt lat="45.5671922" lon="10.4969398"><ele>283.0</ele><time>2026-04-25T16:19:50.738Z</time></trkpt><trkpt lat="45.5671692" lon="10.4970559"><ele>283.0</ele><time>2026-04-25T16:19:52.739Z</time></trkpt><trkpt lat="45.5671168" lon="10.4971916"><ele>283.0</ele><time>2026-04-25T16:19:54.739Z</time></trkpt><trkpt lat="45.5670709" lon="10.4972579"><ele>283.0</ele><time>2026-04-25T16:19:55.738Z</time></trkpt><trkpt lat="45.5669926" lon="10.4973667"><ele>283.0</ele><time>2026-04-25T16:19:57.738Z</time></trkpt><trkpt lat="45.5669657" lon="10.4974486"><ele>283.0</ele><time>2026-04-25T16:19:58.739Z</time></trkpt><trkpt lat="45.5669075" lon="10.4975923"><ele>281.8333333333333</ele><time>2026-04-25T16:20:00.738Z</time></trkpt><trkpt lat="45.5668484" lon="10.4977195"><ele>280.66666666666663</ele><time>2026-04-25T16:20:02.739Z</time></trkpt><trkpt lat="45.5668219" lon="10.4978116"><ele>279.5</ele><time>2026-04-25T16:20:03.739Z</time></trkpt><trkpt lat="45.5667746" lon="10.4978821"><ele>278.3333333333333</ele><time>2026-04-25T16:20:04.739Z</time></trkpt><trkpt lat="45.5667156" lon="10.4979346"><ele>277.1666666666667</ele><time>2026-04-25T16:20:05.738Z</time></trkpt><trkpt lat="45.5666293" lon="10.4980298"><ele>276.0</ele><time>2026-04-25T16:20:07.739Z</time></trkpt><trkpt lat="45.5665817" lon="10.4981646"><ele>276.0</ele><time>2026-04-25T16:20:09.737Z</time></trkpt><trkpt lat="45.5665597" lon="10.4983279"><ele>276.0</ele><time>2026-04-25T16:20:11.739Z</time></trkpt><trkpt lat="45.5665445" lon="10.4984894"><ele>276.0</ele><time>2026-04-25T16:20:13.739Z</time></trkpt><trkpt lat="45.5665292" lon="10.4986571"><ele>276.0</ele><time>2026-04-25T16:20:15.739Z</time></trkpt><trkpt lat="45.5665216" lon="10.498812"><ele>275.8</ele><time>2026-04-25T16:20:17.738Z</time></trkpt><trkpt lat="45.5665272" lon="10.4989575"><ele>275.6</ele><time>2026-04-25T16:20:19.739Z</time></trkpt><trkpt lat="45.5665373" lon="10.4991265"><ele>275.4</ele><time>2026-04-25T16:20:21.739Z</time></trkpt><trkpt lat="45.5665167" lon="10.4992974"><ele>275.2</ele><time>2026-04-25T16:20:23.738Z</time></trkpt><trkpt lat="45.5665075" lon="10.499396"><ele>275.0</ele><time>2026-04-25T16:20:24.737Z</time></trkpt><trkpt lat="45.5665003" lon="10.4994872"><ele>273.8</ele><time>2026-04-25T16:20:25.739Z</time></trkpt><trkpt lat="45.5664929" lon="10.4995862"><ele>272.6</ele><time>2026-04-25T16:20:26.738Z</time></trkpt><trkpt lat="45.5664827" lon="10.4997186"><ele>271.4</ele><time>2026-04-25T16:20:28.738Z</time></trkpt><trkpt lat="45.5664839" lon="10.4998637"><ele>270.2</ele><time>2026-04-25T16:20:30.738Z</time></trkpt><trkpt lat="45.5664955" lon="10.4999965"><ele>269.0</ele><time>2026-04-25T16:20:32.737Z</time></trkpt><trkpt lat="45.5664828" lon="10.5001607"><ele>269.0</ele><time>2026-04-25T16:20:34.739Z</time></trkpt><trkpt lat="45.5665162" lon="10.5003288"><ele>269.0</ele><time>2026-04-25T16:20:36.739Z</time></trkpt><trkpt lat="45.5665274" lon="10.5004507"><ele>269.0</ele><time>2026-04-25T16:20:37.739Z</time></trkpt><trkpt lat="45.5665172" lon="10.500579"><ele>269.0</ele><time>2026-04-25T16:20:38.739Z</time></trkpt><trkpt lat="45.5664656" lon="10.500724"><ele>269.0</ele><time>2026-04-25T16:20:39.739Z</time></trkpt><trkpt lat="45.5664484" lon="10.5008606"><ele>268.5</ele><time>2026-04-25T16:20:40.739Z</time></trkpt><trkpt lat="45.5664274" lon="10.5009875"><ele>268.0</ele><time>2026-04-25T16:20:41.739Z</time></trkpt><trkpt lat="45.5663956" lon="10.501113"><ele>267.5</ele><time>2026-04-25T16:20:42.739Z</time></trkpt><trkpt lat="45.566353" lon="10.5012111"><ele>267.0</ele><time>2026-04-25T16:20:43.739Z</time></trkpt><trkpt lat="45.566305" lon="10.5013006"><ele>266.5</ele><time>2026-04-25T16:20:44.739Z</time></trkpt><trkpt lat="45.5662431" lon="10.5013719"><ele>266.0</ele><time>2026-04-25T16:20:45.738Z</time></trkpt><trkpt lat="45.5661501" lon="10.5014842"><ele>263.0</ele><time>2026-04-25T16:20:47.739Z</time></trkpt><trkpt lat="45.5660495" lon="10.5015612"><ele>260.0</ele><time>2026-04-25T16:20:49.739Z</time></trkpt><trkpt lat="45.5659537" lon="10.5016422"><ele>257.0</ele><time>2026-04-25T16:20:51.738Z</time></trkpt><trkpt lat="45.565889" lon="10.5016969"><ele>254.0</ele><time>2026-04-25T16:20:52.737Z</time></trkpt><trkpt lat="45.5658378" lon="10.5018487"><ele>251.0</ele><time>2026-04-25T16:20:54.739Z</time></trkpt><trkpt lat="45.5658056" lon="10.5019283"><ele>251.0</ele><time>2026-04-25T16:20:55.738Z</time></trkpt><trkpt lat="45.5657625" lon="10.5020778"><ele>251.00000000000003</ele><time>2026-04-25T16:20:57.737Z</time></trkpt><trkpt lat="45.5657475" lon="10.5021771"><ele>251.00000000000003</ele><time>2026-04-25T16:20:58.738Z</time></trkpt><trkpt lat="45.5657368" lon="10.5022726"><ele>251.0</ele><time>2026-04-25T16:20:59.739Z</time></trkpt><trkpt lat="45.5657147" lon="10.5024093"><ele>251.0</ele><time>2026-04-25T16:21:00.738Z</time></trkpt><trkpt lat="45.5657085" lon="10.5025623"><ele>250.60000000000002</ele><time>2026-04-25T16:21:01.739Z</time></trkpt><trkpt lat="45.5657044" lon="10.502681"><ele>250.20000000000002</ele><time>2026-04-25T16:21:02.739Z</time></trkpt><trkpt lat="45.5657147" lon="10.5028021"><ele>249.79999999999998</ele><time>2026-04-25T16:21:03.737Z</time></trkpt><trkpt lat="45.5657085" lon="10.5029424"><ele>249.39999999999998</ele><time>2026-04-25T16:21:04.739Z</time></trkpt><trkpt lat="45.5657236" lon="10.5030695"><ele>249.0</ele><time>2026-04-25T16:21:05.738Z</time></trkpt><trkpt lat="45.5657315" lon="10.5032145"><ele>247.79999999999998</ele><time>2026-04-25T16:21:06.737Z</time></trkpt><trkpt lat="45.5657291" lon="10.5033563"><ele>246.59999999999997</ele><time>2026-04-25T16:21:07.739Z</time></trkpt><trkpt lat="45.565714" lon="10.5035166"><ele>245.4</ele><time>2026-04-25T16:21:08.738Z</time></trkpt><trkpt lat="45.565712" lon="10.5036732"><ele>244.2</ele><time>2026-04-25T16:21:09.738Z</time></trkpt><trkpt lat="45.5656939" lon="10.5038197"><ele>243.0</ele><time>2026-04-25T16:21:10.738Z</time></trkpt><trkpt lat="45.5656858" lon="10.5039452"><ele>241.8</ele><time>2026-04-25T16:21:11.739Z</time></trkpt><trkpt lat="45.5656745" lon="10.5040506"><ele>240.60000000000002</ele><time>2026-04-25T16:21:12.739Z</time></trkpt><trkpt lat="45.565647" lon="10.5041628"><ele>239.39999999999998</ele><time>2026-04-25T16:21:13.739Z</time></trkpt><trkpt lat="45.5655818" lon="10.5042731"><ele>238.2</ele><time>2026-04-25T16:21:15.739Z</time></trkpt><trkpt lat="45.565527" lon="10.5044063"><ele>237.0</ele><time>2026-04-25T16:21:17.739Z</time></trkpt><trkpt lat="45.5655434" lon="10.5045845"><ele>237.0</ele><time>2026-04-25T16:21:19.739Z</time></trkpt><trkpt lat="45.5655792" lon="10.5046645"><ele>237.0</ele><time>2026-04-25T16:21:20.739Z</time></trkpt><trkpt lat="45.5656258" lon="10.5048231"><ele>237.0</ele><time>2026-04-25T16:21:22.739Z</time></trkpt><trkpt lat="45.5656542" lon="10.5049196"><ele>237.0</ele><time>2026-04-25T16:21:23.739Z</time></trkpt><trkpt lat="45.5656813" lon="10.5050105"><ele>237.0</ele><time>2026-04-25T16:21:24.74Z</time></trkpt><trkpt lat="45.5657012" lon="10.5051151"><ele>237.0</ele><time>2026-04-25T16:21:25.74Z</time></trkpt><trkpt lat="45.5656997" lon="10.50521"><ele>237.0</ele><time>2026-04-25T16:21:26.739Z</time></trkpt><trkpt lat="45.5656606" lon="10.5053568"><ele>237.0</ele><time>2026-04-25T16:21:28.739Z</time></trkpt><trkpt lat="45.5655954" lon="10.5054524"><ele>237.0</ele><time>2026-04-25T16:21:30.74Z</time></trkpt><trkpt lat="45.5655295" lon="10.5054985"><ele>237.0</ele><time>2026-04-25T16:21:31.739Z</time></trkpt><trkpt lat="45.5654129" lon="10.5056003"><ele>237.0</ele><time>2026-04-25T16:21:33.74Z</time></trkpt><trkpt lat="45.5653534" lon="10.5056641"><ele>236.39999999999998</ele><time>2026-04-25T16:21:34.74Z</time></trkpt><trkpt lat="45.5652978" lon="10.5057285"><ele>235.79999999999998</ele><time>2026-04-25T16:21:35.739Z</time></trkpt><trkpt lat="45.565234" lon="10.5058774"><ele>235.2</ele><time>2026-04-25T16:21:37.739Z</time></trkpt><trkpt lat="45.5651583" lon="10.5060069"><ele>234.6</ele><time>2026-04-25T16:21:39.738Z</time></trkpt><trkpt lat="45.5650669" lon="10.5060759"><ele>234.0</ele><time>2026-04-25T16:21:41.74Z</time></trkpt><trkpt lat="45.5649811" lon="10.5061403"><ele>234.0</ele><time>2026-04-25T16:21:43.74Z</time></trkpt><trkpt lat="45.5649229" lon="10.5060987"><ele>234.0</ele><time>2026-04-25T16:21:44.739Z</time></trkpt><trkpt lat="45.5648545" lon="10.5060706"><ele>234.0</ele><time>2026-04-25T16:21:46.738Z</time></trkpt><trkpt lat="45.564773" lon="10.5060049"><ele>234.0</ele><time>2026-04-25T16:21:49.739Z</time></trkpt><trkpt lat="45.5646992" lon="10.5060027"><ele>234.0</ele><time>2026-04-25T16:21:52.74Z</time></trkpt><trkpt lat="45.5646684" lon="10.5061203"><ele>234.0</ele><time>2026-04-25T16:21:55.739Z</time></trkpt><trkpt lat="45.5646812" lon="10.5062361"><ele>234.0</ele><time>2026-04-25T16:21:57.739Z</time></trkpt><trkpt lat="45.5647033" lon="10.5063532"><ele>234.0</ele><time>2026-04-25T16:21:59.74Z</time></trkpt><trkpt lat="45.5647342" lon="10.5064675"><ele>234.0</ele><time>2026-04-25T16:22:01.74Z</time></trkpt><trkpt lat="45.5647622" lon="10.5065852"><ele>234.0</ele><time>2026-04-25T16:22:03.74Z</time></trkpt><trkpt lat="45.5647919" lon="10.5067041"><ele>234.0</ele><time>2026-04-25T16:22:05.74Z</time></trkpt><trkpt lat="45.5648225" lon="10.5068193"><ele>234.0</ele><time>2026-04-25T16:22:07.739Z</time></trkpt><trkpt lat="45.5648547" lon="10.5069376"><ele>234.0</ele><time>2026-04-25T16:22:09.74Z</time></trkpt><trkpt lat="45.5648787" lon="10.5070479"><ele>234.0</ele><time>2026-04-25T16:22:11.739Z</time></trkpt><trkpt lat="45.5649047" lon="10.5071583"><ele>234.0</ele><time>2026-04-25T16:22:13.739Z</time></trkpt><trkpt lat="45.5649317" lon="10.5072643"><ele>234.0</ele><time>2026-04-25T16:22:15.738Z</time></trkpt><trkpt lat="45.5649584" lon="10.5073735"><ele>234.0</ele><time>2026-04-25T16:22:17.739Z</time></trkpt><trkpt lat="45.5649871" lon="10.5074845"><ele>234.0</ele><time>2026-04-25T16:22:19.739Z</time></trkpt><trkpt lat="45.5650149" lon="10.5075982"><ele>234.0</ele><time>2026-04-25T16:22:21.74Z</time></trkpt><trkpt lat="45.565043" lon="10.5077145"><ele>234.0</ele><time>2026-04-25T16:22:23.74Z</time></trkpt><trkpt lat="45.5650702" lon="10.5078225"><ele>234.0</ele><time>2026-04-25T16:22:25.739Z</time></trkpt><trkpt lat="45.565098" lon="10.507923"><ele>234.0</ele><time>2026-04-25T16:22:27.74Z</time></trkpt><trkpt lat="45.5651245" lon="10.5080366"><ele>234.0</ele><time>2026-04-25T16:22:30.74Z</time></trkpt><trkpt lat="45.5651632" lon="10.5081626"><ele>234.0</ele><time>2026-04-25T16:22:33.739Z</time></trkpt><trkpt lat="45.5651902" lon="10.508266"><ele>234.0</ele><time>2026-04-25T16:22:35.74Z</time></trkpt><trkpt lat="45.5652158" lon="10.508381"><ele>233.99999999999997</ele><time>2026-04-25T16:22:37.74Z</time></trkpt><trkpt lat="45.5652531" lon="10.5085104"><ele>233.99999999999997</ele><time>2026-04-25T16:22:39.739Z</time></trkpt><trkpt lat="45.5653041" lon="10.5086451"><ele>234.0</ele><time>2026-04-25T16:22:41.739Z</time></trkpt><trkpt lat="45.5653692" lon="10.5087859"><ele>234.0</ele><time>2026-04-25T16:22:43.739Z</time></trkpt><trkpt lat="45.5654172" lon="10.5088489"><ele>233.57142857142858</ele><time>2026-04-25T16:22:44.74Z</time></trkpt><trkpt lat="45.5654684" lon="10.508909"><ele>233.14285714285717</ele><time>2026-04-25T16:22:45.739Z</time></trkpt><trkpt lat="45.5655203" lon="10.5089705"><ele>232.71428571428572</ele><time>2026-04-25T16:22:46.739Z</time></trkpt><trkpt lat="45.5655809" lon="10.5090275"><ele>232.28571428571428</ele><time>2026-04-25T16:22:47.739Z</time></trkpt><trkpt lat="45.5656445" lon="10.5090799"><ele>231.85714285714286</ele><time>2026-04-25T16:22:48.739Z</time></trkpt><trkpt lat="45.5657073" lon="10.5091259"><ele>231.42857142857144</ele><time>2026-04-25T16:22:49.738Z</time></trkpt><trkpt lat="45.5657716" lon="10.5091761"><ele>231.0</ele><time>2026-04-25T16:22:50.739Z</time></trkpt><trkpt lat="45.5658255" lon="10.5092288"><ele>231.0</ele><time>2026-04-25T16:22:51.74Z</time></trkpt><trkpt lat="45.5658644" lon="10.5093101"><ele>231.00000000000003</ele><time>2026-04-25T16:22:52.739Z</time></trkpt><trkpt lat="45.5658188" lon="10.5094715"><ele>231.00000000000003</ele><time>2026-04-25T16:22:54.738Z</time></trkpt><trkpt lat="45.565763" lon="10.5095217"><ele>231.0</ele><time>2026-04-25T16:22:55.739Z</time></trkpt><trkpt lat="45.5656536" lon="10.5095249"><ele>231.0</ele><time>2026-04-25T16:22:57.74Z</time></trkpt><trkpt lat="45.5655792" lon="10.5094596"><ele>231.0</ele><time>2026-04-25T16:22:58.738Z</time></trkpt><trkpt lat="45.5655206" lon="10.5094028"><ele>231.0</ele><time>2026-04-25T16:22:59.739Z</time></trkpt><trkpt lat="45.5654593" lon="10.5093503"><ele>231.0</ele><time>2026-04-25T16:23:00.738Z</time></trkpt><trkpt lat="45.565398" lon="10.5092938"><ele>231.0</ele><time>2026-04-25T16:23:01.74Z</time></trkpt><trkpt lat="45.5653317" lon="10.5092393"><ele>231.0</ele><time>2026-04-25T16:23:02.739Z</time></trkpt><trkpt lat="45.5652742" lon="10.5091829"><ele>231.0</ele><time>2026-04-25T16:23:03.739Z</time></trkpt><trkpt lat="45.5652162" lon="10.5091305"><ele>231.0</ele><time>2026-04-25T16:23:04.738Z</time></trkpt><trkpt lat="45.5651552" lon="10.5090804"><ele>229.33333333333334</ele><time>2026-04-25T16:23:05.739Z</time></trkpt><trkpt lat="45.5650923" lon="10.5090316"><ele>227.66666666666669</ele><time>2026-04-25T16:23:06.74Z</time></trkpt><trkpt lat="45.5649818" lon="10.508943"><ele>226.0</ele><time>2026-04-25T16:23:08.74Z</time></trkpt><trkpt lat="45.5649178" lon="10.5089359"><ele>224.33333333333334</ele><time>2026-04-25T16:23:09.74Z</time></trkpt><trkpt lat="45.5648468" lon="10.508966"><ele>222.66666666666669</ele><time>2026-04-25T16:23:10.739Z</time></trkpt><trkpt lat="45.5647957" lon="10.5090366"><ele>221.0</ele><time>2026-04-25T16:23:11.74Z</time></trkpt><trkpt lat="45.5647733" lon="10.5091367"><ele>221.0</ele><time>2026-04-25T16:23:12.74Z</time></trkpt><trkpt lat="45.5647935" lon="10.5093022"><ele>221.00000000000003</ele><time>2026-04-25T16:23:14.739Z</time></trkpt><trkpt lat="45.5648481" lon="10.509364"><ele>221.00000000000003</ele><time>2026-04-25T16:23:15.74Z</time></trkpt><trkpt lat="45.5649447" lon="10.5094395"><ele>221.0</ele><time>2026-04-25T16:23:16.74Z</time></trkpt><trkpt lat="45.5650207" lon="10.5095038"><ele>221.0</ele><time>2026-04-25T16:23:17.739Z</time></trkpt><trkpt lat="45.5650924" lon="10.5095612"><ele>219.4</ele><time>2026-04-25T16:23:18.739Z</time></trkpt><trkpt lat="45.565161" lon="10.5096311"><ele>217.8</ele><time>2026-04-25T16:23:19.739Z</time></trkpt><trkpt lat="45.5652425" lon="10.5096844"><ele>216.20000000000002</ele><time>2026-04-25T16:23:20.739Z</time></trkpt><trkpt lat="45.5653249" lon="10.5097387"><ele>214.60000000000002</ele><time>2026-04-25T16:23:21.738Z</time></trkpt><trkpt lat="45.5654112" lon="10.5097896"><ele>213.0</ele><time>2026-04-25T16:23:22.739Z</time></trkpt><trkpt lat="45.5655028" lon="10.509832"><ele>213.0</ele><time>2026-04-25T16:23:23.738Z</time></trkpt><trkpt lat="45.5655986" lon="10.5098724"><ele>213.0</ele><time>2026-04-25T16:23:24.739Z</time></trkpt><trkpt lat="45.5656992" lon="10.5099087"><ele>213.0</ele><time>2026-04-25T16:23:25.74Z</time></trkpt><trkpt lat="45.5658039" lon="10.5099466"><ele>213.0</ele><time>2026-04-25T16:23:26.74Z</time></trkpt><trkpt lat="45.5659051" lon="10.5099811"><ele>213.0</ele><time>2026-04-25T16:23:27.74Z</time></trkpt><trkpt lat="45.5660054" lon="10.5100099"><ele>213.0</ele><time>2026-04-25T16:23:28.738Z</time></trkpt><trkpt lat="45.5661013" lon="10.5100441"><ele>213.0</ele><time>2026-04-25T16:23:29.739Z</time></trkpt><trkpt lat="45.5661917" lon="10.5100726"><ele>213.0</ele><time>2026-04-25T16:23:30.74Z</time></trkpt><trkpt lat="45.5662784" lon="10.5101013"><ele>213.0</ele><time>2026-04-25T16:23:31.74Z</time></trkpt><trkpt lat="45.5663624" lon="10.5101153"><ele>213.0</ele><time>2026-04-25T16:23:32.739Z</time></trkpt><trkpt lat="45.5664427" lon="10.5101212"><ele>213.0</ele><time>2026-04-25T16:23:33.74Z</time></trkpt><trkpt lat="45.5665248" lon="10.5101158"><ele>213.66666666666666</ele><time>2026-04-25T16:23:34.74Z</time></trkpt><trkpt lat="45.5666019" lon="10.5101034"><ele>214.33333333333331</ele><time>2026-04-25T16:23:35.738Z</time></trkpt><trkpt lat="45.5666739" lon="10.5100932"><ele>215.0</ele><time>2026-04-25T16:23:36.738Z</time></trkpt><trkpt lat="45.5667421" lon="10.5100644"><ele>215.66666666666666</ele><time>2026-04-25T16:23:37.74Z</time></trkpt><trkpt lat="45.56681" lon="10.5100386"><ele>216.33333333333331</ele><time>2026-04-25T16:23:38.74Z</time></trkpt><trkpt lat="45.5668718" lon="10.5100155"><ele>217.0</ele><time>2026-04-25T16:23:39.738Z</time></trkpt><trkpt lat="45.5669916" lon="10.5099899"><ele>216.75</ele><time>2026-04-25T16:23:41.738Z</time></trkpt><trkpt lat="45.5671094" lon="10.509965"><ele>216.5</ele><time>2026-04-25T16:23:43.739Z</time></trkpt><trkpt lat="45.5672184" lon="10.5099798"><ele>216.25</ele><time>2026-04-25T16:23:45.74Z</time></trkpt><trkpt lat="45.5673783" lon="10.5100152"><ele>216.0</ele><time>2026-04-25T16:23:48.74Z</time></trkpt><trkpt lat="45.5674872" lon="10.5100283"><ele>216.0</ele><time>2026-04-25T16:23:50.74Z</time></trkpt><trkpt lat="45.567603" lon="10.5100471"><ele>216.00000000000003</ele><time>2026-04-25T16:23:52.74Z</time></trkpt><trkpt lat="45.5677019" lon="10.5100668"><ele>216.00000000000003</ele><time>2026-04-25T16:23:54.74Z</time></trkpt><trkpt lat="45.5678055" lon="10.5100869"><ele>216.0</ele><time>2026-04-25T16:23:56.74Z</time></trkpt><trkpt lat="45.5679066" lon="10.5100987"><ele>216.0</ele><time>2026-04-25T16:23:58.74Z</time></trkpt><trkpt lat="45.568008" lon="10.5101162"><ele>216.0</ele><time>2026-04-25T16:24:00.74Z</time></trkpt><trkpt lat="45.5681108" lon="10.5101506"><ele>216.0</ele><time>2026-04-25T16:24:02.739Z</time></trkpt><trkpt lat="45.5682215" lon="10.5102134"><ele>216.0</ele><time>2026-04-25T16:24:04.739Z</time></trkpt><trkpt lat="45.5682809" lon="10.5102481"><ele>216.0</ele><time>2026-04-25T16:24:05.739Z</time></trkpt><trkpt lat="45.5683395" lon="10.5102871"><ele>216.0</ele><time>2026-04-25T16:24:06.739Z</time></trkpt><trkpt lat="45.5684014" lon="10.5103175"><ele>216.0</ele><time>2026-04-25T16:24:07.739Z</time></trkpt><trkpt lat="45.5684647" lon="10.5103435"><ele>216.0</ele><time>2026-04-25T16:24:08.74Z</time></trkpt><trkpt lat="45.5685811" lon="10.5103546"><ele>216.0</ele><time>2026-04-25T16:24:10.74Z</time></trkpt><trkpt lat="45.5686904" lon="10.5103001"><ele>216.0</ele><time>2026-04-25T16:24:12.74Z</time></trkpt><trkpt lat="45.5687436" lon="10.5102376"><ele>216.0</ele><time>2026-04-25T16:24:13.739Z</time></trkpt><trkpt lat="45.568798" lon="10.5101663"><ele>216.0</ele><time>2026-04-25T16:24:14.739Z</time></trkpt><trkpt lat="45.5688291" lon="10.5100781"><ele>216.0</ele><time>2026-04-25T16:24:15.739Z</time></trkpt><trkpt lat="45.5688538" lon="10.5099868"><ele>216.5</ele><time>2026-04-25T16:24:16.738Z</time></trkpt><trkpt lat="45.5688837" lon="10.5098994"><ele>217.0</ele><time>2026-04-25T16:24:17.74Z</time></trkpt><trkpt lat="45.568912" lon="10.509801"><ele>217.5</ele><time>2026-04-25T16:24:18.738Z</time></trkpt><trkpt lat="45.5689274" lon="10.5097082"><ele>218.0</ele><time>2026-04-25T16:24:19.738Z</time></trkpt><trkpt lat="45.5689982" lon="10.5095777"><ele>218.5</ele><time>2026-04-25T16:24:21.74Z</time></trkpt><trkpt lat="45.5690475" lon="10.5095162"><ele>219.0</ele><time>2026-04-25T16:24:22.739Z</time></trkpt><trkpt lat="45.5691008" lon="10.5094588"><ele>219.0</ele><time>2026-04-25T16:24:23.739Z</time></trkpt><trkpt lat="45.5691583" lon="10.5094093"><ele>219.0</ele><time>2026-04-25T16:24:24.739Z</time></trkpt><trkpt lat="45.5692272" lon="10.5093688"><ele>219.0</ele><time>2026-04-25T16:24:25.74Z</time></trkpt><trkpt lat="45.5692996" lon="10.509342"><ele>219.0</ele><time>2026-04-25T16:24:26.74Z</time></trkpt><trkpt lat="45.5693745" lon="10.5093217"><ele>219.0</ele><time>2026-04-25T16:24:27.738Z</time></trkpt><trkpt lat="45.5694466" lon="10.5092979"><ele>219.0</ele><time>2026-04-25T16:24:28.739Z</time></trkpt><trkpt lat="45.5695214" lon="10.5092738"><ele>219.0</ele><time>2026-04-25T16:24:29.74Z</time></trkpt><trkpt lat="45.5695836" lon="10.5092577"><ele>217.83333333333334</ele><time>2026-04-25T16:24:30.74Z</time></trkpt><trkpt lat="45.5696687" lon="10.5092267"><ele>216.66666666666669</ele><time>2026-04-25T16:24:31.74Z</time></trkpt><trkpt lat="45.5697551" lon="10.5092027"><ele>215.5</ele><time>2026-04-25T16:24:32.74Z</time></trkpt><trkpt lat="45.5698307" lon="10.5091787"><ele>214.33333333333334</ele><time>2026-04-25T16:24:33.74Z</time></trkpt><trkpt lat="45.5699109" lon="10.5091542"><ele>213.16666666666669</ele><time>2026-04-25T16:24:34.739Z</time></trkpt><trkpt lat="45.569989" lon="10.5091107"><ele>212.0</ele><time>2026-04-25T16:24:35.74Z</time></trkpt><trkpt lat="45.5700526" lon="10.5090538"><ele>212.00000000000003</ele><time>2026-04-25T16:24:36.74Z</time></trkpt><trkpt lat="45.5701166" lon="10.5089935"><ele>212.0</ele><time>2026-04-25T16:24:37.738Z</time></trkpt><trkpt lat="45.5701788" lon="10.5089345"><ele>212.0</ele><time>2026-04-25T16:24:38.739Z</time></trkpt><trkpt lat="45.5702525" lon="10.5088843"><ele>212.0</ele><time>2026-04-25T16:24:39.74Z</time></trkpt><trkpt lat="45.5703171" lon="10.5088739"><ele>212.00000000000003</ele><time>2026-04-25T16:24:40.738Z</time></trkpt><trkpt lat="45.570407" lon="10.5089218"><ele>212.0</ele><time>2026-04-25T16:24:41.739Z</time></trkpt><trkpt lat="45.5704747" lon="10.5089741"><ele>211.71428571428572</ele><time>2026-04-25T16:24:42.738Z</time></trkpt><trkpt lat="45.5705225" lon="10.5090617"><ele>211.42857142857142</ele><time>2026-04-25T16:24:43.739Z</time></trkpt><trkpt lat="45.5705548" lon="10.5091498"><ele>211.14285714285714</ele><time>2026-04-25T16:24:44.739Z</time></trkpt><trkpt lat="45.5705538" lon="10.5092572"><ele>210.85714285714286</ele><time>2026-04-25T16:24:45.739Z</time></trkpt><trkpt lat="45.5705438" lon="10.5093652"><ele>210.57142857142856</ele><time>2026-04-25T16:24:46.74Z</time></trkpt><trkpt lat="45.5705207" lon="10.5094632"><ele>210.28571428571428</ele><time>2026-04-25T16:24:47.74Z</time></trkpt><trkpt lat="45.5705014" lon="10.5095613"><ele>210.0</ele><time>2026-04-25T16:24:48.739Z</time></trkpt><trkpt lat="45.5704858" lon="10.5096554"><ele>210.0</ele><time>2026-04-25T16:24:49.739Z</time></trkpt><trkpt lat="45.570432" lon="10.5097638"><ele>210.0</ele><time>2026-04-25T16:24:51.739Z</time></trkpt><trkpt lat="45.5703467" lon="10.5097531"><ele>210.0</ele><time>2026-04-25T16:24:53.74Z</time></trkpt><trkpt lat="45.5702299" lon="10.5097616"><ele>210.0</ele><time>2026-04-25T16:24:55.74Z</time></trkpt><trkpt lat="45.5701021" lon="10.509741"><ele>210.0</ele><time>2026-04-25T16:24:57.739Z</time></trkpt><trkpt lat="45.5700343" lon="10.5097331"><ele>209.0</ele><time>2026-04-25T16:24:58.739Z</time></trkpt><trkpt lat="45.5699684" lon="10.5097325"><ele>208.0</ele><time>2026-04-25T16:24:59.739Z</time></trkpt><trkpt lat="45.5699029" lon="10.5097516"><ele>207.0</ele><time>2026-04-25T16:25:00.739Z</time></trkpt><trkpt lat="45.5698342" lon="10.5097762"><ele>206.0</ele><time>2026-04-25T16:25:01.738Z</time></trkpt><trkpt lat="45.5697933" lon="10.5098518"><ele>205.0</ele><time>2026-04-25T16:25:02.739Z</time></trkpt><trkpt lat="45.5697353" lon="10.5099322"><ele>204.0</ele><time>2026-04-25T16:25:03.74Z</time></trkpt><trkpt lat="45.5696996" lon="10.5100275"><ele>203.0</ele><time>2026-04-25T16:25:04.739Z</time></trkpt><trkpt lat="45.5696818" lon="10.51014"><ele>203.00000000000003</ele><time>2026-04-25T16:25:05.74Z</time></trkpt><trkpt lat="45.5696838" lon="10.5102558"><ele>203.0</ele><time>2026-04-25T16:25:06.74Z</time></trkpt><trkpt lat="45.5697" lon="10.5103685"><ele>203.0</ele><time>2026-04-25T16:25:07.738Z</time></trkpt><trkpt lat="45.5697168" lon="10.5104853"><ele>203.0</ele><time>2026-04-25T16:25:08.739Z</time></trkpt><trkpt lat="45.569731" lon="10.5106024"><ele>203.00000000000003</ele><time>2026-04-25T16:25:09.739Z</time></trkpt><trkpt lat="45.5697447" lon="10.5107189"><ele>203.0</ele><time>2026-04-25T16:25:10.738Z</time></trkpt><trkpt lat="45.5697621" lon="10.5108367"><ele>203.0</ele><time>2026-04-25T16:25:11.74Z</time></trkpt><trkpt lat="45.5697796" lon="10.5109627"><ele>203.0</ele><time>2026-04-25T16:25:12.739Z</time></trkpt><trkpt lat="45.569784" lon="10.5110894"><ele>203.0</ele><time>2026-04-25T16:25:13.74Z</time></trkpt><trkpt lat="45.5697735" lon="10.5112187"><ele>203.0</ele><time>2026-04-25T16:25:14.739Z</time></trkpt><trkpt lat="45.5697542" lon="10.5113487"><ele>203.0</ele><time>2026-04-25T16:25:15.739Z</time></trkpt><trkpt lat="45.5697281" lon="10.5114772"><ele>204.4</ele><time>2026-04-25T16:25:16.74Z</time></trkpt><trkpt lat="45.5696905" lon="10.5116087"><ele>205.8</ele><time>2026-04-25T16:25:17.738Z</time></trkpt><trkpt lat="45.5696591" lon="10.5117303"><ele>207.2</ele><time>2026-04-25T16:25:18.74Z</time></trkpt><trkpt lat="45.569614" lon="10.5118762"><ele>208.6</ele><time>2026-04-25T16:25:19.738Z</time></trkpt><trkpt lat="45.5695464" lon="10.5120044"><ele>210.0</ele><time>2026-04-25T16:25:20.739Z</time></trkpt><trkpt lat="45.5694822" lon="10.5121256"><ele>207.2</ele><time>2026-04-25T16:25:21.739Z</time></trkpt><trkpt lat="45.5694114" lon="10.5122412"><ele>204.4</ele><time>2026-04-25T16:25:22.74Z</time></trkpt><trkpt lat="45.5693318" lon="10.5123436"><ele>201.60000000000002</ele><time>2026-04-25T16:25:23.739Z</time></trkpt><trkpt lat="45.5692363" lon="10.5124255"><ele>198.8</ele><time>2026-04-25T16:25:24.74Z</time></trkpt><trkpt lat="45.5691416" lon="10.5124818"><ele>196.0</ele><time>2026-04-25T16:25:25.739Z</time></trkpt><trkpt lat="45.5690384" lon="10.5124971"><ele>196.0</ele><time>2026-04-25T16:25:26.739Z</time></trkpt><trkpt lat="45.5689337" lon="10.512489"><ele>196.0</ele><time>2026-04-25T16:25:27.739Z</time></trkpt><trkpt lat="45.5688306" lon="10.5124527"><ele>196.0</ele><time>2026-04-25T16:25:28.738Z</time></trkpt><trkpt lat="45.5687323" lon="10.5124068"><ele>196.0</ele><time>2026-04-25T16:25:29.739Z</time></trkpt><trkpt lat="45.5686374" lon="10.5123617"><ele>196.0</ele><time>2026-04-25T16:25:30.739Z</time></trkpt><trkpt lat="45.5685384" lon="10.512317"><ele>193.8</ele><time>2026-04-25T16:25:31.738Z</time></trkpt><trkpt lat="45.5684401" lon="10.5122713"><ele>191.60000000000002</ele><time>2026-04-25T16:25:32.738Z</time></trkpt><trkpt lat="45.5683427" lon="10.5122149"><ele>189.4</ele><time>2026-04-25T16:25:33.739Z</time></trkpt><trkpt lat="45.5682393" lon="10.5121669"><ele>187.2</ele><time>2026-04-25T16:25:34.74Z</time></trkpt><trkpt lat="45.5681402" lon="10.5121296"><ele>185.0</ele><time>2026-04-25T16:25:35.739Z</time></trkpt><trkpt lat="45.5680354" lon="10.5121037"><ele>185.0</ele><time>2026-04-25T16:25:36.739Z</time></trkpt><trkpt lat="45.5679282" lon="10.5121122"><ele>185.0</ele><time>2026-04-25T16:25:37.74Z</time></trkpt><trkpt lat="45.5678255" lon="10.5121335"><ele>185.0</ele><time>2026-04-25T16:25:38.74Z</time></trkpt><trkpt lat="45.5677226" lon="10.5121709"><ele>185.0</ele><time>2026-04-25T16:25:39.739Z</time></trkpt><trkpt lat="45.5676242" lon="10.5122339"><ele>185.0</ele><time>2026-04-25T16:25:40.74Z</time></trkpt><trkpt lat="45.5675347" lon="10.5123175"><ele>183.6</ele><time>2026-04-25T16:25:41.739Z</time></trkpt><trkpt lat="45.5674531" lon="10.5124174"><ele>182.2</ele><time>2026-04-25T16:25:42.74Z</time></trkpt><trkpt lat="45.5673825" lon="10.5125373"><ele>180.8</ele><time>2026-04-25T16:25:43.739Z</time></trkpt><trkpt lat="45.5673254" lon="10.5126688"><ele>179.4</ele><time>2026-04-25T16:25:44.74Z</time></trkpt><trkpt lat="45.5672801" lon="10.5128107"><ele>178.0</ele><time>2026-04-25T16:25:45.739Z</time></trkpt><trkpt lat="45.5672545" lon="10.5129505"><ele>177.2</ele><time>2026-04-25T16:25:46.74Z</time></trkpt><trkpt lat="45.5672401" lon="10.5130949"><ele>176.4</ele><time>2026-04-25T16:25:47.74Z</time></trkpt><trkpt lat="45.5672348" lon="10.5132434"><ele>175.6</ele><time>2026-04-25T16:25:48.739Z</time></trkpt><trkpt lat="45.5672352" lon="10.5133934"><ele>174.79999999999998</ele><time>2026-04-25T16:25:49.739Z</time></trkpt><trkpt lat="45.5672406" lon="10.5135467"><ele>174.0</ele><time>2026-04-25T16:25:50.739Z</time></trkpt><trkpt lat="45.5672457" lon="10.5136992"><ele>173.0</ele><time>2026-04-25T16:25:51.74Z</time></trkpt><trkpt lat="45.5672496" lon="10.5138535"><ele>172.0</ele><time>2026-04-25T16:25:52.74Z</time></trkpt><trkpt lat="45.5672565" lon="10.5140075"><ele>171.0</ele><time>2026-04-25T16:25:53.74Z</time></trkpt><trkpt lat="45.5672623" lon="10.5141621"><ele>170.0</ele><time>2026-04-25T16:25:54.74Z</time></trkpt><trkpt lat="45.5672646" lon="10.5143285"><ele>169.0</ele><time>2026-04-25T16:25:55.739Z</time></trkpt><trkpt lat="45.5672705" lon="10.5144901"><ele>167.75</ele><time>2026-04-25T16:25:56.739Z</time></trkpt><trkpt lat="45.5672739" lon="10.5146608"><ele>166.5</ele><time>2026-04-25T16:25:57.74Z</time></trkpt><trkpt lat="45.5672795" lon="10.5148236"><ele>165.25</ele><time>2026-04-25T16:25:58.74Z</time></trkpt><trkpt lat="45.5672844" lon="10.5149889"><ele>164.0</ele><time>2026-04-25T16:25:59.738Z</time></trkpt><trkpt lat="45.567288" lon="10.5151546"><ele>164.0</ele><time>2026-04-25T16:26:00.739Z</time></trkpt><trkpt lat="45.5672907" lon="10.5153253"><ele>164.0</ele><time>2026-04-25T16:26:01.74Z</time></trkpt><trkpt lat="45.5672937" lon="10.5154995"><ele>164.0</ele><time>2026-04-25T16:26:02.74Z</time></trkpt><trkpt lat="45.5672939" lon="10.5156726"><ele>164.0</ele><time>2026-04-25T16:26:03.739Z</time></trkpt><trkpt lat="45.5672968" lon="10.5158408"><ele>163.75</ele><time>2026-04-25T16:26:04.74Z</time></trkpt><trkpt lat="45.5672972" lon="10.5160079"><ele>163.5</ele><time>2026-04-25T16:26:05.738Z</time></trkpt><trkpt lat="45.5672942" lon="10.5161634"><ele>163.25</ele><time>2026-04-25T16:26:06.739Z</time></trkpt><trkpt lat="45.5672808" lon="10.5163303"><ele>163.0</ele><time>2026-04-25T16:26:07.74Z</time></trkpt><trkpt lat="45.5672677" lon="10.5164943"><ele>162.0</ele><time>2026-04-25T16:26:08.74Z</time></trkpt><trkpt lat="45.5672524" lon="10.51666"><ele>161.0</ele><time>2026-04-25T16:26:09.739Z</time></trkpt><trkpt lat="45.5672354" lon="10.5168241"><ele>160.0</ele><time>2026-04-25T16:26:10.739Z</time></trkpt><trkpt lat="45.5672218" lon="10.5169862"><ele>159.0</ele><time>2026-04-25T16:26:11.74Z</time></trkpt><trkpt lat="45.5672038" lon="10.5171526"><ele>157.5</ele><time>2026-04-25T16:26:12.739Z</time></trkpt><trkpt lat="45.5671855" lon="10.5173186"><ele>156.0</ele><time>2026-04-25T16:26:13.74Z</time></trkpt><trkpt lat="45.5671693" lon="10.5174881"><ele>154.5</ele><time>2026-04-25T16:26:14.739Z</time></trkpt><trkpt lat="45.5671529" lon="10.5176582"><ele>153.0</ele><time>2026-04-25T16:26:15.739Z</time></trkpt><trkpt lat="45.5671361" lon="10.5178307"><ele>151.75</ele><time>2026-04-25T16:26:16.739Z</time></trkpt><trkpt lat="45.5671213" lon="10.517998"><ele>150.5</ele><time>2026-04-25T16:26:17.739Z</time></trkpt><trkpt lat="45.5671043" lon="10.5181657"><ele>149.25</ele><time>2026-04-25T16:26:18.739Z</time></trkpt><trkpt lat="45.5670911" lon="10.5183235"><ele>148.0</ele><time>2026-04-25T16:26:19.739Z</time></trkpt><trkpt lat="45.5670737" lon="10.5184678"><ele>148.0</ele><time>2026-04-25T16:26:20.739Z</time></trkpt><trkpt lat="45.5670568" lon="10.5186071"><ele>148.0</ele><time>2026-04-25T16:26:21.739Z</time></trkpt><trkpt lat="45.5670403" lon="10.5187536"><ele>148.0</ele><time>2026-04-25T16:26:22.739Z</time></trkpt><trkpt lat="45.5670256" lon="10.5189015"><ele>148.0</ele><time>2026-04-25T16:26:23.74Z</time></trkpt><trkpt lat="45.5670138" lon="10.519046"><ele>148.0</ele><time>2026-04-25T16:26:24.74Z</time></trkpt><trkpt lat="45.5669991" lon="10.5191906"><ele>147.20000000000002</ele><time>2026-04-25T16:26:25.738Z</time></trkpt><trkpt lat="45.5669825" lon="10.5193304"><ele>146.4</ele><time>2026-04-25T16:26:26.738Z</time></trkpt><trkpt lat="45.5669729" lon="10.5194713"><ele>145.60000000000002</ele><time>2026-04-25T16:26:27.739Z</time></trkpt><trkpt lat="45.566958" lon="10.5196131"><ele>144.8</ele><time>2026-04-25T16:26:28.739Z</time></trkpt><trkpt lat="45.5669463" lon="10.5197556"><ele>144.0</ele><time>2026-04-25T16:26:29.74Z</time></trkpt><trkpt lat="45.5669355" lon="10.519892"><ele>143.4</ele><time>2026-04-25T16:26:30.738Z</time></trkpt><trkpt lat="45.5669192" lon="10.5200313"><ele>142.8</ele><time>2026-04-25T16:26:31.739Z</time></trkpt><trkpt lat="45.5669027" lon="10.520166"><ele>142.2</ele><time>2026-04-25T16:26:32.738Z</time></trkpt><trkpt lat="45.5668888" lon="10.5203006"><ele>141.6</ele><time>2026-04-25T16:26:33.739Z</time></trkpt><trkpt lat="45.5668735" lon="10.5204339"><ele>141.0</ele><time>2026-04-25T16:26:34.739Z</time></trkpt><trkpt lat="45.5668594" lon="10.5205615"><ele>141.0</ele><time>2026-04-25T16:26:35.739Z</time></trkpt><trkpt lat="45.5668487" lon="10.5206903"><ele>141.0</ele><time>2026-04-25T16:26:36.738Z</time></trkpt><trkpt lat="45.5668414" lon="10.5208222"><ele>141.0</ele><time>2026-04-25T16:26:37.739Z</time></trkpt><trkpt lat="45.5668278" lon="10.5209461"><ele>141.0</ele><time>2026-04-25T16:26:38.739Z</time></trkpt><trkpt lat="45.5668149" lon="10.5210714"><ele>141.0</ele><time>2026-04-25T16:26:39.74Z</time></trkpt><trkpt lat="45.5668002" lon="10.5211933"><ele>141.0</ele><time>2026-04-25T16:26:40.74Z</time></trkpt><trkpt lat="45.5667878" lon="10.5213136"><ele>141.16666666666666</ele><time>2026-04-25T16:26:41.74Z</time></trkpt><trkpt lat="45.5667737" lon="10.5214312"><ele>141.33333333333334</ele><time>2026-04-25T16:26:42.738Z</time></trkpt><trkpt lat="45.5667629" lon="10.5215472"><ele>141.5</ele><time>2026-04-25T16:26:43.74Z</time></trkpt><trkpt lat="45.5667539" lon="10.5216601"><ele>141.66666666666669</ele><time>2026-04-25T16:26:44.74Z</time></trkpt><trkpt lat="45.5667432" lon="10.5217718"><ele>141.83333333333334</ele><time>2026-04-25T16:26:45.74Z</time></trkpt><trkpt lat="45.5667312" lon="10.5218854"><ele>142.0</ele><time>2026-04-25T16:26:46.74Z</time></trkpt><trkpt lat="45.5667199" lon="10.5219939"><ele>141.66666666666669</ele><time>2026-04-25T16:26:47.74Z</time></trkpt><trkpt lat="45.5667104" lon="10.5221045"><ele>141.33333333333334</ele><time>2026-04-25T16:26:48.739Z</time></trkpt><trkpt lat="45.566702" lon="10.522218"><ele>141.0</ele><time>2026-04-25T16:26:49.739Z</time></trkpt><trkpt lat="45.5666925" lon="10.5223287"><ele>140.66666666666666</ele><time>2026-04-25T16:26:50.739Z</time></trkpt><trkpt lat="45.5666781" lon="10.5224375"><ele>140.33333333333331</ele><time>2026-04-25T16:26:51.74Z</time></trkpt><trkpt lat="45.5666655" lon="10.5225493"><ele>140.0</ele><time>2026-04-25T16:26:52.74Z</time></trkpt><trkpt lat="45.5666549" lon="10.522662"><ele>140.0</ele><time>2026-04-25T16:26:53.738Z</time></trkpt><trkpt lat="45.5666434" lon="10.5227709"><ele>140.0</ele><time>2026-04-25T16:26:54.74Z</time></trkpt><trkpt lat="45.566633" lon="10.5228792"><ele>140.0</ele><time>2026-04-25T16:26:55.738Z</time></trkpt><trkpt lat="45.5666221" lon="10.5229872"><ele>140.0</ele><time>2026-04-25T16:26:56.739Z</time></trkpt><trkpt lat="45.5666109" lon="10.5230923"><ele>140.0</ele><time>2026-04-25T16:26:57.74Z</time></trkpt><trkpt lat="45.5666023" lon="10.5231985"><ele>140.0</ele><time>2026-04-25T16:26:58.74Z</time></trkpt><trkpt lat="45.5665943" lon="10.5233009"><ele>140.14285714285714</ele><time>2026-04-25T16:26:59.739Z</time></trkpt><trkpt lat="45.5665894" lon="10.5234049"><ele>140.28571428571428</ele><time>2026-04-25T16:27:00.74Z</time></trkpt><trkpt lat="45.5665876" lon="10.5235099"><ele>140.42857142857144</ele><time>2026-04-25T16:27:01.738Z</time></trkpt><trkpt lat="45.5665867" lon="10.5236155"><ele>140.57142857142856</ele><time>2026-04-25T16:27:02.74Z</time></trkpt><trkpt lat="45.5665878" lon="10.5237206"><ele>140.71428571428572</ele><time>2026-04-25T16:27:03.74Z</time></trkpt><trkpt lat="45.5665884" lon="10.5238251"><ele>140.85714285714286</ele><time>2026-04-25T16:27:04.74Z</time></trkpt><trkpt lat="45.5665915" lon="10.5239303"><ele>141.0</ele><time>2026-04-25T16:27:05.739Z</time></trkpt><trkpt lat="45.5665992" lon="10.5240317"><ele>141.0</ele><time>2026-04-25T16:27:06.739Z</time></trkpt><trkpt lat="45.5665978" lon="10.5241375"><ele>141.0</ele><time>2026-04-25T16:27:07.74Z</time></trkpt><trkpt lat="45.5665999" lon="10.524245"><ele>141.0</ele><time>2026-04-25T16:27:08.74Z</time></trkpt><trkpt lat="45.5666041" lon="10.5243455"><ele>141.0</ele><time>2026-04-25T16:27:09.74Z</time></trkpt><trkpt lat="45.5666108" lon="10.524442"><ele>141.0</ele><time>2026-04-25T16:27:10.739Z</time></trkpt><trkpt lat="45.5666144" lon="10.5245484"><ele>141.0</ele><time>2026-04-25T16:27:11.739Z</time></trkpt><trkpt lat="45.5666199" lon="10.5246484"><ele>141.0</ele><time>2026-04-25T16:27:12.739Z</time></trkpt><trkpt lat="45.5666224" lon="10.5247455"><ele>140.71428571428572</ele><time>2026-04-25T16:27:13.739Z</time></trkpt><trkpt lat="45.5666261" lon="10.5248417"><ele>140.42857142857142</ele><time>2026-04-25T16:27:14.739Z</time></trkpt><trkpt lat="45.5666268" lon="10.5249341"><ele>140.14285714285714</ele><time>2026-04-25T16:27:15.738Z</time></trkpt><trkpt lat="45.5666271" lon="10.5250275"><ele>139.85714285714286</ele><time>2026-04-25T16:27:16.74Z</time></trkpt><trkpt lat="45.5666297" lon="10.5251229"><ele>139.57142857142858</ele><time>2026-04-25T16:27:17.74Z</time></trkpt><trkpt lat="45.5666372" lon="10.5252937"><ele>139.28571428571428</ele><time>2026-04-25T16:27:19.74Z</time></trkpt><trkpt lat="45.5666385" lon="10.5253855"><ele>139.0</ele><time>2026-04-25T16:27:20.74Z</time></trkpt><trkpt lat="45.5666442" lon="10.525553"><ele>139.0</ele><time>2026-04-25T16:27:22.74Z</time></trkpt><trkpt lat="45.5666503" lon="10.5257209"><ele>139.0</ele><time>2026-04-25T16:27:24.739Z</time></trkpt><trkpt lat="45.5666521" lon="10.5258946"><ele>139.0</ele><time>2026-04-25T16:27:26.739Z</time></trkpt><trkpt lat="45.5666512" lon="10.5259934"><ele>139.0</ele><time>2026-04-25T16:27:27.74Z</time></trkpt><trkpt lat="45.5666555" lon="10.526088"><ele>139.0</ele><time>2026-04-25T16:27:28.74Z</time></trkpt><trkpt lat="45.5666549" lon="10.5261871"><ele>139.0</ele><time>2026-04-25T16:27:29.74Z</time></trkpt><trkpt lat="45.5666548" lon="10.5262856"><ele>138.71428571428572</ele><time>2026-04-25T16:27:30.74Z</time></trkpt><trkpt lat="45.5666593" lon="10.5263884"><ele>138.42857142857144</ele><time>2026-04-25T16:27:31.739Z</time></trkpt><trkpt lat="45.5666613" lon="10.5264919"><ele>138.14285714285717</ele><time>2026-04-25T16:27:32.739Z</time></trkpt><trkpt lat="45.5666627" lon="10.5265885"><ele>137.85714285714286</ele><time>2026-04-25T16:27:33.74Z</time></trkpt><trkpt lat="45.566665" lon="10.5266977"><ele>137.57142857142858</ele><time>2026-04-25T16:27:34.74Z</time></trkpt><trkpt lat="45.5666682" lon="10.5268008"><ele>137.2857142857143</ele><time>2026-04-25T16:27:35.74Z</time></trkpt><trkpt lat="45.5666702" lon="10.5269027"><ele>137.0</ele><time>2026-04-25T16:27:36.739Z</time></trkpt><trkpt lat="45.5666714" lon="10.5270027"><ele>136.42857142857144</ele><time>2026-04-25T16:27:37.74Z</time></trkpt><trkpt lat="45.5666746" lon="10.5271044"><ele>135.85714285714286</ele><time>2026-04-25T16:27:38.739Z</time></trkpt><trkpt lat="45.56668" lon="10.5271989"><ele>135.28571428571428</ele><time>2026-04-25T16:27:39.739Z</time></trkpt><trkpt lat="45.5666876" lon="10.5273026"><ele>134.71428571428572</ele><time>2026-04-25T16:27:40.738Z</time></trkpt><trkpt lat="45.5666974" lon="10.5273935"><ele>134.14285714285714</ele><time>2026-04-25T16:27:41.739Z</time></trkpt><trkpt lat="45.566715" lon="10.527485"><ele>133.57142857142858</ele><time>2026-04-25T16:27:42.739Z</time></trkpt><trkpt lat="45.5667377" lon="10.5275771"><ele>133.0</ele><time>2026-04-25T16:27:43.74Z</time></trkpt><trkpt lat="45.5667641" lon="10.5276646"><ele>133.0</ele><time>2026-04-25T16:27:44.74Z</time></trkpt><trkpt lat="45.5667922" lon="10.527752"><ele>133.0</ele><time>2026-04-25T16:27:45.739Z</time></trkpt><trkpt lat="45.5668246" lon="10.5278332"><ele>133.0</ele><time>2026-04-25T16:27:46.74Z</time></trkpt><trkpt lat="45.5668603" lon="10.5279086"><ele>133.0</ele><time>2026-04-25T16:27:47.738Z</time></trkpt><trkpt lat="45.5668995" lon="10.5279815"><ele>133.0</ele><time>2026-04-25T16:27:48.738Z</time></trkpt><trkpt lat="45.5669402" lon="10.5280544"><ele>133.0</ele><time>2026-04-25T16:27:49.74Z</time></trkpt><trkpt lat="45.5669767" lon="10.5281284"><ele>133.0</ele><time>2026-04-25T16:27:50.739Z</time></trkpt><trkpt lat="45.5670141" lon="10.5282051"><ele>132.8</ele><time>2026-04-25T16:27:51.74Z</time></trkpt><trkpt lat="45.5670889" lon="10.528341"><ele>132.60000000000002</ele><time>2026-04-25T16:27:53.739Z</time></trkpt><trkpt lat="45.5671683" lon="10.5284742"><ele>132.39999999999998</ele><time>2026-04-25T16:27:55.74Z</time></trkpt><trkpt lat="45.567207" lon="10.5285459"><ele>132.2</ele><time>2026-04-25T16:27:56.739Z</time></trkpt><trkpt lat="45.5672851" lon="10.5286793"><ele>132.0</ele><time>2026-04-25T16:27:58.74Z</time></trkpt><trkpt lat="45.5673528" lon="10.5288126"><ele>131.6</ele><time>2026-04-25T16:28:00.738Z</time></trkpt><trkpt lat="45.567421" lon="10.528938"><ele>131.2</ele><time>2026-04-25T16:28:02.739Z</time></trkpt><trkpt lat="45.5674729" lon="10.5290788"><ele>130.8</ele><time>2026-04-25T16:28:04.738Z</time></trkpt><trkpt lat="45.5675272" lon="10.5292256"><ele>130.4</ele><time>2026-04-25T16:28:06.74Z</time></trkpt><trkpt lat="45.5675787" lon="10.5293653"><ele>130.0</ele><time>2026-04-25T16:28:08.739Z</time></trkpt><trkpt lat="45.567628" lon="10.5294974"><ele>130.0</ele><time>2026-04-25T16:28:10.74Z</time></trkpt><trkpt lat="45.5676896" lon="10.5296185"><ele>130.0</ele><time>2026-04-25T16:28:12.739Z</time></trkpt><trkpt lat="45.5677328" lon="10.5297621"><ele>130.0</ele><time>2026-04-25T16:28:14.739Z</time></trkpt><trkpt lat="45.567747" lon="10.5299321"><ele>130.0</ele><time>2026-04-25T16:28:16.74Z</time></trkpt><trkpt lat="45.567742" lon="10.5301073"><ele>130.0</ele><time>2026-04-25T16:28:18.739Z</time></trkpt><trkpt lat="45.5676927" lon="10.5302681"><ele>130.0</ele><time>2026-04-25T16:28:20.74Z</time></trkpt><trkpt lat="45.5676478" lon="10.5303382"><ele>130.0</ele><time>2026-04-25T16:28:21.739Z</time></trkpt><trkpt lat="45.567603" lon="10.5304067"><ele>130.0</ele><time>2026-04-25T16:28:22.739Z</time></trkpt><trkpt lat="45.5675031" lon="10.5305218"><ele>130.0</ele><time>2026-04-25T16:28:24.739Z</time></trkpt><trkpt lat="45.5673901" lon="10.5306154"><ele>130.33333333333334</ele><time>2026-04-25T16:28:26.739Z</time></trkpt><trkpt lat="45.5673274" lon="10.5306652"><ele>130.66666666666669</ele><time>2026-04-25T16:28:27.74Z</time></trkpt><trkpt lat="45.5672648" lon="10.5306909"><ele>131.0</ele><time>2026-04-25T16:28:28.739Z</time></trkpt><trkpt lat="45.5671432" lon="10.5307453"><ele>131.33333333333334</ele><time>2026-04-25T16:28:30.739Z</time></trkpt><trkpt lat="45.5670787" lon="10.5307779"><ele>131.66666666666666</ele><time>2026-04-25T16:28:31.74Z</time></trkpt><trkpt lat="45.5670166" lon="10.5308059"><ele>132.0</ele><time>2026-04-25T16:28:32.739Z</time></trkpt><trkpt lat="45.5669558" lon="10.5308394"><ele>132.0</ele><time>2026-04-25T16:28:33.74Z</time></trkpt><trkpt lat="45.5668979" lon="10.5308747"><ele>132.0</ele><time>2026-04-25T16:28:34.739Z</time></trkpt><trkpt lat="45.5667897" lon="10.5309368"><ele>132.0</ele><time>2026-04-25T16:28:36.74Z</time></trkpt><trkpt lat="45.5667211" lon="10.5309663"><ele>132.0</ele><time>2026-04-25T16:28:37.738Z</time></trkpt><trkpt lat="45.5666609" lon="10.5310101"><ele>132.0</ele><time>2026-04-25T16:28:38.738Z</time></trkpt><trkpt lat="45.5665992" lon="10.5310455"><ele>132.0</ele><time>2026-04-25T16:28:39.74Z</time></trkpt><trkpt lat="45.5664842" lon="10.5311165"><ele>132.0</ele><time>2026-04-25T16:28:41.738Z</time></trkpt><trkpt lat="45.5663577" lon="10.5311731"><ele>132.0</ele><time>2026-04-25T16:28:43.739Z</time></trkpt><trkpt lat="45.5662945" lon="10.5312065"><ele>132.0</ele><time>2026-04-25T16:28:44.739Z</time></trkpt><trkpt lat="45.5662331" lon="10.5312336"><ele>132.0</ele><time>2026-04-25T16:28:45.738Z</time></trkpt><trkpt lat="45.5661638" lon="10.5312613"><ele>132.0</ele><time>2026-04-25T16:28:46.74Z</time></trkpt><trkpt lat="45.5661059" lon="10.5312978"><ele>132.0</ele><time>2026-04-25T16:28:47.739Z</time></trkpt><trkpt lat="45.5660477" lon="10.5313335"><ele>132.0</ele><time>2026-04-25T16:28:48.739Z</time></trkpt><trkpt lat="45.5659851" lon="10.5313614"><ele>132.0</ele><time>2026-04-25T16:28:49.74Z</time></trkpt><trkpt lat="45.5659228" lon="10.5313944"><ele>132.0</ele><time>2026-04-25T16:28:50.74Z</time></trkpt><trkpt lat="45.5658608" lon="10.5314225"><ele>132.0</ele><time>2026-04-25T16:28:51.739Z</time></trkpt><trkpt lat="45.5657403" lon="10.53148"><ele>132.0</ele><time>2026-04-25T16:28:53.739Z</time></trkpt><trkpt lat="45.565676" lon="10.5315141"><ele>132.0</ele><time>2026-04-25T16:28:54.74Z</time></trkpt><trkpt lat="45.565615" lon="10.5315464"><ele>132.0</ele><time>2026-04-25T16:28:55.739Z</time></trkpt><trkpt lat="45.5655536" lon="10.5315737"><ele>132.0</ele><time>2026-04-25T16:28:56.74Z</time></trkpt><trkpt lat="45.5654927" lon="10.5316022"><ele>132.0</ele><time>2026-04-25T16:28:57.74Z</time></trkpt><trkpt lat="45.5653768" lon="10.5316769"><ele>132.0</ele><time>2026-04-25T16:28:59.739Z</time></trkpt><trkpt lat="45.5653181" lon="10.5317118"><ele>132.0</ele><time>2026-04-25T16:29:00.74Z</time></trkpt><trkpt lat="45.5652591" lon="10.5317453"><ele>132.0</ele><time>2026-04-25T16:29:01.74Z</time></trkpt><trkpt lat="45.5651424" lon="10.5318204"><ele>131.5</ele><time>2026-04-25T16:29:03.74Z</time></trkpt><trkpt lat="45.5650314" lon="10.5318533"><ele>131.0</ele><time>2026-04-25T16:29:05.74Z</time></trkpt><trkpt lat="45.5649201" lon="10.5318278"><ele>130.5</ele><time>2026-04-25T16:29:07.739Z</time></trkpt><trkpt lat="45.5648049" lon="10.5318643"><ele>130.0</ele><time>2026-04-25T16:29:09.739Z</time></trkpt><trkpt lat="45.564719" lon="10.5319753"><ele>130.0</ele><time>2026-04-25T16:29:11.74Z</time></trkpt><trkpt lat="45.564699" lon="10.5321281"><ele>130.0</ele><time>2026-04-25T16:29:13.738Z</time></trkpt><trkpt lat="45.5646318" lon="10.5322469"><ele>130.0</ele><time>2026-04-25T16:29:15.74Z</time></trkpt><trkpt lat="45.5645067" lon="10.532249"><ele>130.0</ele><time>2026-04-25T16:29:17.739Z</time></trkpt><trkpt lat="45.5644399" lon="10.5322448"><ele>130.0</ele><time>2026-04-25T16:29:18.74Z</time></trkpt><trkpt lat="45.5643755" lon="10.5322398"><ele>130.00000000000003</ele><time>2026-04-25T16:29:19.74Z</time></trkpt><trkpt lat="45.5643076" lon="10.5322289"><ele>130.0</ele><time>2026-04-25T16:29:20.74Z</time></trkpt><trkpt lat="45.5642439" lon="10.5322201"><ele>130.0</ele><time>2026-04-25T16:29:21.739Z</time></trkpt><trkpt lat="45.5641783" lon="10.5322159"><ele>130.0</ele><time>2026-04-25T16:29:22.739Z</time></trkpt><trkpt lat="45.5641122" lon="10.5322149"><ele>130.0</ele><time>2026-04-25T16:29:23.74Z</time></trkpt><trkpt lat="45.564048" lon="10.5322145"><ele>130.00000000000003</ele><time>2026-04-25T16:29:24.739Z</time></trkpt><trkpt lat="45.5639813" lon="10.5322212"><ele>130.0</ele><time>2026-04-25T16:29:25.739Z</time></trkpt><trkpt lat="45.5639165" lon="10.5322244"><ele>130.0</ele><time>2026-04-25T16:29:26.739Z</time></trkpt><trkpt lat="45.5638522" lon="10.5322341"><ele>130.0</ele><time>2026-04-25T16:29:27.739Z</time></trkpt><trkpt lat="45.5637894" lon="10.532258"><ele>130.0</ele><time>2026-04-25T16:29:28.74Z</time></trkpt><trkpt lat="45.5637335" lon="10.5323047"><ele>130.0</ele><time>2026-04-25T16:29:29.739Z</time></trkpt><trkpt lat="45.5636429" lon="10.5324318"><ele>130.0</ele><time>2026-04-25T16:29:31.74Z</time></trkpt><trkpt lat="45.5636018" lon="10.5325066"><ele>130.0</ele><time>2026-04-25T16:29:32.74Z</time></trkpt><trkpt lat="45.5635628" lon="10.5325791"><ele>129.57142857142858</ele><time>2026-04-25T16:29:33.74Z</time></trkpt><trkpt lat="45.5635249" lon="10.5326544"><ele>129.14285714285714</ele><time>2026-04-25T16:29:34.739Z</time></trkpt><trkpt lat="45.5634903" lon="10.5327325"><ele>128.71428571428572</ele><time>2026-04-25T16:29:35.738Z</time></trkpt><trkpt lat="45.5634528" lon="10.5328124"><ele>128.28571428571428</ele><time>2026-04-25T16:29:36.739Z</time></trkpt><trkpt lat="45.563416" lon="10.5328884"><ele>127.85714285714286</ele><time>2026-04-25T16:29:37.739Z</time></trkpt><trkpt lat="45.5633856" lon="10.5329705"><ele>127.42857142857143</ele><time>2026-04-25T16:29:38.738Z</time></trkpt><trkpt lat="45.5633528" lon="10.5330508"><ele>127.0</ele><time>2026-04-25T16:29:39.74Z</time></trkpt><trkpt lat="45.5633216" lon="10.5331289"><ele>127.0</ele><time>2026-04-25T16:29:40.738Z</time></trkpt><trkpt lat="45.5632905" lon="10.5332083"><ele>127.0</ele><time>2026-04-25T16:29:41.739Z</time></trkpt><trkpt lat="45.5632579" lon="10.533287"><ele>127.0</ele><time>2026-04-25T16:29:42.74Z</time></trkpt><trkpt lat="45.5632264" lon="10.5333708"><ele>127.0</ele><time>2026-04-25T16:29:43.74Z</time></trkpt><trkpt lat="45.5631929" lon="10.5334478"><ele>127.0</ele><time>2026-04-25T16:29:44.74Z</time></trkpt><trkpt lat="45.5631548" lon="10.5335243"><ele>127.0</ele><time>2026-04-25T16:29:45.741Z</time></trkpt><trkpt lat="45.5631185" lon="10.5336017"><ele>127.0</ele><time>2026-04-25T16:29:46.74Z</time></trkpt><trkpt lat="45.5630496" lon="10.5337545"><ele>126.83333333333334</ele><time>2026-04-25T16:29:48.741Z</time></trkpt><trkpt lat="45.5630135" lon="10.5338316"><ele>126.66666666666667</ele><time>2026-04-25T16:29:49.741Z</time></trkpt><trkpt lat="45.5629771" lon="10.5339081"><ele>126.5</ele><time>2026-04-25T16:29:50.741Z</time></trkpt><trkpt lat="45.562942" lon="10.5339887"><ele>126.33333333333334</ele><time>2026-04-25T16:29:51.739Z</time></trkpt><trkpt lat="45.5628804" lon="10.5341452"><ele>126.16666666666667</ele><time>2026-04-25T16:29:53.74Z</time></trkpt><trkpt lat="45.5628453" lon="10.5342218"><ele>126.0</ele><time>2026-04-25T16:29:54.741Z</time></trkpt><trkpt lat="45.5628078" lon="10.5343032"><ele>126.0</ele><time>2026-04-25T16:29:55.739Z</time></trkpt><trkpt lat="45.5627723" lon="10.534385"><ele>126.0</ele><time>2026-04-25T16:29:56.741Z</time></trkpt><trkpt lat="45.5627329" lon="10.534463"><ele>126.0</ele><time>2026-04-25T16:29:57.741Z</time></trkpt><trkpt lat="45.5626992" lon="10.5345405"><ele>126.0</ele><time>2026-04-25T16:29:58.739Z</time></trkpt><trkpt lat="45.5626327" lon="10.5346856"><ele>126.0</ele><time>2026-04-25T16:30:00.739Z</time></trkpt><trkpt lat="45.5626006" lon="10.5347677"><ele>126.0</ele><time>2026-04-25T16:30:01.74Z</time></trkpt><trkpt lat="45.5625389" lon="10.5349171"><ele>125.83333333333333</ele><time>2026-04-25T16:30:03.74Z</time></trkpt><trkpt lat="45.5625077" lon="10.5349987"><ele>125.66666666666666</ele><time>2026-04-25T16:30:04.74Z</time></trkpt><trkpt lat="45.5624734" lon="10.5350866"><ele>125.5</ele><time>2026-04-25T16:30:05.741Z</time></trkpt><trkpt lat="45.5624402" lon="10.5351725"><ele>125.33333333333333</ele><time>2026-04-25T16:30:06.739Z</time></trkpt><trkpt lat="45.5623793" lon="10.535318"><ele>125.16666666666666</ele><time>2026-04-25T16:30:08.741Z</time></trkpt><trkpt lat="45.5623267" lon="10.5354681"><ele>125.0</ele><time>2026-04-25T16:30:10.739Z</time></trkpt><trkpt lat="45.5622711" lon="10.5356188"><ele>124.66666666666666</ele><time>2026-04-25T16:30:12.741Z</time></trkpt><trkpt lat="45.5622427" lon="10.5357061"><ele>124.33333333333333</ele><time>2026-04-25T16:30:13.741Z</time></trkpt><trkpt lat="45.5621984" lon="10.535873"><ele>124.0</ele><time>2026-04-25T16:30:15.74Z</time></trkpt><trkpt lat="45.5621745" lon="10.5359589"><ele>123.66666666666666</ele><time>2026-04-25T16:30:16.741Z</time></trkpt><trkpt lat="45.5621509" lon="10.5360445"><ele>123.33333333333333</ele><time>2026-04-25T16:30:17.74Z</time></trkpt><trkpt lat="45.5621106" lon="10.5361989"><ele>123.0</ele><time>2026-04-25T16:30:19.74Z</time></trkpt><trkpt lat="45.5620929" lon="10.5362965"><ele>123.0</ele><time>2026-04-25T16:30:20.741Z</time></trkpt><trkpt lat="45.5620581" lon="10.5364536"><ele>123.00000000000001</ele><time>2026-04-25T16:30:22.74Z</time></trkpt><trkpt lat="45.5620318" lon="10.5366077"><ele>123.00000000000001</ele><time>2026-04-25T16:30:24.741Z</time></trkpt><trkpt lat="45.5619967" lon="10.5367463"><ele>123.0</ele><time>2026-04-25T16:30:26.741Z</time></trkpt><trkpt lat="45.5619585" lon="10.5369024"><ele>123.0</ele><time>2026-04-25T16:30:28.74Z</time></trkpt><trkpt lat="45.5619134" lon="10.5370798"><ele>123.0</ele><time>2026-04-25T16:30:30.741Z</time></trkpt><trkpt lat="45.5619031" lon="10.537182"><ele>123.00000000000001</ele><time>2026-04-25T16:30:31.741Z</time></trkpt><trkpt lat="45.5618879" lon="10.5372723"><ele>123.00000000000001</ele><time>2026-04-25T16:30:32.74Z</time></trkpt><trkpt lat="45.5618642" lon="10.5374543"><ele>123.0</ele><time>2026-04-25T16:30:34.741Z</time></trkpt><trkpt lat="45.561832" lon="10.5376241"><ele>123.0</ele><time>2026-04-25T16:30:36.74Z</time></trkpt><trkpt lat="45.5618111" lon="10.5378038"><ele>123.2</ele><time>2026-04-25T16:30:38.739Z</time></trkpt><trkpt lat="45.5618057" lon="10.5379661"><ele>123.4</ele><time>2026-04-25T16:30:40.741Z</time></trkpt><trkpt lat="45.561767" lon="10.5381352"><ele>123.60000000000001</ele><time>2026-04-25T16:30:42.74Z</time></trkpt><trkpt lat="45.5617431" lon="10.5382242"><ele>123.80000000000001</ele><time>2026-04-25T16:30:43.74Z</time></trkpt><trkpt lat="45.5617047" lon="10.5383177"><ele>124.0</ele><time>2026-04-25T16:30:44.741Z</time></trkpt><trkpt lat="45.5616753" lon="10.5384075"><ele>124.0</ele><time>2026-04-25T16:30:45.739Z</time></trkpt><trkpt lat="45.5616496" lon="10.5384902"><ele>124.00000000000001</ele><time>2026-04-25T16:30:46.741Z</time></trkpt><trkpt lat="45.5616248" lon="10.5385805"><ele>124.0</ele><time>2026-04-25T16:30:47.74Z</time></trkpt><trkpt lat="45.5616023" lon="10.5386666"><ele>124.0</ele><time>2026-04-25T16:30:48.74Z</time></trkpt><trkpt lat="45.5615769" lon="10.5387516"><ele>124.00000000000001</ele><time>2026-04-25T16:30:49.741Z</time></trkpt><trkpt lat="45.5615541" lon="10.5388369"><ele>124.0</ele><time>2026-04-25T16:30:50.741Z</time></trkpt><trkpt lat="45.561503" lon="10.5389997"><ele>124.0</ele><time>2026-04-25T16:30:52.74Z</time></trkpt><trkpt lat="45.5614752" lon="10.539085"><ele>124.00000000000001</ele><time>2026-04-25T16:30:53.74Z</time></trkpt><trkpt lat="45.561449" lon="10.5391727"><ele>124.0</ele><time>2026-04-25T16:30:54.741Z</time></trkpt><trkpt lat="45.5614247" lon="10.5392638"><ele>124.0</ele><time>2026-04-25T16:30:55.741Z</time></trkpt><trkpt lat="45.5613966" lon="10.5393513"><ele>124.0</ele><time>2026-04-25T16:30:56.741Z</time></trkpt><trkpt lat="45.5613687" lon="10.5394416"><ele>124.00000000000001</ele><time>2026-04-25T16:30:57.74Z</time></trkpt><trkpt lat="45.5613464" lon="10.5395396"><ele>124.0</ele><time>2026-04-25T16:30:58.74Z</time></trkpt><trkpt lat="45.5613298" lon="10.5396971"><ele>124.0</ele><time>2026-04-25T16:31:00.741Z</time></trkpt><trkpt lat="45.5613292" lon="10.5397967"><ele>124.0</ele><time>2026-04-25T16:31:01.74Z</time></trkpt><trkpt lat="45.5613421" lon="10.5399661"><ele>124.0</ele><time>2026-04-25T16:31:03.739Z</time></trkpt><trkpt lat="45.561352" lon="10.540136"><ele>124.0</ele><time>2026-04-25T16:31:05.739Z</time></trkpt><trkpt lat="45.5613773" lon="10.5403057"><ele>124.0</ele><time>2026-04-25T16:31:07.74Z</time></trkpt><trkpt lat="45.561413" lon="10.5404827"><ele>124.00000000000001</ele><time>2026-04-25T16:31:09.739Z</time></trkpt><trkpt lat="45.5614351" lon="10.540577"><ele>124.0</ele><time>2026-04-25T16:31:10.74Z</time></trkpt><trkpt lat="45.5614754" lon="10.5406945"><ele>124.0</ele><time>2026-04-25T16:31:11.741Z</time></trkpt><trkpt lat="45.5615041" lon="10.5408067"><ele>124.0</ele><time>2026-04-25T16:31:12.739Z</time></trkpt><trkpt lat="45.5615425" lon="10.5409131"><ele>124.00000000000001</ele><time>2026-04-25T16:31:13.74Z</time></trkpt><trkpt lat="45.5615993" lon="10.5410211"><ele>124.0</ele><time>2026-04-25T16:31:14.74Z</time></trkpt><trkpt lat="45.5616613" lon="10.5411216"><ele>122.83333333333334</ele><time>2026-04-25T16:31:15.741Z</time></trkpt><trkpt lat="45.5617242" lon="10.5412263"><ele>121.66666666666667</ele><time>2026-04-25T16:31:16.741Z</time></trkpt><trkpt lat="45.5617795" lon="10.5413134"><ele>120.5</ele><time>2026-04-25T16:31:17.741Z</time></trkpt><trkpt lat="45.5618363" lon="10.5414013"><ele>119.33333333333334</ele><time>2026-04-25T16:31:18.741Z</time></trkpt><trkpt lat="45.5618979" lon="10.5414812"><ele>118.16666666666667</ele><time>2026-04-25T16:31:19.739Z</time></trkpt><trkpt lat="45.5619645" lon="10.5415546"><ele>117.0</ele><time>2026-04-25T16:31:20.74Z</time></trkpt><trkpt lat="45.5620297" lon="10.5416208"><ele>117.83333333333333</ele><time>2026-04-25T16:31:21.74Z</time></trkpt><trkpt lat="45.5620911" lon="10.5416859"><ele>118.66666666666666</ele><time>2026-04-25T16:31:22.741Z</time></trkpt><trkpt lat="45.5621547" lon="10.5417417"><ele>119.5</ele><time>2026-04-25T16:31:23.74Z</time></trkpt><trkpt lat="45.5622186" lon="10.5418028"><ele>120.33333333333333</ele><time>2026-04-25T16:31:24.741Z</time></trkpt><trkpt lat="45.562276" lon="10.5418614"><ele>121.16666666666666</ele><time>2026-04-25T16:31:25.74Z</time></trkpt><trkpt lat="45.5623418" lon="10.5419229"><ele>122.0</ele><time>2026-04-25T16:31:26.741Z</time></trkpt><trkpt lat="45.5624023" lon="10.5419945"><ele>119.49999999999999</ele><time>2026-04-25T16:31:27.741Z</time></trkpt><trkpt lat="45.5624631" lon="10.5420661"><ele>117.0</ele><time>2026-04-25T16:31:28.741Z</time></trkpt><trkpt lat="45.5625249" lon="10.5421335"><ele>114.5</ele><time>2026-04-25T16:31:29.741Z</time></trkpt><trkpt lat="45.5625885" lon="10.5422016"><ele>112.0</ele><time>2026-04-25T16:31:30.74Z</time></trkpt><trkpt lat="45.5626569" lon="10.5422667"><ele>109.49999999999999</ele><time>2026-04-25T16:31:31.74Z</time></trkpt><trkpt lat="45.5627325" lon="10.5423226"><ele>107.0</ele><time>2026-04-25T16:31:32.74Z</time></trkpt><trkpt lat="45.5627987" lon="10.542364"><ele>106.6</ele><time>2026-04-25T16:31:33.741Z</time></trkpt><trkpt lat="45.5628955" lon="10.5424318"><ele>106.19999999999999</ele><time>2026-04-25T16:31:34.741Z</time></trkpt><trkpt lat="45.5629818" lon="10.5425006"><ele>105.8</ele><time>2026-04-25T16:31:35.739Z</time></trkpt><trkpt lat="45.5630469" lon="10.5426351"><ele>105.4</ele><time>2026-04-25T16:31:37.741Z</time></trkpt><trkpt lat="45.5631073" lon="10.5427477"><ele>105.0</ele><time>2026-04-25T16:31:38.74Z</time></trkpt><trkpt lat="45.5631527" lon="10.5428637"><ele>103.66666666666667</ele><time>2026-04-25T16:31:39.741Z</time></trkpt><trkpt lat="45.5632042" lon="10.5429883"><ele>102.33333333333334</ele><time>2026-04-25T16:31:40.74Z</time></trkpt><trkpt lat="45.5632478" lon="10.5430931"><ele>101.0</ele><time>2026-04-25T16:31:41.74Z</time></trkpt><trkpt lat="45.5632952" lon="10.5431875"><ele>99.66666666666667</ele><time>2026-04-25T16:31:42.74Z</time></trkpt><trkpt lat="45.5633551" lon="10.5432656"><ele>98.33333333333334</ele><time>2026-04-25T16:31:43.741Z</time></trkpt><trkpt lat="45.5634221" lon="10.5433387"><ele>97.0</ele><time>2026-04-25T16:31:44.739Z</time></trkpt><trkpt lat="45.5634952" lon="10.5434233"><ele>97.00000000000001</ele><time>2026-04-25T16:31:45.739Z</time></trkpt><trkpt lat="45.5635565" lon="10.5434944"><ele>97.0</ele><time>2026-04-25T16:31:46.741Z</time></trkpt><trkpt lat="45.5636147" lon="10.5435544"><ele>97.0</ele><time>2026-04-25T16:31:47.74Z</time></trkpt><trkpt lat="45.5636791" lon="10.5436328"><ele>97.0</ele><time>2026-04-25T16:31:48.74Z</time></trkpt><trkpt lat="45.5637396" lon="10.5438019"><ele>97.00000000000001</ele><time>2026-04-25T16:31:50.74Z</time></trkpt><trkpt lat="45.5637688" lon="10.5439029"><ele>97.0</ele><time>2026-04-25T16:31:51.741Z</time></trkpt><trkpt lat="45.5637771" lon="10.5440228"><ele>95.39999999999999</ele><time>2026-04-25T16:31:52.741Z</time></trkpt><trkpt lat="45.5637803" lon="10.5441256"><ele>93.8</ele><time>2026-04-25T16:31:53.741Z</time></trkpt><trkpt lat="45.563749" lon="10.5442529"><ele>92.2</ele><time>2026-04-25T16:31:55.741Z</time></trkpt><trkpt lat="45.5636884" lon="10.5443242"><ele>90.6</ele><time>2026-04-25T16:32:21.74Z</time></trkpt><trkpt lat="45.5636194" lon="10.5444129"><ele>89.0</ele><time>2026-04-25T16:32:23.74Z</time></trkpt><trkpt lat="45.563505" lon="10.5445082"><ele>89.0</ele><time>2026-04-25T16:32:25.74Z</time></trkpt><trkpt lat="45.5634383" lon="10.5445448"><ele>89.0</ele><time>2026-04-25T16:32:26.74Z</time></trkpt><trkpt lat="45.5633706" lon="10.544579"><ele>89.0</ele><time>2026-04-25T16:32:27.74Z</time></trkpt><trkpt lat="45.5632837" lon="10.544599"><ele>89.0</ele><time>2026-04-25T16:32:28.74Z</time></trkpt><trkpt lat="45.5632105" lon="10.5446304"><ele>89.0</ele><time>2026-04-25T16:32:29.739Z</time></trkpt><trkpt lat="45.5631427" lon="10.5446365"><ele>89.0</ele><time>2026-04-25T16:32:30.739Z</time></trkpt><trkpt lat="45.5630563" lon="10.5446548"><ele>87.83333333333334</ele><time>2026-04-25T16:32:31.741Z</time></trkpt><trkpt lat="45.5629795" lon="10.5446919"><ele>86.66666666666667</ele><time>2026-04-25T16:32:32.741Z</time></trkpt><trkpt lat="45.5629231" lon="10.5447752"><ele>85.5</ele><time>2026-04-25T16:32:33.741Z</time></trkpt><trkpt lat="45.5628873" lon="10.5448777"><ele>84.33333333333333</ele><time>2026-04-25T16:32:34.74Z</time></trkpt><trkpt lat="45.5628657" lon="10.5449795"><ele>83.16666666666666</ele><time>2026-04-25T16:32:35.74Z</time></trkpt><trkpt lat="45.562847" lon="10.5450981"><ele>82.0</ele><time>2026-04-25T16:32:36.74Z</time></trkpt><trkpt lat="45.5628438" lon="10.5452639"><ele>80.8</ele><time>2026-04-25T16:32:38.74Z</time></trkpt><trkpt lat="45.5628014" lon="10.5453989"><ele>79.6</ele><time>2026-04-25T16:32:40.739Z</time></trkpt><trkpt lat="45.5627283" lon="10.5455355"><ele>78.39999999999999</ele><time>2026-04-25T16:32:42.74Z</time></trkpt><trkpt lat="45.5626738" lon="10.5455912"><ele>77.19999999999999</ele><time>2026-04-25T16:32:43.739Z</time></trkpt><trkpt lat="45.5625839" lon="10.5457126"><ele>76.0</ele><time>2026-04-25T16:32:45.741Z</time></trkpt><trkpt lat="45.5625345" lon="10.5457728"><ele>76.0</ele><time>2026-04-25T16:32:46.74Z</time></trkpt><trkpt lat="45.5624841" lon="10.5458388"><ele>76.0</ele><time>2026-04-25T16:32:47.741Z</time></trkpt><trkpt lat="45.5624287" lon="10.5459031"><ele>76.0</ele><time>2026-04-25T16:32:48.74Z</time></trkpt><trkpt lat="45.562373" lon="10.5459767"><ele>76.0</ele><time>2026-04-25T16:32:49.741Z</time></trkpt><trkpt lat="45.5623207" lon="10.5460404"><ele>76.0</ele><time>2026-04-25T16:32:50.74Z</time></trkpt><trkpt lat="45.5622664" lon="10.5461102"><ele>76.0</ele><time>2026-04-25T16:32:51.74Z</time></trkpt><trkpt lat="45.562211" lon="10.5461804"><ele>76.0</ele><time>2026-04-25T16:32:52.74Z</time></trkpt><trkpt lat="45.5621549" lon="10.5462529"><ele>76.0</ele><time>2026-04-25T16:32:53.74Z</time></trkpt><trkpt lat="45.5621017" lon="10.5463208"><ele>76.0</ele><time>2026-04-25T16:32:54.741Z</time></trkpt><trkpt lat="45.5620471" lon="10.5463891"><ele>76.0</ele><time>2026-04-25T16:32:55.74Z</time></trkpt><trkpt lat="45.5619924" lon="10.5464581"><ele>76.0</ele><time>2026-04-25T16:32:56.741Z</time></trkpt><trkpt lat="45.5619361" lon="10.5465259"><ele>76.0</ele><time>2026-04-25T16:32:57.74Z</time></trkpt><trkpt lat="45.5618781" lon="10.5465986"><ele>76.0</ele><time>2026-04-25T16:32:58.739Z</time></trkpt><trkpt lat="45.561821" lon="10.5466711"><ele>76.0</ele><time>2026-04-25T16:32:59.74Z</time></trkpt><trkpt lat="45.5617656" lon="10.5467422"><ele>76.0</ele><time>2026-04-25T16:33:00.74Z</time></trkpt><trkpt lat="45.5617088" lon="10.5468165"><ele>76.0</ele><time>2026-04-25T16:33:01.741Z</time></trkpt><trkpt lat="45.5616517" lon="10.5468892"><ele>76.0</ele><time>2026-04-25T16:33:02.741Z</time></trkpt><trkpt lat="45.5615948" lon="10.5469576"><ele>76.0</ele><time>2026-04-25T16:33:03.741Z</time></trkpt><trkpt lat="45.5615384" lon="10.547028"><ele>76.0</ele><time>2026-04-25T16:33:04.74Z</time></trkpt><trkpt lat="45.5614817" lon="10.5470979"><ele>76.0</ele><time>2026-04-25T16:33:05.741Z</time></trkpt><trkpt lat="45.5614258" lon="10.5471642"><ele>75.85714285714285</ele><time>2026-04-25T16:33:06.741Z</time></trkpt><trkpt lat="45.5613701" lon="10.5472273"><ele>75.71428571428572</ele><time>2026-04-25T16:33:07.741Z</time></trkpt><trkpt lat="45.5613112" lon="10.5472865"><ele>75.57142857142857</ele><time>2026-04-25T16:33:08.739Z</time></trkpt><trkpt lat="45.5612541" lon="10.547347"><ele>75.42857142857142</ele><time>2026-04-25T16:33:09.741Z</time></trkpt><trkpt lat="45.561195" lon="10.5474031"><ele>75.28571428571428</ele><time>2026-04-25T16:33:10.741Z</time></trkpt><trkpt lat="45.5611406" lon="10.5474509"><ele>75.14285714285714</ele><time>2026-04-25T16:33:11.741Z</time></trkpt><trkpt lat="45.5610779" lon="10.5474877"><ele>75.0</ele><time>2026-04-25T16:33:12.74Z</time></trkpt><trkpt lat="45.5610176" lon="10.5475254"><ele>75.33333333333333</ele><time>2026-04-25T16:33:13.74Z</time></trkpt><trkpt lat="45.5609594" lon="10.5475607"><ele>75.66666666666667</ele><time>2026-04-25T16:33:14.74Z</time></trkpt><trkpt lat="45.5608997" lon="10.5475946"><ele>76.0</ele><time>2026-04-25T16:33:15.74Z</time></trkpt><trkpt lat="45.5607856" lon="10.5476605"><ele>76.33333333333334</ele><time>2026-04-25T16:33:17.741Z</time></trkpt><trkpt lat="45.5607224" lon="10.5476941"><ele>76.66666666666667</ele><time>2026-04-25T16:33:18.739Z</time></trkpt><trkpt lat="45.5606568" lon="10.5477271"><ele>77.0</ele><time>2026-04-25T16:33:19.741Z</time></trkpt><trkpt lat="45.5605984" lon="10.5477618"><ele>77.0</ele><time>2026-04-25T16:33:20.741Z</time></trkpt><trkpt lat="45.5605377" lon="10.5477963"><ele>77.0</ele><time>2026-04-25T16:33:21.741Z</time></trkpt><trkpt lat="45.5604754" lon="10.5478321"><ele>77.0</ele><time>2026-04-25T16:33:22.741Z</time></trkpt><trkpt lat="45.56036" lon="10.5479047"><ele>77.0</ele><time>2026-04-25T16:33:24.74Z</time></trkpt><trkpt lat="45.5602481" lon="10.5479647"><ele>77.0</ele><time>2026-04-25T16:33:26.739Z</time></trkpt><trkpt lat="45.5601931" lon="10.548014"><ele>77.0</ele><time>2026-04-25T16:33:27.74Z</time></trkpt><trkpt lat="45.5601041" lon="10.5481226"><ele>77.2</ele><time>2026-04-25T16:33:29.74Z</time></trkpt><trkpt lat="45.5600629" lon="10.5481918"><ele>77.4</ele><time>2026-04-25T16:33:30.741Z</time></trkpt><trkpt lat="45.5599836" lon="10.5483246"><ele>77.6</ele><time>2026-04-25T16:33:32.741Z</time></trkpt><trkpt lat="45.5598822" lon="10.5484354"><ele>77.8</ele><time>2026-04-25T16:33:34.74Z</time></trkpt><trkpt lat="45.5597915" lon="10.5485519"><ele>78.0</ele><time>2026-04-25T16:33:36.741Z</time></trkpt><trkpt lat="45.5597025" lon="10.5486671"><ele>77.8</ele><time>2026-04-25T16:33:38.74Z</time></trkpt><trkpt lat="45.5596108" lon="10.5487781"><ele>77.6</ele><time>2026-04-25T16:33:40.74Z</time></trkpt><trkpt lat="45.55961" lon="10.5489176"><ele>77.4</ele><time>2026-04-25T16:33:42.741Z</time></trkpt><trkpt lat="45.5597094" lon="10.5490104"><ele>77.2</ele><time>2026-04-25T16:33:44.74Z</time></trkpt><trkpt lat="45.5597736" lon="10.549044"><ele>77.0</ele><time>2026-04-25T16:33:45.739Z</time></trkpt><trkpt lat="45.5598344" lon="10.5490823"><ele>77.0</ele><time>2026-04-25T16:33:46.74Z</time></trkpt><trkpt lat="45.5598946" lon="10.5491216"><ele>77.0</ele><time>2026-04-25T16:33:47.74Z</time></trkpt><trkpt lat="45.5600101" lon="10.5491897"><ele>77.0</ele><time>2026-04-25T16:33:49.74Z</time></trkpt><trkpt lat="45.5600721" lon="10.5492142"><ele>77.0</ele><time>2026-04-25T16:33:50.741Z</time></trkpt><trkpt lat="45.5601794" lon="10.549267"><ele>77.0</ele><time>2026-04-25T16:33:52.739Z</time></trkpt><trkpt lat="45.5602842" lon="10.5493227"><ele>76.5</ele><time>2026-04-25T16:33:54.741Z</time></trkpt><trkpt lat="45.5603909" lon="10.5493651"><ele>76.0</ele><time>2026-04-25T16:33:56.74Z</time></trkpt><trkpt lat="45.560511" lon="10.5494171"><ele>75.5</ele><time>2026-04-25T16:33:58.741Z</time></trkpt><trkpt lat="45.5606174" lon="10.5494788"><ele>75.0</ele><time>2026-04-25T16:34:00.74Z</time></trkpt><trkpt lat="45.5607307" lon="10.5495238"><ele>74.57142857142857</ele><time>2026-04-25T16:34:02.739Z</time></trkpt><trkpt lat="45.5608033" lon="10.5495451"><ele>74.14285714285714</ele><time>2026-04-25T16:34:03.741Z</time></trkpt><trkpt lat="45.560865" lon="10.5495686"><ele>73.71428571428572</ele><time>2026-04-25T16:34:04.741Z</time></trkpt><trkpt lat="45.5609266" lon="10.5495965"><ele>73.28571428571428</ele><time>2026-04-25T16:34:05.741Z</time></trkpt><trkpt lat="45.5609877" lon="10.549627"><ele>72.85714285714286</ele><time>2026-04-25T16:34:06.741Z</time></trkpt><trkpt lat="45.5610507" lon="10.5496555"><ele>72.42857142857143</ele><time>2026-04-25T16:34:07.739Z</time></trkpt><trkpt lat="45.5611112" lon="10.5496817"><ele>72.0</ele><time>2026-04-25T16:34:08.739Z</time></trkpt><trkpt lat="45.5611743" lon="10.5497201"><ele>71.83333333333333</ele><time>2026-04-25T16:34:09.741Z</time></trkpt><trkpt lat="45.5612431" lon="10.5497497"><ele>71.66666666666667</ele><time>2026-04-25T16:34:10.741Z</time></trkpt><trkpt lat="45.5613032" lon="10.5497863"><ele>71.5</ele><time>2026-04-25T16:34:11.74Z</time></trkpt><trkpt lat="45.5613949" lon="10.5499123"><ele>71.33333333333334</ele><time>2026-04-25T16:34:13.739Z</time></trkpt><trkpt lat="45.5614518" lon="10.5499791"><ele>71.16666666666667</ele><time>2026-04-25T16:34:14.74Z</time></trkpt><trkpt lat="45.5615065" lon="10.5500591"><ele>71.0</ele><time>2026-04-25T16:34:15.74Z</time></trkpt><trkpt lat="45.5615526" lon="10.5501644"><ele>71.0</ele><time>2026-04-25T16:34:16.739Z</time></trkpt><trkpt lat="45.5615868" lon="10.5502621"><ele>71.0</ele><time>2026-04-25T16:34:17.741Z</time></trkpt><trkpt lat="45.5616045" lon="10.5504307"><ele>71.0</ele><time>2026-04-25T16:34:19.74Z</time></trkpt><trkpt lat="45.5616149" lon="10.5505292"><ele>71.0</ele><time>2026-04-25T16:34:20.741Z</time></trkpt><trkpt lat="45.5615875" lon="10.5506223"><ele>71.0</ele><time>2026-04-25T16:34:21.741Z</time></trkpt><trkpt lat="45.5615772" lon="10.5507143"><ele>71.0</ele><time>2026-04-25T16:34:22.739Z</time></trkpt><trkpt lat="45.5615344" lon="10.5508828"><ele>71.0</ele><time>2026-04-25T16:34:24.74Z</time></trkpt><trkpt lat="45.561506" lon="10.550966"><ele>71.0</ele><time>2026-04-25T16:34:25.741Z</time></trkpt><trkpt lat="45.5614509" lon="10.5511306"><ele>71.0</ele><time>2026-04-25T16:34:27.739Z</time></trkpt><trkpt lat="45.5614198" lon="10.5512135"><ele>71.0</ele><time>2026-04-25T16:34:28.741Z</time></trkpt><trkpt lat="45.5613945" lon="10.5513084"><ele>71.0</ele><time>2026-04-25T16:34:29.741Z</time></trkpt><trkpt lat="45.5613583" lon="10.5513862"><ele>71.0</ele><time>2026-04-25T16:34:30.741Z</time></trkpt><trkpt lat="45.561305" lon="10.55155"><ele>71.0</ele><time>2026-04-25T16:34:32.74Z</time></trkpt><trkpt lat="45.5612494" lon="10.5517113"><ele>71.0</ele><time>2026-04-25T16:34:34.74Z</time></trkpt><trkpt lat="45.5611821" lon="10.5518612"><ele>71.0</ele><time>2026-04-25T16:34:36.74Z</time></trkpt><trkpt lat="45.5611505" lon="10.5519397"><ele>71.0</ele><time>2026-04-25T16:34:37.741Z</time></trkpt><trkpt lat="45.5611212" lon="10.5520213"><ele>71.0</ele><time>2026-04-25T16:34:38.741Z</time></trkpt><trkpt lat="45.5610954" lon="10.5521338"><ele>71.0</ele><time>2026-04-25T16:34:40.741Z</time></trkpt><trkpt lat="45.5611418" lon="10.5521972"><ele>71.0</ele><time>2026-04-25T16:34:41.741Z</time></trkpt><trkpt lat="45.5612197" lon="10.55235"><ele>71.0</ele><time>2026-04-25T16:34:43.74Z</time></trkpt><trkpt lat="45.5612481" lon="10.5524402"><ele>71.0</ele><time>2026-04-25T16:34:44.74Z</time></trkpt><trkpt lat="45.5612731" lon="10.5525238"><ele>71.0</ele><time>2026-04-25T16:34:45.741Z</time></trkpt><trkpt lat="45.5613034" lon="10.552704"><ele>71.0</ele><time>2026-04-25T16:34:47.741Z</time></trkpt><trkpt lat="45.561316" lon="10.5527967"><ele>71.0</ele><time>2026-04-25T16:34:48.741Z</time></trkpt><trkpt lat="45.5612966" lon="10.552924"><ele>71.0</ele><time>2026-04-25T16:34:50.741Z</time></trkpt><trkpt lat="45.5612709" lon="10.5530576"><ele>71.0</ele><time>2026-04-25T16:34:51.74Z</time></trkpt><trkpt lat="45.5612466" lon="10.5532359"><ele>71.0</ele><time>2026-04-25T16:34:53.74Z</time></trkpt><trkpt lat="45.5612366" lon="10.5533329"><ele>71.0</ele><time>2026-04-25T16:34:54.74Z</time></trkpt><trkpt lat="45.5611892" lon="10.5534839"><ele>71.0</ele><time>2026-04-25T16:34:56.739Z</time></trkpt><trkpt lat="45.5611724" lon="10.5535722"><ele>71.0</ele><time>2026-04-25T16:34:57.741Z</time></trkpt><trkpt lat="45.561155" lon="10.5536632"><ele>71.0</ele><time>2026-04-25T16:34:58.74Z</time></trkpt><trkpt lat="45.5611266" lon="10.5537457"><ele>71.0</ele><time>2026-04-25T16:34:59.74Z</time></trkpt><trkpt lat="45.5610803" lon="10.5538195"><ele>71.0</ele><time>2026-04-25T16:35:00.739Z</time></trkpt><trkpt lat="45.5610217" lon="10.553956"><ele>70.6</ele><time>2026-04-25T16:35:02.741Z</time></trkpt><trkpt lat="45.5609823" lon="10.5540273"><ele>70.19999999999999</ele><time>2026-04-25T16:35:03.741Z</time></trkpt><trkpt lat="45.5609485" lon="10.5541805"><ele>69.80000000000001</ele><time>2026-04-25T16:35:05.74Z</time></trkpt><trkpt lat="45.5609182" lon="10.5543302"><ele>69.4</ele><time>2026-04-25T16:35:07.739Z</time></trkpt><trkpt lat="45.5608815" lon="10.5544609"><ele>69.0</ele><time>2026-04-25T16:35:09.74Z</time></trkpt><trkpt lat="45.5608443" lon="10.5546203"><ele>69.0</ele><time>2026-04-25T16:35:11.74Z</time></trkpt><trkpt lat="45.5608243" lon="10.5547107"><ele>69.0</ele><time>2026-04-25T16:35:12.739Z</time></trkpt><trkpt lat="45.5608181" lon="10.5548034"><ele>69.0</ele><time>2026-04-25T16:35:13.741Z</time></trkpt><trkpt lat="45.5608196" lon="10.5549712"><ele>69.0</ele><time>2026-04-25T16:35:15.741Z</time></trkpt><trkpt lat="45.5608337" lon="10.5551164"><ele>69.0</ele><time>2026-04-25T16:35:17.74Z</time></trkpt><trkpt lat="45.5607858" lon="10.5551937"><ele>69.0</ele><time>2026-04-25T16:35:21.74Z</time></trkpt><trkpt lat="45.5607209" lon="10.5551257"><ele>69.0</ele><time>2026-04-25T16:35:23.741Z</time></trkpt><trkpt lat="45.5606406" lon="10.5550635"><ele>69.0</ele><time>2026-04-25T16:35:25.74Z</time></trkpt><trkpt lat="45.560534" lon="10.5549691"><ele>69.0</ele><time>2026-04-25T16:35:27.74Z</time></trkpt><trkpt lat="45.5604677" lon="10.5548898"><ele>69.0</ele><time>2026-04-25T16:35:28.74Z</time></trkpt><trkpt lat="45.5604033" lon="10.554821"><ele>69.0</ele><time>2026-04-25T16:35:29.741Z</time></trkpt><trkpt lat="45.5603555" lon="10.5547616"><ele>69.0</ele><time>2026-04-25T16:35:30.739Z</time></trkpt><trkpt lat="45.5602987" lon="10.5547153"><ele>69.0</ele><time>2026-04-25T16:35:31.741Z</time></trkpt><trkpt lat="45.5602437" lon="10.554664"><ele>69.0</ele><time>2026-04-25T16:35:32.739Z</time></trkpt><trkpt lat="45.5601875" lon="10.5546209"><ele>69.0</ele><time>2026-04-25T16:35:33.741Z</time></trkpt><trkpt lat="45.5600961" lon="10.5545393"><ele>69.0</ele><time>2026-04-25T16:35:35.74Z</time></trkpt><trkpt lat="45.5600046" lon="10.5544533"><ele>69.0</ele><time>2026-04-25T16:35:37.741Z</time></trkpt><trkpt lat="45.5599311" lon="10.5543736"><ele>69.0</ele><time>2026-04-25T16:35:40.74Z</time></trkpt><trkpt lat="45.5598511" lon="10.5543147"><ele>69.0</ele><time>2026-04-25T16:35:42.74Z</time></trkpt><trkpt lat="45.5597816" lon="10.5543097"><ele>69.0</ele><time>2026-04-25T16:35:44.74Z</time></trkpt><trkpt lat="45.5597224" lon="10.5543702"><ele>69.0</ele><time>2026-04-25T16:35:46.739Z</time></trkpt><trkpt lat="45.5596724" lon="10.5545012"><ele>69.0</ele><time>2026-04-25T16:35:48.739Z</time></trkpt><trkpt lat="45.5596025" lon="10.5546542"><ele>69.0</ele><time>2026-04-25T16:35:50.741Z</time></trkpt><trkpt lat="45.5595695" lon="10.5547358"><ele>69.0</ele><time>2026-04-25T16:35:51.741Z</time></trkpt><trkpt lat="45.5595336" lon="10.5548231"><ele>69.0</ele><time>2026-04-25T16:35:52.741Z</time></trkpt><trkpt lat="45.5595088" lon="10.5549161"><ele>69.0</ele><time>2026-04-25T16:35:53.741Z</time></trkpt><trkpt lat="45.5594497" lon="10.555065"><ele>69.0</ele><time>2026-04-25T16:35:55.74Z</time></trkpt><trkpt lat="45.5593988" lon="10.5552254"><ele>69.0</ele><time>2026-04-25T16:35:57.74Z</time></trkpt><trkpt lat="45.5593541" lon="10.5553584"><ele>69.0</ele><time>2026-04-25T16:35:59.741Z</time></trkpt><trkpt lat="45.5593248" lon="10.5554582"><ele>69.0</ele><time>2026-04-25T16:36:01.74Z</time></trkpt><trkpt lat="45.5593606" lon="10.5555683"><ele>69.0</ele><time>2026-04-25T16:36:08.741Z</time></trkpt><trkpt lat="45.5593992" lon="10.5556475"><ele>69.0</ele><time>2026-04-25T16:36:09.74Z</time></trkpt><trkpt lat="45.5594688" lon="10.5557542"><ele>69.0</ele><time>2026-04-25T16:36:11.74Z</time></trkpt><trkpt lat="45.5595222" lon="10.5558069"><ele>69.0</ele><time>2026-04-25T16:36:12.74Z</time></trkpt><trkpt lat="45.5595759" lon="10.5558729"><ele>69.0</ele><time>2026-04-25T16:36:13.74Z</time></trkpt><trkpt lat="45.5596264" lon="10.5559297"><ele>69.0</ele><time>2026-04-25T16:36:14.74Z</time></trkpt><trkpt lat="45.5596767" lon="10.5559852"><ele>69.0</ele><time>2026-04-25T16:36:15.74Z</time></trkpt><trkpt lat="45.5597669" lon="10.5560887"><ele>69.0</ele><time>2026-04-25T16:36:17.739Z</time></trkpt><trkpt lat="45.5598523" lon="10.5561748"><ele>69.0</ele><time>2026-04-25T16:36:19.741Z</time></trkpt><trkpt lat="45.5599509" lon="10.5562604"><ele>69.0</ele><time>2026-04-25T16:36:21.74Z</time></trkpt><trkpt lat="45.5600091" lon="10.5563155"><ele>69.0</ele><time>2026-04-25T16:36:22.74Z</time></trkpt><trkpt lat="45.5600668" lon="10.5563699"><ele>69.0</ele><time>2026-04-25T16:36:23.74Z</time></trkpt><trkpt lat="45.5601227" lon="10.5564237"><ele>69.0</ele><time>2026-04-25T16:36:24.74Z</time></trkpt><trkpt lat="45.5601768" lon="10.5564788"><ele>69.0</ele><time>2026-04-25T16:36:25.739Z</time></trkpt><trkpt lat="45.5602327" lon="10.55653"><ele>69.0</ele><time>2026-04-25T16:36:26.74Z</time></trkpt><trkpt lat="45.5603413" lon="10.5566378"><ele>69.0</ele><time>2026-04-25T16:36:28.741Z</time></trkpt><trkpt lat="45.5603873" lon="10.5566995"><ele>68.66666666666667</ele><time>2026-04-25T16:36:29.741Z</time></trkpt><trkpt lat="45.5604339" lon="10.5567673"><ele>68.33333333333333</ele><time>2026-04-25T16:36:30.739Z</time></trkpt><trkpt lat="45.5604796" lon="10.5568319"><ele>68.0</ele><time>2026-04-25T16:36:31.739Z</time></trkpt><trkpt lat="45.560566" lon="10.5569516"><ele>67.66666666666666</ele><time>2026-04-25T16:36:33.74Z</time></trkpt><trkpt lat="45.5606148" lon="10.557013"><ele>67.33333333333333</ele><time>2026-04-25T16:36:34.739Z</time></trkpt><trkpt lat="45.5606607" lon="10.5570802"><ele>67.0</ele><time>2026-04-25T16:36:35.74Z</time></trkpt><trkpt lat="45.560691" lon="10.5572168"><ele>67.0</ele><time>2026-04-25T16:36:37.74Z</time></trkpt><trkpt lat="45.5606525" lon="10.5573545"><ele>67.0</ele><time>2026-04-25T16:36:39.741Z</time></trkpt><trkpt lat="45.5605939" lon="10.5574902"><ele>67.0</ele><time>2026-04-25T16:36:41.74Z</time></trkpt><trkpt lat="45.5605589" lon="10.5575664"><ele>67.0</ele><time>2026-04-25T16:36:42.74Z</time></trkpt><trkpt lat="45.5605241" lon="10.5576437"><ele>67.0</ele><time>2026-04-25T16:36:43.74Z</time></trkpt><trkpt lat="45.5604907" lon="10.5577205"><ele>67.0</ele><time>2026-04-25T16:36:44.741Z</time></trkpt><trkpt lat="45.5604573" lon="10.5578015"><ele>67.0</ele><time>2026-04-25T16:36:45.74Z</time></trkpt><trkpt lat="45.5604228" lon="10.5578799"><ele>67.0</ele><time>2026-04-25T16:36:46.74Z</time></trkpt><trkpt lat="45.5603913" lon="10.5579583"><ele>67.0</ele><time>2026-04-25T16:36:47.74Z</time></trkpt><trkpt lat="45.5603558" lon="10.5580349"><ele>67.0</ele><time>2026-04-25T16:36:48.74Z</time></trkpt><trkpt lat="45.5602856" lon="10.5581801"><ele>67.0</ele><time>2026-04-25T16:36:50.74Z</time></trkpt><trkpt lat="45.5602392" lon="10.5582519"><ele>67.0</ele><time>2026-04-25T16:36:51.74Z</time></trkpt><trkpt lat="45.5601756" lon="10.5584096"><ele>67.0</ele><time>2026-04-25T16:36:53.741Z</time></trkpt><trkpt lat="45.5601441" lon="10.5584879"><ele>67.0</ele><time>2026-04-25T16:36:54.741Z</time></trkpt><trkpt lat="45.560108" lon="10.5585632"><ele>67.0</ele><time>2026-04-25T16:36:55.741Z</time></trkpt><trkpt lat="45.5600568" lon="10.5587031"><ele>67.0</ele><time>2026-04-25T16:36:57.74Z</time></trkpt><trkpt lat="45.5600053" lon="10.5588415"><ele>67.0</ele><time>2026-04-25T16:36:59.741Z</time></trkpt><trkpt lat="45.5600343" lon="10.558948"><ele>67.0</ele><time>2026-04-25T16:37:03.739Z</time></trkpt><trkpt lat="45.5600607" lon="10.5590744"><ele>67.0</ele><time>2026-04-25T16:37:06.741Z</time></trkpt><trkpt lat="45.5600774" lon="10.5592335"><ele>67.0</ele><time>2026-04-25T16:37:08.74Z</time></trkpt><trkpt lat="45.5601145" lon="10.5593953"><ele>67.0</ele><time>2026-04-25T16:37:10.741Z</time></trkpt><trkpt lat="45.5601336" lon="10.5594852"><ele>67.0</ele><time>2026-04-25T16:37:11.74Z</time></trkpt><trkpt lat="45.560159" lon="10.55957"><ele>67.0</ele><time>2026-04-25T16:37:12.74Z</time></trkpt><trkpt lat="45.5601796" lon="10.559662"><ele>67.0</ele><time>2026-04-25T16:37:13.741Z</time></trkpt><trkpt lat="45.5602003" lon="10.5597562"><ele>67.14285714285714</ele><time>2026-04-25T16:37:14.741Z</time></trkpt><trkpt lat="45.5602195" lon="10.5598425"><ele>67.28571428571428</ele><time>2026-04-25T16:37:15.739Z</time></trkpt><trkpt lat="45.5602366" lon="10.5599328"><ele>67.42857142857142</ele><time>2026-04-25T16:37:16.741Z</time></trkpt><trkpt lat="45.5602599" lon="10.5600208"><ele>67.57142857142857</ele><time>2026-04-25T16:37:17.741Z</time></trkpt><trkpt lat="45.5603049" lon="10.5601882"><ele>67.71428571428571</ele><time>2026-04-25T16:37:19.741Z</time></trkpt><trkpt lat="45.5603305" lon="10.5602704"><ele>67.85714285714285</ele><time>2026-04-25T16:37:20.74Z</time></trkpt><trkpt lat="45.5603575" lon="10.5603542"><ele>68.0</ele><time>2026-04-25T16:37:21.741Z</time></trkpt><trkpt lat="45.5604168" lon="10.5605017"><ele>68.4</ele><time>2026-04-25T16:37:23.741Z</time></trkpt><trkpt lat="45.5604814" lon="10.5606527"><ele>68.8</ele><time>2026-04-25T16:37:25.739Z</time></trkpt><trkpt lat="45.5605391" lon="10.5607721"><ele>69.2</ele><time>2026-04-25T16:37:27.741Z</time></trkpt><trkpt lat="45.560599" lon="10.5608744"><ele>69.6</ele><time>2026-04-25T16:37:29.74Z</time></trkpt><trkpt lat="45.5606509" lon="10.5609585"><ele>70.0</ele><time>2026-04-25T16:37:31.741Z</time></trkpt><trkpt lat="45.5606907" lon="10.56104"><ele>70.0</ele><time>2026-04-25T16:37:33.741Z</time></trkpt><trkpt lat="45.5607234" lon="10.5611224"><ele>70.0</ele><time>2026-04-25T16:37:35.741Z</time></trkpt><trkpt lat="45.5607649" lon="10.5612004"><ele>70.0</ele><time>2026-04-25T16:37:37.74Z</time></trkpt><trkpt lat="45.5608059" lon="10.5612752"><ele>70.0</ele><time>2026-04-25T16:37:39.741Z</time></trkpt><trkpt lat="45.5608462" lon="10.5613506"><ele>70.0</ele><time>2026-04-25T16:37:41.739Z</time></trkpt><trkpt lat="45.5608776" lon="10.5614362"><ele>70.0</ele><time>2026-04-25T16:37:43.74Z</time></trkpt><trkpt lat="45.5609024" lon="10.5615292"><ele>70.0</ele><time>2026-04-25T16:37:45.74Z</time></trkpt><trkpt lat="45.5609287" lon="10.5616415"><ele>71.0</ele><time>2026-04-25T16:37:47.74Z</time></trkpt><trkpt lat="45.5609515" lon="10.5617406"><ele>72.0</ele><time>2026-04-25T16:37:49.741Z</time></trkpt><trkpt lat="45.5609704" lon="10.5618415"><ele>73.0</ele><time>2026-04-25T16:37:51.74Z</time></trkpt><trkpt lat="45.5610002" lon="10.5619675"><ele>74.0</ele><time>2026-04-25T16:37:53.74Z</time></trkpt><trkpt lat="45.5610509" lon="10.5620816"><ele>75.0</ele><time>2026-04-25T16:37:55.741Z</time></trkpt><trkpt lat="45.5611082" lon="10.5621813"><ele>76.0</ele><time>2026-04-25T16:37:57.741Z</time></trkpt><trkpt lat="45.5611769" lon="10.5622812"><ele>76.2</ele><time>2026-04-25T16:37:59.741Z</time></trkpt><trkpt lat="45.561243" lon="10.5623702"><ele>76.39999999999999</ele><time>2026-04-25T16:38:01.739Z</time></trkpt><trkpt lat="45.5613006" lon="10.5624847"><ele>76.6</ele><time>2026-04-25T16:38:03.741Z</time></trkpt><trkpt lat="45.561352" lon="10.5626103"><ele>76.8</ele><time>2026-04-25T16:38:05.74Z</time></trkpt><trkpt lat="45.5614011" lon="10.5627161"><ele>77.0</ele><time>2026-04-25T16:38:07.741Z</time></trkpt><trkpt lat="45.5614326" lon="10.5628118"><ele>77.33333333333334</ele><time>2026-04-25T16:38:09.74Z</time></trkpt><trkpt lat="45.5614789" lon="10.5629044"><ele>77.66666666666667</ele><time>2026-04-25T16:38:11.74Z</time></trkpt><trkpt lat="45.5615292" lon="10.5630138"><ele>78.0</ele><time>2026-04-25T16:38:13.741Z</time></trkpt><trkpt lat="45.5615848" lon="10.5631125"><ele>78.33333333333333</ele><time>2026-04-25T16:38:15.741Z</time></trkpt><trkpt lat="45.5616435" lon="10.5631911"><ele>78.66666666666666</ele><time>2026-04-25T16:38:17.741Z</time></trkpt><trkpt lat="45.5617288" lon="10.5632242"><ele>79.0</ele><time>2026-04-25T16:38:20.74Z</time></trkpt><trkpt lat="45.5617924" lon="10.563214"><ele>79.0</ele><time>2026-04-25T16:38:23.742Z</time></trkpt><trkpt lat="45.5618612" lon="10.56321"><ele>79.0</ele><time>2026-04-25T16:38:28.741Z</time></trkpt><trkpt lat="45.5619218" lon="10.5631575"><ele>79.0</ele><time>2026-04-25T16:38:33.742Z</time></trkpt><trkpt lat="45.5618644" lon="10.5631973"><ele>79.0</ele><time>2026-04-25T16:38:38.741Z</time></trkpt><trkpt lat="45.5618531" lon="10.5630813"><ele>79.0</ele><time>2026-04-25T16:40:38.741Z</time></trkpt><trkpt lat="45.5617841" lon="10.5629968"><ele>79.0</ele><time>2026-04-25T16:40:41.74Z</time></trkpt><trkpt lat="45.5617058" lon="10.5629305"><ele>79.0</ele><time>2026-04-25T16:40:44.742Z</time></trkpt><trkpt lat="45.5616627" lon="10.5628627"><ele>77.0</ele><time>2026-04-25T16:40:46.741Z</time></trkpt><trkpt lat="45.56161" lon="10.5627785"><ele>77.0</ele><time>2026-04-25T16:40:48.742Z</time></trkpt><trkpt lat="45.56156" lon="10.5627014"><ele>77.0</ele><time>2026-04-25T16:40:50.742Z</time></trkpt><trkpt lat="45.5615158" lon="10.5626312"><ele>77.0</ele><time>2026-04-25T16:40:52.742Z</time></trkpt></trkseg></trk></gpx>